<?xml version="1.0" encoding="UTF-8" standalone="no" ?>
<gpx xmlns="http://www.topografix.com/GPX/1/1" xmlns:xsi="http://www.w3.org/2001/XMLSchema-instance" xsi:schemaLocation="http://www.topografix.com/GPX/1/1 http://www.topografix.com/GPX/1/1/gpx.xsd" version="1.1" creator="VisuGPX - https://www.visugpx.com">
  <metadata>
    <name>Balade dans le massif d\'Aston</name>
    <desc><![CDATA[Balade dans le massif d\'Aston]]></desc>
  </metadata>
  <trk>
    <name><![CDATA[Rando-course]]></name>
    <cmt><![CDATA[Vers mille roques]]></cmt>
    <trkseg>
      <trkpt lat="42.71485" lon="1.66546">
        <ele>1045.0903320312</ele>
        <time>2014-06-14T07:02:41Z</time>
      </trkpt>
      <trkpt lat="42.71481" lon="1.66543">
        <ele>1047.4936523438</ele>
        <time>2014-06-14T07:02:45Z</time>
      </trkpt>
      <trkpt lat="42.71478" lon="1.66544">
        <ele>1047.9743652344</ele>
        <time>2014-06-14T07:02:48Z</time>
      </trkpt>
      <trkpt lat="42.71474" lon="1.66547">
        <ele>1049.8969726562</ele>
        <time>2014-06-14T07:02:51Z</time>
      </trkpt>
      <trkpt lat="42.7147" lon="1.66548">
        <ele>1050.8581542969</ele>
        <time>2014-06-14T07:02:55Z</time>
      </trkpt>
      <trkpt lat="42.7146" lon="1.66549">
        <ele>1048.4548339844</ele>
        <time>2014-06-14T07:03:02Z</time>
      </trkpt>
      <trkpt lat="42.71449" lon="1.66542">
        <ele>1047.9743652344</ele>
        <time>2014-06-14T07:03:10Z</time>
      </trkpt>
      <trkpt lat="42.71444" lon="1.6653">
        <ele>1047.4936523438</ele>
        <time>2014-06-14T07:03:18Z</time>
      </trkpt>
      <trkpt lat="42.7144" lon="1.66522">
        <ele>1045.5710449219</ele>
        <time>2014-06-14T07:03:23Z</time>
      </trkpt>
      <trkpt lat="42.71437" lon="1.66517">
        <ele>1047.0129394531</ele>
        <time>2014-06-14T07:03:28Z</time>
      </trkpt>
      <trkpt lat="42.71429" lon="1.66508">
        <ele>1048.4548339844</ele>
        <time>2014-06-14T07:03:36Z</time>
      </trkpt>
      <trkpt lat="42.71424" lon="1.66498">
        <ele>1050.3776855469</ele>
        <time>2014-06-14T07:03:43Z</time>
      </trkpt>
      <trkpt lat="42.71423" lon="1.66491">
        <ele>1052.3002929688</ele>
        <time>2014-06-14T07:03:48Z</time>
      </trkpt>
      <trkpt lat="42.71421" lon="1.66483">
        <ele>1052.7810058594</ele>
        <time>2014-06-14T07:03:53Z</time>
      </trkpt>
      <trkpt lat="42.7142" lon="1.6648">
        <ele>1052.7810058594</ele>
        <time>2014-06-14T07:03:55Z</time>
      </trkpt>
      <trkpt lat="42.71418" lon="1.66469">
        <ele>1054.2231445312</ele>
        <time>2014-06-14T07:04:02Z</time>
      </trkpt>
      <trkpt lat="42.71417" lon="1.66458">
        <ele>1054.7036132812</ele>
        <time>2014-06-14T07:04:08Z</time>
      </trkpt>
      <trkpt lat="42.71418" lon="1.66449">
        <ele>1054.2231445312</ele>
        <time>2014-06-14T07:04:13Z</time>
      </trkpt>
      <trkpt lat="42.71417" lon="1.66438">
        <ele>1053.26171875</ele>
        <time>2014-06-14T07:04:19Z</time>
      </trkpt>
      <trkpt lat="42.71417" lon="1.66427">
        <ele>1053.26171875</ele>
        <time>2014-06-14T07:04:25Z</time>
      </trkpt>
      <trkpt lat="42.71416" lon="1.66418">
        <ele>1054.7036132812</ele>
        <time>2014-06-14T07:04:31Z</time>
      </trkpt>
      <trkpt lat="42.71415" lon="1.66418">
        <ele>1055.6650390625</ele>
        <time>2014-06-14T07:04:32Z</time>
      </trkpt>
      <trkpt lat="42.71409" lon="1.66413">
        <ele>1059.0295410156</ele>
        <time>2014-06-14T07:04:39Z</time>
      </trkpt>
      <trkpt lat="42.71404" lon="1.66412">
        <ele>1061.9135742188</ele>
        <time>2014-06-14T07:04:45Z</time>
      </trkpt>
      <trkpt lat="42.71399" lon="1.6641">
        <ele>1064.3166503906</ele>
        <time>2014-06-14T07:04:51Z</time>
      </trkpt>
      <trkpt lat="42.71394" lon="1.66408">
        <ele>1068.6428222656</ele>
        <time>2014-06-14T07:04:58Z</time>
      </trkpt>
      <trkpt lat="42.71389" lon="1.66405">
        <ele>1069.6042480469</ele>
        <time>2014-06-14T07:05:03Z</time>
      </trkpt>
      <trkpt lat="42.71387" lon="1.66403">
        <ele>1070.0847167969</ele>
        <time>2014-06-14T07:05:05Z</time>
      </trkpt>
      <trkpt lat="42.71382" lon="1.66398">
        <ele>1070.0847167969</ele>
        <time>2014-06-14T07:05:11Z</time>
      </trkpt>
      <trkpt lat="42.71377" lon="1.66393">
        <ele>1070.0847167969</ele>
        <time>2014-06-14T07:05:17Z</time>
      </trkpt>
      <trkpt lat="42.71372" lon="1.66389">
        <ele>1069.1235351562</ele>
        <time>2014-06-14T07:05:22Z</time>
      </trkpt>
      <trkpt lat="42.71365" lon="1.66387">
        <ele>1070.5654296875</ele>
        <time>2014-06-14T07:05:29Z</time>
      </trkpt>
      <trkpt lat="42.71357" lon="1.66383">
        <ele>1071.5266113281</ele>
        <time>2014-06-14T07:05:38Z</time>
      </trkpt>
      <trkpt lat="42.71354" lon="1.66383">
        <ele>1073.4494628906</ele>
        <time>2014-06-14T07:05:43Z</time>
      </trkpt>
      <trkpt lat="42.71352" lon="1.66381">
        <ele>1077.2946777344</ele>
        <time>2014-06-14T07:05:49Z</time>
      </trkpt>
      <trkpt lat="42.7135" lon="1.6638">
        <ele>1076.8139648438</ele>
        <time>2014-06-14T07:05:58Z</time>
      </trkpt>
      <trkpt lat="42.71349" lon="1.6638">
        <ele>1079.6977539062</ele>
        <time>2014-06-14T07:06:06Z</time>
      </trkpt>
      <trkpt lat="42.71348" lon="1.66384">
        <ele>1083.0622558594</ele>
        <time>2014-06-14T07:06:20Z</time>
      </trkpt>
      <trkpt lat="42.71349" lon="1.66379">
        <ele>1076.3332519531</ele>
        <time>2014-06-14T07:06:48Z</time>
      </trkpt>
      <trkpt lat="42.71347" lon="1.66375">
        <ele>1075.8525390625</ele>
        <time>2014-06-14T07:06:53Z</time>
      </trkpt>
      <trkpt lat="42.71346" lon="1.66368">
        <ele>1072.96875</ele>
        <time>2014-06-14T07:06:58Z</time>
      </trkpt>
      <trkpt lat="42.71345" lon="1.66365">
        <ele>1071.5266113281</ele>
        <time>2014-06-14T07:07:06Z</time>
      </trkpt>
      <trkpt lat="42.71343" lon="1.66365">
        <ele>1080.1784667969</ele>
        <time>2014-06-14T07:07:16Z</time>
      </trkpt>
      <trkpt lat="42.71339" lon="1.66366">
        <ele>1079.6977539062</ele>
        <time>2014-06-14T07:07:23Z</time>
      </trkpt>
      <trkpt lat="42.71338" lon="1.66366">
        <ele>1085.9465332031</ele>
        <time>2014-06-14T07:07:34Z</time>
      </trkpt>
      <trkpt lat="42.71337" lon="1.66365">
        <ele>1095.0788574219</ele>
        <time>2014-06-14T07:07:46Z</time>
      </trkpt>
      <trkpt lat="42.71334" lon="1.66364">
        <ele>1093.15625</ele>
        <time>2014-06-14T07:07:51Z</time>
      </trkpt>
      <trkpt lat="42.71334" lon="1.66367">
        <ele>1096.5209960938</ele>
        <time>2014-06-14T07:07:54Z</time>
      </trkpt>
      <trkpt lat="42.71331" lon="1.66372">
        <ele>1107.576171875</ele>
        <time>2014-06-14T07:08:08Z</time>
      </trkpt>
      <trkpt lat="42.71331" lon="1.66364">
        <ele>1093.15625</ele>
        <time>2014-06-14T07:08:14Z</time>
      </trkpt>
      <trkpt lat="42.71331" lon="1.66352">
        <ele>1072.96875</ele>
        <time>2014-06-14T07:08:20Z</time>
      </trkpt>
      <trkpt lat="42.71331" lon="1.66342">
        <ele>1060.4714355469</ele>
        <time>2014-06-14T07:08:33Z</time>
      </trkpt>
      <trkpt lat="42.71331" lon="1.66339">
        <ele>1063.35546875</ele>
        <time>2014-06-14T07:08:44Z</time>
      </trkpt>
      <trkpt lat="42.71324" lon="1.66351">
        <ele>1074.4106445312</ele>
        <time>2014-06-14T07:09:04Z</time>
      </trkpt>
      <trkpt lat="42.71321" lon="1.66364">
        <ele>1097.4821777344</ele>
        <time>2014-06-14T07:09:11Z</time>
      </trkpt>
      <trkpt lat="42.71318" lon="1.66366">
        <ele>1095.5595703125</ele>
        <time>2014-06-14T07:09:19Z</time>
      </trkpt>
      <trkpt lat="42.71318" lon="1.66368">
        <ele>1089.3110351562</ele>
        <time>2014-06-14T07:09:24Z</time>
      </trkpt>
      <trkpt lat="42.71317" lon="1.66367">
        <ele>1083.54296875</ele>
        <time>2014-06-14T07:09:29Z</time>
      </trkpt>
      <trkpt lat="42.71318" lon="1.66368">
        <ele>1082.1010742188</ele>
        <time>2014-06-14T07:09:38Z</time>
      </trkpt>
      <trkpt lat="42.71318" lon="1.66372">
        <ele>1083.0622558594</ele>
        <time>2014-06-14T07:09:45Z</time>
      </trkpt>
      <trkpt lat="42.71315" lon="1.66375">
        <ele>1081.6203613281</ele>
        <time>2014-06-14T07:09:50Z</time>
      </trkpt>
      <trkpt lat="42.71315" lon="1.66375">
        <ele>1077.7751464844</ele>
        <time>2014-06-14T07:09:57Z</time>
      </trkpt>
      <trkpt lat="42.71313" lon="1.66374">
        <ele>1081.1398925781</ele>
        <time>2014-06-14T07:10:08Z</time>
      </trkpt>
      <trkpt lat="42.71313" lon="1.66374">
        <ele>1084.0239257812</ele>
        <time>2014-06-14T07:10:14Z</time>
      </trkpt>
      <trkpt lat="42.71313" lon="1.66372">
        <ele>1090.2724609375</ele>
        <time>2014-06-14T07:10:21Z</time>
      </trkpt>
      <trkpt lat="42.71313" lon="1.66366">
        <ele>1087.3884277344</ele>
        <time>2014-06-14T07:10:32Z</time>
      </trkpt>
      <trkpt lat="42.71313" lon="1.66363">
        <ele>1086.9077148438</ele>
        <time>2014-06-14T07:10:38Z</time>
      </trkpt>
      <trkpt lat="42.71313" lon="1.66357">
        <ele>1082.5817871094</ele>
        <time>2014-06-14T07:10:48Z</time>
      </trkpt>
      <trkpt lat="42.71313" lon="1.66355">
        <ele>1083.0622558594</ele>
        <time>2014-06-14T07:10:55Z</time>
      </trkpt>
      <trkpt lat="42.71312" lon="1.66355">
        <ele>1084.5046386719</ele>
        <time>2014-06-14T07:11:01Z</time>
      </trkpt>
      <trkpt lat="42.71312" lon="1.66353">
        <ele>1089.7917480469</ele>
        <time>2014-06-14T07:11:09Z</time>
      </trkpt>
      <trkpt lat="42.71312" lon="1.66356">
        <ele>1095.0788574219</ele>
        <time>2014-06-14T07:11:21Z</time>
      </trkpt>
      <trkpt lat="42.71312" lon="1.66354">
        <ele>1097.962890625</ele>
        <time>2014-06-14T07:11:35Z</time>
      </trkpt>
      <trkpt lat="42.71311" lon="1.66349">
        <ele>1095.5595703125</ele>
        <time>2014-06-14T07:11:41Z</time>
      </trkpt>
      <trkpt lat="42.7131" lon="1.66347">
        <ele>1097.0014648438</ele>
        <time>2014-06-14T07:11:48Z</time>
      </trkpt>
      <trkpt lat="42.7131" lon="1.66345">
        <ele>1096.0402832031</ele>
        <time>2014-06-14T07:11:54Z</time>
      </trkpt>
      <trkpt lat="42.71312" lon="1.6634">
        <ele>1094.5981445312</ele>
        <time>2014-06-14T07:12:18Z</time>
      </trkpt>
      <trkpt lat="42.71309" lon="1.66344">
        <ele>1093.6369628906</ele>
        <time>2014-06-14T07:12:34Z</time>
      </trkpt>
      <trkpt lat="42.7131" lon="1.66341">
        <ele>1095.5595703125</ele>
        <time>2014-06-14T07:12:42Z</time>
      </trkpt>
      <trkpt lat="42.71311" lon="1.66336">
        <ele>1095.0788574219</ele>
        <time>2014-06-14T07:12:49Z</time>
      </trkpt>
      <trkpt lat="42.71309" lon="1.66332">
        <ele>1096.0402832031</ele>
        <time>2014-06-14T07:12:56Z</time>
      </trkpt>
      <trkpt lat="42.71308" lon="1.66328">
        <ele>1097.4821777344</ele>
        <time>2014-06-14T07:13:02Z</time>
      </trkpt>
      <trkpt lat="42.71305" lon="1.66326">
        <ele>1106.1340332031</ele>
        <time>2014-06-14T07:13:12Z</time>
      </trkpt>
      <trkpt lat="42.71305" lon="1.66325">
        <ele>1109.0180664062</ele>
        <time>2014-06-14T07:13:18Z</time>
      </trkpt>
      <trkpt lat="42.71305" lon="1.6632">
        <ele>1110.9406738281</ele>
        <time>2014-06-14T07:13:27Z</time>
      </trkpt>
      <trkpt lat="42.71305" lon="1.6632">
        <ele>1109.4987792969</ele>
        <time>2014-06-14T07:13:36Z</time>
      </trkpt>
      <trkpt lat="42.71302" lon="1.66317">
        <ele>1109.0180664062</ele>
        <time>2014-06-14T07:13:42Z</time>
      </trkpt>
      <trkpt lat="42.71301" lon="1.66314">
        <ele>1108.5373535156</ele>
        <time>2014-06-14T07:13:50Z</time>
      </trkpt>
      <trkpt lat="42.71301" lon="1.66311">
        <ele>1107.576171875</ele>
        <time>2014-06-14T07:13:58Z</time>
      </trkpt>
      <trkpt lat="42.71301" lon="1.66308">
        <ele>1111.9020996094</ele>
        <time>2014-06-14T07:14:09Z</time>
      </trkpt>
      <trkpt lat="42.713" lon="1.6631">
        <ele>1117.189453125</ele>
        <time>2014-06-14T07:14:15Z</time>
      </trkpt>
      <trkpt lat="42.713" lon="1.66312">
        <ele>1122.4765625</ele>
        <time>2014-06-14T07:14:24Z</time>
      </trkpt>
      <trkpt lat="42.71301" lon="1.66312">
        <ele>1122.9572753906</ele>
        <time>2014-06-14T07:14:40Z</time>
      </trkpt>
      <trkpt lat="42.71299" lon="1.66311">
        <ele>1123.4379882812</ele>
        <time>2014-06-14T07:14:46Z</time>
      </trkpt>
      <trkpt lat="42.71297" lon="1.6631">
        <ele>1122.4765625</ele>
        <time>2014-06-14T07:14:54Z</time>
      </trkpt>
      <trkpt lat="42.71295" lon="1.6631">
        <ele>1122.9572753906</ele>
        <time>2014-06-14T07:14:58Z</time>
      </trkpt>
      <trkpt lat="42.71294" lon="1.6631">
        <ele>1125.3603515625</ele>
        <time>2014-06-14T07:15:03Z</time>
      </trkpt>
      <trkpt lat="42.71292" lon="1.66305">
        <ele>1123.9184570312</ele>
        <time>2014-06-14T07:15:09Z</time>
      </trkpt>
      <trkpt lat="42.7129" lon="1.66302">
        <ele>1120.0732421875</ele>
        <time>2014-06-14T07:15:15Z</time>
      </trkpt>
      <trkpt lat="42.71288" lon="1.66296">
        <ele>1117.669921875</ele>
        <time>2014-06-14T07:15:21Z</time>
      </trkpt>
      <trkpt lat="42.71286" lon="1.66292">
        <ele>1115.7473144531</ele>
        <time>2014-06-14T07:15:27Z</time>
      </trkpt>
      <trkpt lat="42.71283" lon="1.6629">
        <ele>1118.6313476562</ele>
        <time>2014-06-14T07:15:35Z</time>
      </trkpt>
      <trkpt lat="42.71281" lon="1.66291">
        <ele>1118.6313476562</ele>
        <time>2014-06-14T07:15:40Z</time>
      </trkpt>
      <trkpt lat="42.71276" lon="1.66292">
        <ele>1119.1120605469</ele>
        <time>2014-06-14T07:15:47Z</time>
      </trkpt>
      <trkpt lat="42.71273" lon="1.6629">
        <ele>1121.5151367188</ele>
        <time>2014-06-14T07:15:51Z</time>
      </trkpt>
      <trkpt lat="42.7127" lon="1.66288">
        <ele>1125.3603515625</ele>
        <time>2014-06-14T07:15:56Z</time>
      </trkpt>
      <trkpt lat="42.71268" lon="1.66283">
        <ele>1127.283203125</ele>
        <time>2014-06-14T07:16:01Z</time>
      </trkpt>
      <trkpt lat="42.71268" lon="1.6628">
        <ele>1127.763671875</ele>
        <time>2014-06-14T07:16:05Z</time>
      </trkpt>
      <trkpt lat="42.71268" lon="1.66275">
        <ele>1133.5317382812</ele>
        <time>2014-06-14T07:16:11Z</time>
      </trkpt>
      <trkpt lat="42.71267" lon="1.66271">
        <ele>1133.0510253906</ele>
        <time>2014-06-14T07:16:15Z</time>
      </trkpt>
      <trkpt lat="42.71264" lon="1.66268">
        <ele>1133.5317382812</ele>
        <time>2014-06-14T07:16:20Z</time>
      </trkpt>
      <trkpt lat="42.7126" lon="1.66265">
        <ele>1132.08984375</ele>
        <time>2014-06-14T07:16:26Z</time>
      </trkpt>
      <trkpt lat="42.7126" lon="1.6626">
        <ele>1131.6088867188</ele>
        <time>2014-06-14T07:16:32Z</time>
      </trkpt>
      <trkpt lat="42.71259" lon="1.66258">
        <ele>1132.5705566406</ele>
        <time>2014-06-14T07:16:37Z</time>
      </trkpt>
      <trkpt lat="42.71256" lon="1.66255">
        <ele>1132.5705566406</ele>
        <time>2014-06-14T07:16:43Z</time>
      </trkpt>
      <trkpt lat="42.71255" lon="1.66252">
        <ele>1134.4931640625</ele>
        <time>2014-06-14T07:16:48Z</time>
      </trkpt>
      <trkpt lat="42.71252" lon="1.6625">
        <ele>1138.3383789062</ele>
        <time>2014-06-14T07:16:54Z</time>
      </trkpt>
      <trkpt lat="42.71252" lon="1.66245">
        <ele>1138.3383789062</ele>
        <time>2014-06-14T07:16:59Z</time>
      </trkpt>
      <trkpt lat="42.71252" lon="1.66239">
        <ele>1140.2609863281</ele>
        <time>2014-06-14T07:17:05Z</time>
      </trkpt>
      <trkpt lat="42.71252" lon="1.66234">
        <ele>1141.7028808594</ele>
        <time>2014-06-14T07:17:10Z</time>
      </trkpt>
      <trkpt lat="42.71251" lon="1.66231">
        <ele>1142.18359375</ele>
        <time>2014-06-14T07:17:14Z</time>
      </trkpt>
      <trkpt lat="42.71246" lon="1.66224">
        <ele>1153.2387695312</ele>
        <time>2014-06-14T07:17:29Z</time>
      </trkpt>
      <trkpt lat="42.71244" lon="1.66219">
        <ele>1153.7194824219</ele>
        <time>2014-06-14T07:17:35Z</time>
      </trkpt>
      <trkpt lat="42.71242" lon="1.66214">
        <ele>1155.6420898438</ele>
        <time>2014-06-14T07:17:39Z</time>
      </trkpt>
      <trkpt lat="42.71241" lon="1.66209">
        <ele>1160.4484863281</ele>
        <time>2014-06-14T07:17:43Z</time>
      </trkpt>
      <trkpt lat="42.71239" lon="1.66205">
        <ele>1165.2553710938</ele>
        <time>2014-06-14T07:17:47Z</time>
      </trkpt>
      <trkpt lat="42.71238" lon="1.66201">
        <ele>1165.2553710938</ele>
        <time>2014-06-14T07:17:53Z</time>
      </trkpt>
      <trkpt lat="42.71235" lon="1.66195">
        <ele>1157.5646972656</ele>
        <time>2014-06-14T07:17:59Z</time>
      </trkpt>
      <trkpt lat="42.71235" lon="1.66192">
        <ele>1159.9677734375</ele>
        <time>2014-06-14T07:18:04Z</time>
      </trkpt>
      <trkpt lat="42.71233" lon="1.66189">
        <ele>1162.37109375</ele>
        <time>2014-06-14T07:18:11Z</time>
      </trkpt>
      <trkpt lat="42.71231" lon="1.66186">
        <ele>1162.37109375</ele>
        <time>2014-06-14T07:18:19Z</time>
      </trkpt>
      <trkpt lat="42.71231" lon="1.66182">
        <ele>1161.4099121094</ele>
        <time>2014-06-14T07:18:24Z</time>
      </trkpt>
      <trkpt lat="42.7123" lon="1.6618">
        <ele>1161.890625</ele>
        <time>2014-06-14T07:18:29Z</time>
      </trkpt>
      <trkpt lat="42.71229" lon="1.66176">
        <ele>1160.9291992188</ele>
        <time>2014-06-14T07:18:33Z</time>
      </trkpt>
      <trkpt lat="42.71228" lon="1.66172">
        <ele>1158.5258789062</ele>
        <time>2014-06-14T07:18:44Z</time>
      </trkpt>
      <trkpt lat="42.71225" lon="1.66172">
        <ele>1160.4484863281</ele>
        <time>2014-06-14T07:18:50Z</time>
      </trkpt>
      <trkpt lat="42.71224" lon="1.66169">
        <ele>1163.8129882812</ele>
        <time>2014-06-14T07:18:56Z</time>
      </trkpt>
      <trkpt lat="42.71224" lon="1.66165">
        <ele>1164.2939453125</ele>
        <time>2014-06-14T07:19:02Z</time>
      </trkpt>
      <trkpt lat="42.71223" lon="1.66161">
        <ele>1165.7360839844</ele>
        <time>2014-06-14T07:19:07Z</time>
      </trkpt>
      <trkpt lat="42.71223" lon="1.66158">
        <ele>1169.1005859375</ele>
        <time>2014-06-14T07:19:12Z</time>
      </trkpt>
      <trkpt lat="42.71221" lon="1.66153">
        <ele>1174.8684082031</ele>
        <time>2014-06-14T07:19:23Z</time>
      </trkpt>
      <trkpt lat="42.7122" lon="1.66151">
        <ele>1178.2329101562</ele>
        <time>2014-06-14T07:19:28Z</time>
      </trkpt>
      <trkpt lat="42.7122" lon="1.66147">
        <ele>1175.8295898438</ele>
        <time>2014-06-14T07:19:33Z</time>
      </trkpt>
      <trkpt lat="42.71217" lon="1.66143">
        <ele>1174.8684082031</ele>
        <time>2014-06-14T07:19:39Z</time>
      </trkpt>
      <trkpt lat="42.71215" lon="1.66139">
        <ele>1174.3876953125</ele>
        <time>2014-06-14T07:19:44Z</time>
      </trkpt>
      <trkpt lat="42.71216" lon="1.66135">
        <ele>1173.9069824219</ele>
        <time>2014-06-14T07:19:50Z</time>
      </trkpt>
      <trkpt lat="42.71214" lon="1.66132">
        <ele>1174.8684082031</ele>
        <time>2014-06-14T07:19:56Z</time>
      </trkpt>
      <trkpt lat="42.71214" lon="1.66128">
        <ele>1176.3103027344</ele>
        <time>2014-06-14T07:20:06Z</time>
      </trkpt>
      <trkpt lat="42.71213" lon="1.66124">
        <ele>1177.2717285156</ele>
        <time>2014-06-14T07:20:14Z</time>
      </trkpt>
      <trkpt lat="42.71212" lon="1.6612">
        <ele>1184.4816894531</ele>
        <time>2014-06-14T07:20:22Z</time>
      </trkpt>
      <trkpt lat="42.71211" lon="1.66118">
        <ele>1184.9624023438</ele>
        <time>2014-06-14T07:20:31Z</time>
      </trkpt>
      <trkpt lat="42.7121" lon="1.66116">
        <ele>1184.9624023438</ele>
        <time>2014-06-14T07:20:39Z</time>
      </trkpt>
      <trkpt lat="42.71208" lon="1.66113">
        <ele>1186.404296875</ele>
        <time>2014-06-14T07:20:46Z</time>
      </trkpt>
      <trkpt lat="42.71207" lon="1.66108">
        <ele>1190.7299804688</ele>
        <time>2014-06-14T07:20:53Z</time>
      </trkpt>
      <trkpt lat="42.71209" lon="1.66101">
        <ele>1188.3269042969</ele>
        <time>2014-06-14T07:21:00Z</time>
      </trkpt>
      <trkpt lat="42.71208" lon="1.66099">
        <ele>1193.1333007812</ele>
        <time>2014-06-14T07:21:06Z</time>
      </trkpt>
      <trkpt lat="42.71206" lon="1.66098">
        <ele>1192.6528320312</ele>
        <time>2014-06-14T07:21:14Z</time>
      </trkpt>
      <trkpt lat="42.71204" lon="1.66096">
        <ele>1192.6528320312</ele>
        <time>2014-06-14T07:21:18Z</time>
      </trkpt>
      <trkpt lat="42.71202" lon="1.66095">
        <ele>1194.0947265625</ele>
        <time>2014-06-14T07:21:22Z</time>
      </trkpt>
      <trkpt lat="42.71199" lon="1.66093">
        <ele>1193.1333007812</ele>
        <time>2014-06-14T07:21:27Z</time>
      </trkpt>
      <trkpt lat="42.71196" lon="1.66093">
        <ele>1194.5751953125</ele>
        <time>2014-06-14T07:21:31Z</time>
      </trkpt>
      <trkpt lat="42.71194" lon="1.66092">
        <ele>1196.017578125</ele>
        <time>2014-06-14T07:21:35Z</time>
      </trkpt>
      <trkpt lat="42.71193" lon="1.66089">
        <ele>1200.3435058594</ele>
        <time>2014-06-14T07:21:40Z</time>
      </trkpt>
      <trkpt lat="42.71196" lon="1.66086">
        <ele>1205.6306152344</ele>
        <time>2014-06-14T07:21:45Z</time>
      </trkpt>
      <trkpt lat="42.71198" lon="1.66084">
        <ele>1210.4370117188</ele>
        <time>2014-06-14T07:21:49Z</time>
      </trkpt>
      <trkpt lat="42.712" lon="1.66082">
        <ele>1217.1665039062</ele>
        <time>2014-06-14T07:21:55Z</time>
      </trkpt>
      <trkpt lat="42.71202" lon="1.66079">
        <ele>1222.4536132812</ele>
        <time>2014-06-14T07:22:02Z</time>
      </trkpt>
      <trkpt lat="42.712" lon="1.66077">
        <ele>1221.01171875</ele>
        <time>2014-06-14T07:22:07Z</time>
      </trkpt>
      <trkpt lat="42.71202" lon="1.66069">
        <ele>1217.1665039062</ele>
        <time>2014-06-14T07:22:17Z</time>
      </trkpt>
      <trkpt lat="42.71203" lon="1.66063">
        <ele>1212.3598632812</ele>
        <time>2014-06-14T07:22:24Z</time>
      </trkpt>
      <trkpt lat="42.71201" lon="1.66061">
        <ele>1211.3984375</ele>
        <time>2014-06-14T07:22:29Z</time>
      </trkpt>
      <trkpt lat="42.71199" lon="1.66057">
        <ele>1210.9177246094</ele>
        <time>2014-06-14T07:22:38Z</time>
      </trkpt>
      <trkpt lat="42.71196" lon="1.66055">
        <ele>1208.9951171875</ele>
        <time>2014-06-14T07:22:44Z</time>
      </trkpt>
      <trkpt lat="42.71195" lon="1.66052">
        <ele>1207.5532226562</ele>
        <time>2014-06-14T07:22:51Z</time>
      </trkpt>
      <trkpt lat="42.71194" lon="1.66048">
        <ele>1207.0725097656</ele>
        <time>2014-06-14T07:22:55Z</time>
      </trkpt>
      <trkpt lat="42.71193" lon="1.66044">
        <ele>1206.1110839844</ele>
        <time>2014-06-14T07:22:59Z</time>
      </trkpt>
      <trkpt lat="42.71191" lon="1.66041">
        <ele>1204.6691894531</ele>
        <time>2014-06-14T07:23:04Z</time>
      </trkpt>
      <trkpt lat="42.71188" lon="1.66041">
        <ele>1207.5532226562</ele>
        <time>2014-06-14T07:23:11Z</time>
      </trkpt>
      <trkpt lat="42.71185" lon="1.66041">
        <ele>1210.9177246094</ele>
        <time>2014-06-14T07:23:18Z</time>
      </trkpt>
      <trkpt lat="42.71183" lon="1.66041">
        <ele>1212.8405761719</ele>
        <time>2014-06-14T07:23:23Z</time>
      </trkpt>
      <trkpt lat="42.71183" lon="1.66039">
        <ele>1216.6857910156</ele>
        <time>2014-06-14T07:23:28Z</time>
      </trkpt>
      <trkpt lat="42.71185" lon="1.66037">
        <ele>1218.1276855469</ele>
        <time>2014-06-14T07:23:33Z</time>
      </trkpt>
      <trkpt lat="42.71185" lon="1.66035">
        <ele>1218.6083984375</ele>
        <time>2014-06-14T07:23:37Z</time>
      </trkpt>
      <trkpt lat="42.71183" lon="1.66032">
        <ele>1221.01171875</ele>
        <time>2014-06-14T07:23:44Z</time>
      </trkpt>
      <trkpt lat="42.71185" lon="1.66028">
        <ele>1224.3762207031</ele>
        <time>2014-06-14T07:23:52Z</time>
      </trkpt>
      <trkpt lat="42.71188" lon="1.66024">
        <ele>1224.3762207031</ele>
        <time>2014-06-14T07:23:56Z</time>
      </trkpt>
      <trkpt lat="42.71188" lon="1.6602">
        <ele>1221.9729003906</ele>
        <time>2014-06-14T07:24:00Z</time>
      </trkpt>
      <trkpt lat="42.71189" lon="1.66014">
        <ele>1221.4921875</ele>
        <time>2014-06-14T07:24:07Z</time>
      </trkpt>
      <trkpt lat="42.71192" lon="1.66012">
        <ele>1230.625</ele>
        <time>2014-06-14T07:24:13Z</time>
      </trkpt>
      <trkpt lat="42.71194" lon="1.66007">
        <ele>1227.7407226562</ele>
        <time>2014-06-14T07:24:18Z</time>
      </trkpt>
      <trkpt lat="42.71197" lon="1.66001">
        <ele>1224.3762207031</ele>
        <time>2014-06-14T07:24:25Z</time>
      </trkpt>
      <trkpt lat="42.71196" lon="1.66002">
        <ele>1229.1828613281</ele>
        <time>2014-06-14T07:24:30Z</time>
      </trkpt>
      <trkpt lat="42.71193" lon="1.66001">
        <ele>1230.1442871094</ele>
        <time>2014-06-14T07:24:37Z</time>
      </trkpt>
      <trkpt lat="42.71193" lon="1.66001">
        <ele>1232.0668945312</ele>
        <time>2014-06-14T07:24:45Z</time>
      </trkpt>
      <trkpt lat="42.71191" lon="1.66">
        <ele>1234.9509277344</ele>
        <time>2014-06-14T07:24:49Z</time>
      </trkpt>
      <trkpt lat="42.71192" lon="1.65999">
        <ele>1236.8732910156</ele>
        <time>2014-06-14T07:24:56Z</time>
      </trkpt>
      <trkpt lat="42.71193" lon="1.66">
        <ele>1240.2380371094</ele>
        <time>2014-06-14T07:24:58Z</time>
      </trkpt>
      <trkpt lat="42.71195" lon="1.66001">
        <ele>1239.7573242188</ele>
        <time>2014-06-14T07:25:09Z</time>
      </trkpt>
      <trkpt lat="42.71197" lon="1.65999">
        <ele>1242.6413574219</ele>
        <time>2014-06-14T07:25:15Z</time>
      </trkpt>
      <trkpt lat="42.71196" lon="1.65995">
        <ele>1243.1218261719</ele>
        <time>2014-06-14T07:25:21Z</time>
      </trkpt>
      <trkpt lat="42.71195" lon="1.65988">
        <ele>1244.5639648438</ele>
        <time>2014-06-14T07:25:33Z</time>
      </trkpt>
      <trkpt lat="42.71191" lon="1.65988">
        <ele>1241.6799316406</ele>
        <time>2014-06-14T07:25:38Z</time>
      </trkpt>
      <trkpt lat="42.71189" lon="1.65987">
        <ele>1243.1218261719</ele>
        <time>2014-06-14T07:25:44Z</time>
      </trkpt>
      <trkpt lat="42.71186" lon="1.65985">
        <ele>1243.6025390625</ele>
        <time>2014-06-14T07:25:49Z</time>
      </trkpt>
      <trkpt lat="42.71184" lon="1.65981">
        <ele>1243.1218261719</ele>
        <time>2014-06-14T07:25:54Z</time>
      </trkpt>
      <trkpt lat="42.71182" lon="1.6598">
        <ele>1244.5639648438</ele>
        <time>2014-06-14T07:25:58Z</time>
      </trkpt>
      <trkpt lat="42.7118" lon="1.6598">
        <ele>1246.0061035156</ele>
        <time>2014-06-14T07:26:02Z</time>
      </trkpt>
      <trkpt lat="42.71177" lon="1.65984">
        <ele>1247.4479980469</ele>
        <time>2014-06-14T07:26:07Z</time>
      </trkpt>
      <trkpt lat="42.71173" lon="1.65984">
        <ele>1247.9287109375</ele>
        <time>2014-06-14T07:26:11Z</time>
      </trkpt>
      <trkpt lat="42.71169" lon="1.65984">
        <ele>1249.3706054688</ele>
        <time>2014-06-14T07:26:15Z</time>
      </trkpt>
      <trkpt lat="42.71164" lon="1.6598">
        <ele>1249.3706054688</ele>
        <time>2014-06-14T07:26:21Z</time>
      </trkpt>
      <trkpt lat="42.71163" lon="1.65978">
        <ele>1248.4091796875</ele>
        <time>2014-06-14T07:26:23Z</time>
      </trkpt>
      <trkpt lat="42.71157" lon="1.65978">
        <ele>1252.2543945312</ele>
        <time>2014-06-14T07:26:30Z</time>
      </trkpt>
      <trkpt lat="42.71154" lon="1.65976">
        <ele>1248.8898925781</ele>
        <time>2014-06-14T07:26:35Z</time>
      </trkpt>
      <trkpt lat="42.71149" lon="1.65976">
        <ele>1251.2932128906</ele>
        <time>2014-06-14T07:26:42Z</time>
      </trkpt>
      <trkpt lat="42.71144" lon="1.65977">
        <ele>1251.7739257812</ele>
        <time>2014-06-14T07:26:48Z</time>
      </trkpt>
      <trkpt lat="42.71142" lon="1.65977">
        <ele>1252.2543945312</ele>
        <time>2014-06-14T07:26:55Z</time>
      </trkpt>
      <trkpt lat="42.71143" lon="1.65975">
        <ele>1251.2932128906</ele>
        <time>2014-06-14T07:27:03Z</time>
      </trkpt>
      <trkpt lat="42.71142" lon="1.65971">
        <ele>1249.8513183594</ele>
        <time>2014-06-14T07:27:08Z</time>
      </trkpt>
      <trkpt lat="42.71142" lon="1.6597">
        <ele>1252.2543945312</ele>
        <time>2014-06-14T07:27:12Z</time>
      </trkpt>
      <trkpt lat="42.71143" lon="1.65969">
        <ele>1253.6965332031</ele>
        <time>2014-06-14T07:27:18Z</time>
      </trkpt>
      <trkpt lat="42.71143" lon="1.65971">
        <ele>1258.0224609375</ele>
        <time>2014-06-14T07:27:25Z</time>
      </trkpt>
      <trkpt lat="42.71141" lon="1.65969">
        <ele>1258.0224609375</ele>
        <time>2014-06-14T07:27:30Z</time>
      </trkpt>
      <trkpt lat="42.7114" lon="1.65966">
        <ele>1258.9836425781</ele>
        <time>2014-06-14T07:27:36Z</time>
      </trkpt>
      <trkpt lat="42.71141" lon="1.65962">
        <ele>1260.9064941406</ele>
        <time>2014-06-14T07:27:44Z</time>
      </trkpt>
      <trkpt lat="42.7114" lon="1.65963">
        <ele>1263.7902832031</ele>
        <time>2014-06-14T07:27:49Z</time>
      </trkpt>
      <trkpt lat="42.71136" lon="1.65962">
        <ele>1265.7131347656</ele>
        <time>2014-06-14T07:27:54Z</time>
      </trkpt>
      <trkpt lat="42.71132" lon="1.65959">
        <ele>1268.5969238281</ele>
        <time>2014-06-14T07:28:03Z</time>
      </trkpt>
      <trkpt lat="42.71129" lon="1.65956">
        <ele>1270.51953125</ele>
        <time>2014-06-14T07:28:09Z</time>
      </trkpt>
      <trkpt lat="42.71126" lon="1.65953">
        <ele>1270.0388183594</ele>
        <time>2014-06-14T07:28:14Z</time>
      </trkpt>
      <trkpt lat="42.71128" lon="1.65947">
        <ele>1271.9614257812</ele>
        <time>2014-06-14T07:28:20Z</time>
      </trkpt>
      <trkpt lat="42.71129" lon="1.65943">
        <ele>1275.3259277344</ele>
        <time>2014-06-14T07:28:26Z</time>
      </trkpt>
      <trkpt lat="42.71128" lon="1.65941">
        <ele>1275.806640625</ele>
        <time>2014-06-14T07:28:31Z</time>
      </trkpt>
      <trkpt lat="42.71124" lon="1.65942">
        <ele>1275.3259277344</ele>
        <time>2014-06-14T07:28:37Z</time>
      </trkpt>
      <trkpt lat="42.71121" lon="1.65943">
        <ele>1275.3259277344</ele>
        <time>2014-06-14T07:28:41Z</time>
      </trkpt>
      <trkpt lat="42.71117" lon="1.65943">
        <ele>1274.3647460938</ele>
        <time>2014-06-14T07:28:47Z</time>
      </trkpt>
      <trkpt lat="42.71117" lon="1.65938">
        <ele>1274.3647460938</ele>
        <time>2014-06-14T07:28:52Z</time>
      </trkpt>
      <trkpt lat="42.71119" lon="1.65935">
        <ele>1278.2102050781</ele>
        <time>2014-06-14T07:28:58Z</time>
      </trkpt>
      <trkpt lat="42.7112" lon="1.65931">
        <ele>1280.6135253906</ele>
        <time>2014-06-14T07:29:03Z</time>
      </trkpt>
      <trkpt lat="42.7112" lon="1.65927">
        <ele>1280.1328125</ele>
        <time>2014-06-14T07:29:09Z</time>
      </trkpt>
      <trkpt lat="42.71117" lon="1.65928">
        <ele>1278.6909179688</ele>
        <time>2014-06-14T07:29:16Z</time>
      </trkpt>
      <trkpt lat="42.71114" lon="1.65927">
        <ele>1278.2102050781</ele>
        <time>2014-06-14T07:29:22Z</time>
      </trkpt>
      <trkpt lat="42.71111" lon="1.65927">
        <ele>1282.0554199219</ele>
        <time>2014-06-14T07:29:28Z</time>
      </trkpt>
      <trkpt lat="42.71108" lon="1.65924">
        <ele>1282.0554199219</ele>
        <time>2014-06-14T07:29:34Z</time>
      </trkpt>
      <trkpt lat="42.71105" lon="1.65923">
        <ele>1281.0942382812</ele>
        <time>2014-06-14T07:29:39Z</time>
      </trkpt>
      <trkpt lat="42.71103" lon="1.65924">
        <ele>1281.0942382812</ele>
        <time>2014-06-14T07:29:44Z</time>
      </trkpt>
      <trkpt lat="42.71101" lon="1.65924">
        <ele>1283.0166015625</ele>
        <time>2014-06-14T07:29:49Z</time>
      </trkpt>
      <trkpt lat="42.71099" lon="1.65925">
        <ele>1285.419921875</ele>
        <time>2014-06-14T07:29:56Z</time>
      </trkpt>
      <trkpt lat="42.71099" lon="1.65923">
        <ele>1288.3039550781</ele>
        <time>2014-06-14T07:30:01Z</time>
      </trkpt>
      <trkpt lat="42.711" lon="1.6592">
        <ele>1292.6301269531</ele>
        <time>2014-06-14T07:30:09Z</time>
      </trkpt>
      <trkpt lat="42.71098" lon="1.65921">
        <ele>1294.5524902344</ele>
        <time>2014-06-14T07:30:15Z</time>
      </trkpt>
      <trkpt lat="42.71096" lon="1.65921">
        <ele>1295.9946289062</ele>
        <time>2014-06-14T07:30:20Z</time>
      </trkpt>
      <trkpt lat="42.71095" lon="1.65914">
        <ele>1295.033203125</ele>
        <time>2014-06-14T07:30:27Z</time>
      </trkpt>
      <trkpt lat="42.71093" lon="1.65911">
        <ele>1300.3205566406</ele>
        <time>2014-06-14T07:30:35Z</time>
      </trkpt>
      <trkpt lat="42.71092" lon="1.65908">
        <ele>1299.3591308594</ele>
        <time>2014-06-14T07:30:43Z</time>
      </trkpt>
      <trkpt lat="42.7109" lon="1.65905">
        <ele>1303.6850585938</ele>
        <time>2014-06-14T07:30:57Z</time>
      </trkpt>
      <trkpt lat="42.71088" lon="1.65902">
        <ele>1300.8010253906</ele>
        <time>2014-06-14T07:31:04Z</time>
      </trkpt>
      <trkpt lat="42.71088" lon="1.65896">
        <ele>1297.9172363281</ele>
        <time>2014-06-14T07:31:11Z</time>
      </trkpt>
      <trkpt lat="42.71085" lon="1.65889">
        <ele>1295.5139160156</ele>
        <time>2014-06-14T07:31:19Z</time>
      </trkpt>
      <trkpt lat="42.71083" lon="1.65888">
        <ele>1296.4753417969</ele>
        <time>2014-06-14T07:31:25Z</time>
      </trkpt>
      <trkpt lat="42.71081" lon="1.65886">
        <ele>1297.4365234375</ele>
        <time>2014-06-14T07:31:31Z</time>
      </trkpt>
      <trkpt lat="42.7108" lon="1.65884">
        <ele>1301.7624511719</ele>
        <time>2014-06-14T07:31:37Z</time>
      </trkpt>
      <trkpt lat="42.71078" lon="1.65883">
        <ele>1302.7236328125</ele>
        <time>2014-06-14T07:31:45Z</time>
      </trkpt>
      <trkpt lat="42.71078" lon="1.65882">
        <ele>1306.5688476562</ele>
        <time>2014-06-14T07:31:54Z</time>
      </trkpt>
      <trkpt lat="42.71079" lon="1.65874">
        <ele>1310.4143066406</ele>
        <time>2014-06-14T07:32:06Z</time>
      </trkpt>
      <trkpt lat="42.71077" lon="1.65871">
        <ele>1311.8564453125</ele>
        <time>2014-06-14T07:32:12Z</time>
      </trkpt>
      <trkpt lat="42.71074" lon="1.65871">
        <ele>1322.4306640625</ele>
        <time>2014-06-14T07:32:25Z</time>
      </trkpt>
      <trkpt lat="42.71076" lon="1.65869">
        <ele>1324.8342285156</ele>
        <time>2014-06-14T07:32:31Z</time>
      </trkpt>
      <trkpt lat="42.71076" lon="1.65866">
        <ele>1327.2375488281</ele>
        <time>2014-06-14T07:32:43Z</time>
      </trkpt>
      <trkpt lat="42.71075" lon="1.65862">
        <ele>1326.7568359375</ele>
        <time>2014-06-14T07:32:48Z</time>
      </trkpt>
      <trkpt lat="42.71073" lon="1.65858">
        <ele>1326.2761230469</ele>
        <time>2014-06-14T07:32:55Z</time>
      </trkpt>
      <trkpt lat="42.7107" lon="1.65855">
        <ele>1328.1987304688</ele>
        <time>2014-06-14T07:33:04Z</time>
      </trkpt>
      <trkpt lat="42.71067" lon="1.6585">
        <ele>1329.1599121094</ele>
        <time>2014-06-14T07:33:10Z</time>
      </trkpt>
      <trkpt lat="42.71066" lon="1.65844">
        <ele>1328.1987304688</ele>
        <time>2014-06-14T07:33:16Z</time>
      </trkpt>
      <trkpt lat="42.71066" lon="1.65838">
        <ele>1329.1599121094</ele>
        <time>2014-06-14T07:33:24Z</time>
      </trkpt>
      <trkpt lat="42.71069" lon="1.65835">
        <ele>1331.0827636719</ele>
        <time>2014-06-14T07:33:30Z</time>
      </trkpt>
      <trkpt lat="42.71072" lon="1.65833">
        <ele>1329.640625</ele>
        <time>2014-06-14T07:33:38Z</time>
      </trkpt>
      <trkpt lat="42.71075" lon="1.65834">
        <ele>1329.1599121094</ele>
        <time>2014-06-14T07:33:44Z</time>
      </trkpt>
      <trkpt lat="42.7108" lon="1.6583">
        <ele>1329.640625</ele>
        <time>2014-06-14T07:33:54Z</time>
      </trkpt>
      <trkpt lat="42.71083" lon="1.65828">
        <ele>1327.2375488281</ele>
        <time>2014-06-14T07:34:02Z</time>
      </trkpt>
      <trkpt lat="42.71085" lon="1.65826">
        <ele>1333.0051269531</ele>
        <time>2014-06-14T07:34:09Z</time>
      </trkpt>
      <trkpt lat="42.71085" lon="1.65821">
        <ele>1335.8891601562</ele>
        <time>2014-06-14T07:34:16Z</time>
      </trkpt>
      <trkpt lat="42.71085" lon="1.65815">
        <ele>1334.447265625</ele>
        <time>2014-06-14T07:34:21Z</time>
      </trkpt>
      <trkpt lat="42.71085" lon="1.6581">
        <ele>1335.4084472656</ele>
        <time>2014-06-14T07:34:27Z</time>
      </trkpt>
      <trkpt lat="42.71085" lon="1.65804">
        <ele>1334.9279785156</ele>
        <time>2014-06-14T07:34:32Z</time>
      </trkpt>
      <trkpt lat="42.71085" lon="1.65799">
        <ele>1333.9665527344</ele>
        <time>2014-06-14T07:34:36Z</time>
      </trkpt>
      <trkpt lat="42.71087" lon="1.65791">
        <ele>1329.640625</ele>
        <time>2014-06-14T07:34:53Z</time>
      </trkpt>
      <trkpt lat="42.71088" lon="1.65787">
        <ele>1330.6020507812</ele>
        <time>2014-06-14T07:35:02Z</time>
      </trkpt>
      <trkpt lat="42.71088" lon="1.65782">
        <ele>1333.9665527344</ele>
        <time>2014-06-14T07:35:08Z</time>
      </trkpt>
      <trkpt lat="42.7109" lon="1.65777">
        <ele>1333.9665527344</ele>
        <time>2014-06-14T07:35:13Z</time>
      </trkpt>
      <trkpt lat="42.71088" lon="1.65773">
        <ele>1336.3698730469</ele>
        <time>2014-06-14T07:35:18Z</time>
      </trkpt>
      <trkpt lat="42.71085" lon="1.65768">
        <ele>1337.8117675781</ele>
        <time>2014-06-14T07:35:23Z</time>
      </trkpt>
      <trkpt lat="42.71085" lon="1.65765">
        <ele>1339.734375</ele>
        <time>2014-06-14T07:35:29Z</time>
      </trkpt>
      <trkpt lat="42.71084" lon="1.65758">
        <ele>1341.1765136719</ele>
        <time>2014-06-14T07:35:34Z</time>
      </trkpt>
      <trkpt lat="42.71084" lon="1.65757">
        <ele>1341.1765136719</ele>
        <time>2014-06-14T07:35:35Z</time>
      </trkpt>
      <trkpt lat="42.71082" lon="1.6575">
        <ele>1344.060546875</ele>
        <time>2014-06-14T07:35:41Z</time>
      </trkpt>
      <trkpt lat="42.71082" lon="1.65742">
        <ele>1342.6186523438</ele>
        <time>2014-06-14T07:35:47Z</time>
      </trkpt>
      <trkpt lat="42.71081" lon="1.65736">
        <ele>1345.0217285156</ele>
        <time>2014-06-14T07:35:54Z</time>
      </trkpt>
      <trkpt lat="42.71082" lon="1.6573">
        <ele>1344.541015625</ele>
        <time>2014-06-14T07:36:00Z</time>
      </trkpt>
      <trkpt lat="42.71083" lon="1.65721">
        <ele>1345.0217285156</ele>
        <time>2014-06-14T07:36:08Z</time>
      </trkpt>
      <trkpt lat="42.71082" lon="1.65719">
        <ele>1346.9443359375</ele>
        <time>2014-06-14T07:36:13Z</time>
      </trkpt>
      <trkpt lat="42.71083" lon="1.65712">
        <ele>1344.541015625</ele>
        <time>2014-06-14T07:36:20Z</time>
      </trkpt>
      <trkpt lat="42.71081" lon="1.65707">
        <ele>1342.6186523438</ele>
        <time>2014-06-14T07:36:27Z</time>
      </trkpt>
      <trkpt lat="42.71079" lon="1.657">
        <ele>1345.9831542969</ele>
        <time>2014-06-14T07:36:34Z</time>
      </trkpt>
      <trkpt lat="42.71078" lon="1.65696">
        <ele>1343.0991210938</ele>
        <time>2014-06-14T07:36:40Z</time>
      </trkpt>
      <trkpt lat="42.71079" lon="1.65691">
        <ele>1343.0991210938</ele>
        <time>2014-06-14T07:36:45Z</time>
      </trkpt>
      <trkpt lat="42.7108" lon="1.65688">
        <ele>1344.060546875</ele>
        <time>2014-06-14T07:36:51Z</time>
      </trkpt>
      <trkpt lat="42.7108" lon="1.65687">
        <ele>1344.541015625</ele>
        <time>2014-06-14T07:36:52Z</time>
      </trkpt>
      <trkpt lat="42.71083" lon="1.65683">
        <ele>1346.9443359375</ele>
        <time>2014-06-14T07:36:55Z</time>
      </trkpt>
      <trkpt lat="42.71083" lon="1.65677">
        <ele>1351.7509765625</ele>
        <time>2014-06-14T07:37:01Z</time>
      </trkpt>
      <trkpt lat="42.71082" lon="1.65673">
        <ele>1353.1928710938</ele>
        <time>2014-06-14T07:37:07Z</time>
      </trkpt>
      <trkpt lat="42.71081" lon="1.65664">
        <ele>1352.2314453125</ele>
        <time>2014-06-14T07:37:19Z</time>
      </trkpt>
      <trkpt lat="42.71079" lon="1.65661">
        <ele>1353.6735839844</ele>
        <time>2014-06-14T07:37:25Z</time>
      </trkpt>
      <trkpt lat="42.71079" lon="1.65658">
        <ele>1356.5576171875</ele>
        <time>2014-06-14T07:37:30Z</time>
      </trkpt>
      <trkpt lat="42.7108" lon="1.65654">
        <ele>1361.8449707031</ele>
        <time>2014-06-14T07:37:35Z</time>
      </trkpt>
      <trkpt lat="42.71082" lon="1.65651">
        <ele>1367.1320800781</ele>
        <time>2014-06-14T07:37:40Z</time>
      </trkpt>
      <trkpt lat="42.71084" lon="1.65648">
        <ele>1364.7287597656</ele>
        <time>2014-06-14T07:37:44Z</time>
      </trkpt>
      <trkpt lat="42.71087" lon="1.65646">
        <ele>1363.7673339844</ele>
        <time>2014-06-14T07:37:49Z</time>
      </trkpt>
      <trkpt lat="42.71092" lon="1.6564">
        <ele>1365.2094726562</ele>
        <time>2014-06-14T07:37:56Z</time>
      </trkpt>
      <trkpt lat="42.71091" lon="1.65637">
        <ele>1365.2094726562</ele>
        <time>2014-06-14T07:38:00Z</time>
      </trkpt>
      <trkpt lat="42.71093" lon="1.65633">
        <ele>1364.248046875</ele>
        <time>2014-06-14T07:38:05Z</time>
      </trkpt>
      <trkpt lat="42.71098" lon="1.65627">
        <ele>1363.7673339844</ele>
        <time>2014-06-14T07:38:11Z</time>
      </trkpt>
      <trkpt lat="42.711" lon="1.65623">
        <ele>1364.248046875</ele>
        <time>2014-06-14T07:38:16Z</time>
      </trkpt>
      <trkpt lat="42.71103" lon="1.65618">
        <ele>1365.2094726562</ele>
        <time>2014-06-14T07:38:21Z</time>
      </trkpt>
      <trkpt lat="42.71103" lon="1.65614">
        <ele>1363.7673339844</ele>
        <time>2014-06-14T07:38:28Z</time>
      </trkpt>
      <trkpt lat="42.71104" lon="1.6561">
        <ele>1362.3254394531</ele>
        <time>2014-06-14T07:38:34Z</time>
      </trkpt>
      <trkpt lat="42.71104" lon="1.65606">
        <ele>1361.8449707031</ele>
        <time>2014-06-14T07:38:39Z</time>
      </trkpt>
      <trkpt lat="42.71105" lon="1.65603">
        <ele>1362.8061523438</ele>
        <time>2014-06-14T07:38:44Z</time>
      </trkpt>
      <trkpt lat="42.71107" lon="1.65601">
        <ele>1365.2094726562</ele>
        <time>2014-06-14T07:38:50Z</time>
      </trkpt>
      <trkpt lat="42.71107" lon="1.65601">
        <ele>1368.5739746094</ele>
        <time>2014-06-14T07:38:55Z</time>
      </trkpt>
      <trkpt lat="42.71105" lon="1.65603">
        <ele>1371.4577636719</ele>
        <time>2014-06-14T07:39:02Z</time>
      </trkpt>
      <trkpt lat="42.71101" lon="1.65602">
        <ele>1371.4577636719</ele>
        <time>2014-06-14T07:39:08Z</time>
      </trkpt>
      <trkpt lat="42.71098" lon="1.65603">
        <ele>1374.3420410156</ele>
        <time>2014-06-14T07:39:15Z</time>
      </trkpt>
      <trkpt lat="42.71095" lon="1.65604">
        <ele>1374.8227539062</ele>
        <time>2014-06-14T07:39:20Z</time>
      </trkpt>
      <trkpt lat="42.71091" lon="1.65604">
        <ele>1375.7839355469</ele>
        <time>2014-06-14T07:39:26Z</time>
      </trkpt>
      <trkpt lat="42.71088" lon="1.65602">
        <ele>1376.2646484375</ele>
        <time>2014-06-14T07:39:32Z</time>
      </trkpt>
      <trkpt lat="42.71085" lon="1.656">
        <ele>1374.3420410156</ele>
        <time>2014-06-14T07:39:38Z</time>
      </trkpt>
      <trkpt lat="42.71085" lon="1.65595">
        <ele>1374.8227539062</ele>
        <time>2014-06-14T07:39:44Z</time>
      </trkpt>
      <trkpt lat="42.71089" lon="1.65592">
        <ele>1375.3032226562</ele>
        <time>2014-06-14T07:39:50Z</time>
      </trkpt>
      <trkpt lat="42.71091" lon="1.6559">
        <ele>1376.7453613281</ele>
        <time>2014-06-14T07:39:56Z</time>
      </trkpt>
      <trkpt lat="42.71092" lon="1.65586">
        <ele>1377.7065429688</ele>
        <time>2014-06-14T07:40:03Z</time>
      </trkpt>
      <trkpt lat="42.71092" lon="1.65582">
        <ele>1375.3032226562</ele>
        <time>2014-06-14T07:40:11Z</time>
      </trkpt>
      <trkpt lat="42.71091" lon="1.6558">
        <ele>1376.7453613281</ele>
        <time>2014-06-14T07:40:17Z</time>
      </trkpt>
      <trkpt lat="42.71089" lon="1.65578">
        <ele>1380.1098632812</ele>
        <time>2014-06-14T07:40:22Z</time>
      </trkpt>
      <trkpt lat="42.71088" lon="1.65576">
        <ele>1382.5131835938</ele>
        <time>2014-06-14T07:40:29Z</time>
      </trkpt>
      <trkpt lat="42.71086" lon="1.65572">
        <ele>1384.4357910156</ele>
        <time>2014-06-14T07:40:34Z</time>
      </trkpt>
      <trkpt lat="42.71086" lon="1.65569">
        <ele>1385.8776855469</ele>
        <time>2014-06-14T07:40:38Z</time>
      </trkpt>
      <trkpt lat="42.71085" lon="1.65567">
        <ele>1385.8776855469</ele>
        <time>2014-06-14T07:40:42Z</time>
      </trkpt>
      <trkpt lat="42.71084" lon="1.65564">
        <ele>1386.3583984375</ele>
        <time>2014-06-14T07:40:47Z</time>
      </trkpt>
      <trkpt lat="42.71082" lon="1.65562">
        <ele>1383.955078125</ele>
        <time>2014-06-14T07:40:52Z</time>
      </trkpt>
      <trkpt lat="42.7108" lon="1.6556">
        <ele>1380.1098632812</ele>
        <time>2014-06-14T07:40:57Z</time>
      </trkpt>
      <trkpt lat="42.71083" lon="1.65551">
        <ele>1381.5517578125</ele>
        <time>2014-06-14T07:41:07Z</time>
      </trkpt>
      <trkpt lat="42.71085" lon="1.65547">
        <ele>1387.3195800781</ele>
        <time>2014-06-14T07:41:15Z</time>
      </trkpt>
      <trkpt lat="42.71087" lon="1.65542">
        <ele>1391.1650390625</ele>
        <time>2014-06-14T07:41:21Z</time>
      </trkpt>
      <trkpt lat="42.7109" lon="1.65535">
        <ele>1392.6071777344</ele>
        <time>2014-06-14T07:41:30Z</time>
      </trkpt>
      <trkpt lat="42.71091" lon="1.65529">
        <ele>1392.1264648438</ele>
        <time>2014-06-14T07:41:37Z</time>
      </trkpt>
      <trkpt lat="42.71092" lon="1.65524">
        <ele>1393.0876464844</ele>
        <time>2014-06-14T07:41:42Z</time>
      </trkpt>
      <trkpt lat="42.71093" lon="1.65521">
        <ele>1392.6071777344</ele>
        <time>2014-06-14T07:41:47Z</time>
      </trkpt>
      <trkpt lat="42.71095" lon="1.65518">
        <ele>1396.4523925781</ele>
        <time>2014-06-14T07:41:53Z</time>
      </trkpt>
      <trkpt lat="42.71097" lon="1.65515">
        <ele>1398.85546875</ele>
        <time>2014-06-14T07:41:57Z</time>
      </trkpt>
      <trkpt lat="42.711" lon="1.6551">
        <ele>1399.3361816406</ele>
        <time>2014-06-14T07:42:02Z</time>
      </trkpt>
      <trkpt lat="42.71103" lon="1.65508">
        <ele>1401.2587890625</ele>
        <time>2014-06-14T07:42:08Z</time>
      </trkpt>
      <trkpt lat="42.71106" lon="1.65504">
        <ele>1401.7395019531</ele>
        <time>2014-06-14T07:42:13Z</time>
      </trkpt>
      <trkpt lat="42.7111" lon="1.65498">
        <ele>1401.7395019531</ele>
        <time>2014-06-14T07:42:19Z</time>
      </trkpt>
      <trkpt lat="42.71111" lon="1.65493">
        <ele>1404.1430664062</ele>
        <time>2014-06-14T07:42:25Z</time>
      </trkpt>
      <trkpt lat="42.71111" lon="1.6549">
        <ele>1403.1813964844</ele>
        <time>2014-06-14T07:42:30Z</time>
      </trkpt>
      <trkpt lat="42.71111" lon="1.65486">
        <ele>1405.1042480469</ele>
        <time>2014-06-14T07:42:36Z</time>
      </trkpt>
      <trkpt lat="42.71111" lon="1.65481">
        <ele>1402.7006835938</ele>
        <time>2014-06-14T07:42:42Z</time>
      </trkpt>
      <trkpt lat="42.71113" lon="1.65477">
        <ele>1400.7780761719</ele>
        <time>2014-06-14T07:42:46Z</time>
      </trkpt>
      <trkpt lat="42.71114" lon="1.65474">
        <ele>1402.7006835938</ele>
        <time>2014-06-14T07:42:51Z</time>
      </trkpt>
      <trkpt lat="42.71116" lon="1.65468">
        <ele>1401.7395019531</ele>
        <time>2014-06-14T07:42:57Z</time>
      </trkpt>
      <trkpt lat="42.71119" lon="1.65462">
        <ele>1400.7780761719</ele>
        <time>2014-06-14T07:43:03Z</time>
      </trkpt>
      <trkpt lat="42.71122" lon="1.65457">
        <ele>1403.1813964844</ele>
        <time>2014-06-14T07:43:10Z</time>
      </trkpt>
      <trkpt lat="42.71122" lon="1.65452">
        <ele>1407.5075683594</ele>
        <time>2014-06-14T07:43:16Z</time>
      </trkpt>
      <trkpt lat="42.71124" lon="1.65448">
        <ele>1407.5075683594</ele>
        <time>2014-06-14T07:43:21Z</time>
      </trkpt>
      <trkpt lat="42.71123" lon="1.65443">
        <ele>1410.8720703125</ele>
        <time>2014-06-14T07:43:28Z</time>
      </trkpt>
      <trkpt lat="42.71124" lon="1.65439">
        <ele>1410.8720703125</ele>
        <time>2014-06-14T07:43:33Z</time>
      </trkpt>
      <trkpt lat="42.71125" lon="1.65434">
        <ele>1409.4301757812</ele>
        <time>2014-06-14T07:43:39Z</time>
      </trkpt>
      <trkpt lat="42.71123" lon="1.6543">
        <ele>1410.3913574219</ele>
        <time>2014-06-14T07:43:45Z</time>
      </trkpt>
      <trkpt lat="42.71125" lon="1.65423">
        <ele>1409.9106445312</ele>
        <time>2014-06-14T07:43:52Z</time>
      </trkpt>
      <trkpt lat="42.71125" lon="1.65416">
        <ele>1408.9494628906</ele>
        <time>2014-06-14T07:43:58Z</time>
      </trkpt>
      <trkpt lat="42.71123" lon="1.65414">
        <ele>1413.275390625</ele>
        <time>2014-06-14T07:44:06Z</time>
      </trkpt>
      <trkpt lat="42.71124" lon="1.6541">
        <ele>1418.5625</ele>
        <time>2014-06-14T07:44:14Z</time>
      </trkpt>
      <trkpt lat="42.71124" lon="1.65404">
        <ele>1415.1979980469</ele>
        <time>2014-06-14T07:44:23Z</time>
      </trkpt>
      <trkpt lat="42.71125" lon="1.65398">
        <ele>1414.2365722656</ele>
        <time>2014-06-14T07:44:29Z</time>
      </trkpt>
      <trkpt lat="42.71125" lon="1.65392">
        <ele>1417.1206054688</ele>
        <time>2014-06-14T07:44:34Z</time>
      </trkpt>
      <trkpt lat="42.71125" lon="1.65388">
        <ele>1416.6398925781</ele>
        <time>2014-06-14T07:44:39Z</time>
      </trkpt>
      <trkpt lat="42.71125" lon="1.65383">
        <ele>1411.8334960938</ele>
        <time>2014-06-14T07:44:46Z</time>
      </trkpt>
      <trkpt lat="42.71127" lon="1.65378">
        <ele>1413.275390625</ele>
        <time>2014-06-14T07:44:51Z</time>
      </trkpt>
      <trkpt lat="42.71131" lon="1.65375">
        <ele>1416.1591796875</ele>
        <time>2014-06-14T07:44:57Z</time>
      </trkpt>
      <trkpt lat="42.71133" lon="1.6537">
        <ele>1418.5625</ele>
        <time>2014-06-14T07:45:03Z</time>
      </trkpt>
      <trkpt lat="42.71132" lon="1.65366">
        <ele>1418.5625</ele>
        <time>2014-06-14T07:45:08Z</time>
      </trkpt>
      <trkpt lat="42.71134" lon="1.65358">
        <ele>1420.4853515625</ele>
        <time>2014-06-14T07:45:17Z</time>
      </trkpt>
      <trkpt lat="42.71133" lon="1.65354">
        <ele>1420.9660644531</ele>
        <time>2014-06-14T07:45:22Z</time>
      </trkpt>
      <trkpt lat="42.71128" lon="1.65348">
        <ele>1421.4465332031</ele>
        <time>2014-06-14T07:45:27Z</time>
      </trkpt>
      <trkpt lat="42.71125" lon="1.65344">
        <ele>1418.5625</ele>
        <time>2014-06-14T07:45:31Z</time>
      </trkpt>
      <trkpt lat="42.71125" lon="1.65341">
        <ele>1418.0817871094</ele>
        <time>2014-06-14T07:45:33Z</time>
      </trkpt>
      <trkpt lat="42.7112" lon="1.65332">
        <ele>1419.5239257812</ele>
        <time>2014-06-14T07:45:40Z</time>
      </trkpt>
      <trkpt lat="42.7112" lon="1.65329">
        <ele>1420.9660644531</ele>
        <time>2014-06-14T07:45:43Z</time>
      </trkpt>
      <trkpt lat="42.71115" lon="1.65324">
        <ele>1424.8112792969</ele>
        <time>2014-06-14T07:45:50Z</time>
      </trkpt>
      <trkpt lat="42.71116" lon="1.6532">
        <ele>1423.8498535156</ele>
        <time>2014-06-14T07:45:56Z</time>
      </trkpt>
      <trkpt lat="42.71118" lon="1.65313">
        <ele>1425.7724609375</ele>
        <time>2014-06-14T07:46:02Z</time>
      </trkpt>
      <trkpt lat="42.71119" lon="1.65304">
        <ele>1415.1979980469</ele>
        <time>2014-06-14T07:46:13Z</time>
      </trkpt>
      <trkpt lat="42.7112" lon="1.65299">
        <ele>1421.9272460938</ele>
        <time>2014-06-14T07:46:25Z</time>
      </trkpt>
      <trkpt lat="42.7112" lon="1.65295">
        <ele>1425.2917480469</ele>
        <time>2014-06-14T07:46:30Z</time>
      </trkpt>
      <trkpt lat="42.71119" lon="1.65287">
        <ele>1425.2917480469</ele>
        <time>2014-06-14T07:46:36Z</time>
      </trkpt>
      <trkpt lat="42.71118" lon="1.65281">
        <ele>1423.3693847656</ele>
        <time>2014-06-14T07:46:41Z</time>
      </trkpt>
      <trkpt lat="42.71117" lon="1.65277">
        <ele>1423.3693847656</ele>
        <time>2014-06-14T07:46:44Z</time>
      </trkpt>
      <trkpt lat="42.71122" lon="1.65267">
        <ele>1421.4465332031</ele>
        <time>2014-06-14T07:46:51Z</time>
      </trkpt>
      <trkpt lat="42.71122" lon="1.65266">
        <ele>1421.9272460938</ele>
        <time>2014-06-14T07:46:52Z</time>
      </trkpt>
      <trkpt lat="42.71125" lon="1.65256">
        <ele>1425.2917480469</ele>
        <time>2014-06-14T07:46:59Z</time>
      </trkpt>
      <trkpt lat="42.71129" lon="1.65255">
        <ele>1427.2145996094</ele>
        <time>2014-06-14T07:47:06Z</time>
      </trkpt>
      <trkpt lat="42.71132" lon="1.65252">
        <ele>1427.2145996094</ele>
        <time>2014-06-14T07:47:11Z</time>
      </trkpt>
      <trkpt lat="42.71135" lon="1.65249">
        <ele>1427.6950683594</ele>
        <time>2014-06-14T07:47:15Z</time>
      </trkpt>
      <trkpt lat="42.71137" lon="1.65247">
        <ele>1430.5791015625</ele>
        <time>2014-06-14T07:47:22Z</time>
      </trkpt>
      <trkpt lat="42.7114" lon="1.65243">
        <ele>1431.0598144531</ele>
        <time>2014-06-14T07:47:27Z</time>
      </trkpt>
      <trkpt lat="42.71142" lon="1.6524">
        <ele>1432.0209960938</ele>
        <time>2014-06-14T07:47:32Z</time>
      </trkpt>
      <trkpt lat="42.71143" lon="1.65236">
        <ele>1431.5402832031</ele>
        <time>2014-06-14T07:47:37Z</time>
      </trkpt>
      <trkpt lat="42.71147" lon="1.6523">
        <ele>1428.6564941406</ele>
        <time>2014-06-14T07:47:44Z</time>
      </trkpt>
      <trkpt lat="42.71148" lon="1.65225">
        <ele>1429.6176757812</ele>
        <time>2014-06-14T07:47:48Z</time>
      </trkpt>
      <trkpt lat="42.71151" lon="1.65219">
        <ele>1428.17578125</ele>
        <time>2014-06-14T07:47:55Z</time>
      </trkpt>
      <trkpt lat="42.71152" lon="1.65213">
        <ele>1427.2145996094</ele>
        <time>2014-06-14T07:47:59Z</time>
      </trkpt>
      <trkpt lat="42.71155" lon="1.65209">
        <ele>1429.1369628906</ele>
        <time>2014-06-14T07:48:05Z</time>
      </trkpt>
      <trkpt lat="42.71157" lon="1.65207">
        <ele>1433.462890625</ele>
        <time>2014-06-14T07:48:09Z</time>
      </trkpt>
      <trkpt lat="42.71161" lon="1.65204">
        <ele>1436.8276367188</ele>
        <time>2014-06-14T07:48:15Z</time>
      </trkpt>
      <trkpt lat="42.71164" lon="1.65206">
        <ele>1437.7890625</ele>
        <time>2014-06-14T07:48:20Z</time>
      </trkpt>
      <trkpt lat="42.71169" lon="1.65208">
        <ele>1438.7504882812</ele>
        <time>2014-06-14T07:48:27Z</time>
      </trkpt>
      <trkpt lat="42.71175" lon="1.6521">
        <ele>1440.6728515625</ele>
        <time>2014-06-14T07:48:34Z</time>
      </trkpt>
      <trkpt lat="42.71181" lon="1.65209">
        <ele>1441.1535644531</ele>
        <time>2014-06-14T07:48:41Z</time>
      </trkpt>
      <trkpt lat="42.71185" lon="1.65207">
        <ele>1441.1535644531</ele>
        <time>2014-06-14T07:48:47Z</time>
      </trkpt>
      <trkpt lat="42.71191" lon="1.65202">
        <ele>1441.6342773438</ele>
        <time>2014-06-14T07:48:55Z</time>
      </trkpt>
      <trkpt lat="42.71195" lon="1.65199">
        <ele>1443.076171875</ele>
        <time>2014-06-14T07:49:01Z</time>
      </trkpt>
      <trkpt lat="42.71198" lon="1.65197">
        <ele>1443.076171875</ele>
        <time>2014-06-14T07:49:05Z</time>
      </trkpt>
      <trkpt lat="42.712" lon="1.65193">
        <ele>1443.5568847656</ele>
        <time>2014-06-14T07:49:10Z</time>
      </trkpt>
      <trkpt lat="42.71204" lon="1.65189">
        <ele>1444.0375976562</ele>
        <time>2014-06-14T07:49:17Z</time>
      </trkpt>
      <trkpt lat="42.71207" lon="1.65185">
        <ele>1444.0375976562</ele>
        <time>2014-06-14T07:49:22Z</time>
      </trkpt>
      <trkpt lat="42.71207" lon="1.65182">
        <ele>1441.1535644531</ele>
        <time>2014-06-14T07:49:27Z</time>
      </trkpt>
      <trkpt lat="42.71206" lon="1.65183">
        <ele>1441.1535644531</ele>
        <time>2014-06-14T07:49:33Z</time>
      </trkpt>
      <trkpt lat="42.71206" lon="1.6518">
        <ele>1440.6728515625</ele>
        <time>2014-06-14T07:49:38Z</time>
      </trkpt>
      <trkpt lat="42.71208" lon="1.65175">
        <ele>1441.6342773438</ele>
        <time>2014-06-14T07:49:43Z</time>
      </trkpt>
      <trkpt lat="42.71209" lon="1.65168">
        <ele>1444.5180664062</ele>
        <time>2014-06-14T07:49:49Z</time>
      </trkpt>
      <trkpt lat="42.71214" lon="1.65164">
        <ele>1446.9213867188</ele>
        <time>2014-06-14T07:49:56Z</time>
      </trkpt>
      <trkpt lat="42.71218" lon="1.65158">
        <ele>1446.4409179688</ele>
        <time>2014-06-14T07:50:02Z</time>
      </trkpt>
      <trkpt lat="42.71222" lon="1.65152">
        <ele>1445.4794921875</ele>
        <time>2014-06-14T07:50:08Z</time>
      </trkpt>
      <trkpt lat="42.71227" lon="1.65146">
        <ele>1444.0375976562</ele>
        <time>2014-06-14T07:50:15Z</time>
      </trkpt>
      <trkpt lat="42.71228" lon="1.65143">
        <ele>1444.0375976562</ele>
        <time>2014-06-14T07:50:20Z</time>
      </trkpt>
      <trkpt lat="42.71233" lon="1.65137">
        <ele>1444.5180664062</ele>
        <time>2014-06-14T07:50:27Z</time>
      </trkpt>
      <trkpt lat="42.71236" lon="1.65131">
        <ele>1446.4409179688</ele>
        <time>2014-06-14T07:50:32Z</time>
      </trkpt>
      <trkpt lat="42.71239" lon="1.65126">
        <ele>1447.4020996094</ele>
        <time>2014-06-14T07:50:37Z</time>
      </trkpt>
      <trkpt lat="42.71244" lon="1.65121">
        <ele>1451.2473144531</ele>
        <time>2014-06-14T07:50:43Z</time>
      </trkpt>
      <trkpt lat="42.71242" lon="1.65115">
        <ele>1455.0927734375</ele>
        <time>2014-06-14T07:50:50Z</time>
      </trkpt>
      <trkpt lat="42.71244" lon="1.65112">
        <ele>1455.5734863281</ele>
        <time>2014-06-14T07:50:56Z</time>
      </trkpt>
      <trkpt lat="42.71247" lon="1.6511">
        <ele>1457.9768066406</ele>
        <time>2014-06-14T07:51:00Z</time>
      </trkpt>
      <trkpt lat="42.71247" lon="1.65106">
        <ele>1456.0539550781</ele>
        <time>2014-06-14T07:51:04Z</time>
      </trkpt>
      <trkpt lat="42.71247" lon="1.65099">
        <ele>1452.2087402344</ele>
        <time>2014-06-14T07:51:10Z</time>
      </trkpt>
      <trkpt lat="42.71248" lon="1.65095">
        <ele>1451.7280273438</ele>
        <time>2014-06-14T07:51:14Z</time>
      </trkpt>
      <trkpt lat="42.71247" lon="1.6509">
        <ele>1454.1315917969</ele>
        <time>2014-06-14T07:51:18Z</time>
      </trkpt>
      <trkpt lat="42.71248" lon="1.65083">
        <ele>1458.9379882812</ele>
        <time>2014-06-14T07:51:25Z</time>
      </trkpt>
      <trkpt lat="42.7125" lon="1.65079">
        <ele>1457.9768066406</ele>
        <time>2014-06-14T07:51:32Z</time>
      </trkpt>
      <trkpt lat="42.71251" lon="1.65075">
        <ele>1459.4187011719</ele>
        <time>2014-06-14T07:51:38Z</time>
      </trkpt>
      <trkpt lat="42.71252" lon="1.6507">
        <ele>1458.4572753906</ele>
        <time>2014-06-14T07:51:44Z</time>
      </trkpt>
      <trkpt lat="42.7125" lon="1.65067">
        <ele>1458.4572753906</ele>
        <time>2014-06-14T07:51:49Z</time>
      </trkpt>
      <trkpt lat="42.71248" lon="1.65062">
        <ele>1457.9768066406</ele>
        <time>2014-06-14T07:51:56Z</time>
      </trkpt>
      <trkpt lat="42.71247" lon="1.65054">
        <ele>1457.49609375</ele>
        <time>2014-06-14T07:52:04Z</time>
      </trkpt>
      <trkpt lat="42.71246" lon="1.65052">
        <ele>1460.8605957031</ele>
        <time>2014-06-14T07:52:11Z</time>
      </trkpt>
      <trkpt lat="42.71245" lon="1.65046">
        <ele>1461.3413085938</ele>
        <time>2014-06-14T07:52:21Z</time>
      </trkpt>
      <trkpt lat="42.71242" lon="1.65041">
        <ele>1461.3413085938</ele>
        <time>2014-06-14T07:52:27Z</time>
      </trkpt>
      <trkpt lat="42.71241" lon="1.65035">
        <ele>1462.783203125</ele>
        <time>2014-06-14T07:52:34Z</time>
      </trkpt>
      <trkpt lat="42.71239" lon="1.6503">
        <ele>1464.2250976562</ele>
        <time>2014-06-14T07:52:40Z</time>
      </trkpt>
      <trkpt lat="42.71236" lon="1.65025">
        <ele>1468.0705566406</ele>
        <time>2014-06-14T07:52:47Z</time>
      </trkpt>
      <trkpt lat="42.71236" lon="1.65016">
        <ele>1468.5512695312</ele>
        <time>2014-06-14T07:52:54Z</time>
      </trkpt>
      <trkpt lat="42.71234" lon="1.6501">
        <ele>1470.9545898438</ele>
        <time>2014-06-14T07:52:59Z</time>
      </trkpt>
      <trkpt lat="42.7123" lon="1.65003">
        <ele>1469.0319824219</ele>
        <time>2014-06-14T07:53:07Z</time>
      </trkpt>
      <trkpt lat="42.71229" lon="1.65001">
        <ele>1469.0319824219</ele>
        <time>2014-06-14T07:53:15Z</time>
      </trkpt>
      <trkpt lat="42.71227" lon="1.65002">
        <ele>1475.2802734375</ele>
        <time>2014-06-14T07:53:35Z</time>
      </trkpt>
      <trkpt lat="42.71228" lon="1.64999">
        <ele>1477.68359375</ele>
        <time>2014-06-14T07:54:01Z</time>
      </trkpt>
      <trkpt lat="42.71228" lon="1.64993">
        <ele>1472.396484375</ele>
        <time>2014-06-14T07:54:20Z</time>
      </trkpt>
      <trkpt lat="42.7123" lon="1.64988">
        <ele>1473.8383789062</ele>
        <time>2014-06-14T07:54:26Z</time>
      </trkpt>
      <trkpt lat="42.71233" lon="1.64984">
        <ele>1474.7998046875</ele>
        <time>2014-06-14T07:54:31Z</time>
      </trkpt>
      <trkpt lat="42.71237" lon="1.6498">
        <ele>1475.2802734375</ele>
        <time>2014-06-14T07:54:38Z</time>
      </trkpt>
      <trkpt lat="42.71241" lon="1.64977">
        <ele>1471.4350585938</ele>
        <time>2014-06-14T07:54:43Z</time>
      </trkpt>
      <trkpt lat="42.71243" lon="1.64973">
        <ele>1472.8771972656</ele>
        <time>2014-06-14T07:54:48Z</time>
      </trkpt>
      <trkpt lat="42.71244" lon="1.64967">
        <ele>1471.4350585938</ele>
        <time>2014-06-14T07:54:54Z</time>
      </trkpt>
      <trkpt lat="42.71244" lon="1.6496">
        <ele>1468.5512695312</ele>
        <time>2014-06-14T07:55:00Z</time>
      </trkpt>
      <trkpt lat="42.71242" lon="1.64955">
        <ele>1470.9545898438</ele>
        <time>2014-06-14T07:55:05Z</time>
      </trkpt>
      <trkpt lat="42.71241" lon="1.6495">
        <ele>1472.396484375</ele>
        <time>2014-06-14T07:55:11Z</time>
      </trkpt>
      <trkpt lat="42.71241" lon="1.64942">
        <ele>1470.9545898438</ele>
        <time>2014-06-14T07:55:16Z</time>
      </trkpt>
      <trkpt lat="42.71243" lon="1.64931">
        <ele>1473.3579101562</ele>
        <time>2014-06-14T07:55:25Z</time>
      </trkpt>
      <trkpt lat="42.71242" lon="1.64927">
        <ele>1476.2416992188</ele>
        <time>2014-06-14T07:55:30Z</time>
      </trkpt>
      <trkpt lat="42.71246" lon="1.64919">
        <ele>1478.1643066406</ele>
        <time>2014-06-14T07:55:38Z</time>
      </trkpt>
      <trkpt lat="42.71245" lon="1.64916">
        <ele>1486.3356933594</ele>
        <time>2014-06-14T07:55:44Z</time>
      </trkpt>
      <trkpt lat="42.71246" lon="1.64915">
        <ele>1487.296875</ele>
        <time>2014-06-14T07:55:46Z</time>
      </trkpt>
      <trkpt lat="42.71251" lon="1.64912">
        <ele>1490.6613769531</ele>
        <time>2014-06-14T07:55:53Z</time>
      </trkpt>
      <trkpt lat="42.71259" lon="1.64903">
        <ele>1493.0646972656</ele>
        <time>2014-06-14T07:56:03Z</time>
      </trkpt>
      <trkpt lat="42.7126" lon="1.64899">
        <ele>1489.2194824219</ele>
        <time>2014-06-14T07:56:05Z</time>
      </trkpt>
      <trkpt lat="42.71261" lon="1.64895">
        <ele>1482.970703125</ele>
        <time>2014-06-14T07:56:11Z</time>
      </trkpt>
      <trkpt lat="42.71264" lon="1.64892">
        <ele>1482.970703125</ele>
        <time>2014-06-14T07:56:15Z</time>
      </trkpt>
      <trkpt lat="42.71265" lon="1.64889">
        <ele>1482.0095214844</ele>
        <time>2014-06-14T07:56:21Z</time>
      </trkpt>
      <trkpt lat="42.71266" lon="1.64886">
        <ele>1481.5288085938</ele>
        <time>2014-06-14T07:56:25Z</time>
      </trkpt>
      <trkpt lat="42.7127" lon="1.64875">
        <ele>1492.103515625</ele>
        <time>2014-06-14T07:56:41Z</time>
      </trkpt>
      <trkpt lat="42.71271" lon="1.64873">
        <ele>1496.9099121094</ele>
        <time>2014-06-14T07:56:46Z</time>
      </trkpt>
      <trkpt lat="42.7127" lon="1.64871">
        <ele>1495.4680175781</ele>
        <time>2014-06-14T07:56:55Z</time>
      </trkpt>
      <trkpt lat="42.7127" lon="1.64868">
        <ele>1493.0646972656</ele>
        <time>2014-06-14T07:57:01Z</time>
      </trkpt>
      <trkpt lat="42.71268" lon="1.64866">
        <ele>1492.5842285156</ele>
        <time>2014-06-14T07:57:06Z</time>
      </trkpt>
      <trkpt lat="42.71262" lon="1.64869">
        <ele>1498.8325195312</ele>
        <time>2014-06-14T07:57:12Z</time>
      </trkpt>
      <trkpt lat="42.71261" lon="1.64867">
        <ele>1496.9099121094</ele>
        <time>2014-06-14T07:57:21Z</time>
      </trkpt>
      <trkpt lat="42.71265" lon="1.64856">
        <ele>1495.4680175781</ele>
        <time>2014-06-14T07:57:29Z</time>
      </trkpt>
      <trkpt lat="42.71264" lon="1.64852">
        <ele>1502.197265625</ele>
        <time>2014-06-14T07:57:39Z</time>
      </trkpt>
      <trkpt lat="42.71261" lon="1.64848">
        <ele>1506.0424804688</ele>
        <time>2014-06-14T07:57:55Z</time>
      </trkpt>
      <trkpt lat="42.71263" lon="1.64844">
        <ele>1509.8876953125</ele>
        <time>2014-06-14T07:58:02Z</time>
      </trkpt>
      <trkpt lat="42.71259" lon="1.64842">
        <ele>1512.7717285156</ele>
        <time>2014-06-14T07:58:09Z</time>
      </trkpt>
      <trkpt lat="42.7126" lon="1.64835">
        <ele>1507.9653320312</ele>
        <time>2014-06-14T07:58:17Z</time>
      </trkpt>
      <trkpt lat="42.71262" lon="1.64832">
        <ele>1508.9265136719</ele>
        <time>2014-06-14T07:58:26Z</time>
      </trkpt>
      <trkpt lat="42.71263" lon="1.64832">
        <ele>1509.8876953125</ele>
        <time>2014-06-14T07:58:33Z</time>
      </trkpt>
      <trkpt lat="42.71264" lon="1.64824">
        <ele>1508.4458007812</ele>
        <time>2014-06-14T07:58:42Z</time>
      </trkpt>
      <trkpt lat="42.71267" lon="1.64821">
        <ele>1507.9653320312</ele>
        <time>2014-06-14T07:58:49Z</time>
      </trkpt>
      <trkpt lat="42.71267" lon="1.64818">
        <ele>1509.4072265625</ele>
        <time>2014-06-14T07:58:54Z</time>
      </trkpt>
      <trkpt lat="42.71266" lon="1.64815">
        <ele>1516.1364746094</ele>
        <time>2014-06-14T07:59:01Z</time>
      </trkpt>
      <trkpt lat="42.71267" lon="1.6481">
        <ele>1513.2524414062</ele>
        <time>2014-06-14T07:59:08Z</time>
      </trkpt>
      <trkpt lat="42.71265" lon="1.64805">
        <ele>1517.5783691406</ele>
        <time>2014-06-14T07:59:18Z</time>
      </trkpt>
      <trkpt lat="42.71267" lon="1.648">
        <ele>1518.0590820312</ele>
        <time>2014-06-14T07:59:25Z</time>
      </trkpt>
      <trkpt lat="42.71267" lon="1.64801">
        <ele>1522.8657226562</ele>
        <time>2014-06-14T07:59:32Z</time>
      </trkpt>
      <trkpt lat="42.71267" lon="1.64793">
        <ele>1527.1916503906</ele>
        <time>2014-06-14T07:59:47Z</time>
      </trkpt>
      <trkpt lat="42.71267" lon="1.64786">
        <ele>1523.8269042969</ele>
        <time>2014-06-14T07:59:55Z</time>
      </trkpt>
      <trkpt lat="42.7127" lon="1.64783">
        <ele>1521.904296875</ele>
        <time>2014-06-14T08:00:01Z</time>
      </trkpt>
      <trkpt lat="42.71273" lon="1.64777">
        <ele>1527.6721191406</ele>
        <time>2014-06-14T08:00:07Z</time>
      </trkpt>
      <trkpt lat="42.71275" lon="1.64778">
        <ele>1531.998046875</ele>
        <time>2014-06-14T08:00:13Z</time>
      </trkpt>
      <trkpt lat="42.71278" lon="1.64771">
        <ele>1542.0920410156</ele>
        <time>2014-06-14T08:00:22Z</time>
      </trkpt>
      <trkpt lat="42.71274" lon="1.64773">
        <ele>1544.4951171875</ele>
        <time>2014-06-14T08:00:30Z</time>
      </trkpt>
      <trkpt lat="42.71274" lon="1.64772">
        <ele>1541.611328125</ele>
        <time>2014-06-14T08:00:36Z</time>
      </trkpt>
      <trkpt lat="42.71273" lon="1.64769">
        <ele>1540.1694335938</ele>
        <time>2014-06-14T08:00:41Z</time>
      </trkpt>
      <trkpt lat="42.71273" lon="1.64765">
        <ele>1542.5727539062</ele>
        <time>2014-06-14T08:00:49Z</time>
      </trkpt>
      <trkpt lat="42.71271" lon="1.64765">
        <ele>1544.0146484375</ele>
        <time>2014-06-14T08:00:56Z</time>
      </trkpt>
      <trkpt lat="42.71267" lon="1.6476">
        <ele>1548.3405761719</ele>
        <time>2014-06-14T08:01:05Z</time>
      </trkpt>
      <trkpt lat="42.7127" lon="1.64755">
        <ele>1549.3020019531</ele>
        <time>2014-06-14T08:01:12Z</time>
      </trkpt>
      <trkpt lat="42.71275" lon="1.64756">
        <ele>1545.9372558594</ele>
        <time>2014-06-14T08:01:20Z</time>
      </trkpt>
      <trkpt lat="42.71277" lon="1.64754">
        <ele>1546.8984375</ele>
        <time>2014-06-14T08:01:25Z</time>
      </trkpt>
      <trkpt lat="42.71277" lon="1.64748">
        <ele>1545.4565429688</ele>
        <time>2014-06-14T08:01:37Z</time>
      </trkpt>
      <trkpt lat="42.71279" lon="1.64746">
        <ele>1546.41796875</ele>
        <time>2014-06-14T08:01:43Z</time>
      </trkpt>
      <trkpt lat="42.71281" lon="1.64741">
        <ele>1541.611328125</ele>
        <time>2014-06-14T08:01:54Z</time>
      </trkpt>
      <trkpt lat="42.71284" lon="1.64738">
        <ele>1544.9758300781</ele>
        <time>2014-06-14T08:02:02Z</time>
      </trkpt>
      <trkpt lat="42.71286" lon="1.64737">
        <ele>1560.8376464844</ele>
        <time>2014-06-14T08:02:14Z</time>
      </trkpt>
      <trkpt lat="42.7129" lon="1.64734">
        <ele>1559.8762207031</ele>
        <time>2014-06-14T08:02:22Z</time>
      </trkpt>
      <trkpt lat="42.71294" lon="1.64734">
        <ele>1559.8762207031</ele>
        <time>2014-06-14T08:02:28Z</time>
      </trkpt>
      <trkpt lat="42.71297" lon="1.64736">
        <ele>1564.2023925781</ele>
        <time>2014-06-14T08:02:38Z</time>
      </trkpt>
      <trkpt lat="42.713" lon="1.64734">
        <ele>1564.6831054688</ele>
        <time>2014-06-14T08:02:50Z</time>
      </trkpt>
      <trkpt lat="42.71301" lon="1.64734">
        <ele>1567.5668945312</ele>
        <time>2014-06-14T08:02:55Z</time>
      </trkpt>
      <trkpt lat="42.71304" lon="1.64728">
        <ele>1565.1638183594</ele>
        <time>2014-06-14T08:03:03Z</time>
      </trkpt>
      <trkpt lat="42.71302" lon="1.64724">
        <ele>1566.125</ele>
        <time>2014-06-14T08:03:11Z</time>
      </trkpt>
      <trkpt lat="42.71305" lon="1.64721">
        <ele>1569.9702148438</ele>
        <time>2014-06-14T08:03:19Z</time>
      </trkpt>
      <trkpt lat="42.71309" lon="1.64719">
        <ele>1569.4897460938</ele>
        <time>2014-06-14T08:03:25Z</time>
      </trkpt>
      <trkpt lat="42.71311" lon="1.6472">
        <ele>1568.0476074219</ele>
        <time>2014-06-14T08:03:30Z</time>
      </trkpt>
      <trkpt lat="42.71314" lon="1.6472">
        <ele>1569.4897460938</ele>
        <time>2014-06-14T08:03:35Z</time>
      </trkpt>
      <trkpt lat="42.71315" lon="1.64723">
        <ele>1573.8154296875</ele>
        <time>2014-06-14T08:03:39Z</time>
      </trkpt>
      <trkpt lat="42.71321" lon="1.64721">
        <ele>1575.7380371094</ele>
        <time>2014-06-14T08:03:47Z</time>
      </trkpt>
      <trkpt lat="42.71321" lon="1.64718">
        <ele>1580.0642089844</ele>
        <time>2014-06-14T08:03:55Z</time>
      </trkpt>
      <trkpt lat="42.71321" lon="1.64717">
        <ele>1584.3901367188</ele>
        <time>2014-06-14T08:04:02Z</time>
      </trkpt>
      <trkpt lat="42.71322" lon="1.64714">
        <ele>1583.4287109375</ele>
        <time>2014-06-14T08:04:08Z</time>
      </trkpt>
      <trkpt lat="42.71326" lon="1.64709">
        <ele>1581.9868164062</ele>
        <time>2014-06-14T08:04:15Z</time>
      </trkpt>
      <trkpt lat="42.71324" lon="1.64701">
        <ele>1580.0642089844</ele>
        <time>2014-06-14T08:04:27Z</time>
      </trkpt>
      <trkpt lat="42.71321" lon="1.64702">
        <ele>1581.9868164062</ele>
        <time>2014-06-14T08:04:32Z</time>
      </trkpt>
      <trkpt lat="42.71318" lon="1.64701">
        <ele>1584.3901367188</ele>
        <time>2014-06-14T08:04:37Z</time>
      </trkpt>
      <trkpt lat="42.71315" lon="1.64699">
        <ele>1585.3513183594</ele>
        <time>2014-06-14T08:04:43Z</time>
      </trkpt>
      <trkpt lat="42.71316" lon="1.64696">
        <ele>1584.3901367188</ele>
        <time>2014-06-14T08:04:45Z</time>
      </trkpt>
      <trkpt lat="42.7132" lon="1.64693">
        <ele>1585.83203125</ele>
        <time>2014-06-14T08:04:50Z</time>
      </trkpt>
      <trkpt lat="42.71321" lon="1.64687">
        <ele>1586.7932128906</ele>
        <time>2014-06-14T08:04:59Z</time>
      </trkpt>
      <trkpt lat="42.71319" lon="1.64684">
        <ele>1585.83203125</ele>
        <time>2014-06-14T08:05:05Z</time>
      </trkpt>
      <trkpt lat="42.71321" lon="1.64679">
        <ele>1589.1965332031</ele>
        <time>2014-06-14T08:05:12Z</time>
      </trkpt>
      <trkpt lat="42.71323" lon="1.64678">
        <ele>1593.5224609375</ele>
        <time>2014-06-14T08:05:20Z</time>
      </trkpt>
      <trkpt lat="42.71326" lon="1.64671">
        <ele>1597.3679199219</ele>
        <time>2014-06-14T08:05:30Z</time>
      </trkpt>
      <trkpt lat="42.71327" lon="1.64667">
        <ele>1596.8872070312</ele>
        <time>2014-06-14T08:05:36Z</time>
      </trkpt>
      <trkpt lat="42.71329" lon="1.64663">
        <ele>1597.8486328125</ele>
        <time>2014-06-14T08:05:42Z</time>
      </trkpt>
      <trkpt lat="42.71329" lon="1.64662">
        <ele>1596.8872070312</ele>
        <time>2014-06-14T08:05:47Z</time>
      </trkpt>
      <trkpt lat="42.71326" lon="1.64657">
        <ele>1593.0417480469</ele>
        <time>2014-06-14T08:05:55Z</time>
      </trkpt>
      <trkpt lat="42.71326" lon="1.64654">
        <ele>1594.0031738281</ele>
        <time>2014-06-14T08:06:00Z</time>
      </trkpt>
      <trkpt lat="42.71324" lon="1.6465">
        <ele>1595.4450683594</ele>
        <time>2014-06-14T08:06:07Z</time>
      </trkpt>
      <trkpt lat="42.71326" lon="1.64645">
        <ele>1601.6938476562</ele>
        <time>2014-06-14T08:06:13Z</time>
      </trkpt>
      <trkpt lat="42.71324" lon="1.64639">
        <ele>1600.251953125</ele>
        <time>2014-06-14T08:06:21Z</time>
      </trkpt>
      <trkpt lat="42.71324" lon="1.64634">
        <ele>1602.1743164062</ele>
        <time>2014-06-14T08:06:29Z</time>
      </trkpt>
      <trkpt lat="42.71324" lon="1.6463">
        <ele>1601.6938476562</ele>
        <time>2014-06-14T08:06:35Z</time>
      </trkpt>
      <trkpt lat="42.71321" lon="1.64628">
        <ele>1604.0971679688</ele>
        <time>2014-06-14T08:06:40Z</time>
      </trkpt>
      <trkpt lat="42.71318" lon="1.64626">
        <ele>1610.3454589844</ele>
        <time>2014-06-14T08:06:46Z</time>
      </trkpt>
      <trkpt lat="42.71318" lon="1.64622">
        <ele>1609.3842773438</ele>
        <time>2014-06-14T08:06:50Z</time>
      </trkpt>
      <trkpt lat="42.71319" lon="1.64617">
        <ele>1606.9809570312</ele>
        <time>2014-06-14T08:06:55Z</time>
      </trkpt>
      <trkpt lat="42.71319" lon="1.64615">
        <ele>1605.5390625</ele>
        <time>2014-06-14T08:06:57Z</time>
      </trkpt>
      <trkpt lat="42.71323" lon="1.64607">
        <ele>1606.9809570312</ele>
        <time>2014-06-14T08:07:03Z</time>
      </trkpt>
      <trkpt lat="42.71326" lon="1.64604">
        <ele>1608.9035644531</ele>
        <time>2014-06-14T08:07:08Z</time>
      </trkpt>
      <trkpt lat="42.71328" lon="1.64598">
        <ele>1609.3842773438</ele>
        <time>2014-06-14T08:07:14Z</time>
      </trkpt>
      <trkpt lat="42.71329" lon="1.64594">
        <ele>1607.4616699219</ele>
        <time>2014-06-14T08:07:18Z</time>
      </trkpt>
      <trkpt lat="42.71328" lon="1.64591">
        <ele>1607.4616699219</ele>
        <time>2014-06-14T08:07:22Z</time>
      </trkpt>
      <trkpt lat="42.71329" lon="1.64584">
        <ele>1606.01953125</ele>
        <time>2014-06-14T08:07:27Z</time>
      </trkpt>
      <trkpt lat="42.71329" lon="1.64579">
        <ele>1605.5390625</ele>
        <time>2014-06-14T08:07:32Z</time>
      </trkpt>
      <trkpt lat="42.71331" lon="1.64574">
        <ele>1607.9423828125</ele>
        <time>2014-06-14T08:07:37Z</time>
      </trkpt>
      <trkpt lat="42.71334" lon="1.64569">
        <ele>1607.4616699219</ele>
        <time>2014-06-14T08:07:42Z</time>
      </trkpt>
      <trkpt lat="42.71335" lon="1.64566">
        <ele>1607.9423828125</ele>
        <time>2014-06-14T08:07:44Z</time>
      </trkpt>
      <trkpt lat="42.71336" lon="1.64564">
        <ele>1608.9035644531</ele>
        <time>2014-06-14T08:07:46Z</time>
      </trkpt>
      <trkpt lat="42.7134" lon="1.64559">
        <ele>1610.3454589844</ele>
        <time>2014-06-14T08:07:53Z</time>
      </trkpt>
      <trkpt lat="42.71344" lon="1.64555">
        <ele>1611.3068847656</ele>
        <time>2014-06-14T08:07:59Z</time>
      </trkpt>
      <trkpt lat="42.71347" lon="1.6455">
        <ele>1612.2683105469</ele>
        <time>2014-06-14T08:08:04Z</time>
      </trkpt>
      <trkpt lat="42.71349" lon="1.64547">
        <ele>1613.2297363281</ele>
        <time>2014-06-14T08:08:08Z</time>
      </trkpt>
      <trkpt lat="42.71349" lon="1.64544">
        <ele>1615.15234375</ele>
        <time>2014-06-14T08:08:13Z</time>
      </trkpt>
      <trkpt lat="42.71348" lon="1.64542">
        <ele>1616.5942382812</ele>
        <time>2014-06-14T08:08:18Z</time>
      </trkpt>
      <trkpt lat="42.71349" lon="1.64537">
        <ele>1616.5942382812</ele>
        <time>2014-06-14T08:08:22Z</time>
      </trkpt>
      <trkpt lat="42.71352" lon="1.64531">
        <ele>1612.7490234375</ele>
        <time>2014-06-14T08:08:27Z</time>
      </trkpt>
      <trkpt lat="42.71354" lon="1.6453">
        <ele>1612.2683105469</ele>
        <time>2014-06-14T08:08:29Z</time>
      </trkpt>
      <trkpt lat="42.71357" lon="1.64523">
        <ele>1610.3454589844</ele>
        <time>2014-06-14T08:08:34Z</time>
      </trkpt>
      <trkpt lat="42.71359" lon="1.6452">
        <ele>1610.826171875</ele>
        <time>2014-06-14T08:08:39Z</time>
      </trkpt>
      <trkpt lat="42.71363" lon="1.6452">
        <ele>1613.2297363281</ele>
        <time>2014-06-14T08:08:44Z</time>
      </trkpt>
      <trkpt lat="42.71368" lon="1.64523">
        <ele>1615.6330566406</ele>
        <time>2014-06-14T08:08:51Z</time>
      </trkpt>
      <trkpt lat="42.71373" lon="1.64525">
        <ele>1615.6330566406</ele>
        <time>2014-06-14T08:08:57Z</time>
      </trkpt>
      <trkpt lat="42.71376" lon="1.64525">
        <ele>1615.15234375</ele>
        <time>2014-06-14T08:09:01Z</time>
      </trkpt>
      <trkpt lat="42.7138" lon="1.64525">
        <ele>1616.1135253906</ele>
        <time>2014-06-14T08:09:06Z</time>
      </trkpt>
      <trkpt lat="42.71386" lon="1.64523">
        <ele>1616.5942382812</ele>
        <time>2014-06-14T08:09:13Z</time>
      </trkpt>
      <trkpt lat="42.7139" lon="1.64522">
        <ele>1617.0749511719</ele>
        <time>2014-06-14T08:09:19Z</time>
      </trkpt>
      <trkpt lat="42.71393" lon="1.64527">
        <ele>1617.5554199219</ele>
        <time>2014-06-14T08:09:25Z</time>
      </trkpt>
      <trkpt lat="42.71394" lon="1.6453">
        <ele>1618.0361328125</ele>
        <time>2014-06-14T08:09:30Z</time>
      </trkpt>
      <trkpt lat="42.71397" lon="1.6453">
        <ele>1618.9975585938</ele>
        <time>2014-06-14T08:09:36Z</time>
      </trkpt>
      <trkpt lat="42.714" lon="1.64531">
        <ele>1619.9587402344</ele>
        <time>2014-06-14T08:09:41Z</time>
      </trkpt>
      <trkpt lat="42.71405" lon="1.64535">
        <ele>1624.2846679688</ele>
        <time>2014-06-14T08:09:48Z</time>
      </trkpt>
      <trkpt lat="42.71408" lon="1.64538">
        <ele>1627.1687011719</ele>
        <time>2014-06-14T08:09:54Z</time>
      </trkpt>
      <trkpt lat="42.71411" lon="1.64539">
        <ele>1626.2072753906</ele>
        <time>2014-06-14T08:09:57Z</time>
      </trkpt>
      <trkpt lat="42.71413" lon="1.64537">
        <ele>1626.6879882812</ele>
        <time>2014-06-14T08:10:03Z</time>
      </trkpt>
      <trkpt lat="42.71415" lon="1.64539">
        <ele>1628.6108398438</ele>
        <time>2014-06-14T08:10:07Z</time>
      </trkpt>
      <trkpt lat="42.71418" lon="1.64543">
        <ele>1632.4560546875</ele>
        <time>2014-06-14T08:10:14Z</time>
      </trkpt>
      <trkpt lat="42.71423" lon="1.64549">
        <ele>1635.8205566406</ele>
        <time>2014-06-14T08:10:21Z</time>
      </trkpt>
      <trkpt lat="42.71429" lon="1.64549">
        <ele>1638.7045898438</ele>
        <time>2014-06-14T08:10:29Z</time>
      </trkpt>
      <trkpt lat="42.71432" lon="1.6455">
        <ele>1640.626953125</ele>
        <time>2014-06-14T08:10:36Z</time>
      </trkpt>
      <trkpt lat="42.71434" lon="1.64552">
        <ele>1639.6657714844</ele>
        <time>2014-06-14T08:10:42Z</time>
      </trkpt>
      <trkpt lat="42.71437" lon="1.64558">
        <ele>1639.6657714844</ele>
        <time>2014-06-14T08:10:51Z</time>
      </trkpt>
      <trkpt lat="42.71439" lon="1.64562">
        <ele>1641.1076660156</ele>
        <time>2014-06-14T08:10:56Z</time>
      </trkpt>
      <trkpt lat="42.71439" lon="1.64565">
        <ele>1641.5883789062</ele>
        <time>2014-06-14T08:11:00Z</time>
      </trkpt>
      <trkpt lat="42.71443" lon="1.64567">
        <ele>1642.0690917969</ele>
        <time>2014-06-14T08:11:08Z</time>
      </trkpt>
      <trkpt lat="42.71445" lon="1.64569">
        <ele>1642.5498046875</ele>
        <time>2014-06-14T08:11:13Z</time>
      </trkpt>
      <trkpt lat="42.71449" lon="1.64569">
        <ele>1643.5109863281</ele>
        <time>2014-06-14T08:11:18Z</time>
      </trkpt>
      <trkpt lat="42.71453" lon="1.64568">
        <ele>1646.3952636719</ele>
        <time>2014-06-14T08:11:23Z</time>
      </trkpt>
      <trkpt lat="42.71454" lon="1.64569">
        <ele>1650.7209472656</ele>
        <time>2014-06-14T08:11:28Z</time>
      </trkpt>
      <trkpt lat="42.71455" lon="1.64571">
        <ele>1659.3728027344</ele>
        <time>2014-06-14T08:11:34Z</time>
      </trkpt>
      <trkpt lat="42.7146" lon="1.64579">
        <ele>1656.4887695312</ele>
        <time>2014-06-14T08:11:45Z</time>
      </trkpt>
      <trkpt lat="42.71465" lon="1.64583">
        <ele>1654.5661621094</ele>
        <time>2014-06-14T08:11:51Z</time>
      </trkpt>
      <trkpt lat="42.71466" lon="1.64583">
        <ele>1657.4501953125</ele>
        <time>2014-06-14T08:11:56Z</time>
      </trkpt>
      <trkpt lat="42.7147" lon="1.64586">
        <ele>1662.2568359375</ele>
        <time>2014-06-14T08:12:03Z</time>
      </trkpt>
      <trkpt lat="42.71473" lon="1.64585">
        <ele>1668.0246582031</ele>
        <time>2014-06-14T08:12:12Z</time>
      </trkpt>
      <trkpt lat="42.71476" lon="1.64588">
        <ele>1670.9086914062</ele>
        <time>2014-06-14T08:12:19Z</time>
      </trkpt>
      <trkpt lat="42.71477" lon="1.64593">
        <ele>1672.8312988281</ele>
        <time>2014-06-14T08:12:25Z</time>
      </trkpt>
      <trkpt lat="42.71479" lon="1.64599">
        <ele>1672.3505859375</ele>
        <time>2014-06-14T08:12:30Z</time>
      </trkpt>
      <trkpt lat="42.71481" lon="1.64604">
        <ele>1670.9086914062</ele>
        <time>2014-06-14T08:12:36Z</time>
      </trkpt>
      <trkpt lat="42.71482" lon="1.6461">
        <ele>1668.5053710938</ele>
        <time>2014-06-14T08:12:40Z</time>
      </trkpt>
      <trkpt lat="42.71484" lon="1.64611">
        <ele>1668.5053710938</ele>
        <time>2014-06-14T08:12:47Z</time>
      </trkpt>
      <trkpt lat="42.71487" lon="1.64613">
        <ele>1668.9860839844</ele>
        <time>2014-06-14T08:12:53Z</time>
      </trkpt>
      <trkpt lat="42.71492" lon="1.64619">
        <ele>1671.3891601562</ele>
        <time>2014-06-14T08:13:01Z</time>
      </trkpt>
      <trkpt lat="42.71494" lon="1.64624">
        <ele>1673.3120117188</ele>
        <time>2014-06-14T08:13:06Z</time>
      </trkpt>
      <trkpt lat="42.71495" lon="1.64625">
        <ele>1672.8312988281</ele>
        <time>2014-06-14T08:13:07Z</time>
      </trkpt>
      <trkpt lat="42.71497" lon="1.64633">
        <ele>1674.2731933594</ele>
        <time>2014-06-14T08:13:15Z</time>
      </trkpt>
      <trkpt lat="42.71499" lon="1.64637">
        <ele>1674.2731933594</ele>
        <time>2014-06-14T08:13:20Z</time>
      </trkpt>
      <trkpt lat="42.71502" lon="1.64637">
        <ele>1674.2731933594</ele>
        <time>2014-06-14T08:13:25Z</time>
      </trkpt>
      <trkpt lat="42.71504" lon="1.64638">
        <ele>1674.2731933594</ele>
        <time>2014-06-14T08:13:32Z</time>
      </trkpt>
      <trkpt lat="42.71508" lon="1.6464">
        <ele>1672.3505859375</ele>
        <time>2014-06-14T08:13:37Z</time>
      </trkpt>
      <trkpt lat="42.71513" lon="1.64646">
        <ele>1670.9086914062</ele>
        <time>2014-06-14T08:13:44Z</time>
      </trkpt>
      <trkpt lat="42.71515" lon="1.6465">
        <ele>1668.0246582031</ele>
        <time>2014-06-14T08:13:50Z</time>
      </trkpt>
      <trkpt lat="42.71518" lon="1.64655">
        <ele>1668.0246582031</ele>
        <time>2014-06-14T08:13:56Z</time>
      </trkpt>
      <trkpt lat="42.71522" lon="1.64657">
        <ele>1668.9860839844</ele>
        <time>2014-06-14T08:14:03Z</time>
      </trkpt>
      <trkpt lat="42.71524" lon="1.64658">
        <ele>1670.4279785156</ele>
        <time>2014-06-14T08:14:10Z</time>
      </trkpt>
      <trkpt lat="42.71525" lon="1.6466">
        <ele>1670.9086914062</ele>
        <time>2014-06-14T08:14:14Z</time>
      </trkpt>
      <trkpt lat="42.71528" lon="1.64662">
        <ele>1671.3891601562</ele>
        <time>2014-06-14T08:14:19Z</time>
      </trkpt>
      <trkpt lat="42.71532" lon="1.64662">
        <ele>1671.8698730469</ele>
        <time>2014-06-14T08:14:25Z</time>
      </trkpt>
      <trkpt lat="42.71533" lon="1.64663">
        <ele>1672.3505859375</ele>
        <time>2014-06-14T08:14:30Z</time>
      </trkpt>
      <trkpt lat="42.71534" lon="1.64666">
        <ele>1671.8698730469</ele>
        <time>2014-06-14T08:14:36Z</time>
      </trkpt>
      <trkpt lat="42.71535" lon="1.64667">
        <ele>1672.3505859375</ele>
        <time>2014-06-14T08:14:44Z</time>
      </trkpt>
      <trkpt lat="42.71538" lon="1.64669">
        <ele>1673.7924804688</ele>
        <time>2014-06-14T08:14:50Z</time>
      </trkpt>
      <trkpt lat="42.71542" lon="1.64671">
        <ele>1674.75390625</ele>
        <time>2014-06-14T08:14:57Z</time>
      </trkpt>
      <trkpt lat="42.71547" lon="1.64675">
        <ele>1677.6379394531</ele>
        <time>2014-06-14T08:15:04Z</time>
      </trkpt>
      <trkpt lat="42.71551" lon="1.64678">
        <ele>1679.0798339844</ele>
        <time>2014-06-14T08:15:10Z</time>
      </trkpt>
      <trkpt lat="42.71555" lon="1.64678">
        <ele>1679.560546875</ele>
        <time>2014-06-14T08:15:16Z</time>
      </trkpt>
      <trkpt lat="42.71558" lon="1.64677">
        <ele>1680.5219726562</ele>
        <time>2014-06-14T08:15:21Z</time>
      </trkpt>
      <trkpt lat="42.71562" lon="1.64677">
        <ele>1680.5219726562</ele>
        <time>2014-06-14T08:15:27Z</time>
      </trkpt>
      <trkpt lat="42.71566" lon="1.64678">
        <ele>1681.9638671875</ele>
        <time>2014-06-14T08:15:34Z</time>
      </trkpt>
      <trkpt lat="42.71569" lon="1.64678">
        <ele>1682.4445800781</ele>
        <time>2014-06-14T08:15:39Z</time>
      </trkpt>
      <trkpt lat="42.71573" lon="1.6468">
        <ele>1682.9250488281</ele>
        <time>2014-06-14T08:15:46Z</time>
      </trkpt>
      <trkpt lat="42.71579" lon="1.64682">
        <ele>1682.9250488281</ele>
        <time>2014-06-14T08:15:53Z</time>
      </trkpt>
      <trkpt lat="42.71584" lon="1.64685">
        <ele>1683.4057617188</ele>
        <time>2014-06-14T08:16:00Z</time>
      </trkpt>
      <trkpt lat="42.71588" lon="1.64686">
        <ele>1683.4057617188</ele>
        <time>2014-06-14T08:16:05Z</time>
      </trkpt>
      <trkpt lat="42.71593" lon="1.64688">
        <ele>1684.3671875</ele>
        <time>2014-06-14T08:16:13Z</time>
      </trkpt>
      <trkpt lat="42.71599" lon="1.6469">
        <ele>1685.3283691406</ele>
        <time>2014-06-14T08:16:18Z</time>
      </trkpt>
      <trkpt lat="42.71602" lon="1.64693">
        <ele>1687.2509765625</ele>
        <time>2014-06-14T08:16:22Z</time>
      </trkpt>
      <trkpt lat="42.71603" lon="1.64693">
        <ele>1686.7702636719</ele>
        <time>2014-06-14T08:16:23Z</time>
      </trkpt>
      <trkpt lat="42.71611" lon="1.64693">
        <ele>1688.6931152344</ele>
        <time>2014-06-14T08:16:32Z</time>
      </trkpt>
      <trkpt lat="42.71614" lon="1.64692">
        <ele>1689.654296875</ele>
        <time>2014-06-14T08:16:38Z</time>
      </trkpt>
      <trkpt lat="42.7162" lon="1.64692">
        <ele>1691.0961914062</ele>
        <time>2014-06-14T08:16:44Z</time>
      </trkpt>
      <trkpt lat="42.71624" lon="1.64693">
        <ele>1692.0578613281</ele>
        <time>2014-06-14T08:16:48Z</time>
      </trkpt>
      <trkpt lat="42.7163" lon="1.64693">
        <ele>1693.0190429688</ele>
        <time>2014-06-14T08:16:55Z</time>
      </trkpt>
      <trkpt lat="42.71635" lon="1.6469">
        <ele>1693.4997558594</ele>
        <time>2014-06-14T08:17:02Z</time>
      </trkpt>
      <trkpt lat="42.71642" lon="1.64687">
        <ele>1693.4997558594</ele>
        <time>2014-06-14T08:17:09Z</time>
      </trkpt>
      <trkpt lat="42.71648" lon="1.64685">
        <ele>1694.4609375</ele>
        <time>2014-06-14T08:17:15Z</time>
      </trkpt>
      <trkpt lat="42.71654" lon="1.64685">
        <ele>1694.9416503906</ele>
        <time>2014-06-14T08:17:22Z</time>
      </trkpt>
      <trkpt lat="42.71659" lon="1.64686">
        <ele>1694.9416503906</ele>
        <time>2014-06-14T08:17:28Z</time>
      </trkpt>
      <trkpt lat="42.71658" lon="1.64686">
        <ele>1694.9416503906</ele>
        <time>2014-06-14T08:17:36Z</time>
      </trkpt>
      <trkpt lat="42.71658" lon="1.64687">
        <ele>1693.0190429688</ele>
        <time>2014-06-14T08:17:50Z</time>
      </trkpt>
      <trkpt lat="42.71662" lon="1.64688">
        <ele>1692.5385742188</ele>
        <time>2014-06-14T08:18:05Z</time>
      </trkpt>
      <trkpt lat="42.71668" lon="1.64688">
        <ele>1692.0578613281</ele>
        <time>2014-06-14T08:18:11Z</time>
      </trkpt>
      <trkpt lat="42.71674" lon="1.6469">
        <ele>1692.5385742188</ele>
        <time>2014-06-14T08:18:16Z</time>
      </trkpt>
      <trkpt lat="42.71685" lon="1.64688">
        <ele>1693.0190429688</ele>
        <time>2014-06-14T08:18:26Z</time>
      </trkpt>
      <trkpt lat="42.71693" lon="1.64687">
        <ele>1693.0190429688</ele>
        <time>2014-06-14T08:18:33Z</time>
      </trkpt>
      <trkpt lat="42.71701" lon="1.64685">
        <ele>1693.4997558594</ele>
        <time>2014-06-14T08:18:39Z</time>
      </trkpt>
      <trkpt lat="42.7171" lon="1.64684">
        <ele>1693.98046875</ele>
        <time>2014-06-14T08:18:45Z</time>
      </trkpt>
      <trkpt lat="42.71719" lon="1.64681">
        <ele>1694.4609375</ele>
        <time>2014-06-14T08:18:52Z</time>
      </trkpt>
      <trkpt lat="42.71728" lon="1.64679">
        <ele>1694.9416503906</ele>
        <time>2014-06-14T08:18:59Z</time>
      </trkpt>
      <trkpt lat="42.71738" lon="1.64675">
        <ele>1694.9416503906</ele>
        <time>2014-06-14T08:19:07Z</time>
      </trkpt>
      <trkpt lat="42.71749" lon="1.64672">
        <ele>1695.4223632812</ele>
        <time>2014-06-14T08:19:16Z</time>
      </trkpt>
      <trkpt lat="42.71759" lon="1.6467">
        <ele>1695.9030761719</ele>
        <time>2014-06-14T08:19:24Z</time>
      </trkpt>
      <trkpt lat="42.71768" lon="1.64666">
        <ele>1695.9030761719</ele>
        <time>2014-06-14T08:19:32Z</time>
      </trkpt>
      <trkpt lat="42.71776" lon="1.64662">
        <ele>1695.9030761719</ele>
        <time>2014-06-14T08:19:39Z</time>
      </trkpt>
      <trkpt lat="42.71785" lon="1.64658">
        <ele>1696.8642578125</ele>
        <time>2014-06-14T08:19:47Z</time>
      </trkpt>
      <trkpt lat="42.71791" lon="1.64656">
        <ele>1696.8642578125</ele>
        <time>2014-06-14T08:19:54Z</time>
      </trkpt>
      <trkpt lat="42.718" lon="1.64651">
        <ele>1696.8642578125</ele>
        <time>2014-06-14T08:20:03Z</time>
      </trkpt>
      <trkpt lat="42.71808" lon="1.64648">
        <ele>1696.3837890625</ele>
        <time>2014-06-14T08:20:09Z</time>
      </trkpt>
      <trkpt lat="42.71809" lon="1.64648">
        <ele>1696.3837890625</ele>
        <time>2014-06-14T08:20:11Z</time>
      </trkpt>
      <trkpt lat="42.71811" lon="1.64641">
        <ele>1696.3837890625</ele>
        <time>2014-06-14T08:20:17Z</time>
      </trkpt>
      <trkpt lat="42.71814" lon="1.64635">
        <ele>1696.3837890625</ele>
        <time>2014-06-14T08:20:22Z</time>
      </trkpt>
      <trkpt lat="42.71819" lon="1.64629">
        <ele>1696.8642578125</ele>
        <time>2014-06-14T08:20:27Z</time>
      </trkpt>
      <trkpt lat="42.71826" lon="1.64623">
        <ele>1697.8256835938</ele>
        <time>2014-06-14T08:20:35Z</time>
      </trkpt>
      <trkpt lat="42.71834" lon="1.64622">
        <ele>1698.3061523438</ele>
        <time>2014-06-14T08:20:42Z</time>
      </trkpt>
      <trkpt lat="42.71842" lon="1.64621">
        <ele>1698.7868652344</ele>
        <time>2014-06-14T08:20:49Z</time>
      </trkpt>
      <trkpt lat="42.71851" lon="1.64618">
        <ele>1698.7868652344</ele>
        <time>2014-06-14T08:20:57Z</time>
      </trkpt>
      <trkpt lat="42.71861" lon="1.64611">
        <ele>1698.7868652344</ele>
        <time>2014-06-14T08:21:07Z</time>
      </trkpt>
      <trkpt lat="42.71865" lon="1.64606">
        <ele>1698.7868652344</ele>
        <time>2014-06-14T08:21:12Z</time>
      </trkpt>
      <trkpt lat="42.71873" lon="1.646">
        <ele>1698.7868652344</ele>
        <time>2014-06-14T08:21:19Z</time>
      </trkpt>
      <trkpt lat="42.71878" lon="1.64592">
        <ele>1699.267578125</ele>
        <time>2014-06-14T08:21:26Z</time>
      </trkpt>
      <trkpt lat="42.71883" lon="1.64585">
        <ele>1699.7482910156</ele>
        <time>2014-06-14T08:21:33Z</time>
      </trkpt>
      <trkpt lat="42.7189" lon="1.64579">
        <ele>1699.7482910156</ele>
        <time>2014-06-14T08:21:40Z</time>
      </trkpt>
      <trkpt lat="42.71898" lon="1.64571">
        <ele>1699.267578125</ele>
        <time>2014-06-14T08:21:48Z</time>
      </trkpt>
      <trkpt lat="42.71905" lon="1.64564">
        <ele>1698.3061523438</ele>
        <time>2014-06-14T08:21:55Z</time>
      </trkpt>
      <trkpt lat="42.71906" lon="1.64563">
        <ele>1698.7868652344</ele>
        <time>2014-06-14T08:21:56Z</time>
      </trkpt>
      <trkpt lat="42.71908" lon="1.6456">
        <ele>1698.3061523438</ele>
        <time>2014-06-14T08:21:59Z</time>
      </trkpt>
      <trkpt lat="42.71917" lon="1.64547">
        <ele>1696.8642578125</ele>
        <time>2014-06-14T08:22:10Z</time>
      </trkpt>
      <trkpt lat="42.7192" lon="1.6454">
        <ele>1696.3837890625</ele>
        <time>2014-06-14T08:22:16Z</time>
      </trkpt>
      <trkpt lat="42.7192" lon="1.64538">
        <ele>1696.3837890625</ele>
        <time>2014-06-14T08:22:17Z</time>
      </trkpt>
      <trkpt lat="42.71926" lon="1.6453">
        <ele>1695.4223632812</ele>
        <time>2014-06-14T08:22:25Z</time>
      </trkpt>
      <trkpt lat="42.71928" lon="1.64525">
        <ele>1694.4609375</ele>
        <time>2014-06-14T08:22:31Z</time>
      </trkpt>
      <trkpt lat="42.71934" lon="1.64518">
        <ele>1693.4997558594</ele>
        <time>2014-06-14T08:22:37Z</time>
      </trkpt>
      <trkpt lat="42.71943" lon="1.64513">
        <ele>1692.0578613281</ele>
        <time>2014-06-14T08:22:45Z</time>
      </trkpt>
      <trkpt lat="42.71951" lon="1.6451">
        <ele>1691.0961914062</ele>
        <time>2014-06-14T08:22:53Z</time>
      </trkpt>
      <trkpt lat="42.71952" lon="1.6451">
        <ele>1690.6154785156</ele>
        <time>2014-06-14T08:22:54Z</time>
      </trkpt>
      <trkpt lat="42.71959" lon="1.64501">
        <ele>1688.6931152344</ele>
        <time>2014-06-14T08:23:03Z</time>
      </trkpt>
      <trkpt lat="42.71962" lon="1.64494">
        <ele>1687.2509765625</ele>
        <time>2014-06-14T08:23:10Z</time>
      </trkpt>
      <trkpt lat="42.71965" lon="1.64489">
        <ele>1686.7702636719</ele>
        <time>2014-06-14T08:23:18Z</time>
      </trkpt>
      <trkpt lat="42.71965" lon="1.64489">
        <ele>1686.7702636719</ele>
        <time>2014-06-14T08:23:28Z</time>
      </trkpt>
      <trkpt lat="42.71965" lon="1.64489">
        <ele>1687.2509765625</ele>
        <time>2014-06-14T08:23:52Z</time>
      </trkpt>
      <trkpt lat="42.71964" lon="1.64488">
        <ele>1686.7702636719</ele>
        <time>2014-06-14T08:24:07Z</time>
      </trkpt>
      <trkpt lat="42.71964" lon="1.64488">
        <ele>1687.2509765625</ele>
        <time>2014-06-14T08:24:25Z</time>
      </trkpt>
      <trkpt lat="42.71964" lon="1.64489">
        <ele>1683.4057617188</ele>
        <time>2014-06-14T08:25:19Z</time>
      </trkpt>
      <trkpt lat="42.71964" lon="1.6449">
        <ele>1682.9250488281</ele>
        <time>2014-06-14T08:25:36Z</time>
      </trkpt>
      <trkpt lat="42.71965" lon="1.64491">
        <ele>1683.4057617188</ele>
        <time>2014-06-14T08:25:47Z</time>
      </trkpt>
      <trkpt lat="42.71965" lon="1.6449">
        <ele>1684.3671875</ele>
        <time>2014-06-14T08:25:57Z</time>
      </trkpt>
      <trkpt lat="42.71965" lon="1.64491">
        <ele>1685.3283691406</ele>
        <time>2014-06-14T08:26:06Z</time>
      </trkpt>
      <trkpt lat="42.71965" lon="1.64489">
        <ele>1686.2897949219</ele>
        <time>2014-06-14T08:26:22Z</time>
      </trkpt>
      <trkpt lat="42.71964" lon="1.64489">
        <ele>1688.6931152344</ele>
        <time>2014-06-14T08:26:37Z</time>
      </trkpt>
      <trkpt lat="42.71964" lon="1.64489">
        <ele>1687.7316894531</ele>
        <time>2014-06-14T08:26:54Z</time>
      </trkpt>
      <trkpt lat="42.71964" lon="1.6449">
        <ele>1687.7316894531</ele>
        <time>2014-06-14T08:27:10Z</time>
      </trkpt>
      <trkpt lat="42.71963" lon="1.64491">
        <ele>1687.2509765625</ele>
        <time>2014-06-14T08:27:22Z</time>
      </trkpt>
      <trkpt lat="42.71962" lon="1.64492">
        <ele>1687.7316894531</ele>
        <time>2014-06-14T08:27:30Z</time>
      </trkpt>
      <trkpt lat="42.7196" lon="1.64492">
        <ele>1688.2124023438</ele>
        <time>2014-06-14T08:27:39Z</time>
      </trkpt>
      <trkpt lat="42.71955" lon="1.64492">
        <ele>1689.1735839844</ele>
        <time>2014-06-14T08:27:46Z</time>
      </trkpt>
      <trkpt lat="42.7195" lon="1.64495">
        <ele>1689.654296875</ele>
        <time>2014-06-14T08:27:54Z</time>
      </trkpt>
      <trkpt lat="42.71951" lon="1.645">
        <ele>1690.1350097656</ele>
        <time>2014-06-14T08:27:59Z</time>
      </trkpt>
      <trkpt lat="42.71951" lon="1.64507">
        <ele>1691.5769042969</ele>
        <time>2014-06-14T08:28:06Z</time>
      </trkpt>
      <trkpt lat="42.71949" lon="1.64511">
        <ele>1692.5385742188</ele>
        <time>2014-06-14T08:28:11Z</time>
      </trkpt>
      <trkpt lat="42.71946" lon="1.64514">
        <ele>1693.4997558594</ele>
        <time>2014-06-14T08:28:17Z</time>
      </trkpt>
      <trkpt lat="42.7194" lon="1.64515">
        <ele>1693.98046875</ele>
        <time>2014-06-14T08:28:23Z</time>
      </trkpt>
      <trkpt lat="42.71935" lon="1.64518">
        <ele>1694.4609375</ele>
        <time>2014-06-14T08:28:30Z</time>
      </trkpt>
      <trkpt lat="42.71928" lon="1.64521">
        <ele>1695.9030761719</ele>
        <time>2014-06-14T08:28:37Z</time>
      </trkpt>
      <trkpt lat="42.71922" lon="1.64523">
        <ele>1696.8642578125</ele>
        <time>2014-06-14T08:28:44Z</time>
      </trkpt>
      <trkpt lat="42.71915" lon="1.64522">
        <ele>1697.3449707031</ele>
        <time>2014-06-14T08:28:51Z</time>
      </trkpt>
      <trkpt lat="42.71909" lon="1.64524">
        <ele>1698.3061523438</ele>
        <time>2014-06-14T08:28:58Z</time>
      </trkpt>
      <trkpt lat="42.71901" lon="1.64525">
        <ele>1699.267578125</ele>
        <time>2014-06-14T08:29:06Z</time>
      </trkpt>
      <trkpt lat="42.71896" lon="1.64524">
        <ele>1700.2290039062</ele>
        <time>2014-06-14T08:29:11Z</time>
      </trkpt>
      <trkpt lat="42.7189" lon="1.64523">
        <ele>1700.2290039062</ele>
        <time>2014-06-14T08:29:16Z</time>
      </trkpt>
      <trkpt lat="42.71885" lon="1.64522">
        <ele>1700.7094726562</ele>
        <time>2014-06-14T08:29:21Z</time>
      </trkpt>
      <trkpt lat="42.71881" lon="1.64522">
        <ele>1701.1901855469</ele>
        <time>2014-06-14T08:29:25Z</time>
      </trkpt>
      <trkpt lat="42.71879" lon="1.64521">
        <ele>1701.1901855469</ele>
        <time>2014-06-14T08:29:27Z</time>
      </trkpt>
      <trkpt lat="42.71874" lon="1.64519">
        <ele>1701.6708984375</ele>
        <time>2014-06-14T08:29:33Z</time>
      </trkpt>
      <trkpt lat="42.7187" lon="1.64515">
        <ele>1703.1127929688</ele>
        <time>2014-06-14T08:29:39Z</time>
      </trkpt>
      <trkpt lat="42.71865" lon="1.64511">
        <ele>1703.5935058594</ele>
        <time>2014-06-14T08:29:45Z</time>
      </trkpt>
      <trkpt lat="42.71859" lon="1.64509">
        <ele>1705.0354003906</ele>
        <time>2014-06-14T08:29:51Z</time>
      </trkpt>
      <trkpt lat="42.71854" lon="1.64504">
        <ele>1705.5161132812</ele>
        <time>2014-06-14T08:29:57Z</time>
      </trkpt>
      <trkpt lat="42.71849" lon="1.645">
        <ele>1706.4772949219</ele>
        <time>2014-06-14T08:30:03Z</time>
      </trkpt>
      <trkpt lat="42.71844" lon="1.64495">
        <ele>1707.9194335938</ele>
        <time>2014-06-14T08:30:10Z</time>
      </trkpt>
      <trkpt lat="42.71837" lon="1.64488">
        <ele>1708.880859375</ele>
        <time>2014-06-14T08:30:19Z</time>
      </trkpt>
      <trkpt lat="42.71831" lon="1.64489">
        <ele>1709.8420410156</ele>
        <time>2014-06-14T08:30:26Z</time>
      </trkpt>
      <trkpt lat="42.71827" lon="1.64486">
        <ele>1711.2841796875</ele>
        <time>2014-06-14T08:30:32Z</time>
      </trkpt>
      <trkpt lat="42.71822" lon="1.64481">
        <ele>1712.2453613281</ele>
        <time>2014-06-14T08:30:39Z</time>
      </trkpt>
      <trkpt lat="42.71817" lon="1.64478">
        <ele>1713.2067871094</ele>
        <time>2014-06-14T08:30:45Z</time>
      </trkpt>
      <trkpt lat="42.71812" lon="1.64474">
        <ele>1715.1293945312</ele>
        <time>2014-06-14T08:30:51Z</time>
      </trkpt>
      <trkpt lat="42.71808" lon="1.64472">
        <ele>1715.1293945312</ele>
        <time>2014-06-14T08:30:56Z</time>
      </trkpt>
      <trkpt lat="42.71801" lon="1.64469">
        <ele>1716.5712890625</ele>
        <time>2014-06-14T08:31:03Z</time>
      </trkpt>
      <trkpt lat="42.71799" lon="1.64462">
        <ele>1717.0520019531</ele>
        <time>2014-06-14T08:31:09Z</time>
      </trkpt>
      <trkpt lat="42.71794" lon="1.64457">
        <ele>1718.0131835938</ele>
        <time>2014-06-14T08:31:16Z</time>
      </trkpt>
      <trkpt lat="42.71786" lon="1.64451">
        <ele>1719.9357910156</ele>
        <time>2014-06-14T08:31:25Z</time>
      </trkpt>
      <trkpt lat="42.71783" lon="1.64447">
        <ele>1720.8972167969</ele>
        <time>2014-06-14T08:31:30Z</time>
      </trkpt>
      <trkpt lat="42.71778" lon="1.64442">
        <ele>1721.8583984375</ele>
        <time>2014-06-14T08:31:36Z</time>
      </trkpt>
      <trkpt lat="42.71773" lon="1.64437">
        <ele>1723.3005371094</ele>
        <time>2014-06-14T08:31:43Z</time>
      </trkpt>
      <trkpt lat="42.71768" lon="1.64434">
        <ele>1724.7426757812</ele>
        <time>2014-06-14T08:31:49Z</time>
      </trkpt>
      <trkpt lat="42.71764" lon="1.6443">
        <ele>1725.2231445312</ele>
        <time>2014-06-14T08:31:54Z</time>
      </trkpt>
      <trkpt lat="42.71761" lon="1.64427">
        <ele>1726.1845703125</ele>
        <time>2014-06-14T08:32:00Z</time>
      </trkpt>
      <trkpt lat="42.71755" lon="1.64417">
        <ele>1727.1459960938</ele>
        <time>2014-06-14T08:32:09Z</time>
      </trkpt>
      <trkpt lat="42.7175" lon="1.64412">
        <ele>1727.6264648438</ele>
        <time>2014-06-14T08:32:16Z</time>
      </trkpt>
      <trkpt lat="42.71744" lon="1.64407">
        <ele>1729.068359375</ele>
        <time>2014-06-14T08:32:23Z</time>
      </trkpt>
      <trkpt lat="42.7174" lon="1.64401">
        <ele>1730.0297851562</ele>
        <time>2014-06-14T08:32:30Z</time>
      </trkpt>
      <trkpt lat="42.71735" lon="1.64392">
        <ele>1730.9912109375</ele>
        <time>2014-06-14T08:32:38Z</time>
      </trkpt>
      <trkpt lat="42.71732" lon="1.64386">
        <ele>1730.9912109375</ele>
        <time>2014-06-14T08:32:44Z</time>
      </trkpt>
      <trkpt lat="42.71729" lon="1.64378">
        <ele>1731.4716796875</ele>
        <time>2014-06-14T08:32:51Z</time>
      </trkpt>
      <trkpt lat="42.71725" lon="1.64371">
        <ele>1731.9523925781</ele>
        <time>2014-06-14T08:32:59Z</time>
      </trkpt>
      <trkpt lat="42.71721" lon="1.64362">
        <ele>1733.3942871094</ele>
        <time>2014-06-14T08:33:07Z</time>
      </trkpt>
      <trkpt lat="42.71717" lon="1.64352">
        <ele>1734.3557128906</ele>
        <time>2014-06-14T08:33:16Z</time>
      </trkpt>
      <trkpt lat="42.71712" lon="1.64342">
        <ele>1735.3168945312</ele>
        <time>2014-06-14T08:33:25Z</time>
      </trkpt>
      <trkpt lat="42.71708" lon="1.64332">
        <ele>1736.2783203125</ele>
        <time>2014-06-14T08:33:34Z</time>
      </trkpt>
      <trkpt lat="42.71704" lon="1.64323">
        <ele>1736.7587890625</ele>
        <time>2014-06-14T08:33:42Z</time>
      </trkpt>
      <trkpt lat="42.71702" lon="1.64314">
        <ele>1737.2395019531</ele>
        <time>2014-06-14T08:33:50Z</time>
      </trkpt>
      <trkpt lat="42.717" lon="1.64304">
        <ele>1739.162109375</ele>
        <time>2014-06-14T08:33:58Z</time>
      </trkpt>
      <trkpt lat="42.71695" lon="1.64297">
        <ele>1740.1237792969</ele>
        <time>2014-06-14T08:34:06Z</time>
      </trkpt>
      <trkpt lat="42.7169" lon="1.64288">
        <ele>1741.0849609375</ele>
        <time>2014-06-14T08:34:15Z</time>
      </trkpt>
      <trkpt lat="42.71686" lon="1.64279">
        <ele>1742.0463867188</ele>
        <time>2014-06-14T08:34:23Z</time>
      </trkpt>
      <trkpt lat="42.71685" lon="1.64272">
        <ele>1742.0463867188</ele>
        <time>2014-06-14T08:34:29Z</time>
      </trkpt>
      <trkpt lat="42.71684" lon="1.64268">
        <ele>1742.0463867188</ele>
        <time>2014-06-14T08:34:36Z</time>
      </trkpt>
      <trkpt lat="42.71682" lon="1.64266">
        <ele>1742.0463867188</ele>
        <time>2014-06-14T08:34:42Z</time>
      </trkpt>
      <trkpt lat="42.71681" lon="1.64263">
        <ele>1742.0463867188</ele>
        <time>2014-06-14T08:34:47Z</time>
      </trkpt>
      <trkpt lat="42.71677" lon="1.64259">
        <ele>1741.5656738281</ele>
        <time>2014-06-14T08:34:52Z</time>
      </trkpt>
      <trkpt lat="42.71673" lon="1.64253">
        <ele>1742.0463867188</ele>
        <time>2014-06-14T08:34:58Z</time>
      </trkpt>
      <trkpt lat="42.71672" lon="1.64247">
        <ele>1742.0463867188</ele>
        <time>2014-06-14T08:35:04Z</time>
      </trkpt>
      <trkpt lat="42.7167" lon="1.64242">
        <ele>1742.0463867188</ele>
        <time>2014-06-14T08:35:08Z</time>
      </trkpt>
      <trkpt lat="42.71669" lon="1.64236">
        <ele>1742.0463867188</ele>
        <time>2014-06-14T08:35:14Z</time>
      </trkpt>
      <trkpt lat="42.71666" lon="1.64228">
        <ele>1743.0075683594</ele>
        <time>2014-06-14T08:35:21Z</time>
      </trkpt>
      <trkpt lat="42.71664" lon="1.6422">
        <ele>1743.0075683594</ele>
        <time>2014-06-14T08:35:27Z</time>
      </trkpt>
      <trkpt lat="42.71663" lon="1.64212">
        <ele>1743.0075683594</ele>
        <time>2014-06-14T08:35:33Z</time>
      </trkpt>
      <trkpt lat="42.71659" lon="1.64201">
        <ele>1743.0075683594</ele>
        <time>2014-06-14T08:35:41Z</time>
      </trkpt>
      <trkpt lat="42.71658" lon="1.6419">
        <ele>1743.9689941406</ele>
        <time>2014-06-14T08:35:49Z</time>
      </trkpt>
      <trkpt lat="42.71658" lon="1.64177">
        <ele>1744.9301757812</ele>
        <time>2014-06-14T08:35:58Z</time>
      </trkpt>
      <trkpt lat="42.71658" lon="1.64164">
        <ele>1745.8916015625</ele>
        <time>2014-06-14T08:36:07Z</time>
      </trkpt>
      <trkpt lat="42.71656" lon="1.64154">
        <ele>1746.3723144531</ele>
        <time>2014-06-14T08:36:14Z</time>
      </trkpt>
      <trkpt lat="42.71656" lon="1.64146">
        <ele>1747.3334960938</ele>
        <time>2014-06-14T08:36:20Z</time>
      </trkpt>
      <trkpt lat="42.71657" lon="1.64138">
        <ele>1747.8142089844</ele>
        <time>2014-06-14T08:36:26Z</time>
      </trkpt>
      <trkpt lat="42.71658" lon="1.6413">
        <ele>1748.2946777344</ele>
        <time>2014-06-14T08:36:32Z</time>
      </trkpt>
      <trkpt lat="42.71659" lon="1.64121">
        <ele>1749.2561035156</ele>
        <time>2014-06-14T08:36:38Z</time>
      </trkpt>
      <trkpt lat="42.7166" lon="1.64114">
        <ele>1749.2561035156</ele>
        <time>2014-06-14T08:36:45Z</time>
      </trkpt>
      <trkpt lat="42.71659" lon="1.64107">
        <ele>1749.7368164062</ele>
        <time>2014-06-14T08:36:51Z</time>
      </trkpt>
      <trkpt lat="42.71661" lon="1.64098">
        <ele>1749.7368164062</ele>
        <time>2014-06-14T08:36:57Z</time>
      </trkpt>
      <trkpt lat="42.71662" lon="1.64086">
        <ele>1750.2175292969</ele>
        <time>2014-06-14T08:37:05Z</time>
      </trkpt>
      <trkpt lat="42.71663" lon="1.64072">
        <ele>1750.6979980469</ele>
        <time>2014-06-14T08:37:14Z</time>
      </trkpt>
      <trkpt lat="42.71663" lon="1.64063">
        <ele>1750.6979980469</ele>
        <time>2014-06-14T08:37:20Z</time>
      </trkpt>
      <trkpt lat="42.71661" lon="1.6405">
        <ele>1751.1787109375</ele>
        <time>2014-06-14T08:37:29Z</time>
      </trkpt>
      <trkpt lat="42.71659" lon="1.6404">
        <ele>1751.6594238281</ele>
        <time>2014-06-14T08:37:36Z</time>
      </trkpt>
      <trkpt lat="42.71658" lon="1.64031">
        <ele>1752.1398925781</ele>
        <time>2014-06-14T08:37:42Z</time>
      </trkpt>
      <trkpt lat="42.71656" lon="1.64023">
        <ele>1752.6206054688</ele>
        <time>2014-06-14T08:37:48Z</time>
      </trkpt>
      <trkpt lat="42.71653" lon="1.64013">
        <ele>1753.58203125</ele>
        <time>2014-06-14T08:37:56Z</time>
      </trkpt>
      <trkpt lat="42.7165" lon="1.64006">
        <ele>1754.5432128906</ele>
        <time>2014-06-14T08:38:02Z</time>
      </trkpt>
      <trkpt lat="42.71648" lon="1.64">
        <ele>1755.0239257812</ele>
        <time>2014-06-14T08:38:07Z</time>
      </trkpt>
      <trkpt lat="42.71646" lon="1.63995">
        <ele>1755.9851074219</ele>
        <time>2014-06-14T08:38:12Z</time>
      </trkpt>
      <trkpt lat="42.71642" lon="1.63989">
        <ele>1757.4274902344</ele>
        <time>2014-06-14T08:38:19Z</time>
      </trkpt>
      <trkpt lat="42.7164" lon="1.63984">
        <ele>1758.388671875</ele>
        <time>2014-06-14T08:38:25Z</time>
      </trkpt>
      <trkpt lat="42.71637" lon="1.6398">
        <ele>1759.3500976562</ele>
        <time>2014-06-14T08:38:30Z</time>
      </trkpt>
      <trkpt lat="42.71635" lon="1.63974">
        <ele>1759.8305664062</ele>
        <time>2014-06-14T08:38:36Z</time>
      </trkpt>
      <trkpt lat="42.7163" lon="1.63968">
        <ele>1761.7534179688</ele>
        <time>2014-06-14T08:38:44Z</time>
      </trkpt>
      <trkpt lat="42.71624" lon="1.63962">
        <ele>1764.1564941406</ele>
        <time>2014-06-14T08:38:52Z</time>
      </trkpt>
      <trkpt lat="42.71621" lon="1.63958">
        <ele>1765.1179199219</ele>
        <time>2014-06-14T08:38:57Z</time>
      </trkpt>
      <trkpt lat="42.71617" lon="1.63954">
        <ele>1766.0791015625</ele>
        <time>2014-06-14T08:39:04Z</time>
      </trkpt>
      <trkpt lat="42.71613" lon="1.63949">
        <ele>1767.0405273438</ele>
        <time>2014-06-14T08:39:10Z</time>
      </trkpt>
      <trkpt lat="42.71611" lon="1.63946">
        <ele>1768.0017089844</ele>
        <time>2014-06-14T08:39:15Z</time>
      </trkpt>
      <trkpt lat="42.71607" lon="1.63942">
        <ele>1769.4438476562</ele>
        <time>2014-06-14T08:39:20Z</time>
      </trkpt>
      <trkpt lat="42.71602" lon="1.63938">
        <ele>1770.8857421875</ele>
        <time>2014-06-14T08:39:28Z</time>
      </trkpt>
      <trkpt lat="42.716" lon="1.63935">
        <ele>1772.3278808594</ele>
        <time>2014-06-14T08:39:35Z</time>
      </trkpt>
      <trkpt lat="42.71599" lon="1.63933">
        <ele>1772.3278808594</ele>
        <time>2014-06-14T08:39:40Z</time>
      </trkpt>
      <trkpt lat="42.716" lon="1.63929">
        <ele>1773.2893066406</ele>
        <time>2014-06-14T08:39:45Z</time>
      </trkpt>
      <trkpt lat="42.71598" lon="1.63926">
        <ele>1773.2893066406</ele>
        <time>2014-06-14T08:39:50Z</time>
      </trkpt>
      <trkpt lat="42.71595" lon="1.63921">
        <ele>1774.2504882812</ele>
        <time>2014-06-14T08:39:56Z</time>
      </trkpt>
      <trkpt lat="42.7159" lon="1.63918">
        <ele>1775.2116699219</ele>
        <time>2014-06-14T08:40:02Z</time>
      </trkpt>
      <trkpt lat="42.71586" lon="1.63914">
        <ele>1776.6538085938</ele>
        <time>2014-06-14T08:40:08Z</time>
      </trkpt>
      <trkpt lat="42.71583" lon="1.6391">
        <ele>1777.6149902344</ele>
        <time>2014-06-14T08:40:14Z</time>
      </trkpt>
      <trkpt lat="42.71579" lon="1.63907">
        <ele>1779.0568847656</ele>
        <time>2014-06-14T08:40:20Z</time>
      </trkpt>
      <trkpt lat="42.71575" lon="1.63903">
        <ele>1780.0183105469</ele>
        <time>2014-06-14T08:40:26Z</time>
      </trkpt>
      <trkpt lat="42.71569" lon="1.63899">
        <ele>1781.4602050781</ele>
        <time>2014-06-14T08:40:33Z</time>
      </trkpt>
      <trkpt lat="42.71566" lon="1.63894">
        <ele>1783.3828125</ele>
        <time>2014-06-14T08:40:40Z</time>
      </trkpt>
      <trkpt lat="42.71563" lon="1.6389">
        <ele>1784.8249511719</ele>
        <time>2014-06-14T08:40:46Z</time>
      </trkpt>
      <trkpt lat="42.71558" lon="1.63886">
        <ele>1785.7861328125</ele>
        <time>2014-06-14T08:40:52Z</time>
      </trkpt>
      <trkpt lat="42.71554" lon="1.63882">
        <ele>1786.2668457031</ele>
        <time>2014-06-14T08:40:59Z</time>
      </trkpt>
      <trkpt lat="42.71554" lon="1.63881">
        <ele>1786.2668457031</ele>
        <time>2014-06-14T08:41:08Z</time>
      </trkpt>
      <trkpt lat="42.71553" lon="1.6388">
        <ele>1786.2668457031</ele>
        <time>2014-06-14T08:41:23Z</time>
      </trkpt>
      <trkpt lat="42.7155" lon="1.63876">
        <ele>1787.7087402344</ele>
        <time>2014-06-14T08:41:29Z</time>
      </trkpt>
      <trkpt lat="42.71545" lon="1.63871">
        <ele>1788.6704101562</ele>
        <time>2014-06-14T08:41:36Z</time>
      </trkpt>
      <trkpt lat="42.7154" lon="1.63865">
        <ele>1790.1123046875</ele>
        <time>2014-06-14T08:41:44Z</time>
      </trkpt>
      <trkpt lat="42.71536" lon="1.6386">
        <ele>1791.0734863281</ele>
        <time>2014-06-14T08:41:51Z</time>
      </trkpt>
      <trkpt lat="42.71534" lon="1.63859">
        <ele>1792.0349121094</ele>
        <time>2014-06-14T08:41:58Z</time>
      </trkpt>
      <trkpt lat="42.71532" lon="1.63855">
        <ele>1791.5541992188</ele>
        <time>2014-06-14T08:42:06Z</time>
      </trkpt>
      <trkpt lat="42.71527" lon="1.63848">
        <ele>1792.0349121094</ele>
        <time>2014-06-14T08:42:14Z</time>
      </trkpt>
      <trkpt lat="42.71524" lon="1.63843">
        <ele>1792.99609375</ele>
        <time>2014-06-14T08:42:20Z</time>
      </trkpt>
      <trkpt lat="42.71521" lon="1.63839">
        <ele>1792.99609375</ele>
        <time>2014-06-14T08:42:25Z</time>
      </trkpt>
      <trkpt lat="42.71521" lon="1.63834">
        <ele>1793.4768066406</ele>
        <time>2014-06-14T08:42:31Z</time>
      </trkpt>
      <trkpt lat="42.71521" lon="1.63831">
        <ele>1793.4768066406</ele>
        <time>2014-06-14T08:42:36Z</time>
      </trkpt>
      <trkpt lat="42.71519" lon="1.63826">
        <ele>1793.9575195312</ele>
        <time>2014-06-14T08:42:42Z</time>
      </trkpt>
      <trkpt lat="42.71519" lon="1.63823">
        <ele>1794.4379882812</ele>
        <time>2014-06-14T08:42:47Z</time>
      </trkpt>
      <trkpt lat="42.71516" lon="1.63818">
        <ele>1794.9187011719</ele>
        <time>2014-06-14T08:42:53Z</time>
      </trkpt>
      <trkpt lat="42.71513" lon="1.63813">
        <ele>1794.9187011719</ele>
        <time>2014-06-14T08:42:59Z</time>
      </trkpt>
      <trkpt lat="42.71506" lon="1.63805">
        <ele>1795.8801269531</ele>
        <time>2014-06-14T08:43:08Z</time>
      </trkpt>
      <trkpt lat="42.71502" lon="1.63801">
        <ele>1796.3608398438</ele>
        <time>2014-06-14T08:43:14Z</time>
      </trkpt>
      <trkpt lat="42.71497" lon="1.63799">
        <ele>1796.3608398438</ele>
        <time>2014-06-14T08:43:19Z</time>
      </trkpt>
      <trkpt lat="42.71489" lon="1.63795">
        <ele>1796.3608398438</ele>
        <time>2014-06-14T08:43:26Z</time>
      </trkpt>
      <trkpt lat="42.71482" lon="1.6379">
        <ele>1797.3220214844</ele>
        <time>2014-06-14T08:43:34Z</time>
      </trkpt>
      <trkpt lat="42.71477" lon="1.63787">
        <ele>1797.802734375</ele>
        <time>2014-06-14T08:43:40Z</time>
      </trkpt>
      <trkpt lat="42.71469" lon="1.63782">
        <ele>1799.7253417969</ele>
        <time>2014-06-14T08:43:48Z</time>
      </trkpt>
      <trkpt lat="42.71462" lon="1.63777">
        <ele>1800.2060546875</ele>
        <time>2014-06-14T08:43:56Z</time>
      </trkpt>
      <trkpt lat="42.71458" lon="1.63775">
        <ele>1801.1672363281</ele>
        <time>2014-06-14T08:44:02Z</time>
      </trkpt>
      <trkpt lat="42.71451" lon="1.63771">
        <ele>1802.1284179688</ele>
        <time>2014-06-14T08:44:10Z</time>
      </trkpt>
      <trkpt lat="42.71446" lon="1.63769">
        <ele>1803.5705566406</ele>
        <time>2014-06-14T08:44:17Z</time>
      </trkpt>
      <trkpt lat="42.71441" lon="1.63766">
        <ele>1805.0126953125</ele>
        <time>2014-06-14T08:44:23Z</time>
      </trkpt>
      <trkpt lat="42.71436" lon="1.63764">
        <ele>1806.4545898438</ele>
        <time>2014-06-14T08:44:30Z</time>
      </trkpt>
      <trkpt lat="42.7143" lon="1.6376">
        <ele>1808.3771972656</ele>
        <time>2014-06-14T08:44:38Z</time>
      </trkpt>
      <trkpt lat="42.71427" lon="1.63755">
        <ele>1810.2998046875</ele>
        <time>2014-06-14T08:44:45Z</time>
      </trkpt>
      <trkpt lat="42.71423" lon="1.63752">
        <ele>1810.7805175781</ele>
        <time>2014-06-14T08:44:52Z</time>
      </trkpt>
      <trkpt lat="42.71422" lon="1.63748">
        <ele>1810.7805175781</ele>
        <time>2014-06-14T08:44:58Z</time>
      </trkpt>
      <trkpt lat="42.71419" lon="1.63745">
        <ele>1811.2612304688</ele>
        <time>2014-06-14T08:45:04Z</time>
      </trkpt>
      <trkpt lat="42.71414" lon="1.63741">
        <ele>1812.2224121094</ele>
        <time>2014-06-14T08:45:11Z</time>
      </trkpt>
      <trkpt lat="42.7141" lon="1.63738">
        <ele>1812.703125</ele>
        <time>2014-06-14T08:45:17Z</time>
      </trkpt>
      <trkpt lat="42.71407" lon="1.63736">
        <ele>1813.6643066406</ele>
        <time>2014-06-14T08:45:22Z</time>
      </trkpt>
      <trkpt lat="42.71402" lon="1.63733">
        <ele>1814.1450195312</ele>
        <time>2014-06-14T08:45:29Z</time>
      </trkpt>
      <trkpt lat="42.71394" lon="1.63729">
        <ele>1815.1064453125</ele>
        <time>2014-06-14T08:45:38Z</time>
      </trkpt>
      <trkpt lat="42.71389" lon="1.63727">
        <ele>1816.0676269531</ele>
        <time>2014-06-14T08:45:44Z</time>
      </trkpt>
      <trkpt lat="42.71383" lon="1.63723">
        <ele>1817.5095214844</ele>
        <time>2014-06-14T08:45:52Z</time>
      </trkpt>
      <trkpt lat="42.71376" lon="1.63723">
        <ele>1817.990234375</ele>
        <time>2014-06-14T08:45:59Z</time>
      </trkpt>
      <trkpt lat="42.71368" lon="1.63722">
        <ele>1819.4323730469</ele>
        <time>2014-06-14T08:46:08Z</time>
      </trkpt>
      <trkpt lat="42.71362" lon="1.63722">
        <ele>1819.9128417969</ele>
        <time>2014-06-14T08:46:14Z</time>
      </trkpt>
      <trkpt lat="42.7136" lon="1.63721">
        <ele>1819.9128417969</ele>
        <time>2014-06-14T08:46:16Z</time>
      </trkpt>
      <trkpt lat="42.71352" lon="1.6372">
        <ele>1820.8745117188</ele>
        <time>2014-06-14T08:46:24Z</time>
      </trkpt>
      <trkpt lat="42.71344" lon="1.6372">
        <ele>1821.3549804688</ele>
        <time>2014-06-14T08:46:32Z</time>
      </trkpt>
      <trkpt lat="42.71339" lon="1.63721">
        <ele>1821.8356933594</ele>
        <time>2014-06-14T08:46:38Z</time>
      </trkpt>
      <trkpt lat="42.71332" lon="1.6372">
        <ele>1821.8356933594</ele>
        <time>2014-06-14T08:46:45Z</time>
      </trkpt>
      <trkpt lat="42.71327" lon="1.63719">
        <ele>1821.8356933594</ele>
        <time>2014-06-14T08:46:50Z</time>
      </trkpt>
      <trkpt lat="42.71319" lon="1.63717">
        <ele>1823.2778320312</ele>
        <time>2014-06-14T08:46:59Z</time>
      </trkpt>
      <trkpt lat="42.71311" lon="1.63716">
        <ele>1823.7583007812</ele>
        <time>2014-06-14T08:47:07Z</time>
      </trkpt>
      <trkpt lat="42.71307" lon="1.63718">
        <ele>1823.2778320312</ele>
        <time>2014-06-14T08:47:12Z</time>
      </trkpt>
      <trkpt lat="42.71298" lon="1.63719">
        <ele>1823.2778320312</ele>
        <time>2014-06-14T08:47:20Z</time>
      </trkpt>
      <trkpt lat="42.71289" lon="1.63718">
        <ele>1824.2390136719</ele>
        <time>2014-06-14T08:47:29Z</time>
      </trkpt>
      <trkpt lat="42.7128" lon="1.63716">
        <ele>1824.7197265625</ele>
        <time>2014-06-14T08:47:38Z</time>
      </trkpt>
      <trkpt lat="42.71272" lon="1.63714">
        <ele>1825.2001953125</ele>
        <time>2014-06-14T08:47:45Z</time>
      </trkpt>
      <trkpt lat="42.71264" lon="1.63713">
        <ele>1826.1616210938</ele>
        <time>2014-06-14T08:47:54Z</time>
      </trkpt>
      <trkpt lat="42.71256" lon="1.63713">
        <ele>1827.123046875</ele>
        <time>2014-06-14T08:48:03Z</time>
      </trkpt>
      <trkpt lat="42.7125" lon="1.63713">
        <ele>1826.6423339844</ele>
        <time>2014-06-14T08:48:09Z</time>
      </trkpt>
      <trkpt lat="42.71241" lon="1.63714">
        <ele>1827.123046875</ele>
        <time>2014-06-14T08:48:18Z</time>
      </trkpt>
      <trkpt lat="42.71235" lon="1.63713">
        <ele>1827.603515625</ele>
        <time>2014-06-14T08:48:24Z</time>
      </trkpt>
      <trkpt lat="42.71228" lon="1.6371">
        <ele>1828.0842285156</ele>
        <time>2014-06-14T08:48:31Z</time>
      </trkpt>
      <trkpt lat="42.71227" lon="1.6371">
        <ele>1828.0842285156</ele>
        <time>2014-06-14T08:48:33Z</time>
      </trkpt>
      <trkpt lat="42.71218" lon="1.63711">
        <ele>1829.0454101562</ele>
        <time>2014-06-14T08:48:42Z</time>
      </trkpt>
      <trkpt lat="42.71212" lon="1.63712">
        <ele>1829.5261230469</ele>
        <time>2014-06-14T08:48:48Z</time>
      </trkpt>
      <trkpt lat="42.71204" lon="1.63714">
        <ele>1829.5261230469</ele>
        <time>2014-06-14T08:48:57Z</time>
      </trkpt>
      <trkpt lat="42.71202" lon="1.63715">
        <ele>1829.5261230469</ele>
        <time>2014-06-14T08:48:59Z</time>
      </trkpt>
      <trkpt lat="42.71199" lon="1.63719">
        <ele>1830.0068359375</ele>
        <time>2014-06-14T08:49:03Z</time>
      </trkpt>
      <trkpt lat="42.71192" lon="1.63724">
        <ele>1830.9682617188</ele>
        <time>2014-06-14T08:49:12Z</time>
      </trkpt>
      <trkpt lat="42.71186" lon="1.63732">
        <ele>1831.4487304688</ele>
        <time>2014-06-14T08:49:19Z</time>
      </trkpt>
      <trkpt lat="42.71179" lon="1.63737">
        <ele>1831.9294433594</ele>
        <time>2014-06-14T08:49:27Z</time>
      </trkpt>
      <trkpt lat="42.71171" lon="1.63742">
        <ele>1832.41015625</ele>
        <time>2014-06-14T08:49:35Z</time>
      </trkpt>
      <trkpt lat="42.71163" lon="1.63746">
        <ele>1832.890625</ele>
        <time>2014-06-14T08:49:43Z</time>
      </trkpt>
      <trkpt lat="42.71159" lon="1.6375">
        <ele>1832.890625</ele>
        <time>2014-06-14T08:49:49Z</time>
      </trkpt>
      <trkpt lat="42.71154" lon="1.63754">
        <ele>1833.8520507812</ele>
        <time>2014-06-14T08:49:56Z</time>
      </trkpt>
      <trkpt lat="42.7115" lon="1.63752">
        <ele>1834.8134765625</ele>
        <time>2014-06-14T08:50:02Z</time>
      </trkpt>
      <trkpt lat="42.71145" lon="1.63755">
        <ele>1835.2939453125</ele>
        <time>2014-06-14T08:50:09Z</time>
      </trkpt>
      <trkpt lat="42.71139" lon="1.63755">
        <ele>1835.7746582031</ele>
        <time>2014-06-14T08:50:17Z</time>
      </trkpt>
      <trkpt lat="42.71135" lon="1.63752">
        <ele>1836.7360839844</ele>
        <time>2014-06-14T08:50:24Z</time>
      </trkpt>
      <trkpt lat="42.71131" lon="1.63747">
        <ele>1836.7360839844</ele>
        <time>2014-06-14T08:50:31Z</time>
      </trkpt>
      <trkpt lat="42.71127" lon="1.63747">
        <ele>1837.216796875</ele>
        <time>2014-06-14T08:50:36Z</time>
      </trkpt>
      <trkpt lat="42.71122" lon="1.63748">
        <ele>1837.6975097656</ele>
        <time>2014-06-14T08:50:42Z</time>
      </trkpt>
      <trkpt lat="42.71119" lon="1.63747">
        <ele>1838.1782226562</ele>
        <time>2014-06-14T08:50:48Z</time>
      </trkpt>
      <trkpt lat="42.71115" lon="1.63745">
        <ele>1839.1394042969</ele>
        <time>2014-06-14T08:50:54Z</time>
      </trkpt>
      <trkpt lat="42.71111" lon="1.63743">
        <ele>1840.5812988281</ele>
        <time>2014-06-14T08:51:01Z</time>
      </trkpt>
      <trkpt lat="42.71106" lon="1.63744">
        <ele>1841.0620117188</ele>
        <time>2014-06-14T08:51:07Z</time>
      </trkpt>
      <trkpt lat="42.71098" lon="1.63741">
        <ele>1842.5041503906</ele>
        <time>2014-06-14T08:51:16Z</time>
      </trkpt>
      <trkpt lat="42.71092" lon="1.63741">
        <ele>1843.4653320312</ele>
        <time>2014-06-14T08:51:23Z</time>
      </trkpt>
      <trkpt lat="42.71085" lon="1.63745">
        <ele>1844.4265136719</ele>
        <time>2014-06-14T08:51:32Z</time>
      </trkpt>
      <trkpt lat="42.7108" lon="1.63748">
        <ele>1844.4265136719</ele>
        <time>2014-06-14T08:51:39Z</time>
      </trkpt>
      <trkpt lat="42.71077" lon="1.6375">
        <ele>1844.9072265625</ele>
        <time>2014-06-14T08:51:44Z</time>
      </trkpt>
      <trkpt lat="42.71072" lon="1.63745">
        <ele>1844.9072265625</ele>
        <time>2014-06-14T08:51:50Z</time>
      </trkpt>
      <trkpt lat="42.71066" lon="1.63736">
        <ele>1844.9072265625</ele>
        <time>2014-06-14T08:51:59Z</time>
      </trkpt>
      <trkpt lat="42.71059" lon="1.63727">
        <ele>1844.9072265625</ele>
        <time>2014-06-14T08:52:08Z</time>
      </trkpt>
      <trkpt lat="42.71055" lon="1.63723">
        <ele>1844.9072265625</ele>
        <time>2014-06-14T08:52:12Z</time>
      </trkpt>
      <trkpt lat="42.71047" lon="1.63721">
        <ele>1845.3879394531</ele>
        <time>2014-06-14T08:52:20Z</time>
      </trkpt>
      <trkpt lat="42.71044" lon="1.6372">
        <ele>1845.8686523438</ele>
        <time>2014-06-14T08:52:23Z</time>
      </trkpt>
      <trkpt lat="42.71035" lon="1.63718">
        <ele>1846.3493652344</ele>
        <time>2014-06-14T08:52:31Z</time>
      </trkpt>
      <trkpt lat="42.71027" lon="1.63713">
        <ele>1846.8298339844</ele>
        <time>2014-06-14T08:52:39Z</time>
      </trkpt>
      <trkpt lat="42.7102" lon="1.63708">
        <ele>1847.310546875</ele>
        <time>2014-06-14T08:52:46Z</time>
      </trkpt>
      <trkpt lat="42.7101" lon="1.63704">
        <ele>1847.7912597656</ele>
        <time>2014-06-14T08:52:55Z</time>
      </trkpt>
      <trkpt lat="42.71006" lon="1.637">
        <ele>1847.7912597656</ele>
        <time>2014-06-14T08:53:00Z</time>
      </trkpt>
      <trkpt lat="42.71001" lon="1.63693">
        <ele>1847.310546875</ele>
        <time>2014-06-14T08:53:08Z</time>
      </trkpt>
      <trkpt lat="42.70999" lon="1.63689">
        <ele>1847.310546875</ele>
        <time>2014-06-14T08:53:14Z</time>
      </trkpt>
      <trkpt lat="42.70995" lon="1.63686">
        <ele>1847.7912597656</ele>
        <time>2014-06-14T08:53:19Z</time>
      </trkpt>
      <trkpt lat="42.7099" lon="1.63683">
        <ele>1848.7524414062</ele>
        <time>2014-06-14T08:53:26Z</time>
      </trkpt>
      <trkpt lat="42.70986" lon="1.63678">
        <ele>1848.2717285156</ele>
        <time>2014-06-14T08:53:32Z</time>
      </trkpt>
      <trkpt lat="42.70983" lon="1.63673">
        <ele>1848.7524414062</ele>
        <time>2014-06-14T08:53:38Z</time>
      </trkpt>
      <trkpt lat="42.70978" lon="1.63669">
        <ele>1849.2331542969</ele>
        <time>2014-06-14T08:53:44Z</time>
      </trkpt>
      <trkpt lat="42.70973" lon="1.63668">
        <ele>1849.2331542969</ele>
        <time>2014-06-14T08:53:50Z</time>
      </trkpt>
      <trkpt lat="42.70969" lon="1.63664">
        <ele>1847.7912597656</ele>
        <time>2014-06-14T08:53:55Z</time>
      </trkpt>
      <trkpt lat="42.70967" lon="1.63663">
        <ele>1847.7912597656</ele>
        <time>2014-06-14T08:53:57Z</time>
      </trkpt>
      <trkpt lat="42.7096" lon="1.63659">
        <ele>1846.8298339844</ele>
        <time>2014-06-14T08:54:05Z</time>
      </trkpt>
      <trkpt lat="42.70957" lon="1.63656">
        <ele>1846.8298339844</ele>
        <time>2014-06-14T08:54:08Z</time>
      </trkpt>
      <trkpt lat="42.70954" lon="1.63655">
        <ele>1846.3493652344</ele>
        <time>2014-06-14T08:54:11Z</time>
      </trkpt>
      <trkpt lat="42.70948" lon="1.6365">
        <ele>1845.8686523438</ele>
        <time>2014-06-14T08:54:18Z</time>
      </trkpt>
      <trkpt lat="42.70945" lon="1.63648">
        <ele>1845.3879394531</ele>
        <time>2014-06-14T08:54:22Z</time>
      </trkpt>
      <trkpt lat="42.7094" lon="1.6364">
        <ele>1843.9460449219</ele>
        <time>2014-06-14T08:54:29Z</time>
      </trkpt>
      <trkpt lat="42.70936" lon="1.63634">
        <ele>1842.9846191406</ele>
        <time>2014-06-14T08:54:36Z</time>
      </trkpt>
      <trkpt lat="42.70929" lon="1.6363">
        <ele>1842.5041503906</ele>
        <time>2014-06-14T08:54:44Z</time>
      </trkpt>
      <trkpt lat="42.70924" lon="1.63628">
        <ele>1841.5427246094</ele>
        <time>2014-06-14T08:54:50Z</time>
      </trkpt>
      <trkpt lat="42.70919" lon="1.63624">
        <ele>1839.6201171875</ele>
        <time>2014-06-14T08:54:58Z</time>
      </trkpt>
      <trkpt lat="42.70914" lon="1.63622">
        <ele>1838.1782226562</ele>
        <time>2014-06-14T08:55:04Z</time>
      </trkpt>
      <trkpt lat="42.70909" lon="1.63619">
        <ele>1836.7360839844</ele>
        <time>2014-06-14T08:55:11Z</time>
      </trkpt>
      <trkpt lat="42.70908" lon="1.63617">
        <ele>1835.2939453125</ele>
        <time>2014-06-14T08:55:17Z</time>
      </trkpt>
      <trkpt lat="42.70904" lon="1.63615">
        <ele>1834.3327636719</ele>
        <time>2014-06-14T08:55:24Z</time>
      </trkpt>
      <trkpt lat="42.70901" lon="1.63613">
        <ele>1832.890625</ele>
        <time>2014-06-14T08:55:30Z</time>
      </trkpt>
      <trkpt lat="42.70899" lon="1.63609">
        <ele>1831.4487304688</ele>
        <time>2014-06-14T08:55:36Z</time>
      </trkpt>
      <trkpt lat="42.70895" lon="1.63606">
        <ele>1830.0068359375</ele>
        <time>2014-06-14T08:55:43Z</time>
      </trkpt>
      <trkpt lat="42.70893" lon="1.63605">
        <ele>1828.5649414062</ele>
        <time>2014-06-14T08:55:50Z</time>
      </trkpt>
      <trkpt lat="42.70887" lon="1.63604">
        <ele>1825.6809082031</ele>
        <time>2014-06-14T08:55:58Z</time>
      </trkpt>
      <trkpt lat="42.70882" lon="1.63602">
        <ele>1822.7971191406</ele>
        <time>2014-06-14T08:56:05Z</time>
      </trkpt>
      <trkpt lat="42.70879" lon="1.63598">
        <ele>1820.8745117188</ele>
        <time>2014-06-14T08:56:12Z</time>
      </trkpt>
      <trkpt lat="42.70877" lon="1.63598">
        <ele>1819.4323730469</ele>
        <time>2014-06-14T08:56:18Z</time>
      </trkpt>
      <trkpt lat="42.70872" lon="1.63595">
        <ele>1816.5483398438</ele>
        <time>2014-06-14T08:56:24Z</time>
      </trkpt>
      <trkpt lat="42.70868" lon="1.63595">
        <ele>1813.6643066406</ele>
        <time>2014-06-14T08:56:31Z</time>
      </trkpt>
      <trkpt lat="42.70865" lon="1.63596">
        <ele>1810.7805175781</ele>
        <time>2014-06-14T08:56:37Z</time>
      </trkpt>
      <trkpt lat="42.70863" lon="1.63592">
        <ele>1808.8579101562</ele>
        <time>2014-06-14T08:56:43Z</time>
      </trkpt>
      <trkpt lat="42.7086" lon="1.6359">
        <ele>1807.8967285156</ele>
        <time>2014-06-14T08:56:48Z</time>
      </trkpt>
      <trkpt lat="42.70857" lon="1.63589">
        <ele>1806.4545898438</ele>
        <time>2014-06-14T08:56:55Z</time>
      </trkpt>
      <trkpt lat="42.70854" lon="1.63588">
        <ele>1805.4934082031</ele>
        <time>2014-06-14T08:57:00Z</time>
      </trkpt>
      <trkpt lat="42.70852" lon="1.63588">
        <ele>1804.5319824219</ele>
        <time>2014-06-14T08:57:05Z</time>
      </trkpt>
      <trkpt lat="42.70849" lon="1.63588">
        <ele>1803.08984375</ele>
        <time>2014-06-14T08:57:10Z</time>
      </trkpt>
      <trkpt lat="42.70845" lon="1.63589">
        <ele>1801.6479492188</ele>
        <time>2014-06-14T08:57:16Z</time>
      </trkpt>
      <trkpt lat="42.70843" lon="1.6359">
        <ele>1800.2060546875</ele>
        <time>2014-06-14T08:57:22Z</time>
      </trkpt>
      <trkpt lat="42.70839" lon="1.6359">
        <ele>1797.802734375</ele>
        <time>2014-06-14T08:57:28Z</time>
      </trkpt>
      <trkpt lat="42.70835" lon="1.63585">
        <ele>1796.3608398438</ele>
        <time>2014-06-14T08:57:35Z</time>
      </trkpt>
      <trkpt lat="42.70834" lon="1.63584">
        <ele>1796.3608398438</ele>
        <time>2014-06-14T08:57:43Z</time>
      </trkpt>
      <trkpt lat="42.70831" lon="1.63581">
        <ele>1794.9187011719</ele>
        <time>2014-06-14T08:57:49Z</time>
      </trkpt>
      <trkpt lat="42.70829" lon="1.63577">
        <ele>1793.9575195312</ele>
        <time>2014-06-14T08:57:55Z</time>
      </trkpt>
      <trkpt lat="42.70829" lon="1.63578">
        <ele>1793.9575195312</ele>
        <time>2014-06-14T08:58:06Z</time>
      </trkpt>
      <trkpt lat="42.70829" lon="1.63577">
        <ele>1794.4379882812</ele>
        <time>2014-06-14T08:58:17Z</time>
      </trkpt>
      <trkpt lat="42.70828" lon="1.63574">
        <ele>1794.9187011719</ele>
        <time>2014-06-14T08:58:29Z</time>
      </trkpt>
      <trkpt lat="42.70825" lon="1.63571">
        <ele>1793.4768066406</ele>
        <time>2014-06-14T08:58:35Z</time>
      </trkpt>
      <trkpt lat="42.70821" lon="1.63565">
        <ele>1791.0734863281</ele>
        <time>2014-06-14T08:58:42Z</time>
      </trkpt>
      <trkpt lat="42.70819" lon="1.63561">
        <ele>1790.1123046875</ele>
        <time>2014-06-14T08:58:47Z</time>
      </trkpt>
      <trkpt lat="42.70814" lon="1.63557">
        <ele>1789.1508789062</ele>
        <time>2014-06-14T08:58:53Z</time>
      </trkpt>
      <trkpt lat="42.70814" lon="1.63552">
        <ele>1789.1508789062</ele>
        <time>2014-06-14T08:58:59Z</time>
      </trkpt>
      <trkpt lat="42.70809" lon="1.63546">
        <ele>1787.7087402344</ele>
        <time>2014-06-14T08:59:06Z</time>
      </trkpt>
      <trkpt lat="42.70804" lon="1.6354">
        <ele>1786.2668457031</ele>
        <time>2014-06-14T08:59:12Z</time>
      </trkpt>
      <trkpt lat="42.70803" lon="1.63538">
        <ele>1786.7473144531</ele>
        <time>2014-06-14T08:59:14Z</time>
      </trkpt>
      <trkpt lat="42.708" lon="1.63531">
        <ele>1786.2668457031</ele>
        <time>2014-06-14T08:59:21Z</time>
      </trkpt>
      <trkpt lat="42.70796" lon="1.63528">
        <ele>1785.7861328125</ele>
        <time>2014-06-14T08:59:26Z</time>
      </trkpt>
      <trkpt lat="42.7079" lon="1.63523">
        <ele>1785.3054199219</ele>
        <time>2014-06-14T08:59:32Z</time>
      </trkpt>
      <trkpt lat="42.70785" lon="1.63518">
        <ele>1784.3442382812</ele>
        <time>2014-06-14T08:59:38Z</time>
      </trkpt>
      <trkpt lat="42.70779" lon="1.6351">
        <ele>1782.4216308594</ele>
        <time>2014-06-14T08:59:45Z</time>
      </trkpt>
      <trkpt lat="42.70778" lon="1.63505">
        <ele>1781.4602050781</ele>
        <time>2014-06-14T08:59:49Z</time>
      </trkpt>
      <trkpt lat="42.70774" lon="1.63497">
        <ele>1780.0183105469</ele>
        <time>2014-06-14T08:59:56Z</time>
      </trkpt>
      <trkpt lat="42.70773" lon="1.63494">
        <ele>1779.5375976562</ele>
        <time>2014-06-14T08:59:58Z</time>
      </trkpt>
      <trkpt lat="42.70772" lon="1.6349">
        <ele>1779.5375976562</ele>
        <time>2014-06-14T09:00:09Z</time>
      </trkpt>
      <trkpt lat="42.70772" lon="1.63488">
        <ele>1779.5375976562</ele>
        <time>2014-06-14T09:00:10Z</time>
      </trkpt>
      <trkpt lat="42.70771" lon="1.63478">
        <ele>1779.0568847656</ele>
        <time>2014-06-14T09:00:17Z</time>
      </trkpt>
      <trkpt lat="42.70771" lon="1.6347">
        <ele>1778.5764160156</ele>
        <time>2014-06-14T09:00:24Z</time>
      </trkpt>
      <trkpt lat="42.70772" lon="1.63464">
        <ele>1778.095703125</ele>
        <time>2014-06-14T09:00:29Z</time>
      </trkpt>
      <trkpt lat="42.70771" lon="1.63456">
        <ele>1778.095703125</ele>
        <time>2014-06-14T09:00:36Z</time>
      </trkpt>
      <trkpt lat="42.70772" lon="1.6345">
        <ele>1777.6149902344</ele>
        <time>2014-06-14T09:00:41Z</time>
      </trkpt>
      <trkpt lat="42.70771" lon="1.63444">
        <ele>1777.6149902344</ele>
        <time>2014-06-14T09:00:47Z</time>
      </trkpt>
      <trkpt lat="42.70772" lon="1.63437">
        <ele>1777.6149902344</ele>
        <time>2014-06-14T09:00:53Z</time>
      </trkpt>
      <trkpt lat="42.70772" lon="1.63431">
        <ele>1778.5764160156</ele>
        <time>2014-06-14T09:00:59Z</time>
      </trkpt>
      <trkpt lat="42.70773" lon="1.63424">
        <ele>1778.5764160156</ele>
        <time>2014-06-14T09:01:04Z</time>
      </trkpt>
      <trkpt lat="42.70774" lon="1.63417">
        <ele>1778.5764160156</ele>
        <time>2014-06-14T09:01:11Z</time>
      </trkpt>
      <trkpt lat="42.70773" lon="1.6341">
        <ele>1779.0568847656</ele>
        <time>2014-06-14T09:01:17Z</time>
      </trkpt>
      <trkpt lat="42.70774" lon="1.63404">
        <ele>1780.0183105469</ele>
        <time>2014-06-14T09:01:23Z</time>
      </trkpt>
      <trkpt lat="42.70774" lon="1.63399">
        <ele>1780.4990234375</ele>
        <time>2014-06-14T09:01:28Z</time>
      </trkpt>
      <trkpt lat="42.70777" lon="1.63393">
        <ele>1780.9797363281</ele>
        <time>2014-06-14T09:01:35Z</time>
      </trkpt>
      <trkpt lat="42.70777" lon="1.63388">
        <ele>1780.9797363281</ele>
        <time>2014-06-14T09:01:39Z</time>
      </trkpt>
      <trkpt lat="42.70778" lon="1.6338">
        <ele>1781.4602050781</ele>
        <time>2014-06-14T09:01:46Z</time>
      </trkpt>
      <trkpt lat="42.70778" lon="1.63375">
        <ele>1780.9797363281</ele>
        <time>2014-06-14T09:01:50Z</time>
      </trkpt>
      <trkpt lat="42.70777" lon="1.63369">
        <ele>1780.9797363281</ele>
        <time>2014-06-14T09:01:55Z</time>
      </trkpt>
      <trkpt lat="42.70777" lon="1.63359">
        <ele>1780.9797363281</ele>
        <time>2014-06-14T09:02:02Z</time>
      </trkpt>
      <trkpt lat="42.70776" lon="1.63358">
        <ele>1780.9797363281</ele>
        <time>2014-06-14T09:02:03Z</time>
      </trkpt>
      <trkpt lat="42.70772" lon="1.63348">
        <ele>1780.9797363281</ele>
        <time>2014-06-14T09:02:11Z</time>
      </trkpt>
      <trkpt lat="42.70771" lon="1.63342">
        <ele>1780.9797363281</ele>
        <time>2014-06-14T09:02:17Z</time>
      </trkpt>
      <trkpt lat="42.70769" lon="1.63335">
        <ele>1780.9797363281</ele>
        <time>2014-06-14T09:02:23Z</time>
      </trkpt>
      <trkpt lat="42.70771" lon="1.63328">
        <ele>1781.4602050781</ele>
        <time>2014-06-14T09:02:29Z</time>
      </trkpt>
      <trkpt lat="42.70771" lon="1.6332">
        <ele>1782.4216308594</ele>
        <time>2014-06-14T09:02:37Z</time>
      </trkpt>
      <trkpt lat="42.70769" lon="1.63317">
        <ele>1782.9020996094</ele>
        <time>2014-06-14T09:02:43Z</time>
      </trkpt>
      <trkpt lat="42.70768" lon="1.63316">
        <ele>1782.9020996094</ele>
        <time>2014-06-14T09:02:44Z</time>
      </trkpt>
      <trkpt lat="42.70768" lon="1.63307">
        <ele>1783.8635253906</ele>
        <time>2014-06-14T09:02:51Z</time>
      </trkpt>
      <trkpt lat="42.70766" lon="1.63299">
        <ele>1783.3828125</ele>
        <time>2014-06-14T09:02:58Z</time>
      </trkpt>
      <trkpt lat="42.70763" lon="1.63289">
        <ele>1782.9020996094</ele>
        <time>2014-06-14T09:03:06Z</time>
      </trkpt>
      <trkpt lat="42.70762" lon="1.63282">
        <ele>1782.9020996094</ele>
        <time>2014-06-14T09:03:12Z</time>
      </trkpt>
      <trkpt lat="42.70762" lon="1.63275">
        <ele>1782.9020996094</ele>
        <time>2014-06-14T09:03:18Z</time>
      </trkpt>
      <trkpt lat="42.70765" lon="1.63269">
        <ele>1783.3828125</ele>
        <time>2014-06-14T09:03:24Z</time>
      </trkpt>
      <trkpt lat="42.70766" lon="1.63264">
        <ele>1783.3828125</ele>
        <time>2014-06-14T09:03:29Z</time>
      </trkpt>
      <trkpt lat="42.70769" lon="1.63257">
        <ele>1784.8249511719</ele>
        <time>2014-06-14T09:03:36Z</time>
      </trkpt>
      <trkpt lat="42.70771" lon="1.6325">
        <ele>1784.8249511719</ele>
        <time>2014-06-14T09:03:43Z</time>
      </trkpt>
      <trkpt lat="42.70774" lon="1.63242">
        <ele>1786.2668457031</ele>
        <time>2014-06-14T09:03:51Z</time>
      </trkpt>
      <trkpt lat="42.70776" lon="1.63237">
        <ele>1786.7473144531</ele>
        <time>2014-06-14T09:03:57Z</time>
      </trkpt>
      <trkpt lat="42.70777" lon="1.63234">
        <ele>1787.2280273438</ele>
        <time>2014-06-14T09:04:01Z</time>
      </trkpt>
      <trkpt lat="42.7078" lon="1.63228">
        <ele>1787.7087402344</ele>
        <time>2014-06-14T09:04:09Z</time>
      </trkpt>
      <trkpt lat="42.70781" lon="1.63222">
        <ele>1788.1896972656</ele>
        <time>2014-06-14T09:04:15Z</time>
      </trkpt>
      <trkpt lat="42.70784" lon="1.63215">
        <ele>1788.6704101562</ele>
        <time>2014-06-14T09:04:23Z</time>
      </trkpt>
      <trkpt lat="42.70783" lon="1.63207">
        <ele>1789.6315917969</ele>
        <time>2014-06-14T09:04:29Z</time>
      </trkpt>
      <trkpt lat="42.70783" lon="1.63204">
        <ele>1790.1123046875</ele>
        <time>2014-06-14T09:04:36Z</time>
      </trkpt>
      <trkpt lat="42.70786" lon="1.63204">
        <ele>1790.1123046875</ele>
        <time>2014-06-14T09:04:46Z</time>
      </trkpt>
      <trkpt lat="42.70789" lon="1.63203">
        <ele>1791.0734863281</ele>
        <time>2014-06-14T09:04:52Z</time>
      </trkpt>
      <trkpt lat="42.70789" lon="1.63202">
        <ele>1791.5541992188</ele>
        <time>2014-06-14T09:04:57Z</time>
      </trkpt>
      <trkpt lat="42.70791" lon="1.632">
        <ele>1792.515625</ele>
        <time>2014-06-14T09:05:09Z</time>
      </trkpt>
      <trkpt lat="42.70792" lon="1.63198">
        <ele>1793.9575195312</ele>
        <time>2014-06-14T09:05:28Z</time>
      </trkpt>
      <trkpt lat="42.70792" lon="1.63197">
        <ele>1794.4379882812</ele>
        <time>2014-06-14T09:05:46Z</time>
      </trkpt>
      <trkpt lat="42.70792" lon="1.63196">
        <ele>1794.4379882812</ele>
        <time>2014-06-14T09:05:56Z</time>
      </trkpt>
      <trkpt lat="42.70793" lon="1.63194">
        <ele>1794.9187011719</ele>
        <time>2014-06-14T09:06:06Z</time>
      </trkpt>
      <trkpt lat="42.70794" lon="1.63191">
        <ele>1794.4379882812</ele>
        <time>2014-06-14T09:06:14Z</time>
      </trkpt>
      <trkpt lat="42.70794" lon="1.63188">
        <ele>1794.9187011719</ele>
        <time>2014-06-14T09:06:20Z</time>
      </trkpt>
      <trkpt lat="42.70795" lon="1.63186">
        <ele>1795.3994140625</ele>
        <time>2014-06-14T09:06:25Z</time>
      </trkpt>
      <trkpt lat="42.70796" lon="1.63185">
        <ele>1795.3994140625</ele>
        <time>2014-06-14T09:06:32Z</time>
      </trkpt>
      <trkpt lat="42.70797" lon="1.63185">
        <ele>1795.3994140625</ele>
        <time>2014-06-14T09:06:40Z</time>
      </trkpt>
      <trkpt lat="42.70798" lon="1.63184">
        <ele>1795.8801269531</ele>
        <time>2014-06-14T09:06:51Z</time>
      </trkpt>
      <trkpt lat="42.70797" lon="1.6318">
        <ele>1795.3994140625</ele>
        <time>2014-06-14T09:06:57Z</time>
      </trkpt>
      <trkpt lat="42.70798" lon="1.63178">
        <ele>1795.8801269531</ele>
        <time>2014-06-14T09:07:02Z</time>
      </trkpt>
      <trkpt lat="42.70799" lon="1.63176">
        <ele>1796.3608398438</ele>
        <time>2014-06-14T09:07:09Z</time>
      </trkpt>
      <trkpt lat="42.708" lon="1.63174">
        <ele>1796.8413085938</ele>
        <time>2014-06-14T09:07:16Z</time>
      </trkpt>
      <trkpt lat="42.70802" lon="1.63171">
        <ele>1797.3220214844</ele>
        <time>2014-06-14T09:07:24Z</time>
      </trkpt>
      <trkpt lat="42.70802" lon="1.6317">
        <ele>1797.802734375</ele>
        <time>2014-06-14T09:07:34Z</time>
      </trkpt>
      <trkpt lat="42.70802" lon="1.63166">
        <ele>1797.802734375</ele>
        <time>2014-06-14T09:07:41Z</time>
      </trkpt>
      <trkpt lat="42.70803" lon="1.63162">
        <ele>1796.8413085938</ele>
        <time>2014-06-14T09:07:45Z</time>
      </trkpt>
      <trkpt lat="42.70803" lon="1.63162">
        <ele>1796.8413085938</ele>
        <time>2014-06-14T09:07:51Z</time>
      </trkpt>
      <trkpt lat="42.70804" lon="1.63158">
        <ele>1796.3608398438</ele>
        <time>2014-06-14T09:08:05Z</time>
      </trkpt>
      <trkpt lat="42.70804" lon="1.63152">
        <ele>1795.8801269531</ele>
        <time>2014-06-14T09:08:11Z</time>
      </trkpt>
      <trkpt lat="42.70805" lon="1.63146">
        <ele>1795.3994140625</ele>
        <time>2014-06-14T09:08:18Z</time>
      </trkpt>
      <trkpt lat="42.70806" lon="1.63139">
        <ele>1794.9187011719</ele>
        <time>2014-06-14T09:08:24Z</time>
      </trkpt>
      <trkpt lat="42.70807" lon="1.6313">
        <ele>1794.9187011719</ele>
        <time>2014-06-14T09:08:31Z</time>
      </trkpt>
      <trkpt lat="42.70808" lon="1.63125">
        <ele>1795.8801269531</ele>
        <time>2014-06-14T09:08:36Z</time>
      </trkpt>
      <trkpt lat="42.7081" lon="1.63118">
        <ele>1796.8413085938</ele>
        <time>2014-06-14T09:08:43Z</time>
      </trkpt>
      <trkpt lat="42.70811" lon="1.63113">
        <ele>1797.802734375</ele>
        <time>2014-06-14T09:08:50Z</time>
      </trkpt>
      <trkpt lat="42.70813" lon="1.63106">
        <ele>1799.2446289062</ele>
        <time>2014-06-14T09:08:57Z</time>
      </trkpt>
      <trkpt lat="42.70816" lon="1.63098">
        <ele>1800.6865234375</ele>
        <time>2014-06-14T09:09:05Z</time>
      </trkpt>
      <trkpt lat="42.70818" lon="1.63092">
        <ele>1801.1672363281</ele>
        <time>2014-06-14T09:09:11Z</time>
      </trkpt>
      <trkpt lat="42.7082" lon="1.63088">
        <ele>1802.1284179688</ele>
        <time>2014-06-14T09:09:17Z</time>
      </trkpt>
      <trkpt lat="42.70821" lon="1.63081">
        <ele>1802.6091308594</ele>
        <time>2014-06-14T09:09:24Z</time>
      </trkpt>
      <trkpt lat="42.70823" lon="1.63074">
        <ele>1804.0515136719</ele>
        <time>2014-06-14T09:09:32Z</time>
      </trkpt>
      <trkpt lat="42.70824" lon="1.63067">
        <ele>1805.4934082031</ele>
        <time>2014-06-14T09:09:41Z</time>
      </trkpt>
      <trkpt lat="42.70825" lon="1.63061">
        <ele>1806.4545898438</ele>
        <time>2014-06-14T09:09:48Z</time>
      </trkpt>
      <trkpt lat="42.70826" lon="1.63054">
        <ele>1807.8967285156</ele>
        <time>2014-06-14T09:09:56Z</time>
      </trkpt>
      <trkpt lat="42.70827" lon="1.6305">
        <ele>1808.8579101562</ele>
        <time>2014-06-14T09:10:02Z</time>
      </trkpt>
      <trkpt lat="42.7083" lon="1.63046">
        <ele>1809.8190917969</ele>
        <time>2014-06-14T09:10:09Z</time>
      </trkpt>
      <trkpt lat="42.70831" lon="1.63042">
        <ele>1810.7805175781</ele>
        <time>2014-06-14T09:10:15Z</time>
      </trkpt>
      <trkpt lat="42.70831" lon="1.63038">
        <ele>1811.7419433594</ele>
        <time>2014-06-14T09:10:21Z</time>
      </trkpt>
      <trkpt lat="42.70831" lon="1.63032">
        <ele>1812.2224121094</ele>
        <time>2014-06-14T09:10:28Z</time>
      </trkpt>
      <trkpt lat="42.70832" lon="1.63028">
        <ele>1813.6643066406</ele>
        <time>2014-06-14T09:10:34Z</time>
      </trkpt>
      <trkpt lat="42.70834" lon="1.63024">
        <ele>1814.1450195312</ele>
        <time>2014-06-14T09:10:39Z</time>
      </trkpt>
      <trkpt lat="42.70836" lon="1.6302">
        <ele>1814.6257324219</ele>
        <time>2014-06-14T09:10:46Z</time>
      </trkpt>
      <trkpt lat="42.70837" lon="1.63015">
        <ele>1815.1064453125</ele>
        <time>2014-06-14T09:10:52Z</time>
      </trkpt>
      <trkpt lat="42.70837" lon="1.63007">
        <ele>1815.5871582031</ele>
        <time>2014-06-14T09:11:00Z</time>
      </trkpt>
      <trkpt lat="42.70839" lon="1.63001">
        <ele>1816.5483398438</ele>
        <time>2014-06-14T09:11:07Z</time>
      </trkpt>
      <trkpt lat="42.70839" lon="1.62994">
        <ele>1817.5095214844</ele>
        <time>2014-06-14T09:11:14Z</time>
      </trkpt>
      <trkpt lat="42.70839" lon="1.6299">
        <ele>1817.5095214844</ele>
        <time>2014-06-14T09:11:19Z</time>
      </trkpt>
      <trkpt lat="42.7084" lon="1.62986">
        <ele>1817.5095214844</ele>
        <time>2014-06-14T09:11:24Z</time>
      </trkpt>
      <trkpt lat="42.70841" lon="1.62979">
        <ele>1817.5095214844</ele>
        <time>2014-06-14T09:11:31Z</time>
      </trkpt>
      <trkpt lat="42.70843" lon="1.62969">
        <ele>1819.4323730469</ele>
        <time>2014-06-14T09:11:40Z</time>
      </trkpt>
      <trkpt lat="42.70845" lon="1.62961">
        <ele>1819.9128417969</ele>
        <time>2014-06-14T09:11:47Z</time>
      </trkpt>
      <trkpt lat="42.70848" lon="1.62953">
        <ele>1819.4323730469</ele>
        <time>2014-06-14T09:11:54Z</time>
      </trkpt>
      <trkpt lat="42.70851" lon="1.62949">
        <ele>1820.8745117188</ele>
        <time>2014-06-14T09:12:01Z</time>
      </trkpt>
      <trkpt lat="42.70854" lon="1.62943">
        <ele>1821.8356933594</ele>
        <time>2014-06-14T09:12:07Z</time>
      </trkpt>
      <trkpt lat="42.70855" lon="1.62938">
        <ele>1821.8356933594</ele>
        <time>2014-06-14T09:12:13Z</time>
      </trkpt>
      <trkpt lat="42.70858" lon="1.6293">
        <ele>1821.8356933594</ele>
        <time>2014-06-14T09:12:19Z</time>
      </trkpt>
      <trkpt lat="42.70859" lon="1.62925">
        <ele>1822.31640625</ele>
        <time>2014-06-14T09:12:23Z</time>
      </trkpt>
      <trkpt lat="42.7086" lon="1.62915">
        <ele>1825.2001953125</ele>
        <time>2014-06-14T09:12:30Z</time>
      </trkpt>
      <trkpt lat="42.70862" lon="1.62911">
        <ele>1826.1616210938</ele>
        <time>2014-06-14T09:12:35Z</time>
      </trkpt>
      <trkpt lat="42.70863" lon="1.62905">
        <ele>1827.123046875</ele>
        <time>2014-06-14T09:12:40Z</time>
      </trkpt>
      <trkpt lat="42.70864" lon="1.62899">
        <ele>1828.0842285156</ele>
        <time>2014-06-14T09:12:47Z</time>
      </trkpt>
      <trkpt lat="42.70866" lon="1.62889">
        <ele>1829.0454101562</ele>
        <time>2014-06-14T09:12:56Z</time>
      </trkpt>
      <trkpt lat="42.70869" lon="1.62883">
        <ele>1829.5261230469</ele>
        <time>2014-06-14T09:13:03Z</time>
      </trkpt>
      <trkpt lat="42.7087" lon="1.62877">
        <ele>1830.4875488281</ele>
        <time>2014-06-14T09:13:09Z</time>
      </trkpt>
      <trkpt lat="42.70871" lon="1.62868">
        <ele>1832.41015625</ele>
        <time>2014-06-14T09:13:16Z</time>
      </trkpt>
      <trkpt lat="42.70872" lon="1.62862">
        <ele>1832.890625</ele>
        <time>2014-06-14T09:13:23Z</time>
      </trkpt>
      <trkpt lat="42.70874" lon="1.62852">
        <ele>1833.8520507812</ele>
        <time>2014-06-14T09:13:32Z</time>
      </trkpt>
      <trkpt lat="42.70875" lon="1.62847">
        <ele>1833.8520507812</ele>
        <time>2014-06-14T09:13:39Z</time>
      </trkpt>
      <trkpt lat="42.70876" lon="1.6284">
        <ele>1834.3327636719</ele>
        <time>2014-06-14T09:13:45Z</time>
      </trkpt>
      <trkpt lat="42.70878" lon="1.62833">
        <ele>1835.2939453125</ele>
        <time>2014-06-14T09:13:53Z</time>
      </trkpt>
      <trkpt lat="42.70879" lon="1.62823">
        <ele>1836.2556152344</ele>
        <time>2014-06-14T09:14:01Z</time>
      </trkpt>
      <trkpt lat="42.70879" lon="1.62819">
        <ele>1836.7360839844</ele>
        <time>2014-06-14T09:14:04Z</time>
      </trkpt>
      <trkpt lat="42.7088" lon="1.62812">
        <ele>1837.6975097656</ele>
        <time>2014-06-14T09:14:09Z</time>
      </trkpt>
      <trkpt lat="42.70881" lon="1.62801">
        <ele>1839.1394042969</ele>
        <time>2014-06-14T09:14:18Z</time>
      </trkpt>
      <trkpt lat="42.70883" lon="1.62796">
        <ele>1840.5812988281</ele>
        <time>2014-06-14T09:14:25Z</time>
      </trkpt>
      <trkpt lat="42.70884" lon="1.62792">
        <ele>1841.0620117188</ele>
        <time>2014-06-14T09:14:31Z</time>
      </trkpt>
      <trkpt lat="42.70884" lon="1.62788">
        <ele>1841.0620117188</ele>
        <time>2014-06-14T09:14:36Z</time>
      </trkpt>
      <trkpt lat="42.70886" lon="1.62783">
        <ele>1841.5427246094</ele>
        <time>2014-06-14T09:14:42Z</time>
      </trkpt>
      <trkpt lat="42.70888" lon="1.62773">
        <ele>1842.5041503906</ele>
        <time>2014-06-14T09:14:50Z</time>
      </trkpt>
      <trkpt lat="42.7089" lon="1.62763">
        <ele>1842.9846191406</ele>
        <time>2014-06-14T09:14:59Z</time>
      </trkpt>
      <trkpt lat="42.70893" lon="1.62756">
        <ele>1844.9072265625</ele>
        <time>2014-06-14T09:15:06Z</time>
      </trkpt>
      <trkpt lat="42.70894" lon="1.62748">
        <ele>1845.8686523438</ele>
        <time>2014-06-14T09:15:13Z</time>
      </trkpt>
      <trkpt lat="42.70897" lon="1.62742">
        <ele>1846.8298339844</ele>
        <time>2014-06-14T09:15:19Z</time>
      </trkpt>
      <trkpt lat="42.70899" lon="1.62737">
        <ele>1847.310546875</ele>
        <time>2014-06-14T09:15:26Z</time>
      </trkpt>
      <trkpt lat="42.709" lon="1.62732">
        <ele>1847.7912597656</ele>
        <time>2014-06-14T09:15:31Z</time>
      </trkpt>
      <trkpt lat="42.70902" lon="1.62727">
        <ele>1848.7524414062</ele>
        <time>2014-06-14T09:15:37Z</time>
      </trkpt>
      <trkpt lat="42.70903" lon="1.62717">
        <ele>1849.7138671875</ele>
        <time>2014-06-14T09:15:45Z</time>
      </trkpt>
      <trkpt lat="42.70905" lon="1.62711">
        <ele>1850.6750488281</ele>
        <time>2014-06-14T09:15:51Z</time>
      </trkpt>
      <trkpt lat="42.70907" lon="1.62705">
        <ele>1851.1557617188</ele>
        <time>2014-06-14T09:15:57Z</time>
      </trkpt>
      <trkpt lat="42.70909" lon="1.62696">
        <ele>1852.5979003906</ele>
        <time>2014-06-14T09:16:05Z</time>
      </trkpt>
      <trkpt lat="42.70912" lon="1.62689">
        <ele>1854.0400390625</ele>
        <time>2014-06-14T09:16:12Z</time>
      </trkpt>
      <trkpt lat="42.70915" lon="1.62684">
        <ele>1855.4819335938</ele>
        <time>2014-06-14T09:16:20Z</time>
      </trkpt>
      <trkpt lat="42.70918" lon="1.62677">
        <ele>1857.4045410156</ele>
        <time>2014-06-14T09:16:27Z</time>
      </trkpt>
      <trkpt lat="42.70919" lon="1.6267">
        <ele>1858.3657226562</ele>
        <time>2014-06-14T09:16:34Z</time>
      </trkpt>
      <trkpt lat="42.70921" lon="1.62661">
        <ele>1859.3271484375</ele>
        <time>2014-06-14T09:16:42Z</time>
      </trkpt>
      <trkpt lat="42.70923" lon="1.62654">
        <ele>1860.2883300781</ele>
        <time>2014-06-14T09:16:49Z</time>
      </trkpt>
      <trkpt lat="42.70924" lon="1.62647">
        <ele>1860.7690429688</ele>
        <time>2014-06-14T09:16:55Z</time>
      </trkpt>
      <trkpt lat="42.70926" lon="1.6264">
        <ele>1861.73046875</ele>
        <time>2014-06-14T09:17:03Z</time>
      </trkpt>
      <trkpt lat="42.70926" lon="1.62632">
        <ele>1862.6916503906</ele>
        <time>2014-06-14T09:17:10Z</time>
      </trkpt>
      <trkpt lat="42.70926" lon="1.62627">
        <ele>1863.6528320312</ele>
        <time>2014-06-14T09:17:17Z</time>
      </trkpt>
      <trkpt lat="42.70926" lon="1.62626">
        <ele>1864.1335449219</ele>
        <time>2014-06-14T09:17:23Z</time>
      </trkpt>
      <trkpt lat="42.70927" lon="1.62622">
        <ele>1865.0949707031</ele>
        <time>2014-06-14T09:17:33Z</time>
      </trkpt>
      <trkpt lat="42.70928" lon="1.62617">
        <ele>1866.0561523438</ele>
        <time>2014-06-14T09:17:40Z</time>
      </trkpt>
      <trkpt lat="42.70929" lon="1.62612">
        <ele>1867.017578125</ele>
        <time>2014-06-14T09:17:45Z</time>
      </trkpt>
      <trkpt lat="42.70929" lon="1.62609">
        <ele>1867.498046875</ele>
        <time>2014-06-14T09:17:51Z</time>
      </trkpt>
      <trkpt lat="42.7093" lon="1.62604">
        <ele>1868.4597167969</ele>
        <time>2014-06-14T09:17:56Z</time>
      </trkpt>
      <trkpt lat="42.70932" lon="1.62598">
        <ele>1869.4211425781</ele>
        <time>2014-06-14T09:18:02Z</time>
      </trkpt>
      <trkpt lat="42.70934" lon="1.62593">
        <ele>1869.9016113281</ele>
        <time>2014-06-14T09:18:08Z</time>
      </trkpt>
      <trkpt lat="42.70937" lon="1.62587">
        <ele>1870.8630371094</ele>
        <time>2014-06-14T09:18:15Z</time>
      </trkpt>
      <trkpt lat="42.7094" lon="1.62582">
        <ele>1871.82421875</ele>
        <time>2014-06-14T09:18:20Z</time>
      </trkpt>
      <trkpt lat="42.70937" lon="1.62575">
        <ele>1871.82421875</ele>
        <time>2014-06-14T09:18:26Z</time>
      </trkpt>
      <trkpt lat="42.70934" lon="1.62565">
        <ele>1872.7856445312</ele>
        <time>2014-06-14T09:18:35Z</time>
      </trkpt>
      <trkpt lat="42.70932" lon="1.62558">
        <ele>1873.2663574219</ele>
        <time>2014-06-14T09:18:42Z</time>
      </trkpt>
      <trkpt lat="42.70929" lon="1.6255">
        <ele>1873.7468261719</ele>
        <time>2014-06-14T09:18:49Z</time>
      </trkpt>
      <trkpt lat="42.70927" lon="1.62545">
        <ele>1873.7468261719</ele>
        <time>2014-06-14T09:18:53Z</time>
      </trkpt>
      <trkpt lat="42.70924" lon="1.62536">
        <ele>1874.7082519531</ele>
        <time>2014-06-14T09:19:01Z</time>
      </trkpt>
      <trkpt lat="42.70921" lon="1.62528">
        <ele>1875.1887207031</ele>
        <time>2014-06-14T09:19:09Z</time>
      </trkpt>
      <trkpt lat="42.70917" lon="1.62519">
        <ele>1875.1887207031</ele>
        <time>2014-06-14T09:19:16Z</time>
      </trkpt>
      <trkpt lat="42.70914" lon="1.62509">
        <ele>1875.6694335938</ele>
        <time>2014-06-14T09:19:24Z</time>
      </trkpt>
      <trkpt lat="42.70911" lon="1.62496">
        <ele>1875.6694335938</ele>
        <time>2014-06-14T09:19:33Z</time>
      </trkpt>
      <trkpt lat="42.7091" lon="1.62484">
        <ele>1875.6694335938</ele>
        <time>2014-06-14T09:19:42Z</time>
      </trkpt>
      <trkpt lat="42.70907" lon="1.62471">
        <ele>1875.6694335938</ele>
        <time>2014-06-14T09:19:52Z</time>
      </trkpt>
      <trkpt lat="42.70903" lon="1.62464">
        <ele>1876.1501464844</ele>
        <time>2014-06-14T09:19:58Z</time>
      </trkpt>
      <trkpt lat="42.70901" lon="1.62456">
        <ele>1875.6694335938</ele>
        <time>2014-06-14T09:20:05Z</time>
      </trkpt>
      <trkpt lat="42.70899" lon="1.62444">
        <ele>1875.6694335938</ele>
        <time>2014-06-14T09:20:15Z</time>
      </trkpt>
      <trkpt lat="42.70896" lon="1.62436">
        <ele>1875.1887207031</ele>
        <time>2014-06-14T09:20:22Z</time>
      </trkpt>
      <trkpt lat="42.70892" lon="1.62425">
        <ele>1875.6694335938</ele>
        <time>2014-06-14T09:20:30Z</time>
      </trkpt>
      <trkpt lat="42.70888" lon="1.62417">
        <ele>1876.1501464844</ele>
        <time>2014-06-14T09:20:37Z</time>
      </trkpt>
      <trkpt lat="42.70883" lon="1.6241">
        <ele>1875.6694335938</ele>
        <time>2014-06-14T09:20:44Z</time>
      </trkpt>
      <trkpt lat="42.7088" lon="1.62401">
        <ele>1876.1501464844</ele>
        <time>2014-06-14T09:20:52Z</time>
      </trkpt>
      <trkpt lat="42.70878" lon="1.62398">
        <ele>1875.1887207031</ele>
        <time>2014-06-14T09:20:58Z</time>
      </trkpt>
      <trkpt lat="42.70875" lon="1.62391">
        <ele>1874.2275390625</ele>
        <time>2014-06-14T09:21:05Z</time>
      </trkpt>
      <trkpt lat="42.70874" lon="1.62385">
        <ele>1874.7082519531</ele>
        <time>2014-06-14T09:21:11Z</time>
      </trkpt>
      <trkpt lat="42.70874" lon="1.62381">
        <ele>1875.1887207031</ele>
        <time>2014-06-14T09:21:16Z</time>
      </trkpt>
      <trkpt lat="42.70871" lon="1.62374">
        <ele>1875.1887207031</ele>
        <time>2014-06-14T09:21:23Z</time>
      </trkpt>
      <trkpt lat="42.7087" lon="1.62371">
        <ele>1875.6694335938</ele>
        <time>2014-06-14T09:21:30Z</time>
      </trkpt>
      <trkpt lat="42.70867" lon="1.62366">
        <ele>1875.6694335938</ele>
        <time>2014-06-14T09:21:36Z</time>
      </trkpt>
      <trkpt lat="42.70865" lon="1.62361">
        <ele>1875.6694335938</ele>
        <time>2014-06-14T09:21:41Z</time>
      </trkpt>
      <trkpt lat="42.70863" lon="1.62357">
        <ele>1876.1501464844</ele>
        <time>2014-06-14T09:21:45Z</time>
      </trkpt>
      <trkpt lat="42.7086" lon="1.62351">
        <ele>1876.1501464844</ele>
        <time>2014-06-14T09:21:51Z</time>
      </trkpt>
      <trkpt lat="42.7086" lon="1.62346">
        <ele>1877.1115722656</ele>
        <time>2014-06-14T09:21:56Z</time>
      </trkpt>
      <trkpt lat="42.70856" lon="1.62341">
        <ele>1877.5920410156</ele>
        <time>2014-06-14T09:22:01Z</time>
      </trkpt>
      <trkpt lat="42.7085" lon="1.62334">
        <ele>1878.0727539062</ele>
        <time>2014-06-14T09:22:07Z</time>
      </trkpt>
      <trkpt lat="42.70844" lon="1.62324">
        <ele>1879.5146484375</ele>
        <time>2014-06-14T09:22:16Z</time>
      </trkpt>
      <trkpt lat="42.70839" lon="1.62314">
        <ele>1880.9567871094</ele>
        <time>2014-06-14T09:22:24Z</time>
      </trkpt>
      <trkpt lat="42.70837" lon="1.62306">
        <ele>1881.91796875</ele>
        <time>2014-06-14T09:22:32Z</time>
      </trkpt>
      <trkpt lat="42.70835" lon="1.623">
        <ele>1882.3986816406</ele>
        <time>2014-06-14T09:22:38Z</time>
      </trkpt>
      <trkpt lat="42.70831" lon="1.62294">
        <ele>1883.8405761719</ele>
        <time>2014-06-14T09:22:45Z</time>
      </trkpt>
      <trkpt lat="42.7083" lon="1.6229">
        <ele>1883.8405761719</ele>
        <time>2014-06-14T09:22:50Z</time>
      </trkpt>
      <trkpt lat="42.70823" lon="1.62286">
        <ele>1886.244140625</ele>
        <time>2014-06-14T09:22:57Z</time>
      </trkpt>
      <trkpt lat="42.70818" lon="1.6228">
        <ele>1888.6474609375</ele>
        <time>2014-06-14T09:23:06Z</time>
      </trkpt>
      <trkpt lat="42.70814" lon="1.62275">
        <ele>1889.6086425781</ele>
        <time>2014-06-14T09:23:12Z</time>
      </trkpt>
      <trkpt lat="42.70812" lon="1.62272">
        <ele>1891.0505371094</ele>
        <time>2014-06-14T09:23:17Z</time>
      </trkpt>
      <trkpt lat="42.70807" lon="1.62269">
        <ele>1890.5698242188</ele>
        <time>2014-06-14T09:23:24Z</time>
      </trkpt>
      <trkpt lat="42.708" lon="1.62269">
        <ele>1892.0119628906</ele>
        <time>2014-06-14T09:23:32Z</time>
      </trkpt>
      <trkpt lat="42.70796" lon="1.62268">
        <ele>1892.4926757812</ele>
        <time>2014-06-14T09:23:38Z</time>
      </trkpt>
      <trkpt lat="42.70791" lon="1.62262">
        <ele>1893.4538574219</ele>
        <time>2014-06-14T09:23:46Z</time>
      </trkpt>
      <trkpt lat="42.70789" lon="1.62258">
        <ele>1893.4538574219</ele>
        <time>2014-06-14T09:23:52Z</time>
      </trkpt>
      <trkpt lat="42.70786" lon="1.62253">
        <ele>1893.9345703125</ele>
        <time>2014-06-14T09:23:59Z</time>
      </trkpt>
      <trkpt lat="42.70782" lon="1.62251">
        <ele>1894.4150390625</ele>
        <time>2014-06-14T09:24:05Z</time>
      </trkpt>
      <trkpt lat="42.7078" lon="1.62246">
        <ele>1894.4150390625</ele>
        <time>2014-06-14T09:24:10Z</time>
      </trkpt>
      <trkpt lat="42.70775" lon="1.62244">
        <ele>1894.8957519531</ele>
        <time>2014-06-14T09:24:15Z</time>
      </trkpt>
      <trkpt lat="42.70768" lon="1.62241">
        <ele>1895.8571777344</ele>
        <time>2014-06-14T09:24:23Z</time>
      </trkpt>
      <trkpt lat="42.70763" lon="1.62235">
        <ele>1896.818359375</ele>
        <time>2014-06-14T09:24:30Z</time>
      </trkpt>
      <trkpt lat="42.70758" lon="1.6223">
        <ele>1898.2602539062</ele>
        <time>2014-06-14T09:24:37Z</time>
      </trkpt>
      <trkpt lat="42.70753" lon="1.62227">
        <ele>1898.2602539062</ele>
        <time>2014-06-14T09:24:42Z</time>
      </trkpt>
      <trkpt lat="42.70746" lon="1.62221">
        <ele>1899.2216796875</ele>
        <time>2014-06-14T09:24:50Z</time>
      </trkpt>
      <trkpt lat="42.70741" lon="1.62219">
        <ele>1899.7023925781</ele>
        <time>2014-06-14T09:24:56Z</time>
      </trkpt>
      <trkpt lat="42.70736" lon="1.62215">
        <ele>1900.6638183594</ele>
        <time>2014-06-14T09:25:02Z</time>
      </trkpt>
      <trkpt lat="42.70732" lon="1.62208">
        <ele>1900.6638183594</ele>
        <time>2014-06-14T09:25:10Z</time>
      </trkpt>
      <trkpt lat="42.70728" lon="1.62203">
        <ele>1900.6638183594</ele>
        <time>2014-06-14T09:25:16Z</time>
      </trkpt>
      <trkpt lat="42.70723" lon="1.62198">
        <ele>1901.14453125</ele>
        <time>2014-06-14T09:25:24Z</time>
      </trkpt>
      <trkpt lat="42.7072" lon="1.62193">
        <ele>1901.6252441406</ele>
        <time>2014-06-14T09:25:30Z</time>
      </trkpt>
      <trkpt lat="42.70716" lon="1.62188">
        <ele>1902.5864257812</ele>
        <time>2014-06-14T09:25:37Z</time>
      </trkpt>
      <trkpt lat="42.70715" lon="1.62186">
        <ele>1903.5478515625</ele>
        <time>2014-06-14T09:25:42Z</time>
      </trkpt>
      <trkpt lat="42.70711" lon="1.62182">
        <ele>1904.0285644531</ele>
        <time>2014-06-14T09:25:49Z</time>
      </trkpt>
      <trkpt lat="42.70706" lon="1.6218">
        <ele>1903.0671386719</ele>
        <time>2014-06-14T09:25:56Z</time>
      </trkpt>
      <trkpt lat="42.70704" lon="1.62177">
        <ele>1901.14453125</ele>
        <time>2014-06-14T09:26:03Z</time>
      </trkpt>
      <trkpt lat="42.70699" lon="1.62175">
        <ele>1900.1833496094</ele>
        <time>2014-06-14T09:26:08Z</time>
      </trkpt>
      <trkpt lat="42.70693" lon="1.62171">
        <ele>1901.14453125</ele>
        <time>2014-06-14T09:26:15Z</time>
      </trkpt>
      <trkpt lat="42.7069" lon="1.6217">
        <ele>1902.1057128906</ele>
        <time>2014-06-14T09:26:22Z</time>
      </trkpt>
      <trkpt lat="42.70686" lon="1.62169">
        <ele>1902.1057128906</ele>
        <time>2014-06-14T09:26:28Z</time>
      </trkpt>
      <trkpt lat="42.70682" lon="1.62167">
        <ele>1902.1057128906</ele>
        <time>2014-06-14T09:26:34Z</time>
      </trkpt>
      <trkpt lat="42.70679" lon="1.62162">
        <ele>1902.5864257812</ele>
        <time>2014-06-14T09:26:40Z</time>
      </trkpt>
      <trkpt lat="42.70675" lon="1.6216">
        <ele>1902.5864257812</ele>
        <time>2014-06-14T09:26:45Z</time>
      </trkpt>
      <trkpt lat="42.70668" lon="1.62157">
        <ele>1903.0671386719</ele>
        <time>2014-06-14T09:26:52Z</time>
      </trkpt>
      <trkpt lat="42.70664" lon="1.62154">
        <ele>1903.0671386719</ele>
        <time>2014-06-14T09:26:58Z</time>
      </trkpt>
      <trkpt lat="42.70658" lon="1.62149">
        <ele>1903.5478515625</ele>
        <time>2014-06-14T09:27:05Z</time>
      </trkpt>
      <trkpt lat="42.70653" lon="1.62144">
        <ele>1903.5478515625</ele>
        <time>2014-06-14T09:27:12Z</time>
      </trkpt>
      <trkpt lat="42.7065" lon="1.62142">
        <ele>1903.5478515625</ele>
        <time>2014-06-14T09:27:18Z</time>
      </trkpt>
      <trkpt lat="42.70646" lon="1.62142">
        <ele>1902.5864257812</ele>
        <time>2014-06-14T09:27:23Z</time>
      </trkpt>
      <trkpt lat="42.70641" lon="1.62139">
        <ele>1902.1057128906</ele>
        <time>2014-06-14T09:27:28Z</time>
      </trkpt>
      <trkpt lat="42.70638" lon="1.62134">
        <ele>1902.5864257812</ele>
        <time>2014-06-14T09:27:33Z</time>
      </trkpt>
      <trkpt lat="42.70635" lon="1.62128">
        <ele>1903.5478515625</ele>
        <time>2014-06-14T09:27:40Z</time>
      </trkpt>
      <trkpt lat="42.7063" lon="1.62125">
        <ele>1904.0285644531</ele>
        <time>2014-06-14T09:27:46Z</time>
      </trkpt>
      <trkpt lat="42.70628" lon="1.62123">
        <ele>1903.5478515625</ele>
        <time>2014-06-14T09:27:52Z</time>
      </trkpt>
      <trkpt lat="42.70626" lon="1.62122">
        <ele>1903.0671386719</ele>
        <time>2014-06-14T09:27:57Z</time>
      </trkpt>
      <trkpt lat="42.70621" lon="1.62121">
        <ele>1902.1057128906</ele>
        <time>2014-06-14T09:28:02Z</time>
      </trkpt>
      <trkpt lat="42.70617" lon="1.62119">
        <ele>1901.6252441406</ele>
        <time>2014-06-14T09:28:08Z</time>
      </trkpt>
      <trkpt lat="42.7061" lon="1.62118">
        <ele>1900.1833496094</ele>
        <time>2014-06-14T09:28:15Z</time>
      </trkpt>
      <trkpt lat="42.70605" lon="1.62116">
        <ele>1900.1833496094</ele>
        <time>2014-06-14T09:28:20Z</time>
      </trkpt>
      <trkpt lat="42.706" lon="1.62109">
        <ele>1900.1833496094</ele>
        <time>2014-06-14T09:28:28Z</time>
      </trkpt>
      <trkpt lat="42.70595" lon="1.62105">
        <ele>1900.1833496094</ele>
        <time>2014-06-14T09:28:34Z</time>
      </trkpt>
      <trkpt lat="42.70589" lon="1.62099">
        <ele>1899.2216796875</ele>
        <time>2014-06-14T09:28:43Z</time>
      </trkpt>
      <trkpt lat="42.70585" lon="1.62099">
        <ele>1898.7409667969</ele>
        <time>2014-06-14T09:28:48Z</time>
      </trkpt>
      <trkpt lat="42.70578" lon="1.62096">
        <ele>1898.2602539062</ele>
        <time>2014-06-14T09:28:55Z</time>
      </trkpt>
      <trkpt lat="42.70575" lon="1.6209">
        <ele>1898.7409667969</ele>
        <time>2014-06-14T09:29:02Z</time>
      </trkpt>
      <trkpt lat="42.70568" lon="1.62087">
        <ele>1897.2990722656</ele>
        <time>2014-06-14T09:29:09Z</time>
      </trkpt>
      <trkpt lat="42.70564" lon="1.62081">
        <ele>1897.2990722656</ele>
        <time>2014-06-14T09:29:15Z</time>
      </trkpt>
      <trkpt lat="42.70563" lon="1.62077">
        <ele>1897.2990722656</ele>
        <time>2014-06-14T09:29:21Z</time>
      </trkpt>
      <trkpt lat="42.70557" lon="1.62071">
        <ele>1896.337890625</ele>
        <time>2014-06-14T09:29:28Z</time>
      </trkpt>
      <trkpt lat="42.70555" lon="1.62065">
        <ele>1896.337890625</ele>
        <time>2014-06-14T09:29:33Z</time>
      </trkpt>
      <trkpt lat="42.70551" lon="1.62058">
        <ele>1894.8957519531</ele>
        <time>2014-06-14T09:29:40Z</time>
      </trkpt>
      <trkpt lat="42.70547" lon="1.62052">
        <ele>1894.8957519531</ele>
        <time>2014-06-14T09:29:46Z</time>
      </trkpt>
      <trkpt lat="42.70544" lon="1.62044">
        <ele>1894.8957519531</ele>
        <time>2014-06-14T09:29:53Z</time>
      </trkpt>
      <trkpt lat="42.70541" lon="1.62037">
        <ele>1894.4150390625</ele>
        <time>2014-06-14T09:30:00Z</time>
      </trkpt>
      <trkpt lat="42.70539" lon="1.6203">
        <ele>1894.8957519531</ele>
        <time>2014-06-14T09:30:08Z</time>
      </trkpt>
      <trkpt lat="42.70538" lon="1.62025">
        <ele>1895.8571777344</ele>
        <time>2014-06-14T09:30:14Z</time>
      </trkpt>
      <trkpt lat="42.70535" lon="1.62022">
        <ele>1895.3764648438</ele>
        <time>2014-06-14T09:30:19Z</time>
      </trkpt>
      <trkpt lat="42.70529" lon="1.62017">
        <ele>1895.3764648438</ele>
        <time>2014-06-14T09:30:25Z</time>
      </trkpt>
      <trkpt lat="42.70527" lon="1.62012">
        <ele>1895.3764648438</ele>
        <time>2014-06-14T09:30:30Z</time>
      </trkpt>
      <trkpt lat="42.70522" lon="1.62007">
        <ele>1895.3764648438</ele>
        <time>2014-06-14T09:30:37Z</time>
      </trkpt>
      <trkpt lat="42.70517" lon="1.62">
        <ele>1893.9345703125</ele>
        <time>2014-06-14T09:30:46Z</time>
      </trkpt>
      <trkpt lat="42.70516" lon="1.61992">
        <ele>1892.9731445312</ele>
        <time>2014-06-14T09:30:53Z</time>
      </trkpt>
      <trkpt lat="42.70513" lon="1.61986">
        <ele>1892.9731445312</ele>
        <time>2014-06-14T09:30:59Z</time>
      </trkpt>
      <trkpt lat="42.7051" lon="1.61982">
        <ele>1892.4926757812</ele>
        <time>2014-06-14T09:31:04Z</time>
      </trkpt>
      <trkpt lat="42.70505" lon="1.61974">
        <ele>1891.53125</ele>
        <time>2014-06-14T09:31:11Z</time>
      </trkpt>
      <trkpt lat="42.70503" lon="1.61972">
        <ele>1891.0505371094</ele>
        <time>2014-06-14T09:31:13Z</time>
      </trkpt>
      <trkpt lat="42.70499" lon="1.61964">
        <ele>1891.0505371094</ele>
        <time>2014-06-14T09:31:20Z</time>
      </trkpt>
      <trkpt lat="42.70496" lon="1.61961">
        <ele>1890.5698242188</ele>
        <time>2014-06-14T09:31:27Z</time>
      </trkpt>
      <trkpt lat="42.70494" lon="1.61958">
        <ele>1890.0893554688</ele>
        <time>2014-06-14T09:31:32Z</time>
      </trkpt>
      <trkpt lat="42.70491" lon="1.61954">
        <ele>1890.0893554688</ele>
        <time>2014-06-14T09:31:37Z</time>
      </trkpt>
      <trkpt lat="42.7049" lon="1.61951">
        <ele>1890.5698242188</ele>
        <time>2014-06-14T09:31:42Z</time>
      </trkpt>
      <trkpt lat="42.70486" lon="1.61944">
        <ele>1891.0505371094</ele>
        <time>2014-06-14T09:31:49Z</time>
      </trkpt>
      <trkpt lat="42.70483" lon="1.61939">
        <ele>1891.53125</ele>
        <time>2014-06-14T09:31:56Z</time>
      </trkpt>
      <trkpt lat="42.70478" lon="1.61933">
        <ele>1892.0119628906</ele>
        <time>2014-06-14T09:32:02Z</time>
      </trkpt>
      <trkpt lat="42.70475" lon="1.6193">
        <ele>1892.0119628906</ele>
        <time>2014-06-14T09:32:08Z</time>
      </trkpt>
      <trkpt lat="42.7047" lon="1.61926">
        <ele>1891.53125</ele>
        <time>2014-06-14T09:32:14Z</time>
      </trkpt>
      <trkpt lat="42.70469" lon="1.61924">
        <ele>1892.0119628906</ele>
        <time>2014-06-14T09:32:19Z</time>
      </trkpt>
      <trkpt lat="42.70464" lon="1.6192">
        <ele>1892.0119628906</ele>
        <time>2014-06-14T09:32:26Z</time>
      </trkpt>
      <trkpt lat="42.70462" lon="1.61917">
        <ele>1892.0119628906</ele>
        <time>2014-06-14T09:32:32Z</time>
      </trkpt>
      <trkpt lat="42.70461" lon="1.61915">
        <ele>1891.53125</ele>
        <time>2014-06-14T09:32:40Z</time>
      </trkpt>
      <trkpt lat="42.70462" lon="1.61914">
        <ele>1891.0505371094</ele>
        <time>2014-06-14T09:32:47Z</time>
      </trkpt>
      <trkpt lat="42.70459" lon="1.61911">
        <ele>1888.6474609375</ele>
        <time>2014-06-14T09:32:53Z</time>
      </trkpt>
      <trkpt lat="42.70456" lon="1.61905">
        <ele>1888.1667480469</ele>
        <time>2014-06-14T09:32:59Z</time>
      </trkpt>
      <trkpt lat="42.70452" lon="1.61902">
        <ele>1888.1667480469</ele>
        <time>2014-06-14T09:33:04Z</time>
      </trkpt>
      <trkpt lat="42.70449" lon="1.61899">
        <ele>1887.2053222656</ele>
        <time>2014-06-14T09:33:11Z</time>
      </trkpt>
      <trkpt lat="42.70446" lon="1.61897">
        <ele>1885.7634277344</ele>
        <time>2014-06-14T09:33:18Z</time>
      </trkpt>
      <trkpt lat="42.70444" lon="1.61896">
        <ele>1884.8022460938</ele>
        <time>2014-06-14T09:33:24Z</time>
      </trkpt>
      <trkpt lat="42.70443" lon="1.61894">
        <ele>1883.3598632812</ele>
        <time>2014-06-14T09:33:31Z</time>
      </trkpt>
      <trkpt lat="42.7044" lon="1.6189">
        <ele>1882.8791503906</ele>
        <time>2014-06-14T09:33:37Z</time>
      </trkpt>
      <trkpt lat="42.70436" lon="1.61883">
        <ele>1882.3986816406</ele>
        <time>2014-06-14T09:33:44Z</time>
      </trkpt>
      <trkpt lat="42.70432" lon="1.61879">
        <ele>1881.91796875</ele>
        <time>2014-06-14T09:33:50Z</time>
      </trkpt>
      <trkpt lat="42.7043" lon="1.61877">
        <ele>1882.3986816406</ele>
        <time>2014-06-14T09:33:52Z</time>
      </trkpt>
      <trkpt lat="42.70425" lon="1.61871">
        <ele>1881.91796875</ele>
        <time>2014-06-14T09:33:58Z</time>
      </trkpt>
      <trkpt lat="42.70425" lon="1.61871">
        <ele>1881.4372558594</ele>
        <time>2014-06-14T09:33:59Z</time>
      </trkpt>
      <trkpt lat="42.7042" lon="1.61863">
        <ele>1880.9567871094</ele>
        <time>2014-06-14T09:34:07Z</time>
      </trkpt>
      <trkpt lat="42.70416" lon="1.61854">
        <ele>1880.9567871094</ele>
        <time>2014-06-14T09:34:15Z</time>
      </trkpt>
      <trkpt lat="42.70412" lon="1.61851">
        <ele>1879.5146484375</ele>
        <time>2014-06-14T09:34:19Z</time>
      </trkpt>
      <trkpt lat="42.70406" lon="1.61845">
        <ele>1877.5920410156</ele>
        <time>2014-06-14T09:34:27Z</time>
      </trkpt>
      <trkpt lat="42.704" lon="1.6184">
        <ele>1877.1115722656</ele>
        <time>2014-06-14T09:34:34Z</time>
      </trkpt>
      <trkpt lat="42.70397" lon="1.61836">
        <ele>1876.1501464844</ele>
        <time>2014-06-14T09:34:40Z</time>
      </trkpt>
      <trkpt lat="42.70394" lon="1.6183">
        <ele>1875.6694335938</ele>
        <time>2014-06-14T09:34:45Z</time>
      </trkpt>
      <trkpt lat="42.70393" lon="1.61826">
        <ele>1875.1887207031</ele>
        <time>2014-06-14T09:34:50Z</time>
      </trkpt>
      <trkpt lat="42.7039" lon="1.61816">
        <ele>1875.1887207031</ele>
        <time>2014-06-14T09:34:58Z</time>
      </trkpt>
      <trkpt lat="42.70387" lon="1.61812">
        <ele>1875.1887207031</ele>
        <time>2014-06-14T09:35:04Z</time>
      </trkpt>
      <trkpt lat="42.70383" lon="1.61804">
        <ele>1874.7082519531</ele>
        <time>2014-06-14T09:35:11Z</time>
      </trkpt>
      <trkpt lat="42.7038" lon="1.61799">
        <ele>1874.7082519531</ele>
        <time>2014-06-14T09:35:17Z</time>
      </trkpt>
      <trkpt lat="42.70378" lon="1.61796">
        <ele>1875.1887207031</ele>
        <time>2014-06-14T09:35:22Z</time>
      </trkpt>
      <trkpt lat="42.70377" lon="1.61793">
        <ele>1875.6694335938</ele>
        <time>2014-06-14T09:35:30Z</time>
      </trkpt>
      <trkpt lat="42.70374" lon="1.61785">
        <ele>1875.6694335938</ele>
        <time>2014-06-14T09:35:38Z</time>
      </trkpt>
      <trkpt lat="42.70369" lon="1.6178">
        <ele>1875.6694335938</ele>
        <time>2014-06-14T09:35:45Z</time>
      </trkpt>
      <trkpt lat="42.70367" lon="1.61779">
        <ele>1875.1887207031</ele>
        <time>2014-06-14T09:35:51Z</time>
      </trkpt>
      <trkpt lat="42.70364" lon="1.61774">
        <ele>1874.7082519531</ele>
        <time>2014-06-14T09:35:58Z</time>
      </trkpt>
      <trkpt lat="42.70361" lon="1.61771">
        <ele>1874.2275390625</ele>
        <time>2014-06-14T09:36:04Z</time>
      </trkpt>
      <trkpt lat="42.70359" lon="1.61768">
        <ele>1874.2275390625</ele>
        <time>2014-06-14T09:36:11Z</time>
      </trkpt>
      <trkpt lat="42.70358" lon="1.61766">
        <ele>1874.2275390625</ele>
        <time>2014-06-14T09:36:17Z</time>
      </trkpt>
      <trkpt lat="42.70356" lon="1.61762">
        <ele>1873.7468261719</ele>
        <time>2014-06-14T09:36:22Z</time>
      </trkpt>
      <trkpt lat="42.70352" lon="1.61756">
        <ele>1873.2663574219</ele>
        <time>2014-06-14T09:36:29Z</time>
      </trkpt>
      <trkpt lat="42.7035" lon="1.61752">
        <ele>1874.2275390625</ele>
        <time>2014-06-14T09:36:36Z</time>
      </trkpt>
      <trkpt lat="42.7035" lon="1.6175">
        <ele>1874.2275390625</ele>
        <time>2014-06-14T09:36:45Z</time>
      </trkpt>
      <trkpt lat="42.70345" lon="1.61745">
        <ele>1874.7082519531</ele>
        <time>2014-06-14T09:36:52Z</time>
      </trkpt>
      <trkpt lat="42.70343" lon="1.61742">
        <ele>1875.1887207031</ele>
        <time>2014-06-14T09:36:56Z</time>
      </trkpt>
      <trkpt lat="42.70339" lon="1.61735">
        <ele>1875.6694335938</ele>
        <time>2014-06-14T09:37:03Z</time>
      </trkpt>
      <trkpt lat="42.70337" lon="1.6173">
        <ele>1876.1501464844</ele>
        <time>2014-06-14T09:37:10Z</time>
      </trkpt>
      <trkpt lat="42.70336" lon="1.61729">
        <ele>1877.1115722656</ele>
        <time>2014-06-14T09:37:15Z</time>
      </trkpt>
      <trkpt lat="42.70335" lon="1.61728">
        <ele>1876.630859375</ele>
        <time>2014-06-14T09:37:17Z</time>
      </trkpt>
      <trkpt lat="42.7033" lon="1.61719">
        <ele>1876.1501464844</ele>
        <time>2014-06-14T09:37:26Z</time>
      </trkpt>
      <trkpt lat="42.70325" lon="1.6171">
        <ele>1876.1501464844</ele>
        <time>2014-06-14T09:37:35Z</time>
      </trkpt>
      <trkpt lat="42.70321" lon="1.61705">
        <ele>1875.6694335938</ele>
        <time>2014-06-14T09:37:42Z</time>
      </trkpt>
      <trkpt lat="42.70315" lon="1.61699">
        <ele>1875.6694335938</ele>
        <time>2014-06-14T09:37:50Z</time>
      </trkpt>
      <trkpt lat="42.70311" lon="1.61693">
        <ele>1875.6694335938</ele>
        <time>2014-06-14T09:37:58Z</time>
      </trkpt>
      <trkpt lat="42.7031" lon="1.61691">
        <ele>1875.6694335938</ele>
        <time>2014-06-14T09:38:03Z</time>
      </trkpt>
      <trkpt lat="42.70308" lon="1.61687">
        <ele>1876.1501464844</ele>
        <time>2014-06-14T09:38:08Z</time>
      </trkpt>
      <trkpt lat="42.70303" lon="1.61681">
        <ele>1876.1501464844</ele>
        <time>2014-06-14T09:38:15Z</time>
      </trkpt>
      <trkpt lat="42.703" lon="1.61676">
        <ele>1877.1115722656</ele>
        <time>2014-06-14T09:38:21Z</time>
      </trkpt>
      <trkpt lat="42.70298" lon="1.6167">
        <ele>1878.0727539062</ele>
        <time>2014-06-14T09:38:28Z</time>
      </trkpt>
      <trkpt lat="42.70296" lon="1.61666">
        <ele>1878.0727539062</ele>
        <time>2014-06-14T09:38:33Z</time>
      </trkpt>
      <trkpt lat="42.70295" lon="1.61666">
        <ele>1877.1115722656</ele>
        <time>2014-06-14T09:38:38Z</time>
      </trkpt>
      <trkpt lat="42.70295" lon="1.61664">
        <ele>1875.1887207031</ele>
        <time>2014-06-14T09:39:03Z</time>
      </trkpt>
      <trkpt lat="42.70292" lon="1.61662">
        <ele>1874.7082519531</ele>
        <time>2014-06-14T09:39:12Z</time>
      </trkpt>
      <trkpt lat="42.70289" lon="1.61661">
        <ele>1873.2663574219</ele>
        <time>2014-06-14T09:39:17Z</time>
      </trkpt>
      <trkpt lat="42.70285" lon="1.61658">
        <ele>1872.7856445312</ele>
        <time>2014-06-14T09:39:23Z</time>
      </trkpt>
      <trkpt lat="42.70282" lon="1.61657">
        <ele>1872.3049316406</ele>
        <time>2014-06-14T09:39:29Z</time>
      </trkpt>
      <trkpt lat="42.7028" lon="1.61656">
        <ele>1871.82421875</ele>
        <time>2014-06-14T09:39:36Z</time>
      </trkpt>
      <trkpt lat="42.70276" lon="1.61654">
        <ele>1871.82421875</ele>
        <time>2014-06-14T09:39:41Z</time>
      </trkpt>
      <trkpt lat="42.70275" lon="1.61651">
        <ele>1872.3049316406</ele>
        <time>2014-06-14T09:39:45Z</time>
      </trkpt>
      <trkpt lat="42.70272" lon="1.61649">
        <ele>1871.82421875</ele>
        <time>2014-06-14T09:39:51Z</time>
      </trkpt>
      <trkpt lat="42.7027" lon="1.61646">
        <ele>1871.82421875</ele>
        <time>2014-06-14T09:39:56Z</time>
      </trkpt>
      <trkpt lat="42.70267" lon="1.61638">
        <ele>1872.3049316406</ele>
        <time>2014-06-14T09:40:04Z</time>
      </trkpt>
      <trkpt lat="42.70263" lon="1.61635">
        <ele>1871.3435058594</ele>
        <time>2014-06-14T09:40:11Z</time>
      </trkpt>
      <trkpt lat="42.70261" lon="1.61631">
        <ele>1870.8630371094</ele>
        <time>2014-06-14T09:40:21Z</time>
      </trkpt>
      <trkpt lat="42.70259" lon="1.61628">
        <ele>1871.3435058594</ele>
        <time>2014-06-14T09:40:26Z</time>
      </trkpt>
      <trkpt lat="42.70254" lon="1.61626">
        <ele>1870.8630371094</ele>
        <time>2014-06-14T09:40:32Z</time>
      </trkpt>
      <trkpt lat="42.70251" lon="1.61623">
        <ele>1871.3435058594</ele>
        <time>2014-06-14T09:40:37Z</time>
      </trkpt>
      <trkpt lat="42.70248" lon="1.6162">
        <ele>1872.3049316406</ele>
        <time>2014-06-14T09:40:43Z</time>
      </trkpt>
      <trkpt lat="42.70243" lon="1.61617">
        <ele>1873.2663574219</ele>
        <time>2014-06-14T09:40:49Z</time>
      </trkpt>
      <trkpt lat="42.70238" lon="1.61612">
        <ele>1874.7082519531</ele>
        <time>2014-06-14T09:40:56Z</time>
      </trkpt>
      <trkpt lat="42.70235" lon="1.61609">
        <ele>1875.6694335938</ele>
        <time>2014-06-14T09:41:03Z</time>
      </trkpt>
      <trkpt lat="42.70231" lon="1.61606">
        <ele>1876.630859375</ele>
        <time>2014-06-14T09:41:09Z</time>
      </trkpt>
      <trkpt lat="42.70229" lon="1.61602">
        <ele>1878.5534667969</ele>
        <time>2014-06-14T09:41:14Z</time>
      </trkpt>
      <trkpt lat="42.70229" lon="1.61598">
        <ele>1878.0727539062</ele>
        <time>2014-06-14T09:41:19Z</time>
      </trkpt>
      <trkpt lat="42.70229" lon="1.61595">
        <ele>1877.5920410156</ele>
        <time>2014-06-14T09:41:24Z</time>
      </trkpt>
      <trkpt lat="42.70227" lon="1.6159">
        <ele>1877.1115722656</ele>
        <time>2014-06-14T09:41:29Z</time>
      </trkpt>
      <trkpt lat="42.70224" lon="1.61588">
        <ele>1878.5534667969</ele>
        <time>2014-06-14T09:41:34Z</time>
      </trkpt>
      <trkpt lat="42.70221" lon="1.61586">
        <ele>1879.5146484375</ele>
        <time>2014-06-14T09:41:41Z</time>
      </trkpt>
      <trkpt lat="42.70221" lon="1.61582">
        <ele>1880.9567871094</ele>
        <time>2014-06-14T09:41:46Z</time>
      </trkpt>
      <trkpt lat="42.70219" lon="1.6158">
        <ele>1882.3986816406</ele>
        <time>2014-06-14T09:41:55Z</time>
      </trkpt>
      <trkpt lat="42.70218" lon="1.6158">
        <ele>1882.3986816406</ele>
        <time>2014-06-14T09:42:01Z</time>
      </trkpt>
      <trkpt lat="42.70215" lon="1.61579">
        <ele>1881.4372558594</ele>
        <time>2014-06-14T09:42:06Z</time>
      </trkpt>
      <trkpt lat="42.70213" lon="1.61578">
        <ele>1880.9567871094</ele>
        <time>2014-06-14T09:42:12Z</time>
      </trkpt>
      <trkpt lat="42.7021" lon="1.61577">
        <ele>1880.4760742188</ele>
        <time>2014-06-14T09:42:18Z</time>
      </trkpt>
      <trkpt lat="42.70208" lon="1.61579">
        <ele>1879.0339355469</ele>
        <time>2014-06-14T09:42:25Z</time>
      </trkpt>
      <trkpt lat="42.70203" lon="1.61578">
        <ele>1878.0727539062</ele>
        <time>2014-06-14T09:42:33Z</time>
      </trkpt>
      <trkpt lat="42.70201" lon="1.61576">
        <ele>1878.0727539062</ele>
        <time>2014-06-14T09:42:38Z</time>
      </trkpt>
      <trkpt lat="42.70197" lon="1.61573">
        <ele>1876.630859375</ele>
        <time>2014-06-14T09:42:45Z</time>
      </trkpt>
      <trkpt lat="42.70193" lon="1.61568">
        <ele>1876.1501464844</ele>
        <time>2014-06-14T09:42:52Z</time>
      </trkpt>
      <trkpt lat="42.7019" lon="1.61565">
        <ele>1876.1501464844</ele>
        <time>2014-06-14T09:42:57Z</time>
      </trkpt>
      <trkpt lat="42.70188" lon="1.61561">
        <ele>1876.1501464844</ele>
        <time>2014-06-14T09:43:02Z</time>
      </trkpt>
      <trkpt lat="42.70186" lon="1.61557">
        <ele>1876.1501464844</ele>
        <time>2014-06-14T09:43:08Z</time>
      </trkpt>
      <trkpt lat="42.70182" lon="1.61553">
        <ele>1875.1887207031</ele>
        <time>2014-06-14T09:43:14Z</time>
      </trkpt>
      <trkpt lat="42.70178" lon="1.61546">
        <ele>1874.7082519531</ele>
        <time>2014-06-14T09:43:21Z</time>
      </trkpt>
      <trkpt lat="42.70177" lon="1.61543">
        <ele>1874.7082519531</ele>
        <time>2014-06-14T09:43:27Z</time>
      </trkpt>
      <trkpt lat="42.70175" lon="1.61543">
        <ele>1873.7468261719</ele>
        <time>2014-06-14T09:43:32Z</time>
      </trkpt>
      <trkpt lat="42.70173" lon="1.61544">
        <ele>1872.3049316406</ele>
        <time>2014-06-14T09:43:37Z</time>
      </trkpt>
      <trkpt lat="42.70171" lon="1.61545">
        <ele>1870.8630371094</ele>
        <time>2014-06-14T09:43:43Z</time>
      </trkpt>
      <trkpt lat="42.70168" lon="1.61549">
        <ele>1869.4211425781</ele>
        <time>2014-06-14T09:43:48Z</time>
      </trkpt>
      <trkpt lat="42.70166" lon="1.61551">
        <ele>1867.017578125</ele>
        <time>2014-06-14T09:43:54Z</time>
      </trkpt>
      <trkpt lat="42.70161" lon="1.61551">
        <ele>1866.0561523438</ele>
        <time>2014-06-14T09:44:01Z</time>
      </trkpt>
      <trkpt lat="42.70158" lon="1.61551">
        <ele>1866.0561523438</ele>
        <time>2014-06-14T09:44:06Z</time>
      </trkpt>
      <trkpt lat="42.70153" lon="1.61549">
        <ele>1866.0561523438</ele>
        <time>2014-06-14T09:44:12Z</time>
      </trkpt>
      <trkpt lat="42.70151" lon="1.61545">
        <ele>1866.5368652344</ele>
        <time>2014-06-14T09:44:18Z</time>
      </trkpt>
      <trkpt lat="42.70148" lon="1.61541">
        <ele>1867.017578125</ele>
        <time>2014-06-14T09:44:23Z</time>
      </trkpt>
      <trkpt lat="42.70147" lon="1.61538">
        <ele>1867.017578125</ele>
        <time>2014-06-14T09:44:28Z</time>
      </trkpt>
      <trkpt lat="42.70144" lon="1.61535">
        <ele>1867.017578125</ele>
        <time>2014-06-14T09:44:33Z</time>
      </trkpt>
      <trkpt lat="42.7014" lon="1.61533">
        <ele>1867.9787597656</ele>
        <time>2014-06-14T09:44:39Z</time>
      </trkpt>
      <trkpt lat="42.70138" lon="1.6153">
        <ele>1868.4597167969</ele>
        <time>2014-06-14T09:44:44Z</time>
      </trkpt>
      <trkpt lat="42.70133" lon="1.61528">
        <ele>1868.4597167969</ele>
        <time>2014-06-14T09:44:50Z</time>
      </trkpt>
      <trkpt lat="42.70128" lon="1.61527">
        <ele>1868.4597167969</ele>
        <time>2014-06-14T09:44:56Z</time>
      </trkpt>
      <trkpt lat="42.70123" lon="1.61524">
        <ele>1868.9404296875</ele>
        <time>2014-06-14T09:45:03Z</time>
      </trkpt>
      <trkpt lat="42.70119" lon="1.61521">
        <ele>1869.4211425781</ele>
        <time>2014-06-14T09:45:11Z</time>
      </trkpt>
      <trkpt lat="42.70115" lon="1.61517">
        <ele>1869.4211425781</ele>
        <time>2014-06-14T09:45:17Z</time>
      </trkpt>
      <trkpt lat="42.70111" lon="1.61514">
        <ele>1869.4211425781</ele>
        <time>2014-06-14T09:45:24Z</time>
      </trkpt>
      <trkpt lat="42.7011" lon="1.61512">
        <ele>1868.9404296875</ele>
        <time>2014-06-14T09:45:29Z</time>
      </trkpt>
      <trkpt lat="42.70111" lon="1.61509">
        <ele>1868.4597167969</ele>
        <time>2014-06-14T09:45:34Z</time>
      </trkpt>
      <trkpt lat="42.70109" lon="1.61505">
        <ele>1869.9016113281</ele>
        <time>2014-06-14T09:45:40Z</time>
      </trkpt>
      <trkpt lat="42.70109" lon="1.61501">
        <ele>1871.3435058594</ele>
        <time>2014-06-14T09:45:47Z</time>
      </trkpt>
      <trkpt lat="42.70108" lon="1.61499">
        <ele>1871.82421875</ele>
        <time>2014-06-14T09:45:54Z</time>
      </trkpt>
      <trkpt lat="42.70111" lon="1.61499">
        <ele>1872.3049316406</ele>
        <time>2014-06-14T09:46:00Z</time>
      </trkpt>
      <trkpt lat="42.70113" lon="1.61495">
        <ele>1873.2663574219</ele>
        <time>2014-06-14T09:46:06Z</time>
      </trkpt>
      <trkpt lat="42.70113" lon="1.61495">
        <ele>1873.7468261719</ele>
        <time>2014-06-14T09:46:08Z</time>
      </trkpt>
      <trkpt lat="42.70115" lon="1.61492">
        <ele>1875.1887207031</ele>
        <time>2014-06-14T09:46:15Z</time>
      </trkpt>
      <trkpt lat="42.70113" lon="1.61489">
        <ele>1876.1501464844</ele>
        <time>2014-06-14T09:46:22Z</time>
      </trkpt>
      <trkpt lat="42.70113" lon="1.61486">
        <ele>1877.5920410156</ele>
        <time>2014-06-14T09:46:28Z</time>
      </trkpt>
      <trkpt lat="42.70113" lon="1.61485">
        <ele>1879.0339355469</ele>
        <time>2014-06-14T09:46:35Z</time>
      </trkpt>
      <trkpt lat="42.70115" lon="1.61481">
        <ele>1879.9953613281</ele>
        <time>2014-06-14T09:46:42Z</time>
      </trkpt>
      <trkpt lat="42.70115" lon="1.6148">
        <ele>1880.4760742188</ele>
        <time>2014-06-14T09:46:49Z</time>
      </trkpt>
      <trkpt lat="42.70114" lon="1.61477">
        <ele>1881.91796875</ele>
        <time>2014-06-14T09:46:55Z</time>
      </trkpt>
      <trkpt lat="42.70114" lon="1.61476">
        <ele>1880.9567871094</ele>
        <time>2014-06-14T09:47:05Z</time>
      </trkpt>
      <trkpt lat="42.70115" lon="1.61473">
        <ele>1880.9567871094</ele>
        <time>2014-06-14T09:47:10Z</time>
      </trkpt>
      <trkpt lat="42.70114" lon="1.61468">
        <ele>1882.3986816406</ele>
        <time>2014-06-14T09:47:17Z</time>
      </trkpt>
      <trkpt lat="42.70113" lon="1.61462">
        <ele>1884.3215332031</ele>
        <time>2014-06-14T09:47:25Z</time>
      </trkpt>
      <trkpt lat="42.70113" lon="1.61459">
        <ele>1884.8022460938</ele>
        <time>2014-06-14T09:47:32Z</time>
      </trkpt>
      <trkpt lat="42.7011" lon="1.61455">
        <ele>1885.7634277344</ele>
        <time>2014-06-14T09:47:40Z</time>
      </trkpt>
      <trkpt lat="42.70109" lon="1.61452">
        <ele>1885.2827148438</ele>
        <time>2014-06-14T09:47:48Z</time>
      </trkpt>
      <trkpt lat="42.70107" lon="1.6145">
        <ele>1885.2827148438</ele>
        <time>2014-06-14T09:47:55Z</time>
      </trkpt>
      <trkpt lat="42.70103" lon="1.61445">
        <ele>1885.7634277344</ele>
        <time>2014-06-14T09:48:01Z</time>
      </trkpt>
      <trkpt lat="42.70099" lon="1.61441">
        <ele>1886.244140625</ele>
        <time>2014-06-14T09:48:08Z</time>
      </trkpt>
      <trkpt lat="42.70099" lon="1.61438">
        <ele>1886.724609375</ele>
        <time>2014-06-14T09:48:12Z</time>
      </trkpt>
      <trkpt lat="42.70097" lon="1.61435">
        <ele>1886.724609375</ele>
        <time>2014-06-14T09:48:17Z</time>
      </trkpt>
      <trkpt lat="42.70096" lon="1.6143">
        <ele>1886.724609375</ele>
        <time>2014-06-14T09:48:22Z</time>
      </trkpt>
      <trkpt lat="42.70095" lon="1.61428">
        <ele>1886.724609375</ele>
        <time>2014-06-14T09:48:32Z</time>
      </trkpt>
      <trkpt lat="42.70095" lon="1.61426">
        <ele>1887.2053222656</ele>
        <time>2014-06-14T09:48:38Z</time>
      </trkpt>
      <trkpt lat="42.70094" lon="1.61421">
        <ele>1887.2053222656</ele>
        <time>2014-06-14T09:48:45Z</time>
      </trkpt>
      <trkpt lat="42.70095" lon="1.61418">
        <ele>1887.6860351562</ele>
        <time>2014-06-14T09:48:50Z</time>
      </trkpt>
      <trkpt lat="42.70095" lon="1.61414">
        <ele>1887.6860351562</ele>
        <time>2014-06-14T09:48:56Z</time>
      </trkpt>
      <trkpt lat="42.70095" lon="1.61411">
        <ele>1888.6474609375</ele>
        <time>2014-06-14T09:49:01Z</time>
      </trkpt>
      <trkpt lat="42.70097" lon="1.61411">
        <ele>1889.1279296875</ele>
        <time>2014-06-14T09:49:06Z</time>
      </trkpt>
      <trkpt lat="42.70097" lon="1.6141">
        <ele>1889.6086425781</ele>
        <time>2014-06-14T09:49:14Z</time>
      </trkpt>
      <trkpt lat="42.701" lon="1.61411">
        <ele>1890.5698242188</ele>
        <time>2014-06-14T09:49:20Z</time>
      </trkpt>
      <trkpt lat="42.70102" lon="1.61411">
        <ele>1891.53125</ele>
        <time>2014-06-14T09:49:25Z</time>
      </trkpt>
      <trkpt lat="42.70102" lon="1.61408">
        <ele>1892.0119628906</ele>
        <time>2014-06-14T09:49:30Z</time>
      </trkpt>
      <trkpt lat="42.70102" lon="1.61406">
        <ele>1892.9731445312</ele>
        <time>2014-06-14T09:49:36Z</time>
      </trkpt>
      <trkpt lat="42.70103" lon="1.61404">
        <ele>1893.4538574219</ele>
        <time>2014-06-14T09:49:41Z</time>
      </trkpt>
      <trkpt lat="42.70103" lon="1.61403">
        <ele>1894.8957519531</ele>
        <time>2014-06-14T09:49:53Z</time>
      </trkpt>
      <trkpt lat="42.70102" lon="1.61401">
        <ele>1895.3764648438</ele>
        <time>2014-06-14T09:50:04Z</time>
      </trkpt>
      <trkpt lat="42.70099" lon="1.61394">
        <ele>1895.3764648438</ele>
        <time>2014-06-14T09:50:12Z</time>
      </trkpt>
      <trkpt lat="42.70099" lon="1.61389">
        <ele>1896.337890625</ele>
        <time>2014-06-14T09:50:17Z</time>
      </trkpt>
      <trkpt lat="42.70101" lon="1.61387">
        <ele>1896.818359375</ele>
        <time>2014-06-14T09:50:22Z</time>
      </trkpt>
      <trkpt lat="42.70101" lon="1.61384">
        <ele>1897.7797851562</ele>
        <time>2014-06-14T09:50:26Z</time>
      </trkpt>
      <trkpt lat="42.70102" lon="1.6138">
        <ele>1898.2602539062</ele>
        <time>2014-06-14T09:50:32Z</time>
      </trkpt>
      <trkpt lat="42.70102" lon="1.61377">
        <ele>1898.2602539062</ele>
        <time>2014-06-14T09:50:37Z</time>
      </trkpt>
      <trkpt lat="42.70103" lon="1.61374">
        <ele>1898.7409667969</ele>
        <time>2014-06-14T09:50:42Z</time>
      </trkpt>
      <trkpt lat="42.70101" lon="1.61371">
        <ele>1900.1833496094</ele>
        <time>2014-06-14T09:50:48Z</time>
      </trkpt>
      <trkpt lat="42.70099" lon="1.61366">
        <ele>1901.6252441406</ele>
        <time>2014-06-14T09:50:55Z</time>
      </trkpt>
      <trkpt lat="42.70099" lon="1.61363">
        <ele>1902.1057128906</ele>
        <time>2014-06-14T09:51:00Z</time>
      </trkpt>
      <trkpt lat="42.70098" lon="1.61359">
        <ele>1903.0671386719</ele>
        <time>2014-06-14T09:51:06Z</time>
      </trkpt>
      <trkpt lat="42.70098" lon="1.61358">
        <ele>1903.5478515625</ele>
        <time>2014-06-14T09:51:14Z</time>
      </trkpt>
      <trkpt lat="42.70098" lon="1.61354">
        <ele>1903.5478515625</ele>
        <time>2014-06-14T09:51:21Z</time>
      </trkpt>
      <trkpt lat="42.701" lon="1.6135">
        <ele>1904.0285644531</ele>
        <time>2014-06-14T09:51:28Z</time>
      </trkpt>
      <trkpt lat="42.70101" lon="1.61349">
        <ele>1905.9509277344</ele>
        <time>2014-06-14T09:51:33Z</time>
      </trkpt>
      <trkpt lat="42.70103" lon="1.61349">
        <ele>1907.3930664062</ele>
        <time>2014-06-14T09:51:39Z</time>
      </trkpt>
      <trkpt lat="42.70104" lon="1.61349">
        <ele>1908.3542480469</ele>
        <time>2014-06-14T09:51:45Z</time>
      </trkpt>
      <trkpt lat="42.70106" lon="1.61348">
        <ele>1908.8349609375</ele>
        <time>2014-06-14T09:51:52Z</time>
      </trkpt>
      <trkpt lat="42.70108" lon="1.61347">
        <ele>1909.7961425781</ele>
        <time>2014-06-14T09:51:57Z</time>
      </trkpt>
      <trkpt lat="42.70109" lon="1.61345">
        <ele>1910.2768554688</ele>
        <time>2014-06-14T09:52:05Z</time>
      </trkpt>
      <trkpt lat="42.7011" lon="1.61343">
        <ele>1910.2768554688</ele>
        <time>2014-06-14T09:52:09Z</time>
      </trkpt>
      <trkpt lat="42.7011" lon="1.6134">
        <ele>1910.7575683594</ele>
        <time>2014-06-14T09:52:14Z</time>
      </trkpt>
      <trkpt lat="42.7011" lon="1.61337">
        <ele>1912.1994628906</ele>
        <time>2014-06-14T09:52:20Z</time>
      </trkpt>
      <trkpt lat="42.70108" lon="1.61334">
        <ele>1912.6801757812</ele>
        <time>2014-06-14T09:52:25Z</time>
      </trkpt>
      <trkpt lat="42.70107" lon="1.61329">
        <ele>1913.6413574219</ele>
        <time>2014-06-14T09:52:31Z</time>
      </trkpt>
      <trkpt lat="42.70107" lon="1.61325">
        <ele>1914.6027832031</ele>
        <time>2014-06-14T09:52:37Z</time>
      </trkpt>
      <trkpt lat="42.70106" lon="1.6132">
        <ele>1914.6027832031</ele>
        <time>2014-06-14T09:52:43Z</time>
      </trkpt>
      <trkpt lat="42.70106" lon="1.61315">
        <ele>1914.6027832031</ele>
        <time>2014-06-14T09:52:48Z</time>
      </trkpt>
      <trkpt lat="42.70107" lon="1.61312">
        <ele>1915.5642089844</ele>
        <time>2014-06-14T09:52:53Z</time>
      </trkpt>
      <trkpt lat="42.70107" lon="1.61309">
        <ele>1916.5256347656</ele>
        <time>2014-06-14T09:52:59Z</time>
      </trkpt>
      <trkpt lat="42.70107" lon="1.61305">
        <ele>1917.4868164062</ele>
        <time>2014-06-14T09:53:06Z</time>
      </trkpt>
      <trkpt lat="42.70109" lon="1.61303">
        <ele>1918.4482421875</ele>
        <time>2014-06-14T09:53:12Z</time>
      </trkpt>
      <trkpt lat="42.70111" lon="1.61304">
        <ele>1919.4096679688</ele>
        <time>2014-06-14T09:53:19Z</time>
      </trkpt>
      <trkpt lat="42.70113" lon="1.61306">
        <ele>1920.3708496094</ele>
        <time>2014-06-14T09:53:25Z</time>
      </trkpt>
      <trkpt lat="42.70115" lon="1.6131">
        <ele>1921.33203125</ele>
        <time>2014-06-14T09:53:30Z</time>
      </trkpt>
      <trkpt lat="42.70117" lon="1.6131">
        <ele>1922.2934570312</ele>
        <time>2014-06-14T09:53:36Z</time>
      </trkpt>
      <trkpt lat="42.7012" lon="1.61311">
        <ele>1922.2934570312</ele>
        <time>2014-06-14T09:53:43Z</time>
      </trkpt>
      <trkpt lat="42.70123" lon="1.6131">
        <ele>1923.2548828125</ele>
        <time>2014-06-14T09:53:50Z</time>
      </trkpt>
      <trkpt lat="42.70123" lon="1.61308">
        <ele>1924.2160644531</ele>
        <time>2014-06-14T09:53:56Z</time>
      </trkpt>
      <trkpt lat="42.70122" lon="1.61306">
        <ele>1924.2160644531</ele>
        <time>2014-06-14T09:54:01Z</time>
      </trkpt>
      <trkpt lat="42.70121" lon="1.61303">
        <ele>1924.2160644531</ele>
        <time>2014-06-14T09:54:09Z</time>
      </trkpt>
      <trkpt lat="42.70121" lon="1.61301">
        <ele>1925.1772460938</ele>
        <time>2014-06-14T09:54:14Z</time>
      </trkpt>
      <trkpt lat="42.70122" lon="1.61299">
        <ele>1925.1772460938</ele>
        <time>2014-06-14T09:54:19Z</time>
      </trkpt>
      <trkpt lat="42.70121" lon="1.61295">
        <ele>1926.138671875</ele>
        <time>2014-06-14T09:54:25Z</time>
      </trkpt>
      <trkpt lat="42.70123" lon="1.61291">
        <ele>1926.6193847656</ele>
        <time>2014-06-14T09:54:31Z</time>
      </trkpt>
      <trkpt lat="42.70125" lon="1.6129">
        <ele>1927.1000976562</ele>
        <time>2014-06-14T09:54:37Z</time>
      </trkpt>
      <trkpt lat="42.70125" lon="1.61286">
        <ele>1928.5419921875</ele>
        <time>2014-06-14T09:54:43Z</time>
      </trkpt>
      <trkpt lat="42.70124" lon="1.61282">
        <ele>1928.5419921875</ele>
        <time>2014-06-14T09:54:49Z</time>
      </trkpt>
      <trkpt lat="42.70124" lon="1.61278">
        <ele>1929.0224609375</ele>
        <time>2014-06-14T09:54:56Z</time>
      </trkpt>
      <trkpt lat="42.70123" lon="1.61272">
        <ele>1929.9838867188</ele>
        <time>2014-06-14T09:55:03Z</time>
      </trkpt>
      <trkpt lat="42.70122" lon="1.61265">
        <ele>1930.9453125</ele>
        <time>2014-06-14T09:55:11Z</time>
      </trkpt>
      <trkpt lat="42.70124" lon="1.61261">
        <ele>1932.8679199219</ele>
        <time>2014-06-14T09:55:18Z</time>
      </trkpt>
      <trkpt lat="42.70125" lon="1.61259">
        <ele>1933.8293457031</ele>
        <time>2014-06-14T09:55:23Z</time>
      </trkpt>
      <trkpt lat="42.70126" lon="1.61255">
        <ele>1934.7907714844</ele>
        <time>2014-06-14T09:55:29Z</time>
      </trkpt>
      <trkpt lat="42.70124" lon="1.6125">
        <ele>1936.7131347656</ele>
        <time>2014-06-14T09:55:35Z</time>
      </trkpt>
      <trkpt lat="42.70125" lon="1.61246">
        <ele>1937.1938476562</ele>
        <time>2014-06-14T09:55:42Z</time>
      </trkpt>
      <trkpt lat="42.70126" lon="1.61243">
        <ele>1938.1552734375</ele>
        <time>2014-06-14T09:55:48Z</time>
      </trkpt>
      <trkpt lat="42.70125" lon="1.61241">
        <ele>1940.0778808594</ele>
        <time>2014-06-14T09:55:54Z</time>
      </trkpt>
      <trkpt lat="42.70125" lon="1.61237">
        <ele>1940.0778808594</ele>
        <time>2014-06-14T09:56:00Z</time>
      </trkpt>
      <trkpt lat="42.70123" lon="1.61232">
        <ele>1941.0390625</ele>
        <time>2014-06-14T09:56:07Z</time>
      </trkpt>
      <trkpt lat="42.70122" lon="1.61228">
        <ele>1941.5197753906</ele>
        <time>2014-06-14T09:56:14Z</time>
      </trkpt>
      <trkpt lat="42.70123" lon="1.61223">
        <ele>1941.0390625</ele>
        <time>2014-06-14T09:56:20Z</time>
      </trkpt>
      <trkpt lat="42.70124" lon="1.61218">
        <ele>1940.0778808594</ele>
        <time>2014-06-14T09:56:27Z</time>
      </trkpt>
      <trkpt lat="42.70125" lon="1.61212">
        <ele>1940.0778808594</ele>
        <time>2014-06-14T09:56:34Z</time>
      </trkpt>
      <trkpt lat="42.70126" lon="1.61207">
        <ele>1942.9616699219</ele>
        <time>2014-06-14T09:56:40Z</time>
      </trkpt>
      <trkpt lat="42.70134" lon="1.61203">
        <ele>1944.8842773438</ele>
        <time>2014-06-14T09:56:49Z</time>
      </trkpt>
      <trkpt lat="42.70138" lon="1.61199">
        <ele>1945.845703125</ele>
        <time>2014-06-14T09:56:56Z</time>
      </trkpt>
      <trkpt lat="42.70142" lon="1.61193">
        <ele>1946.8068847656</ele>
        <time>2014-06-14T09:57:03Z</time>
      </trkpt>
      <trkpt lat="42.70143" lon="1.61188">
        <ele>1947.2875976562</ele>
        <time>2014-06-14T09:57:08Z</time>
      </trkpt>
      <trkpt lat="42.70143" lon="1.61181">
        <ele>1947.2875976562</ele>
        <time>2014-06-14T09:57:15Z</time>
      </trkpt>
      <trkpt lat="42.70142" lon="1.61173">
        <ele>1947.7683105469</ele>
        <time>2014-06-14T09:57:21Z</time>
      </trkpt>
      <trkpt lat="42.7014" lon="1.61169">
        <ele>1948.7297363281</ele>
        <time>2014-06-14T09:57:26Z</time>
      </trkpt>
      <trkpt lat="42.7014" lon="1.61165">
        <ele>1949.2104492188</ele>
        <time>2014-06-14T09:57:30Z</time>
      </trkpt>
      <trkpt lat="42.70137" lon="1.6116">
        <ele>1949.6911621094</ele>
        <time>2014-06-14T09:57:36Z</time>
      </trkpt>
      <trkpt lat="42.70133" lon="1.61153">
        <ele>1950.171875</ele>
        <time>2014-06-14T09:57:44Z</time>
      </trkpt>
      <trkpt lat="42.70129" lon="1.61149">
        <ele>1950.65234375</ele>
        <time>2014-06-14T09:57:51Z</time>
      </trkpt>
      <trkpt lat="42.70126" lon="1.61145">
        <ele>1951.1330566406</ele>
        <time>2014-06-14T09:57:56Z</time>
      </trkpt>
      <trkpt lat="42.70119" lon="1.61142">
        <ele>1950.65234375</ele>
        <time>2014-06-14T09:58:03Z</time>
      </trkpt>
      <trkpt lat="42.70116" lon="1.61139">
        <ele>1951.1330566406</ele>
        <time>2014-06-14T09:58:09Z</time>
      </trkpt>
      <trkpt lat="42.70113" lon="1.61136">
        <ele>1951.6137695312</ele>
        <time>2014-06-14T09:58:15Z</time>
      </trkpt>
      <trkpt lat="42.7011" lon="1.61135">
        <ele>1952.0942382812</ele>
        <time>2014-06-14T09:58:22Z</time>
      </trkpt>
      <trkpt lat="42.70105" lon="1.61131">
        <ele>1951.6137695312</ele>
        <time>2014-06-14T09:58:29Z</time>
      </trkpt>
      <trkpt lat="42.70101" lon="1.61127">
        <ele>1950.65234375</ele>
        <time>2014-06-14T09:58:36Z</time>
      </trkpt>
      <trkpt lat="42.70098" lon="1.61123">
        <ele>1949.6911621094</ele>
        <time>2014-06-14T09:58:42Z</time>
      </trkpt>
      <trkpt lat="42.70098" lon="1.61119">
        <ele>1948.2490234375</ele>
        <time>2014-06-14T09:58:48Z</time>
      </trkpt>
      <trkpt lat="42.70098" lon="1.61115">
        <ele>1947.7683105469</ele>
        <time>2014-06-14T09:58:54Z</time>
      </trkpt>
      <trkpt lat="42.701" lon="1.61113">
        <ele>1948.7297363281</ele>
        <time>2014-06-14T09:59:03Z</time>
      </trkpt>
      <trkpt lat="42.70102" lon="1.61109">
        <ele>1948.2490234375</ele>
        <time>2014-06-14T09:59:08Z</time>
      </trkpt>
      <trkpt lat="42.70105" lon="1.61102">
        <ele>1946.8068847656</ele>
        <time>2014-06-14T09:59:15Z</time>
      </trkpt>
      <trkpt lat="42.70105" lon="1.61095">
        <ele>1945.845703125</ele>
        <time>2014-06-14T09:59:21Z</time>
      </trkpt>
      <trkpt lat="42.70106" lon="1.61087">
        <ele>1944.8842773438</ele>
        <time>2014-06-14T09:59:28Z</time>
      </trkpt>
      <trkpt lat="42.70105" lon="1.61078">
        <ele>1944.4035644531</ele>
        <time>2014-06-14T09:59:35Z</time>
      </trkpt>
      <trkpt lat="42.70107" lon="1.61069">
        <ele>1944.4035644531</ele>
        <time>2014-06-14T09:59:42Z</time>
      </trkpt>
      <trkpt lat="42.70107" lon="1.61068">
        <ele>1944.4035644531</ele>
        <time>2014-06-14T09:59:43Z</time>
      </trkpt>
      <trkpt lat="42.70107" lon="1.61059">
        <ele>1944.8842773438</ele>
        <time>2014-06-14T09:59:50Z</time>
      </trkpt>
      <trkpt lat="42.70106" lon="1.61055">
        <ele>1946.8068847656</ele>
        <time>2014-06-14T09:59:54Z</time>
      </trkpt>
      <trkpt lat="42.70107" lon="1.6105">
        <ele>1948.7297363281</ele>
        <time>2014-06-14T10:00:01Z</time>
      </trkpt>
      <trkpt lat="42.70106" lon="1.61045">
        <ele>1951.1330566406</ele>
        <time>2014-06-14T10:00:08Z</time>
      </trkpt>
      <trkpt lat="42.70105" lon="1.61041">
        <ele>1952.0942382812</ele>
        <time>2014-06-14T10:00:13Z</time>
      </trkpt>
      <trkpt lat="42.70105" lon="1.61036">
        <ele>1952.5749511719</ele>
        <time>2014-06-14T10:00:18Z</time>
      </trkpt>
      <trkpt lat="42.70102" lon="1.61033">
        <ele>1952.0942382812</ele>
        <time>2014-06-14T10:00:23Z</time>
      </trkpt>
      <trkpt lat="42.701" lon="1.6103">
        <ele>1951.6137695312</ele>
        <time>2014-06-14T10:00:30Z</time>
      </trkpt>
      <trkpt lat="42.70098" lon="1.61029">
        <ele>1951.1330566406</ele>
        <time>2014-06-14T10:00:36Z</time>
      </trkpt>
      <trkpt lat="42.70102" lon="1.61032">
        <ele>1951.6137695312</ele>
        <time>2014-06-14T10:00:41Z</time>
      </trkpt>
      <trkpt lat="42.70098" lon="1.61036">
        <ele>1951.6137695312</ele>
        <time>2014-06-14T10:00:48Z</time>
      </trkpt>
      <trkpt lat="42.70097" lon="1.61038">
        <ele>1951.1330566406</ele>
        <time>2014-06-14T10:00:55Z</time>
      </trkpt>
      <trkpt lat="42.70095" lon="1.6104">
        <ele>1950.171875</ele>
        <time>2014-06-14T10:01:03Z</time>
      </trkpt>
      <trkpt lat="42.70095" lon="1.61041">
        <ele>1950.65234375</ele>
        <time>2014-06-14T10:01:04Z</time>
      </trkpt>
      <trkpt lat="42.7009" lon="1.61048">
        <ele>1951.6137695312</ele>
        <time>2014-06-14T10:01:11Z</time>
      </trkpt>
      <trkpt lat="42.70087" lon="1.61054">
        <ele>1950.171875</ele>
        <time>2014-06-14T10:01:16Z</time>
      </trkpt>
      <trkpt lat="42.70086" lon="1.61066">
        <ele>1950.65234375</ele>
        <time>2014-06-14T10:01:22Z</time>
      </trkpt>
      <trkpt lat="42.70084" lon="1.61072">
        <ele>1953.0556640625</ele>
        <time>2014-06-14T10:01:26Z</time>
      </trkpt>
      <trkpt lat="42.7008" lon="1.61079">
        <ele>1953.5363769531</ele>
        <time>2014-06-14T10:01:33Z</time>
      </trkpt>
      <trkpt lat="42.70079" lon="1.61081">
        <ele>1953.0556640625</ele>
        <time>2014-06-14T10:01:35Z</time>
      </trkpt>
      <trkpt lat="42.70079" lon="1.61085">
        <ele>1953.5363769531</ele>
        <time>2014-06-14T10:01:41Z</time>
      </trkpt>
      <trkpt lat="42.70076" lon="1.6109">
        <ele>1953.5363769531</ele>
        <time>2014-06-14T10:01:46Z</time>
      </trkpt>
      <trkpt lat="42.70067" lon="1.61085">
        <ele>1951.6137695312</ele>
        <time>2014-06-14T10:01:55Z</time>
      </trkpt>
      <trkpt lat="42.70065" lon="1.61083">
        <ele>1951.6137695312</ele>
        <time>2014-06-14T10:01:57Z</time>
      </trkpt>
      <trkpt lat="42.70058" lon="1.6108">
        <ele>1952.0942382812</ele>
        <time>2014-06-14T10:02:06Z</time>
      </trkpt>
      <trkpt lat="42.70057" lon="1.61075">
        <ele>1952.5749511719</ele>
        <time>2014-06-14T10:02:11Z</time>
      </trkpt>
      <trkpt lat="42.70054" lon="1.61073">
        <ele>1952.5749511719</ele>
        <time>2014-06-14T10:02:16Z</time>
      </trkpt>
      <trkpt lat="42.70049" lon="1.61067">
        <ele>1953.0556640625</ele>
        <time>2014-06-14T10:02:24Z</time>
      </trkpt>
      <trkpt lat="42.70047" lon="1.61065">
        <ele>1953.5363769531</ele>
        <time>2014-06-14T10:02:29Z</time>
      </trkpt>
      <trkpt lat="42.70043" lon="1.61061">
        <ele>1954.0170898438</ele>
        <time>2014-06-14T10:02:36Z</time>
      </trkpt>
      <trkpt lat="42.70042" lon="1.61058">
        <ele>1951.1330566406</ele>
        <time>2014-06-14T10:02:43Z</time>
      </trkpt>
      <trkpt lat="42.70041" lon="1.61057">
        <ele>1952.0942382812</ele>
        <time>2014-06-14T10:02:50Z</time>
      </trkpt>
      <trkpt lat="42.70041" lon="1.61057">
        <ele>1952.0942382812</ele>
        <time>2014-06-14T10:03:10Z</time>
      </trkpt>
      <trkpt lat="42.70039" lon="1.61056">
        <ele>1953.0556640625</ele>
        <time>2014-06-14T10:03:29Z</time>
      </trkpt>
      <trkpt lat="42.70039" lon="1.61056">
        <ele>1953.5363769531</ele>
        <time>2014-06-14T10:03:39Z</time>
      </trkpt>
      <trkpt lat="42.7004" lon="1.61057">
        <ele>1951.1330566406</ele>
        <time>2014-06-14T10:03:56Z</time>
      </trkpt>
      <trkpt lat="42.7004" lon="1.61057">
        <ele>1952.0942382812</ele>
        <time>2014-06-14T10:04:15Z</time>
      </trkpt>
      <trkpt lat="42.70037" lon="1.61057">
        <ele>1958.3427734375</ele>
        <time>2014-06-14T10:04:41Z</time>
      </trkpt>
      <trkpt lat="42.70038" lon="1.61056">
        <ele>1955.939453125</ele>
        <time>2014-06-14T10:05:15Z</time>
      </trkpt>
      <trkpt lat="42.70035" lon="1.61053">
        <ele>1953.0556640625</ele>
        <time>2014-06-14T10:05:31Z</time>
      </trkpt>
      <trkpt lat="42.7003" lon="1.61048">
        <ele>1951.6137695312</ele>
        <time>2014-06-14T10:05:37Z</time>
      </trkpt>
      <trkpt lat="42.70025" lon="1.61042">
        <ele>1952.5749511719</ele>
        <time>2014-06-14T10:05:44Z</time>
      </trkpt>
      <trkpt lat="42.70024" lon="1.61042">
        <ele>1953.0556640625</ele>
        <time>2014-06-14T10:05:45Z</time>
      </trkpt>
      <trkpt lat="42.70022" lon="1.61037">
        <ele>1954.9782714844</ele>
        <time>2014-06-14T10:05:50Z</time>
      </trkpt>
      <trkpt lat="42.7002" lon="1.61033">
        <ele>1954.4975585938</ele>
        <time>2014-06-14T10:05:56Z</time>
      </trkpt>
      <trkpt lat="42.70017" lon="1.61028">
        <ele>1954.0170898438</ele>
        <time>2014-06-14T10:06:04Z</time>
      </trkpt>
      <trkpt lat="42.70017" lon="1.61022">
        <ele>1953.5363769531</ele>
        <time>2014-06-14T10:06:10Z</time>
      </trkpt>
      <trkpt lat="42.70013" lon="1.61019">
        <ele>1953.5363769531</ele>
        <time>2014-06-14T10:06:16Z</time>
      </trkpt>
      <trkpt lat="42.7001" lon="1.61019">
        <ele>1954.4975585938</ele>
        <time>2014-06-14T10:06:22Z</time>
      </trkpt>
      <trkpt lat="42.70007" lon="1.61019">
        <ele>1954.9782714844</ele>
        <time>2014-06-14T10:06:28Z</time>
      </trkpt>
      <trkpt lat="42.70005" lon="1.61018">
        <ele>1955.939453125</ele>
        <time>2014-06-14T10:06:32Z</time>
      </trkpt>
      <trkpt lat="42.70002" lon="1.61014">
        <ele>1957.8623046875</ele>
        <time>2014-06-14T10:06:37Z</time>
      </trkpt>
      <trkpt lat="42.69996" lon="1.61012">
        <ele>1956.9008789062</ele>
        <time>2014-06-14T10:06:44Z</time>
      </trkpt>
      <trkpt lat="42.6999" lon="1.61011">
        <ele>1957.3815917969</ele>
        <time>2014-06-14T10:06:51Z</time>
      </trkpt>
      <trkpt lat="42.6999" lon="1.61003">
        <ele>1955.939453125</ele>
        <time>2014-06-14T10:06:59Z</time>
      </trkpt>
      <trkpt lat="42.69985" lon="1.61">
        <ele>1956.4201660156</ele>
        <time>2014-06-14T10:07:05Z</time>
      </trkpt>
      <trkpt lat="42.69978" lon="1.60995">
        <ele>1957.8623046875</ele>
        <time>2014-06-14T10:07:12Z</time>
      </trkpt>
      <trkpt lat="42.69976" lon="1.60995">
        <ele>1957.3815917969</ele>
        <time>2014-06-14T10:07:14Z</time>
      </trkpt>
      <trkpt lat="42.6997" lon="1.60995">
        <ele>1956.4201660156</ele>
        <time>2014-06-14T10:07:19Z</time>
      </trkpt>
      <trkpt lat="42.69969" lon="1.60994">
        <ele>1955.939453125</ele>
        <time>2014-06-14T10:07:20Z</time>
      </trkpt>
      <trkpt lat="42.69963" lon="1.60995">
        <ele>1957.3815917969</ele>
        <time>2014-06-14T10:07:25Z</time>
      </trkpt>
      <trkpt lat="42.6996" lon="1.60997">
        <ele>1955.939453125</ele>
        <time>2014-06-14T10:07:28Z</time>
      </trkpt>
      <trkpt lat="42.69955" lon="1.60999">
        <ele>1955.939453125</ele>
        <time>2014-06-14T10:07:33Z</time>
      </trkpt>
      <trkpt lat="42.6995" lon="1.60998">
        <ele>1955.939453125</ele>
        <time>2014-06-14T10:07:40Z</time>
      </trkpt>
      <trkpt lat="42.69947" lon="1.60993">
        <ele>1955.458984375</ele>
        <time>2014-06-14T10:07:46Z</time>
      </trkpt>
      <trkpt lat="42.69942" lon="1.60987">
        <ele>1955.939453125</ele>
        <time>2014-06-14T10:07:53Z</time>
      </trkpt>
      <trkpt lat="42.6994" lon="1.60987">
        <ele>1956.4201660156</ele>
        <time>2014-06-14T10:07:59Z</time>
      </trkpt>
      <trkpt lat="42.69938" lon="1.60989">
        <ele>1955.458984375</ele>
        <time>2014-06-14T10:08:30Z</time>
      </trkpt>
      <trkpt lat="42.69934" lon="1.60988">
        <ele>1956.4201660156</ele>
        <time>2014-06-14T10:08:34Z</time>
      </trkpt>
      <trkpt lat="42.69931" lon="1.60983">
        <ele>1957.3815917969</ele>
        <time>2014-06-14T10:08:40Z</time>
      </trkpt>
      <trkpt lat="42.69928" lon="1.6098">
        <ele>1957.3815917969</ele>
        <time>2014-06-14T10:08:42Z</time>
      </trkpt>
      <trkpt lat="42.69926" lon="1.60974">
        <ele>1958.3427734375</ele>
        <time>2014-06-14T10:08:47Z</time>
      </trkpt>
      <trkpt lat="42.69926" lon="1.60973">
        <ele>1958.3427734375</ele>
        <time>2014-06-14T10:08:55Z</time>
      </trkpt>
      <trkpt lat="42.69924" lon="1.6097">
        <ele>1956.9008789062</ele>
        <time>2014-06-14T10:09:09Z</time>
      </trkpt>
      <trkpt lat="42.6992" lon="1.60963">
        <ele>1957.3815917969</ele>
        <time>2014-06-14T10:09:17Z</time>
      </trkpt>
      <trkpt lat="42.69917" lon="1.60955">
        <ele>1957.3815917969</ele>
        <time>2014-06-14T10:09:23Z</time>
      </trkpt>
      <trkpt lat="42.69914" lon="1.60948">
        <ele>1956.9008789062</ele>
        <time>2014-06-14T10:09:30Z</time>
      </trkpt>
      <trkpt lat="42.6991" lon="1.60944">
        <ele>1956.4201660156</ele>
        <time>2014-06-14T10:09:35Z</time>
      </trkpt>
      <trkpt lat="42.69909" lon="1.60935">
        <ele>1955.458984375</ele>
        <time>2014-06-14T10:09:42Z</time>
      </trkpt>
      <trkpt lat="42.69905" lon="1.60924">
        <ele>1955.458984375</ele>
        <time>2014-06-14T10:09:50Z</time>
      </trkpt>
      <trkpt lat="42.69901" lon="1.60915">
        <ele>1955.939453125</ele>
        <time>2014-06-14T10:09:57Z</time>
      </trkpt>
      <trkpt lat="42.69899" lon="1.60912">
        <ele>1955.458984375</ele>
        <time>2014-06-14T10:10:00Z</time>
      </trkpt>
      <trkpt lat="42.69896" lon="1.60905">
        <ele>1954.9782714844</ele>
        <time>2014-06-14T10:10:07Z</time>
      </trkpt>
      <trkpt lat="42.69892" lon="1.60899">
        <ele>1954.9782714844</ele>
        <time>2014-06-14T10:10:13Z</time>
      </trkpt>
      <trkpt lat="42.69892" lon="1.60898">
        <ele>1954.9782714844</ele>
        <time>2014-06-14T10:10:19Z</time>
      </trkpt>
      <trkpt lat="42.69892" lon="1.60899">
        <ele>1955.458984375</ele>
        <time>2014-06-14T10:10:29Z</time>
      </trkpt>
      <trkpt lat="42.69893" lon="1.60902">
        <ele>1955.458984375</ele>
        <time>2014-06-14T10:10:36Z</time>
      </trkpt>
      <trkpt lat="42.69894" lon="1.60904">
        <ele>1954.9782714844</ele>
        <time>2014-06-14T10:10:40Z</time>
      </trkpt>
      <trkpt lat="42.69896" lon="1.60912">
        <ele>1954.4975585938</ele>
        <time>2014-06-14T10:10:47Z</time>
      </trkpt>
      <trkpt lat="42.69897" lon="1.60919">
        <ele>1954.9782714844</ele>
        <time>2014-06-14T10:10:54Z</time>
      </trkpt>
      <trkpt lat="42.69899" lon="1.60925">
        <ele>1954.4975585938</ele>
        <time>2014-06-14T10:11:00Z</time>
      </trkpt>
      <trkpt lat="42.69897" lon="1.60929">
        <ele>1954.9782714844</ele>
        <time>2014-06-14T10:11:05Z</time>
      </trkpt>
      <trkpt lat="42.69895" lon="1.60933">
        <ele>1955.939453125</ele>
        <time>2014-06-14T10:11:12Z</time>
      </trkpt>
      <trkpt lat="42.69895" lon="1.60939">
        <ele>1956.9008789062</ele>
        <time>2014-06-14T10:11:19Z</time>
      </trkpt>
      <trkpt lat="42.69892" lon="1.60944">
        <ele>1957.8623046875</ele>
        <time>2014-06-14T10:11:25Z</time>
      </trkpt>
      <trkpt lat="42.69888" lon="1.6095">
        <ele>1959.3041992188</ele>
        <time>2014-06-14T10:11:32Z</time>
      </trkpt>
      <trkpt lat="42.69883" lon="1.60953">
        <ele>1959.7846679688</ele>
        <time>2014-06-14T10:11:39Z</time>
      </trkpt>
      <trkpt lat="42.69881" lon="1.60958">
        <ele>1959.3041992188</ele>
        <time>2014-06-14T10:11:45Z</time>
      </trkpt>
      <trkpt lat="42.69877" lon="1.60965">
        <ele>1958.8234863281</ele>
        <time>2014-06-14T10:11:53Z</time>
      </trkpt>
      <trkpt lat="42.69873" lon="1.60969">
        <ele>1959.3041992188</ele>
        <time>2014-06-14T10:12:00Z</time>
      </trkpt>
      <trkpt lat="42.6987" lon="1.60971">
        <ele>1961.2268066406</ele>
        <time>2014-06-14T10:12:06Z</time>
      </trkpt>
      <trkpt lat="42.69865" lon="1.60971">
        <ele>1961.7075195312</ele>
        <time>2014-06-14T10:12:12Z</time>
      </trkpt>
      <trkpt lat="42.69863" lon="1.60972">
        <ele>1962.1879882812</ele>
        <time>2014-06-14T10:12:18Z</time>
      </trkpt>
      <trkpt lat="42.69856" lon="1.60975">
        <ele>1962.6687011719</ele>
        <time>2014-06-14T10:12:25Z</time>
      </trkpt>
      <trkpt lat="42.69848" lon="1.60972">
        <ele>1962.6687011719</ele>
        <time>2014-06-14T10:12:34Z</time>
      </trkpt>
      <trkpt lat="42.69845" lon="1.60974">
        <ele>1962.6687011719</ele>
        <time>2014-06-14T10:12:39Z</time>
      </trkpt>
      <trkpt lat="42.69843" lon="1.60972">
        <ele>1962.6687011719</ele>
        <time>2014-06-14T10:12:44Z</time>
      </trkpt>
      <trkpt lat="42.69841" lon="1.6097">
        <ele>1962.1879882812</ele>
        <time>2014-06-14T10:12:51Z</time>
      </trkpt>
      <trkpt lat="42.69839" lon="1.6097">
        <ele>1961.2268066406</ele>
        <time>2014-06-14T10:12:58Z</time>
      </trkpt>
      <trkpt lat="42.69836" lon="1.60973">
        <ele>1959.3041992188</ele>
        <time>2014-06-14T10:13:05Z</time>
      </trkpt>
      <trkpt lat="42.69834" lon="1.60976">
        <ele>1957.8623046875</ele>
        <time>2014-06-14T10:13:10Z</time>
      </trkpt>
      <trkpt lat="42.6983" lon="1.6098">
        <ele>1955.939453125</ele>
        <time>2014-06-14T10:13:17Z</time>
      </trkpt>
      <trkpt lat="42.69829" lon="1.60982">
        <ele>1955.458984375</ele>
        <time>2014-06-14T10:13:22Z</time>
      </trkpt>
      <trkpt lat="42.69825" lon="1.60986">
        <ele>1955.458984375</ele>
        <time>2014-06-14T10:13:28Z</time>
      </trkpt>
      <trkpt lat="42.69825" lon="1.60993">
        <ele>1954.4975585938</ele>
        <time>2014-06-14T10:13:34Z</time>
      </trkpt>
      <trkpt lat="42.69827" lon="1.60997">
        <ele>1953.0556640625</ele>
        <time>2014-06-14T10:13:39Z</time>
      </trkpt>
      <trkpt lat="42.69829" lon="1.61002">
        <ele>1950.65234375</ele>
        <time>2014-06-14T10:13:45Z</time>
      </trkpt>
      <trkpt lat="42.69834" lon="1.61005">
        <ele>1948.7297363281</ele>
        <time>2014-06-14T10:13:50Z</time>
      </trkpt>
      <trkpt lat="42.69838" lon="1.61007">
        <ele>1947.7683105469</ele>
        <time>2014-06-14T10:13:54Z</time>
      </trkpt>
      <trkpt lat="42.69844" lon="1.61012">
        <ele>1946.8068847656</ele>
        <time>2014-06-14T10:14:01Z</time>
      </trkpt>
      <trkpt lat="42.6985" lon="1.61021">
        <ele>1946.8068847656</ele>
        <time>2014-06-14T10:14:09Z</time>
      </trkpt>
      <trkpt lat="42.69852" lon="1.61025">
        <ele>1945.845703125</ele>
        <time>2014-06-14T10:14:15Z</time>
      </trkpt>
      <trkpt lat="42.69852" lon="1.61023">
        <ele>1945.3649902344</ele>
        <time>2014-06-14T10:14:21Z</time>
      </trkpt>
      <trkpt lat="42.69856" lon="1.61028">
        <ele>1943.9230957031</ele>
        <time>2014-06-14T10:14:35Z</time>
      </trkpt>
      <trkpt lat="42.6986" lon="1.61033">
        <ele>1941.5197753906</ele>
        <time>2014-06-14T10:14:43Z</time>
      </trkpt>
      <trkpt lat="42.69862" lon="1.61037">
        <ele>1941.0390625</ele>
        <time>2014-06-14T10:14:47Z</time>
      </trkpt>
      <trkpt lat="42.69862" lon="1.61039">
        <ele>1941.0390625</ele>
        <time>2014-06-14T10:14:48Z</time>
      </trkpt>
      <trkpt lat="42.69861" lon="1.61046">
        <ele>1940.5583496094</ele>
        <time>2014-06-14T10:14:53Z</time>
      </trkpt>
      <trkpt lat="42.6986" lon="1.61052">
        <ele>1941.0390625</ele>
        <time>2014-06-14T10:14:58Z</time>
      </trkpt>
      <trkpt lat="42.69855" lon="1.61059">
        <ele>1942.9616699219</ele>
        <time>2014-06-14T10:15:04Z</time>
      </trkpt>
      <trkpt lat="42.69855" lon="1.61065">
        <ele>1942.4812011719</ele>
        <time>2014-06-14T10:15:09Z</time>
      </trkpt>
      <trkpt lat="42.69854" lon="1.61073">
        <ele>1942.0004882812</ele>
        <time>2014-06-14T10:15:15Z</time>
      </trkpt>
      <trkpt lat="42.69855" lon="1.61077">
        <ele>1939.5971679688</ele>
        <time>2014-06-14T10:15:19Z</time>
      </trkpt>
      <trkpt lat="42.69859" lon="1.61082">
        <ele>1937.6745605469</ele>
        <time>2014-06-14T10:15:24Z</time>
      </trkpt>
      <trkpt lat="42.69864" lon="1.61086">
        <ele>1935.751953125</ele>
        <time>2014-06-14T10:15:28Z</time>
      </trkpt>
      <trkpt lat="42.69865" lon="1.61089">
        <ele>1935.2712402344</ele>
        <time>2014-06-14T10:15:30Z</time>
      </trkpt>
      <trkpt lat="42.6987" lon="1.61094">
        <ele>1934.7907714844</ele>
        <time>2014-06-14T10:15:36Z</time>
      </trkpt>
      <trkpt lat="42.69873" lon="1.61099">
        <ele>1933.3486328125</ele>
        <time>2014-06-14T10:15:40Z</time>
      </trkpt>
      <trkpt lat="42.69875" lon="1.61102">
        <ele>1932.8679199219</ele>
        <time>2014-06-14T10:15:43Z</time>
      </trkpt>
      <trkpt lat="42.69878" lon="1.61105">
        <ele>1932.8679199219</ele>
        <time>2014-06-14T10:15:47Z</time>
      </trkpt>
      <trkpt lat="42.69879" lon="1.61114">
        <ele>1932.8679199219</ele>
        <time>2014-06-14T10:15:54Z</time>
      </trkpt>
      <trkpt lat="42.69882" lon="1.61119">
        <ele>1932.8679199219</ele>
        <time>2014-06-14T10:15:59Z</time>
      </trkpt>
      <trkpt lat="42.69884" lon="1.61129">
        <ele>1932.3874511719</ele>
        <time>2014-06-14T10:16:06Z</time>
      </trkpt>
      <trkpt lat="42.69886" lon="1.61133">
        <ele>1932.3874511719</ele>
        <time>2014-06-14T10:16:09Z</time>
      </trkpt>
      <trkpt lat="42.69892" lon="1.6114">
        <ele>1932.8679199219</ele>
        <time>2014-06-14T10:16:16Z</time>
      </trkpt>
      <trkpt lat="42.69895" lon="1.61144">
        <ele>1933.3486328125</ele>
        <time>2014-06-14T10:16:19Z</time>
      </trkpt>
      <trkpt lat="42.69895" lon="1.61152">
        <ele>1935.751953125</ele>
        <time>2014-06-14T10:16:24Z</time>
      </trkpt>
      <trkpt lat="42.69892" lon="1.61163">
        <ele>1938.6359863281</ele>
        <time>2014-06-14T10:16:31Z</time>
      </trkpt>
      <trkpt lat="42.69891" lon="1.61167">
        <ele>1939.1164550781</ele>
        <time>2014-06-14T10:16:35Z</time>
      </trkpt>
      <trkpt lat="42.6989" lon="1.61178">
        <ele>1941.0390625</ele>
        <time>2014-06-14T10:16:42Z</time>
      </trkpt>
      <trkpt lat="42.6989" lon="1.61183">
        <ele>1940.5583496094</ele>
        <time>2014-06-14T10:16:45Z</time>
      </trkpt>
      <trkpt lat="42.69889" lon="1.6119">
        <ele>1942.0004882812</ele>
        <time>2014-06-14T10:16:50Z</time>
      </trkpt>
      <trkpt lat="42.69886" lon="1.61201">
        <ele>1941.5197753906</ele>
        <time>2014-06-14T10:16:58Z</time>
      </trkpt>
      <trkpt lat="42.69885" lon="1.61204">
        <ele>1941.0390625</ele>
        <time>2014-06-14T10:17:00Z</time>
      </trkpt>
      <trkpt lat="42.69884" lon="1.61209">
        <ele>1941.0390625</ele>
        <time>2014-06-14T10:17:04Z</time>
      </trkpt>
      <trkpt lat="42.69883" lon="1.61217">
        <ele>1939.5971679688</ele>
        <time>2014-06-14T10:17:10Z</time>
      </trkpt>
      <trkpt lat="42.69884" lon="1.61226">
        <ele>1939.1164550781</ele>
        <time>2014-06-14T10:17:17Z</time>
      </trkpt>
      <trkpt lat="42.69884" lon="1.61228">
        <ele>1938.6359863281</ele>
        <time>2014-06-14T10:17:18Z</time>
      </trkpt>
      <trkpt lat="42.69881" lon="1.61235">
        <ele>1936.7131347656</ele>
        <time>2014-06-14T10:17:24Z</time>
      </trkpt>
      <trkpt lat="42.69879" lon="1.61239">
        <ele>1935.2712402344</ele>
        <time>2014-06-14T10:17:27Z</time>
      </trkpt>
      <trkpt lat="42.69875" lon="1.61248">
        <ele>1933.8293457031</ele>
        <time>2014-06-14T10:17:36Z</time>
      </trkpt>
      <trkpt lat="42.69876" lon="1.61255">
        <ele>1933.3486328125</ele>
        <time>2014-06-14T10:17:41Z</time>
      </trkpt>
      <trkpt lat="42.69878" lon="1.61262">
        <ele>1934.3100585938</ele>
        <time>2014-06-14T10:17:47Z</time>
      </trkpt>
      <trkpt lat="42.69877" lon="1.61269">
        <ele>1933.8293457031</ele>
        <time>2014-06-14T10:17:51Z</time>
      </trkpt>
      <trkpt lat="42.69876" lon="1.61274">
        <ele>1934.3100585938</ele>
        <time>2014-06-14T10:17:54Z</time>
      </trkpt>
      <trkpt lat="42.69875" lon="1.61281">
        <ele>1931.9064941406</ele>
        <time>2014-06-14T10:18:00Z</time>
      </trkpt>
      <trkpt lat="42.69875" lon="1.61282">
        <ele>1931.42578125</ele>
        <time>2014-06-14T10:18:01Z</time>
      </trkpt>
      <trkpt lat="42.69868" lon="1.61289">
        <ele>1928.0612792969</ele>
        <time>2014-06-14T10:18:08Z</time>
      </trkpt>
      <trkpt lat="42.69865" lon="1.61292">
        <ele>1925.6579589844</ele>
        <time>2014-06-14T10:18:12Z</time>
      </trkpt>
      <trkpt lat="42.69864" lon="1.61294">
        <ele>1923.7353515625</ele>
        <time>2014-06-14T10:18:18Z</time>
      </trkpt>
      <trkpt lat="42.69862" lon="1.61297">
        <ele>1922.7741699219</ele>
        <time>2014-06-14T10:18:22Z</time>
      </trkpt>
      <trkpt lat="42.69862" lon="1.61304">
        <ele>1920.8515625</ele>
        <time>2014-06-14T10:18:28Z</time>
      </trkpt>
      <trkpt lat="42.69861" lon="1.6131">
        <ele>1918.4482421875</ele>
        <time>2014-06-14T10:18:35Z</time>
      </trkpt>
      <trkpt lat="42.69864" lon="1.61313">
        <ele>1917.4868164062</ele>
        <time>2014-06-14T10:18:42Z</time>
      </trkpt>
      <trkpt lat="42.69865" lon="1.61316">
        <ele>1916.5256347656</ele>
        <time>2014-06-14T10:18:47Z</time>
      </trkpt>
      <trkpt lat="42.69863" lon="1.61317">
        <ele>1916.5256347656</ele>
        <time>2014-06-14T10:18:52Z</time>
      </trkpt>
      <trkpt lat="42.69861" lon="1.61321">
        <ele>1916.5256347656</ele>
        <time>2014-06-14T10:18:58Z</time>
      </trkpt>
      <trkpt lat="42.69863" lon="1.61323">
        <ele>1915.5642089844</ele>
        <time>2014-06-14T10:19:03Z</time>
      </trkpt>
      <trkpt lat="42.69865" lon="1.61328">
        <ele>1914.1220703125</ele>
        <time>2014-06-14T10:19:10Z</time>
      </trkpt>
      <trkpt lat="42.69861" lon="1.6133">
        <ele>1913.6413574219</ele>
        <time>2014-06-14T10:19:14Z</time>
      </trkpt>
      <trkpt lat="42.69857" lon="1.61333">
        <ele>1912.6801757812</ele>
        <time>2014-06-14T10:19:20Z</time>
      </trkpt>
      <trkpt lat="42.69852" lon="1.61335">
        <ele>1912.1994628906</ele>
        <time>2014-06-14T10:19:26Z</time>
      </trkpt>
      <trkpt lat="42.6985" lon="1.61337">
        <ele>1910.7575683594</ele>
        <time>2014-06-14T10:19:33Z</time>
      </trkpt>
      <trkpt lat="42.69851" lon="1.6134">
        <ele>1909.3156738281</ele>
        <time>2014-06-14T10:19:39Z</time>
      </trkpt>
      <trkpt lat="42.69848" lon="1.6134">
        <ele>1908.8349609375</ele>
        <time>2014-06-14T10:19:45Z</time>
      </trkpt>
      <trkpt lat="42.69844" lon="1.61342">
        <ele>1908.8349609375</ele>
        <time>2014-06-14T10:19:51Z</time>
      </trkpt>
      <trkpt lat="42.69843" lon="1.61344">
        <ele>1909.3156738281</ele>
        <time>2014-06-14T10:19:56Z</time>
      </trkpt>
      <trkpt lat="42.69841" lon="1.61346">
        <ele>1911.7189941406</ele>
        <time>2014-06-14T10:20:02Z</time>
      </trkpt>
      <trkpt lat="42.6984" lon="1.61346">
        <ele>1911.7189941406</ele>
        <time>2014-06-14T10:20:09Z</time>
      </trkpt>
      <trkpt lat="42.69839" lon="1.61346">
        <ele>1911.23828125</ele>
        <time>2014-06-14T10:20:14Z</time>
      </trkpt>
      <trkpt lat="42.69838" lon="1.61347">
        <ele>1910.2768554688</ele>
        <time>2014-06-14T10:20:19Z</time>
      </trkpt>
      <trkpt lat="42.69836" lon="1.61347">
        <ele>1909.7961425781</ele>
        <time>2014-06-14T10:20:24Z</time>
      </trkpt>
      <trkpt lat="42.69835" lon="1.61347">
        <ele>1909.7961425781</ele>
        <time>2014-06-14T10:20:30Z</time>
      </trkpt>
      <trkpt lat="42.69831" lon="1.61349">
        <ele>1911.23828125</ele>
        <time>2014-06-14T10:20:37Z</time>
      </trkpt>
      <trkpt lat="42.69831" lon="1.61355">
        <ele>1916.044921875</ele>
        <time>2014-06-14T10:20:43Z</time>
      </trkpt>
      <trkpt lat="42.69829" lon="1.61358">
        <ele>1917.0063476562</ele>
        <time>2014-06-14T10:20:48Z</time>
      </trkpt>
      <trkpt lat="42.69828" lon="1.61361">
        <ele>1917.4868164062</ele>
        <time>2014-06-14T10:20:58Z</time>
      </trkpt>
      <trkpt lat="42.69827" lon="1.61361">
        <ele>1915.0834960938</ele>
        <time>2014-06-14T10:21:03Z</time>
      </trkpt>
      <trkpt lat="42.69825" lon="1.6136">
        <ele>1913.6413574219</ele>
        <time>2014-06-14T10:21:08Z</time>
      </trkpt>
      <trkpt lat="42.69823" lon="1.61361">
        <ele>1914.1220703125</ele>
        <time>2014-06-14T10:21:13Z</time>
      </trkpt>
      <trkpt lat="42.69824" lon="1.6136">
        <ele>1912.1994628906</ele>
        <time>2014-06-14T10:21:26Z</time>
      </trkpt>
      <trkpt lat="42.69823" lon="1.61359">
        <ele>1909.7961425781</ele>
        <time>2014-06-14T10:21:35Z</time>
      </trkpt>
      <trkpt lat="42.69823" lon="1.61354">
        <ele>1906.9123535156</ele>
        <time>2014-06-14T10:22:43Z</time>
      </trkpt>
      <trkpt lat="42.69825" lon="1.61354">
        <ele>1908.8349609375</ele>
        <time>2014-06-14T10:22:51Z</time>
      </trkpt>
      <trkpt lat="42.69825" lon="1.61356">
        <ele>1909.3156738281</ele>
        <time>2014-06-14T10:23:24Z</time>
      </trkpt>
      <trkpt lat="42.69825" lon="1.61355">
        <ele>1907.8737792969</ele>
        <time>2014-06-14T10:24:49Z</time>
      </trkpt>
      <trkpt lat="42.69824" lon="1.61355">
        <ele>1905.4704589844</ele>
        <time>2014-06-14T10:25:30Z</time>
      </trkpt>
      <trkpt lat="42.69828" lon="1.61354">
        <ele>1907.3930664062</ele>
        <time>2014-06-14T10:26:22Z</time>
      </trkpt>
      <trkpt lat="42.69826" lon="1.61362">
        <ele>1911.7189941406</ele>
        <time>2014-06-14T10:27:59Z</time>
      </trkpt>
      <trkpt lat="42.69827" lon="1.61345">
        <ele>1885.7634277344</ele>
        <time>2014-06-14T10:28:59Z</time>
      </trkpt>
      <trkpt lat="42.69825" lon="1.61352">
        <ele>1901.6252441406</ele>
        <time>2014-06-14T10:29:46Z</time>
      </trkpt>
      <trkpt lat="42.69821" lon="1.61354">
        <ele>1904.5090332031</ele>
        <time>2014-06-14T10:30:30Z</time>
      </trkpt>
      <trkpt lat="42.69827" lon="1.61346">
        <ele>1889.1279296875</ele>
        <time>2014-06-14T10:31:15Z</time>
      </trkpt>
      <trkpt lat="42.69827" lon="1.6135">
        <ele>1894.8957519531</ele>
        <time>2014-06-14T10:31:41Z</time>
      </trkpt>
      <trkpt lat="42.69826" lon="1.6135">
        <ele>1892.4926757812</ele>
        <time>2014-06-14T10:32:31Z</time>
      </trkpt>
      <trkpt lat="42.69827" lon="1.6135">
        <ele>1894.4150390625</ele>
        <time>2014-06-14T10:32:50Z</time>
      </trkpt>
      <trkpt lat="42.69829" lon="1.61342">
        <ele>1876.630859375</ele>
        <time>2014-06-14T10:34:26Z</time>
      </trkpt>
      <trkpt lat="42.69824" lon="1.61355">
        <ele>1897.2990722656</ele>
        <time>2014-06-14T10:35:36Z</time>
      </trkpt>
      <trkpt lat="42.69823" lon="1.61357">
        <ele>1901.6252441406</ele>
        <time>2014-06-14T10:35:56Z</time>
      </trkpt>
      <trkpt lat="42.69823" lon="1.61357">
        <ele>1903.0671386719</ele>
        <time>2014-06-14T10:36:23Z</time>
      </trkpt>
      <trkpt lat="42.69826" lon="1.61349">
        <ele>1889.6086425781</ele>
        <time>2014-06-14T10:37:15Z</time>
      </trkpt>
      <trkpt lat="42.69825" lon="1.61355">
        <ele>1899.7023925781</ele>
        <time>2014-06-14T10:37:44Z</time>
      </trkpt>
      <trkpt lat="42.69824" lon="1.61358">
        <ele>1908.8349609375</ele>
        <time>2014-06-14T10:38:52Z</time>
      </trkpt>
      <trkpt lat="42.69821" lon="1.61377">
        <ele>1937.6745605469</ele>
        <time>2014-06-14T10:39:08Z</time>
      </trkpt>
      <trkpt lat="42.69823" lon="1.61365">
        <ele>1917.4868164062</ele>
        <time>2014-06-14T10:39:21Z</time>
      </trkpt>
      <trkpt lat="42.69823" lon="1.61356">
        <ele>1905.4704589844</ele>
        <time>2014-06-14T10:39:51Z</time>
      </trkpt>
      <trkpt lat="42.69824" lon="1.61357">
        <ele>1909.3156738281</ele>
        <time>2014-06-14T10:43:56Z</time>
      </trkpt>
      <trkpt lat="42.69822" lon="1.6136">
        <ele>1907.8737792969</ele>
        <time>2014-06-14T10:45:17Z</time>
      </trkpt>
      <trkpt lat="42.69823" lon="1.61357">
        <ele>1905.9509277344</ele>
        <time>2014-06-14T10:46:13Z</time>
      </trkpt>
      <trkpt lat="42.69823" lon="1.61357">
        <ele>1905.9509277344</ele>
        <time>2014-06-14T10:46:30Z</time>
      </trkpt>
      <trkpt lat="42.69822" lon="1.61358">
        <ele>1905.9509277344</ele>
        <time>2014-06-14T10:46:39Z</time>
      </trkpt>
      <trkpt lat="42.6982" lon="1.61361">
        <ele>1908.8349609375</ele>
        <time>2014-06-14T10:46:45Z</time>
      </trkpt>
      <trkpt lat="42.69817" lon="1.61361">
        <ele>1908.8349609375</ele>
        <time>2014-06-14T10:46:52Z</time>
      </trkpt>
      <trkpt lat="42.69822" lon="1.61356">
        <ele>1895.3764648438</ele>
        <time>2014-06-14T10:47:12Z</time>
      </trkpt>
      <trkpt lat="42.69821" lon="1.61362">
        <ele>1898.7409667969</ele>
        <time>2014-06-14T10:47:20Z</time>
      </trkpt>
      <trkpt lat="42.69818" lon="1.61367">
        <ele>1902.1057128906</ele>
        <time>2014-06-14T10:47:30Z</time>
      </trkpt>
      <trkpt lat="42.69818" lon="1.61371">
        <ele>1903.5478515625</ele>
        <time>2014-06-14T10:47:38Z</time>
      </trkpt>
      <trkpt lat="42.69818" lon="1.61372">
        <ele>1901.14453125</ele>
        <time>2014-06-14T10:47:47Z</time>
      </trkpt>
      <trkpt lat="42.6982" lon="1.61371">
        <ele>1899.7023925781</ele>
        <time>2014-06-14T10:47:56Z</time>
      </trkpt>
      <trkpt lat="42.69822" lon="1.6137">
        <ele>1896.818359375</ele>
        <time>2014-06-14T10:48:03Z</time>
      </trkpt>
      <trkpt lat="42.69825" lon="1.61371">
        <ele>1896.337890625</ele>
        <time>2014-06-14T10:48:09Z</time>
      </trkpt>
      <trkpt lat="42.69826" lon="1.61374">
        <ele>1897.2990722656</ele>
        <time>2014-06-14T10:48:18Z</time>
      </trkpt>
      <trkpt lat="42.69826" lon="1.61378">
        <ele>1897.2990722656</ele>
        <time>2014-06-14T10:48:24Z</time>
      </trkpt>
      <trkpt lat="42.69827" lon="1.61381">
        <ele>1895.8571777344</ele>
        <time>2014-06-14T10:48:28Z</time>
      </trkpt>
      <trkpt lat="42.69828" lon="1.61384">
        <ele>1894.8957519531</ele>
        <time>2014-06-14T10:48:33Z</time>
      </trkpt>
      <trkpt lat="42.69826" lon="1.61385">
        <ele>1893.9345703125</ele>
        <time>2014-06-14T10:48:38Z</time>
      </trkpt>
      <trkpt lat="42.69823" lon="1.61388">
        <ele>1891.53125</ele>
        <time>2014-06-14T10:48:45Z</time>
      </trkpt>
      <trkpt lat="42.69821" lon="1.61391">
        <ele>1891.53125</ele>
        <time>2014-06-14T10:48:50Z</time>
      </trkpt>
      <trkpt lat="42.6982" lon="1.61394">
        <ele>1891.0505371094</ele>
        <time>2014-06-14T10:48:55Z</time>
      </trkpt>
      <trkpt lat="42.69817" lon="1.61398">
        <ele>1891.0505371094</ele>
        <time>2014-06-14T10:49:01Z</time>
      </trkpt>
      <trkpt lat="42.69813" lon="1.61402">
        <ele>1891.53125</ele>
        <time>2014-06-14T10:49:07Z</time>
      </trkpt>
      <trkpt lat="42.69812" lon="1.61406">
        <ele>1891.0505371094</ele>
        <time>2014-06-14T10:49:12Z</time>
      </trkpt>
      <trkpt lat="42.69812" lon="1.6141">
        <ele>1891.0505371094</ele>
        <time>2014-06-14T10:49:16Z</time>
      </trkpt>
      <trkpt lat="42.6981" lon="1.6141">
        <ele>1891.0505371094</ele>
        <time>2014-06-14T10:49:23Z</time>
      </trkpt>
      <trkpt lat="42.69806" lon="1.6141">
        <ele>1892.0119628906</ele>
        <time>2014-06-14T10:49:28Z</time>
      </trkpt>
      <trkpt lat="42.69803" lon="1.61413">
        <ele>1893.4538574219</ele>
        <time>2014-06-14T10:49:33Z</time>
      </trkpt>
      <trkpt lat="42.69801" lon="1.61412">
        <ele>1892.9731445312</ele>
        <time>2014-06-14T10:49:41Z</time>
      </trkpt>
      <trkpt lat="42.69798" lon="1.61408">
        <ele>1894.4150390625</ele>
        <time>2014-06-14T10:49:50Z</time>
      </trkpt>
      <trkpt lat="42.69796" lon="1.61408">
        <ele>1895.3764648438</ele>
        <time>2014-06-14T10:49:57Z</time>
      </trkpt>
      <trkpt lat="42.69796" lon="1.6141">
        <ele>1890.0893554688</ele>
        <time>2014-06-14T10:50:20Z</time>
      </trkpt>
      <trkpt lat="42.69797" lon="1.61416">
        <ele>1890.5698242188</ele>
        <time>2014-06-14T10:50:30Z</time>
      </trkpt>
      <trkpt lat="42.69797" lon="1.61419">
        <ele>1890.0893554688</ele>
        <time>2014-06-14T10:50:36Z</time>
      </trkpt>
      <trkpt lat="42.69799" lon="1.61421">
        <ele>1887.6860351562</ele>
        <time>2014-06-14T10:50:45Z</time>
      </trkpt>
      <trkpt lat="42.69801" lon="1.61417">
        <ele>1886.724609375</ele>
        <time>2014-06-14T10:51:02Z</time>
      </trkpt>
      <trkpt lat="42.69801" lon="1.61421">
        <ele>1887.6860351562</ele>
        <time>2014-06-14T10:51:19Z</time>
      </trkpt>
      <trkpt lat="42.69802" lon="1.61422">
        <ele>1881.91796875</ele>
        <time>2014-06-14T10:51:30Z</time>
      </trkpt>
      <trkpt lat="42.69802" lon="1.61427">
        <ele>1882.3986816406</ele>
        <time>2014-06-14T10:51:38Z</time>
      </trkpt>
      <trkpt lat="42.69802" lon="1.61429">
        <ele>1881.4372558594</ele>
        <time>2014-06-14T10:51:43Z</time>
      </trkpt>
      <trkpt lat="42.69801" lon="1.61431">
        <ele>1880.4760742188</ele>
        <time>2014-06-14T10:51:47Z</time>
      </trkpt>
      <trkpt lat="42.69801" lon="1.61435">
        <ele>1875.6694335938</ele>
        <time>2014-06-14T10:52:06Z</time>
      </trkpt>
      <trkpt lat="42.69799" lon="1.61439">
        <ele>1875.6694335938</ele>
        <time>2014-06-14T10:52:10Z</time>
      </trkpt>
      <trkpt lat="42.69798" lon="1.61442">
        <ele>1875.6694335938</ele>
        <time>2014-06-14T10:52:14Z</time>
      </trkpt>
      <trkpt lat="42.69798" lon="1.61453">
        <ele>1874.7082519531</ele>
        <time>2014-06-14T10:52:38Z</time>
      </trkpt>
      <trkpt lat="42.69794" lon="1.61457">
        <ele>1872.7856445312</ele>
        <time>2014-06-14T10:52:47Z</time>
      </trkpt>
      <trkpt lat="42.6979" lon="1.61461">
        <ele>1872.7856445312</ele>
        <time>2014-06-14T10:52:56Z</time>
      </trkpt>
      <trkpt lat="42.69779" lon="1.61467">
        <ele>1864.1335449219</ele>
        <time>2014-06-14T10:54:32Z</time>
      </trkpt>
      <trkpt lat="42.69784" lon="1.6147">
        <ele>1857.4045410156</ele>
        <time>2014-06-14T10:54:53Z</time>
      </trkpt>
      <trkpt lat="42.69784" lon="1.61473">
        <ele>1855.9624023438</ele>
        <time>2014-06-14T10:54:59Z</time>
      </trkpt>
      <trkpt lat="42.6979" lon="1.61482">
        <ele>1845.8686523438</ele>
        <time>2014-06-14T10:55:46Z</time>
      </trkpt>
      <trkpt lat="42.69791" lon="1.61482">
        <ele>1845.8686523438</ele>
        <time>2014-06-14T10:55:50Z</time>
      </trkpt>
      <trkpt lat="42.69787" lon="1.61494">
        <ele>1842.0234375</ele>
        <time>2014-06-14T10:56:36Z</time>
      </trkpt>
      <trkpt lat="42.69786" lon="1.61496">
        <ele>1843.4653320312</ele>
        <time>2014-06-14T10:56:45Z</time>
      </trkpt>
      <trkpt lat="42.69785" lon="1.61497">
        <ele>1844.4265136719</ele>
        <time>2014-06-14T10:56:51Z</time>
      </trkpt>
      <trkpt lat="42.69773" lon="1.61511">
        <ele>1839.1394042969</ele>
        <time>2014-06-14T10:57:44Z</time>
      </trkpt>
      <trkpt lat="42.69768" lon="1.61514">
        <ele>1840.5812988281</ele>
        <time>2014-06-14T10:58:01Z</time>
      </trkpt>
      <trkpt lat="42.69756" lon="1.61517">
        <ele>1842.5041503906</ele>
        <time>2014-06-14T10:58:30Z</time>
      </trkpt>
      <trkpt lat="42.69754" lon="1.6152">
        <ele>1845.3879394531</ele>
        <time>2014-06-14T10:58:51Z</time>
      </trkpt>
      <trkpt lat="42.69753" lon="1.61523">
        <ele>1844.4265136719</ele>
        <time>2014-06-14T10:58:59Z</time>
      </trkpt>
      <trkpt lat="42.69753" lon="1.61525">
        <ele>1843.4653320312</ele>
        <time>2014-06-14T10:59:05Z</time>
      </trkpt>
      <trkpt lat="42.69753" lon="1.61529">
        <ele>1843.4653320312</ele>
        <time>2014-06-14T10:59:09Z</time>
      </trkpt>
      <trkpt lat="42.69754" lon="1.61531">
        <ele>1842.5041503906</ele>
        <time>2014-06-14T10:59:13Z</time>
      </trkpt>
      <trkpt lat="42.69767" lon="1.61538">
        <ele>1836.2556152344</ele>
        <time>2014-06-14T10:59:44Z</time>
      </trkpt>
      <trkpt lat="42.69772" lon="1.61543">
        <ele>1836.2556152344</ele>
        <time>2014-06-14T10:59:51Z</time>
      </trkpt>
      <trkpt lat="42.69777" lon="1.61546">
        <ele>1834.3327636719</ele>
        <time>2014-06-14T10:59:57Z</time>
      </trkpt>
      <trkpt lat="42.6978" lon="1.61547">
        <ele>1832.890625</ele>
        <time>2014-06-14T11:00:01Z</time>
      </trkpt>
      <trkpt lat="42.69782" lon="1.61548">
        <ele>1831.9294433594</ele>
        <time>2014-06-14T11:00:05Z</time>
      </trkpt>
      <trkpt lat="42.69786" lon="1.61551">
        <ele>1831.4487304688</ele>
        <time>2014-06-14T11:00:11Z</time>
      </trkpt>
      <trkpt lat="42.69793" lon="1.61554">
        <ele>1829.5261230469</ele>
        <time>2014-06-14T11:00:17Z</time>
      </trkpt>
      <trkpt lat="42.69793" lon="1.61555">
        <ele>1829.0454101562</ele>
        <time>2014-06-14T11:00:18Z</time>
      </trkpt>
      <trkpt lat="42.69798" lon="1.61561">
        <ele>1828.0842285156</ele>
        <time>2014-06-14T11:00:24Z</time>
      </trkpt>
      <trkpt lat="42.69802" lon="1.61567">
        <ele>1828.0842285156</ele>
        <time>2014-06-14T11:00:31Z</time>
      </trkpt>
      <trkpt lat="42.69804" lon="1.61573">
        <ele>1829.5261230469</ele>
        <time>2014-06-14T11:00:37Z</time>
      </trkpt>
      <trkpt lat="42.6981" lon="1.61579">
        <ele>1830.0068359375</ele>
        <time>2014-06-14T11:00:46Z</time>
      </trkpt>
      <trkpt lat="42.69813" lon="1.61584">
        <ele>1829.5261230469</ele>
        <time>2014-06-14T11:00:52Z</time>
      </trkpt>
      <trkpt lat="42.69814" lon="1.61586">
        <ele>1829.0454101562</ele>
        <time>2014-06-14T11:00:56Z</time>
      </trkpt>
      <trkpt lat="42.69815" lon="1.61589">
        <ele>1829.5261230469</ele>
        <time>2014-06-14T11:00:59Z</time>
      </trkpt>
      <trkpt lat="42.69815" lon="1.61595">
        <ele>1830.4875488281</ele>
        <time>2014-06-14T11:01:04Z</time>
      </trkpt>
      <trkpt lat="42.69817" lon="1.61599">
        <ele>1830.4875488281</ele>
        <time>2014-06-14T11:01:10Z</time>
      </trkpt>
      <trkpt lat="42.6982" lon="1.61601">
        <ele>1829.0454101562</ele>
        <time>2014-06-14T11:01:15Z</time>
      </trkpt>
      <trkpt lat="42.69823" lon="1.61604">
        <ele>1828.0842285156</ele>
        <time>2014-06-14T11:01:20Z</time>
      </trkpt>
      <trkpt lat="42.69827" lon="1.61605">
        <ele>1826.1616210938</ele>
        <time>2014-06-14T11:01:26Z</time>
      </trkpt>
      <trkpt lat="42.69829" lon="1.61611">
        <ele>1826.6423339844</ele>
        <time>2014-06-14T11:01:31Z</time>
      </trkpt>
      <trkpt lat="42.69831" lon="1.61616">
        <ele>1826.6423339844</ele>
        <time>2014-06-14T11:01:36Z</time>
      </trkpt>
      <trkpt lat="42.69834" lon="1.61617">
        <ele>1825.6809082031</ele>
        <time>2014-06-14T11:01:40Z</time>
      </trkpt>
      <trkpt lat="42.69838" lon="1.61617">
        <ele>1823.7583007812</ele>
        <time>2014-06-14T11:01:44Z</time>
      </trkpt>
      <trkpt lat="42.69839" lon="1.61622">
        <ele>1824.7197265625</ele>
        <time>2014-06-14T11:01:48Z</time>
      </trkpt>
      <trkpt lat="42.69843" lon="1.61628">
        <ele>1826.1616210938</ele>
        <time>2014-06-14T11:01:57Z</time>
      </trkpt>
      <trkpt lat="42.69844" lon="1.61633">
        <ele>1828.0842285156</ele>
        <time>2014-06-14T11:02:04Z</time>
      </trkpt>
      <trkpt lat="42.69853" lon="1.61636">
        <ele>1824.2390136719</ele>
        <time>2014-06-14T11:02:22Z</time>
      </trkpt>
      <trkpt lat="42.69855" lon="1.61639">
        <ele>1824.7197265625</ele>
        <time>2014-06-14T11:02:26Z</time>
      </trkpt>
      <trkpt lat="42.69857" lon="1.61641">
        <ele>1823.7583007812</ele>
        <time>2014-06-14T11:02:30Z</time>
      </trkpt>
      <trkpt lat="42.69865" lon="1.61643">
        <ele>1821.3549804688</ele>
        <time>2014-06-14T11:02:37Z</time>
      </trkpt>
      <trkpt lat="42.69866" lon="1.61648">
        <ele>1821.8356933594</ele>
        <time>2014-06-14T11:02:41Z</time>
      </trkpt>
      <trkpt lat="42.69867" lon="1.61658">
        <ele>1824.7197265625</ele>
        <time>2014-06-14T11:02:49Z</time>
      </trkpt>
      <trkpt lat="42.69868" lon="1.61662">
        <ele>1825.2001953125</ele>
        <time>2014-06-14T11:02:53Z</time>
      </trkpt>
      <trkpt lat="42.69869" lon="1.61665">
        <ele>1824.7197265625</ele>
        <time>2014-06-14T11:02:57Z</time>
      </trkpt>
      <trkpt lat="42.69874" lon="1.6167">
        <ele>1822.31640625</ele>
        <time>2014-06-14T11:03:07Z</time>
      </trkpt>
      <trkpt lat="42.69874" lon="1.61673">
        <ele>1822.31640625</ele>
        <time>2014-06-14T11:03:11Z</time>
      </trkpt>
      <trkpt lat="42.69875" lon="1.61678">
        <ele>1822.7971191406</ele>
        <time>2014-06-14T11:03:15Z</time>
      </trkpt>
      <trkpt lat="42.69878" lon="1.61682">
        <ele>1822.31640625</ele>
        <time>2014-06-14T11:03:21Z</time>
      </trkpt>
      <trkpt lat="42.6988" lon="1.61686">
        <ele>1821.3549804688</ele>
        <time>2014-06-14T11:03:26Z</time>
      </trkpt>
      <trkpt lat="42.69884" lon="1.61689">
        <ele>1819.9128417969</ele>
        <time>2014-06-14T11:03:32Z</time>
      </trkpt>
      <trkpt lat="42.69887" lon="1.61691">
        <ele>1820.8745117188</ele>
        <time>2014-06-14T11:03:37Z</time>
      </trkpt>
      <trkpt lat="42.69889" lon="1.61695">
        <ele>1820.8745117188</ele>
        <time>2014-06-14T11:03:41Z</time>
      </trkpt>
      <trkpt lat="42.69892" lon="1.61702">
        <ele>1820.8745117188</ele>
        <time>2014-06-14T11:03:47Z</time>
      </trkpt>
      <trkpt lat="42.69896" lon="1.61705">
        <ele>1819.9128417969</ele>
        <time>2014-06-14T11:03:53Z</time>
      </trkpt>
      <trkpt lat="42.69897" lon="1.61708">
        <ele>1819.4323730469</ele>
        <time>2014-06-14T11:03:57Z</time>
      </trkpt>
      <trkpt lat="42.69899" lon="1.61715">
        <ele>1822.31640625</ele>
        <time>2014-06-14T11:04:09Z</time>
      </trkpt>
      <trkpt lat="42.699" lon="1.61721">
        <ele>1824.2390136719</ele>
        <time>2014-06-14T11:04:22Z</time>
      </trkpt>
      <trkpt lat="42.699" lon="1.61723">
        <ele>1823.7583007812</ele>
        <time>2014-06-14T11:04:28Z</time>
      </trkpt>
      <trkpt lat="42.69902" lon="1.61723">
        <ele>1824.2390136719</ele>
        <time>2014-06-14T11:04:31Z</time>
      </trkpt>
      <trkpt lat="42.69905" lon="1.61725">
        <ele>1822.31640625</ele>
        <time>2014-06-14T11:04:37Z</time>
      </trkpt>
      <trkpt lat="42.69908" lon="1.61725">
        <ele>1820.3937988281</ele>
        <time>2014-06-14T11:04:42Z</time>
      </trkpt>
      <trkpt lat="42.6991" lon="1.61729">
        <ele>1819.9128417969</ele>
        <time>2014-06-14T11:04:46Z</time>
      </trkpt>
      <trkpt lat="42.69911" lon="1.61733">
        <ele>1819.9128417969</ele>
        <time>2014-06-14T11:04:54Z</time>
      </trkpt>
      <trkpt lat="42.69918" lon="1.61736">
        <ele>1818.4709472656</ele>
        <time>2014-06-14T11:05:07Z</time>
      </trkpt>
      <trkpt lat="42.6992" lon="1.61739">
        <ele>1817.5095214844</ele>
        <time>2014-06-14T11:05:14Z</time>
      </trkpt>
      <trkpt lat="42.69921" lon="1.61743">
        <ele>1817.0290527344</ele>
        <time>2014-06-14T11:05:21Z</time>
      </trkpt>
      <trkpt lat="42.69923" lon="1.61747">
        <ele>1817.0290527344</ele>
        <time>2014-06-14T11:05:26Z</time>
      </trkpt>
      <trkpt lat="42.69922" lon="1.61752">
        <ele>1821.8356933594</ele>
        <time>2014-06-14T11:06:03Z</time>
      </trkpt>
      <trkpt lat="42.69925" lon="1.61756">
        <ele>1822.31640625</ele>
        <time>2014-06-14T11:06:13Z</time>
      </trkpt>
      <trkpt lat="42.69929" lon="1.61761">
        <ele>1820.3937988281</ele>
        <time>2014-06-14T11:06:19Z</time>
      </trkpt>
      <trkpt lat="42.69934" lon="1.61765">
        <ele>1818.9516601562</ele>
        <time>2014-06-14T11:06:25Z</time>
      </trkpt>
      <trkpt lat="42.69939" lon="1.61769">
        <ele>1817.5095214844</ele>
        <time>2014-06-14T11:06:33Z</time>
      </trkpt>
      <trkpt lat="42.69943" lon="1.61769">
        <ele>1817.0290527344</ele>
        <time>2014-06-14T11:06:38Z</time>
      </trkpt>
      <trkpt lat="42.69946" lon="1.61775">
        <ele>1816.5483398438</ele>
        <time>2014-06-14T11:06:43Z</time>
      </trkpt>
      <trkpt lat="42.69949" lon="1.61781">
        <ele>1815.5871582031</ele>
        <time>2014-06-14T11:06:50Z</time>
      </trkpt>
      <trkpt lat="42.6995" lon="1.61784">
        <ele>1815.1064453125</ele>
        <time>2014-06-14T11:06:55Z</time>
      </trkpt>
      <trkpt lat="42.69953" lon="1.61788">
        <ele>1814.1450195312</ele>
        <time>2014-06-14T11:07:00Z</time>
      </trkpt>
      <trkpt lat="42.69956" lon="1.61794">
        <ele>1812.703125</ele>
        <time>2014-06-14T11:07:08Z</time>
      </trkpt>
      <trkpt lat="42.69959" lon="1.61794">
        <ele>1812.703125</ele>
        <time>2014-06-14T11:07:13Z</time>
      </trkpt>
      <trkpt lat="42.69961" lon="1.61794">
        <ele>1812.703125</ele>
        <time>2014-06-14T11:07:18Z</time>
      </trkpt>
      <trkpt lat="42.69963" lon="1.61796">
        <ele>1811.7419433594</ele>
        <time>2014-06-14T11:07:23Z</time>
      </trkpt>
      <trkpt lat="42.69968" lon="1.61793">
        <ele>1811.7419433594</ele>
        <time>2014-06-14T11:07:34Z</time>
      </trkpt>
      <trkpt lat="42.6997" lon="1.61795">
        <ele>1811.7419433594</ele>
        <time>2014-06-14T11:07:42Z</time>
      </trkpt>
      <trkpt lat="42.6997" lon="1.61799">
        <ele>1811.7419433594</ele>
        <time>2014-06-14T11:07:46Z</time>
      </trkpt>
      <trkpt lat="42.6997" lon="1.61804">
        <ele>1811.2612304688</ele>
        <time>2014-06-14T11:07:51Z</time>
      </trkpt>
      <trkpt lat="42.69973" lon="1.6181">
        <ele>1809.3386230469</ele>
        <time>2014-06-14T11:07:58Z</time>
      </trkpt>
      <trkpt lat="42.69976" lon="1.61813">
        <ele>1808.3771972656</ele>
        <time>2014-06-14T11:08:03Z</time>
      </trkpt>
      <trkpt lat="42.69979" lon="1.61817">
        <ele>1807.8967285156</ele>
        <time>2014-06-14T11:08:11Z</time>
      </trkpt>
      <trkpt lat="42.69983" lon="1.61816">
        <ele>1806.9353027344</ele>
        <time>2014-06-14T11:08:18Z</time>
      </trkpt>
      <trkpt lat="42.69986" lon="1.61817">
        <ele>1806.4545898438</ele>
        <time>2014-06-14T11:08:24Z</time>
      </trkpt>
      <trkpt lat="42.69989" lon="1.6182">
        <ele>1805.9738769531</ele>
        <time>2014-06-14T11:08:31Z</time>
      </trkpt>
      <trkpt lat="42.69991" lon="1.61823">
        <ele>1805.4934082031</ele>
        <time>2014-06-14T11:08:35Z</time>
      </trkpt>
      <trkpt lat="42.69995" lon="1.61822">
        <ele>1804.0515136719</ele>
        <time>2014-06-14T11:08:39Z</time>
      </trkpt>
      <trkpt lat="42.69998" lon="1.61825">
        <ele>1803.5705566406</ele>
        <time>2014-06-14T11:08:43Z</time>
      </trkpt>
      <trkpt lat="42.70002" lon="1.61826">
        <ele>1803.08984375</ele>
        <time>2014-06-14T11:08:48Z</time>
      </trkpt>
      <trkpt lat="42.70003" lon="1.61828">
        <ele>1803.08984375</ele>
        <time>2014-06-14T11:08:51Z</time>
      </trkpt>
      <trkpt lat="42.70005" lon="1.61831">
        <ele>1803.08984375</ele>
        <time>2014-06-14T11:08:55Z</time>
      </trkpt>
      <trkpt lat="42.70007" lon="1.61834">
        <ele>1802.6091308594</ele>
        <time>2014-06-14T11:09:00Z</time>
      </trkpt>
      <trkpt lat="42.70009" lon="1.61833">
        <ele>1802.1284179688</ele>
        <time>2014-06-14T11:09:05Z</time>
      </trkpt>
      <trkpt lat="42.70012" lon="1.61833">
        <ele>1800.6865234375</ele>
        <time>2014-06-14T11:09:11Z</time>
      </trkpt>
      <trkpt lat="42.70014" lon="1.6183">
        <ele>1799.2446289062</ele>
        <time>2014-06-14T11:09:16Z</time>
      </trkpt>
      <trkpt lat="42.70018" lon="1.61831">
        <ele>1797.802734375</ele>
        <time>2014-06-14T11:09:22Z</time>
      </trkpt>
      <trkpt lat="42.70022" lon="1.61827">
        <ele>1796.8413085938</ele>
        <time>2014-06-14T11:09:29Z</time>
      </trkpt>
      <trkpt lat="42.70028" lon="1.61826">
        <ele>1796.3608398438</ele>
        <time>2014-06-14T11:09:35Z</time>
      </trkpt>
      <trkpt lat="42.70031" lon="1.61829">
        <ele>1795.3994140625</ele>
        <time>2014-06-14T11:09:39Z</time>
      </trkpt>
      <trkpt lat="42.70033" lon="1.6183">
        <ele>1794.9187011719</ele>
        <time>2014-06-14T11:09:41Z</time>
      </trkpt>
      <trkpt lat="42.70039" lon="1.61829">
        <ele>1794.4379882812</ele>
        <time>2014-06-14T11:09:45Z</time>
      </trkpt>
      <trkpt lat="42.70044" lon="1.61829">
        <ele>1794.4379882812</ele>
        <time>2014-06-14T11:09:52Z</time>
      </trkpt>
      <trkpt lat="42.70048" lon="1.61832">
        <ele>1794.4379882812</ele>
        <time>2014-06-14T11:09:58Z</time>
      </trkpt>
      <trkpt lat="42.70048" lon="1.61838">
        <ele>1794.4379882812</ele>
        <time>2014-06-14T11:10:03Z</time>
      </trkpt>
      <trkpt lat="42.7005" lon="1.61843">
        <ele>1794.9187011719</ele>
        <time>2014-06-14T11:10:08Z</time>
      </trkpt>
      <trkpt lat="42.70053" lon="1.61848">
        <ele>1794.4379882812</ele>
        <time>2014-06-14T11:10:14Z</time>
      </trkpt>
      <trkpt lat="42.70058" lon="1.61853">
        <ele>1793.4768066406</ele>
        <time>2014-06-14T11:10:21Z</time>
      </trkpt>
      <trkpt lat="42.70063" lon="1.61858">
        <ele>1793.9575195312</ele>
        <time>2014-06-14T11:10:28Z</time>
      </trkpt>
      <trkpt lat="42.70064" lon="1.61859">
        <ele>1793.4768066406</ele>
        <time>2014-06-14T11:10:35Z</time>
      </trkpt>
      <trkpt lat="42.70068" lon="1.61858">
        <ele>1793.4768066406</ele>
        <time>2014-06-14T11:10:41Z</time>
      </trkpt>
      <trkpt lat="42.70071" lon="1.61859">
        <ele>1793.4768066406</ele>
        <time>2014-06-14T11:10:44Z</time>
      </trkpt>
      <trkpt lat="42.70075" lon="1.61863">
        <ele>1793.4768066406</ele>
        <time>2014-06-14T11:10:50Z</time>
      </trkpt>
      <trkpt lat="42.70076" lon="1.61863">
        <ele>1793.4768066406</ele>
        <time>2014-06-14T11:10:51Z</time>
      </trkpt>
      <trkpt lat="42.70085" lon="1.61865">
        <ele>1792.99609375</ele>
        <time>2014-06-14T11:10:58Z</time>
      </trkpt>
      <trkpt lat="42.70086" lon="1.61869">
        <ele>1792.99609375</ele>
        <time>2014-06-14T11:11:02Z</time>
      </trkpt>
      <trkpt lat="42.70086" lon="1.61871">
        <ele>1792.99609375</ele>
        <time>2014-06-14T11:11:03Z</time>
      </trkpt>
      <trkpt lat="42.70089" lon="1.61873">
        <ele>1792.99609375</ele>
        <time>2014-06-14T11:11:09Z</time>
      </trkpt>
      <trkpt lat="42.70086" lon="1.6188">
        <ele>1793.9575195312</ele>
        <time>2014-06-14T11:11:22Z</time>
      </trkpt>
      <trkpt lat="42.70086" lon="1.61883">
        <ele>1793.9575195312</ele>
        <time>2014-06-14T11:11:25Z</time>
      </trkpt>
      <trkpt lat="42.70088" lon="1.61886">
        <ele>1794.4379882812</ele>
        <time>2014-06-14T11:11:30Z</time>
      </trkpt>
      <trkpt lat="42.70089" lon="1.61893">
        <ele>1794.9187011719</ele>
        <time>2014-06-14T11:11:36Z</time>
      </trkpt>
      <trkpt lat="42.7009" lon="1.61896">
        <ele>1794.9187011719</ele>
        <time>2014-06-14T11:11:40Z</time>
      </trkpt>
      <trkpt lat="42.7009" lon="1.61899">
        <ele>1794.9187011719</ele>
        <time>2014-06-14T11:11:44Z</time>
      </trkpt>
      <trkpt lat="42.70089" lon="1.61903">
        <ele>1794.9187011719</ele>
        <time>2014-06-14T11:11:48Z</time>
      </trkpt>
      <trkpt lat="42.70091" lon="1.61908">
        <ele>1796.3608398438</ele>
        <time>2014-06-14T11:11:53Z</time>
      </trkpt>
      <trkpt lat="42.70096" lon="1.6191">
        <ele>1796.8413085938</ele>
        <time>2014-06-14T11:11:59Z</time>
      </trkpt>
      <trkpt lat="42.70094" lon="1.61917">
        <ele>1798.7639160156</ele>
        <time>2014-06-14T11:12:06Z</time>
      </trkpt>
      <trkpt lat="42.70094" lon="1.61921">
        <ele>1799.7253417969</ele>
        <time>2014-06-14T11:12:12Z</time>
      </trkpt>
      <trkpt lat="42.70094" lon="1.61926">
        <ele>1800.6865234375</ele>
        <time>2014-06-14T11:12:17Z</time>
      </trkpt>
      <trkpt lat="42.70094" lon="1.6193">
        <ele>1799.2446289062</ele>
        <time>2014-06-14T11:12:23Z</time>
      </trkpt>
      <trkpt lat="42.70092" lon="1.61935">
        <ele>1800.6865234375</ele>
        <time>2014-06-14T11:12:28Z</time>
      </trkpt>
      <trkpt lat="42.70091" lon="1.61939">
        <ele>1800.6865234375</ele>
        <time>2014-06-14T11:12:32Z</time>
      </trkpt>
      <trkpt lat="42.70094" lon="1.61942">
        <ele>1800.2060546875</ele>
        <time>2014-06-14T11:12:37Z</time>
      </trkpt>
      <trkpt lat="42.70096" lon="1.61945">
        <ele>1797.802734375</ele>
        <time>2014-06-14T11:12:42Z</time>
      </trkpt>
      <trkpt lat="42.70099" lon="1.61947">
        <ele>1796.3608398438</ele>
        <time>2014-06-14T11:12:45Z</time>
      </trkpt>
      <trkpt lat="42.70104" lon="1.61953">
        <ele>1795.8801269531</ele>
        <time>2014-06-14T11:12:52Z</time>
      </trkpt>
      <trkpt lat="42.70105" lon="1.61957">
        <ele>1796.3608398438</ele>
        <time>2014-06-14T11:12:56Z</time>
      </trkpt>
      <trkpt lat="42.70107" lon="1.6196">
        <ele>1796.8413085938</ele>
        <time>2014-06-14T11:13:01Z</time>
      </trkpt>
      <trkpt lat="42.70109" lon="1.61961">
        <ele>1796.8413085938</ele>
        <time>2014-06-14T11:13:05Z</time>
      </trkpt>
      <trkpt lat="42.7011" lon="1.61963">
        <ele>1796.3608398438</ele>
        <time>2014-06-14T11:13:18Z</time>
      </trkpt>
      <trkpt lat="42.70111" lon="1.61964">
        <ele>1794.9187011719</ele>
        <time>2014-06-14T11:13:24Z</time>
      </trkpt>
      <trkpt lat="42.70112" lon="1.61967">
        <ele>1793.9575195312</ele>
        <time>2014-06-14T11:13:30Z</time>
      </trkpt>
      <trkpt lat="42.70113" lon="1.61969">
        <ele>1792.99609375</ele>
        <time>2014-06-14T11:13:34Z</time>
      </trkpt>
      <trkpt lat="42.70115" lon="1.61972">
        <ele>1792.99609375</ele>
        <time>2014-06-14T11:13:42Z</time>
      </trkpt>
      <trkpt lat="42.70116" lon="1.61974">
        <ele>1793.4768066406</ele>
        <time>2014-06-14T11:13:49Z</time>
      </trkpt>
      <trkpt lat="42.70117" lon="1.61977">
        <ele>1793.9575195312</ele>
        <time>2014-06-14T11:13:53Z</time>
      </trkpt>
      <trkpt lat="42.7012" lon="1.61981">
        <ele>1793.4768066406</ele>
        <time>2014-06-14T11:13:58Z</time>
      </trkpt>
      <trkpt lat="42.70123" lon="1.61981">
        <ele>1792.0349121094</ele>
        <time>2014-06-14T11:14:03Z</time>
      </trkpt>
      <trkpt lat="42.70126" lon="1.61982">
        <ele>1790.5927734375</ele>
        <time>2014-06-14T11:14:07Z</time>
      </trkpt>
      <trkpt lat="42.70129" lon="1.61986">
        <ele>1788.1896972656</ele>
        <time>2014-06-14T11:14:12Z</time>
      </trkpt>
      <trkpt lat="42.70131" lon="1.61992">
        <ele>1787.2280273438</ele>
        <time>2014-06-14T11:14:18Z</time>
      </trkpt>
      <trkpt lat="42.70133" lon="1.61996">
        <ele>1787.2280273438</ele>
        <time>2014-06-14T11:14:22Z</time>
      </trkpt>
      <trkpt lat="42.70135" lon="1.62001">
        <ele>1787.7087402344</ele>
        <time>2014-06-14T11:14:28Z</time>
      </trkpt>
      <trkpt lat="42.70137" lon="1.62005">
        <ele>1785.7861328125</ele>
        <time>2014-06-14T11:14:34Z</time>
      </trkpt>
      <trkpt lat="42.7014" lon="1.62007">
        <ele>1784.3442382812</ele>
        <time>2014-06-14T11:14:39Z</time>
      </trkpt>
      <trkpt lat="42.70143" lon="1.62007">
        <ele>1782.4216308594</ele>
        <time>2014-06-14T11:14:44Z</time>
      </trkpt>
      <trkpt lat="42.70145" lon="1.62009">
        <ele>1781.9409179688</ele>
        <time>2014-06-14T11:14:47Z</time>
      </trkpt>
      <trkpt lat="42.70146" lon="1.62011">
        <ele>1781.9409179688</ele>
        <time>2014-06-14T11:14:52Z</time>
      </trkpt>
      <trkpt lat="42.70148" lon="1.62012">
        <ele>1782.4216308594</ele>
        <time>2014-06-14T11:14:54Z</time>
      </trkpt>
      <trkpt lat="42.70148" lon="1.62019">
        <ele>1782.4216308594</ele>
        <time>2014-06-14T11:14:59Z</time>
      </trkpt>
      <trkpt lat="42.70151" lon="1.6202">
        <ele>1780.4990234375</ele>
        <time>2014-06-14T11:15:05Z</time>
      </trkpt>
      <trkpt lat="42.70153" lon="1.62019">
        <ele>1778.095703125</ele>
        <time>2014-06-14T11:15:13Z</time>
      </trkpt>
      <trkpt lat="42.70156" lon="1.62016">
        <ele>1777.1345214844</ele>
        <time>2014-06-14T11:15:18Z</time>
      </trkpt>
      <trkpt lat="42.70157" lon="1.62011">
        <ele>1776.6538085938</ele>
        <time>2014-06-14T11:15:22Z</time>
      </trkpt>
      <trkpt lat="42.70161" lon="1.6201">
        <ele>1776.1730957031</ele>
        <time>2014-06-14T11:15:27Z</time>
      </trkpt>
      <trkpt lat="42.70161" lon="1.62007">
        <ele>1775.2116699219</ele>
        <time>2014-06-14T11:15:32Z</time>
      </trkpt>
      <trkpt lat="42.70163" lon="1.62004">
        <ele>1774.2504882812</ele>
        <time>2014-06-14T11:15:37Z</time>
      </trkpt>
      <trkpt lat="42.70168" lon="1.62004">
        <ele>1773.2893066406</ele>
        <time>2014-06-14T11:15:44Z</time>
      </trkpt>
      <trkpt lat="42.70172" lon="1.62007">
        <ele>1773.2893066406</ele>
        <time>2014-06-14T11:15:49Z</time>
      </trkpt>
      <trkpt lat="42.70173" lon="1.6201">
        <ele>1772.3278808594</ele>
        <time>2014-06-14T11:15:51Z</time>
      </trkpt>
      <trkpt lat="42.70181" lon="1.62018">
        <ele>1770.4050292969</ele>
        <time>2014-06-14T11:15:59Z</time>
      </trkpt>
      <trkpt lat="42.70186" lon="1.62023">
        <ele>1768.9631347656</ele>
        <time>2014-06-14T11:16:05Z</time>
      </trkpt>
      <trkpt lat="42.70191" lon="1.62029">
        <ele>1768.0017089844</ele>
        <time>2014-06-14T11:16:11Z</time>
      </trkpt>
      <trkpt lat="42.70194" lon="1.62034">
        <ele>1767.5209960938</ele>
        <time>2014-06-14T11:16:15Z</time>
      </trkpt>
      <trkpt lat="42.70196" lon="1.62043">
        <ele>1767.0405273438</ele>
        <time>2014-06-14T11:16:22Z</time>
      </trkpt>
      <trkpt lat="42.70201" lon="1.62056">
        <ele>1766.5598144531</ele>
        <time>2014-06-14T11:16:31Z</time>
      </trkpt>
      <trkpt lat="42.70201" lon="1.62057">
        <ele>1766.5598144531</ele>
        <time>2014-06-14T11:16:32Z</time>
      </trkpt>
      <trkpt lat="42.70203" lon="1.62062">
        <ele>1766.0791015625</ele>
        <time>2014-06-14T11:16:36Z</time>
      </trkpt>
      <trkpt lat="42.70209" lon="1.62068">
        <ele>1765.1179199219</ele>
        <time>2014-06-14T11:16:42Z</time>
      </trkpt>
      <trkpt lat="42.70214" lon="1.62074">
        <ele>1764.6372070312</ele>
        <time>2014-06-14T11:16:49Z</time>
      </trkpt>
      <trkpt lat="42.70218" lon="1.62077">
        <ele>1764.6372070312</ele>
        <time>2014-06-14T11:16:55Z</time>
      </trkpt>
      <trkpt lat="42.7022" lon="1.62081">
        <ele>1764.6372070312</ele>
        <time>2014-06-14T11:17:01Z</time>
      </trkpt>
      <trkpt lat="42.70222" lon="1.62083">
        <ele>1763.67578125</ele>
        <time>2014-06-14T11:17:07Z</time>
      </trkpt>
      <trkpt lat="42.70227" lon="1.62088">
        <ele>1763.1953125</ele>
        <time>2014-06-14T11:17:13Z</time>
      </trkpt>
      <trkpt lat="42.70232" lon="1.62092">
        <ele>1762.7145996094</ele>
        <time>2014-06-14T11:17:19Z</time>
      </trkpt>
      <trkpt lat="42.70232" lon="1.62093">
        <ele>1762.7145996094</ele>
        <time>2014-06-14T11:17:20Z</time>
      </trkpt>
      <trkpt lat="42.70237" lon="1.62094">
        <ele>1762.2338867188</ele>
        <time>2014-06-14T11:17:25Z</time>
      </trkpt>
      <trkpt lat="42.70243" lon="1.62096">
        <ele>1761.2727050781</ele>
        <time>2014-06-14T11:17:32Z</time>
      </trkpt>
      <trkpt lat="42.7025" lon="1.62097">
        <ele>1761.2727050781</ele>
        <time>2014-06-14T11:17:38Z</time>
      </trkpt>
      <trkpt lat="42.70255" lon="1.62099">
        <ele>1760.7919921875</ele>
        <time>2014-06-14T11:17:44Z</time>
      </trkpt>
      <trkpt lat="42.70259" lon="1.62107">
        <ele>1760.3112792969</ele>
        <time>2014-06-14T11:17:51Z</time>
      </trkpt>
      <trkpt lat="42.70265" lon="1.62112">
        <ele>1759.3500976562</ele>
        <time>2014-06-14T11:17:57Z</time>
      </trkpt>
      <trkpt lat="42.70266" lon="1.62114">
        <ele>1759.3500976562</ele>
        <time>2014-06-14T11:17:59Z</time>
      </trkpt>
      <trkpt lat="42.70272" lon="1.62126">
        <ele>1757.908203125</ele>
        <time>2014-06-14T11:18:09Z</time>
      </trkpt>
      <trkpt lat="42.70273" lon="1.62133">
        <ele>1756.9467773438</ele>
        <time>2014-06-14T11:18:14Z</time>
      </trkpt>
      <trkpt lat="42.70275" lon="1.62137">
        <ele>1756.4660644531</ele>
        <time>2014-06-14T11:18:18Z</time>
      </trkpt>
      <trkpt lat="42.70277" lon="1.62142">
        <ele>1755.9851074219</ele>
        <time>2014-06-14T11:18:22Z</time>
      </trkpt>
      <trkpt lat="42.70281" lon="1.62149">
        <ele>1754.5432128906</ele>
        <time>2014-06-14T11:18:28Z</time>
      </trkpt>
      <trkpt lat="42.70285" lon="1.62158">
        <ele>1752.6206054688</ele>
        <time>2014-06-14T11:18:35Z</time>
      </trkpt>
      <trkpt lat="42.70285" lon="1.62159">
        <ele>1752.6206054688</ele>
        <time>2014-06-14T11:18:36Z</time>
      </trkpt>
      <trkpt lat="42.70288" lon="1.62162">
        <ele>1751.6594238281</ele>
        <time>2014-06-14T11:18:42Z</time>
      </trkpt>
      <trkpt lat="42.70292" lon="1.62167">
        <ele>1750.6979980469</ele>
        <time>2014-06-14T11:18:47Z</time>
      </trkpt>
      <trkpt lat="42.70295" lon="1.6217">
        <ele>1749.7368164062</ele>
        <time>2014-06-14T11:18:53Z</time>
      </trkpt>
      <trkpt lat="42.70297" lon="1.62173">
        <ele>1750.2175292969</ele>
        <time>2014-06-14T11:18:56Z</time>
      </trkpt>
      <trkpt lat="42.70301" lon="1.62176">
        <ele>1748.775390625</ele>
        <time>2014-06-14T11:19:03Z</time>
      </trkpt>
      <trkpt lat="42.70304" lon="1.62179">
        <ele>1749.7368164062</ele>
        <time>2014-06-14T11:19:09Z</time>
      </trkpt>
      <trkpt lat="42.70302" lon="1.6218">
        <ele>1750.2175292969</ele>
        <time>2014-06-14T11:19:13Z</time>
      </trkpt>
      <trkpt lat="42.70302" lon="1.62186">
        <ele>1750.2175292969</ele>
        <time>2014-06-14T11:19:18Z</time>
      </trkpt>
      <trkpt lat="42.70304" lon="1.62191">
        <ele>1750.2175292969</ele>
        <time>2014-06-14T11:19:24Z</time>
      </trkpt>
      <trkpt lat="42.70306" lon="1.62196">
        <ele>1749.7368164062</ele>
        <time>2014-06-14T11:19:30Z</time>
      </trkpt>
      <trkpt lat="42.70309" lon="1.62203">
        <ele>1748.775390625</ele>
        <time>2014-06-14T11:19:37Z</time>
      </trkpt>
      <trkpt lat="42.7031" lon="1.62207">
        <ele>1748.775390625</ele>
        <time>2014-06-14T11:19:42Z</time>
      </trkpt>
      <trkpt lat="42.70313" lon="1.62213">
        <ele>1747.8142089844</ele>
        <time>2014-06-14T11:19:48Z</time>
      </trkpt>
      <trkpt lat="42.70317" lon="1.62218">
        <ele>1747.8142089844</ele>
        <time>2014-06-14T11:19:54Z</time>
      </trkpt>
      <trkpt lat="42.70321" lon="1.62223">
        <ele>1747.3334960938</ele>
        <time>2014-06-14T11:19:59Z</time>
      </trkpt>
      <trkpt lat="42.70324" lon="1.62229">
        <ele>1746.8527832031</ele>
        <time>2014-06-14T11:20:06Z</time>
      </trkpt>
      <trkpt lat="42.70327" lon="1.62233">
        <ele>1747.3334960938</ele>
        <time>2014-06-14T11:20:11Z</time>
      </trkpt>
      <trkpt lat="42.70332" lon="1.62239">
        <ele>1747.8142089844</ele>
        <time>2014-06-14T11:20:18Z</time>
      </trkpt>
      <trkpt lat="42.70332" lon="1.6224">
        <ele>1747.3334960938</ele>
        <time>2014-06-14T11:20:19Z</time>
      </trkpt>
      <trkpt lat="42.70335" lon="1.62248">
        <ele>1746.8527832031</ele>
        <time>2014-06-14T11:20:25Z</time>
      </trkpt>
      <trkpt lat="42.70336" lon="1.62251">
        <ele>1746.8527832031</ele>
        <time>2014-06-14T11:20:27Z</time>
      </trkpt>
      <trkpt lat="42.70342" lon="1.62259">
        <ele>1745.8916015625</ele>
        <time>2014-06-14T11:20:35Z</time>
      </trkpt>
      <trkpt lat="42.70343" lon="1.6226">
        <ele>1745.8916015625</ele>
        <time>2014-06-14T11:20:36Z</time>
      </trkpt>
      <trkpt lat="42.70347" lon="1.62268">
        <ele>1744.9301757812</ele>
        <time>2014-06-14T11:20:43Z</time>
      </trkpt>
      <trkpt lat="42.7035" lon="1.62272">
        <ele>1744.9301757812</ele>
        <time>2014-06-14T11:20:47Z</time>
      </trkpt>
      <trkpt lat="42.70352" lon="1.62278">
        <ele>1744.9301757812</ele>
        <time>2014-06-14T11:20:51Z</time>
      </trkpt>
      <trkpt lat="42.70354" lon="1.6228">
        <ele>1744.9301757812</ele>
        <time>2014-06-14T11:20:53Z</time>
      </trkpt>
      <trkpt lat="42.70357" lon="1.62289">
        <ele>1744.4494628906</ele>
        <time>2014-06-14T11:21:00Z</time>
      </trkpt>
      <trkpt lat="42.70358" lon="1.62296">
        <ele>1743.48828125</ele>
        <time>2014-06-14T11:21:05Z</time>
      </trkpt>
      <trkpt lat="42.70358" lon="1.62299">
        <ele>1743.0075683594</ele>
        <time>2014-06-14T11:21:07Z</time>
      </trkpt>
      <trkpt lat="42.70358" lon="1.62301">
        <ele>1742.5270996094</ele>
        <time>2014-06-14T11:21:09Z</time>
      </trkpt>
      <trkpt lat="42.70355" lon="1.62306">
        <ele>1743.0075683594</ele>
        <time>2014-06-14T11:21:16Z</time>
      </trkpt>
      <trkpt lat="42.70356" lon="1.62311">
        <ele>1744.4494628906</ele>
        <time>2014-06-14T11:21:22Z</time>
      </trkpt>
      <trkpt lat="42.70357" lon="1.62315">
        <ele>1744.4494628906</ele>
        <time>2014-06-14T11:21:26Z</time>
      </trkpt>
      <trkpt lat="42.70359" lon="1.62321">
        <ele>1745.4108886719</ele>
        <time>2014-06-14T11:21:32Z</time>
      </trkpt>
      <trkpt lat="42.70362" lon="1.62327">
        <ele>1746.3723144531</ele>
        <time>2014-06-14T11:21:38Z</time>
      </trkpt>
      <trkpt lat="42.70365" lon="1.62329">
        <ele>1747.3334960938</ele>
        <time>2014-06-14T11:21:41Z</time>
      </trkpt>
      <trkpt lat="42.70363" lon="1.62339">
        <ele>1748.775390625</ele>
        <time>2014-06-14T11:21:48Z</time>
      </trkpt>
      <trkpt lat="42.70362" lon="1.62345">
        <ele>1748.775390625</ele>
        <time>2014-06-14T11:21:52Z</time>
      </trkpt>
      <trkpt lat="42.70362" lon="1.6235">
        <ele>1749.2561035156</ele>
        <time>2014-06-14T11:21:57Z</time>
      </trkpt>
      <trkpt lat="42.70364" lon="1.62353">
        <ele>1749.7368164062</ele>
        <time>2014-06-14T11:22:02Z</time>
      </trkpt>
      <trkpt lat="42.70368" lon="1.62356">
        <ele>1751.6594238281</ele>
        <time>2014-06-14T11:22:08Z</time>
      </trkpt>
      <trkpt lat="42.70368" lon="1.62359">
        <ele>1752.1398925781</ele>
        <time>2014-06-14T11:22:12Z</time>
      </trkpt>
      <trkpt lat="42.70367" lon="1.62365">
        <ele>1752.1398925781</ele>
        <time>2014-06-14T11:22:19Z</time>
      </trkpt>
      <trkpt lat="42.70368" lon="1.62369">
        <ele>1751.6594238281</ele>
        <time>2014-06-14T11:22:25Z</time>
      </trkpt>
      <trkpt lat="42.70367" lon="1.62374">
        <ele>1751.1787109375</ele>
        <time>2014-06-14T11:22:29Z</time>
      </trkpt>
      <trkpt lat="42.70364" lon="1.6238">
        <ele>1750.6979980469</ele>
        <time>2014-06-14T11:22:36Z</time>
      </trkpt>
      <trkpt lat="42.70366" lon="1.62384">
        <ele>1750.6979980469</ele>
        <time>2014-06-14T11:22:42Z</time>
      </trkpt>
      <trkpt lat="42.70367" lon="1.62388">
        <ele>1754.0627441406</ele>
        <time>2014-06-14T11:22:56Z</time>
      </trkpt>
      <trkpt lat="42.70371" lon="1.62387">
        <ele>1754.5432128906</ele>
        <time>2014-06-14T11:23:22Z</time>
      </trkpt>
      <trkpt lat="42.70371" lon="1.62393">
        <ele>1754.5432128906</ele>
        <time>2014-06-14T11:23:26Z</time>
      </trkpt>
      <trkpt lat="42.70374" lon="1.62399">
        <ele>1755.5046386719</ele>
        <time>2014-06-14T11:23:32Z</time>
      </trkpt>
      <trkpt lat="42.70375" lon="1.62403">
        <ele>1755.5046386719</ele>
        <time>2014-06-14T11:23:36Z</time>
      </trkpt>
      <trkpt lat="42.70374" lon="1.62407">
        <ele>1755.9851074219</ele>
        <time>2014-06-14T11:23:40Z</time>
      </trkpt>
      <trkpt lat="42.70372" lon="1.62408">
        <ele>1755.0239257812</ele>
        <time>2014-06-14T11:23:48Z</time>
      </trkpt>
      <trkpt lat="42.70372" lon="1.62409">
        <ele>1754.5432128906</ele>
        <time>2014-06-14T11:23:59Z</time>
      </trkpt>
      <trkpt lat="42.70375" lon="1.62412">
        <ele>1753.58203125</ele>
        <time>2014-06-14T11:24:04Z</time>
      </trkpt>
      <trkpt lat="42.7038" lon="1.62412">
        <ele>1753.1013183594</ele>
        <time>2014-06-14T11:24:09Z</time>
      </trkpt>
      <trkpt lat="42.70384" lon="1.62413">
        <ele>1753.58203125</ele>
        <time>2014-06-14T11:24:14Z</time>
      </trkpt>
      <trkpt lat="42.70385" lon="1.62417">
        <ele>1752.1398925781</ele>
        <time>2014-06-14T11:24:20Z</time>
      </trkpt>
      <trkpt lat="42.70388" lon="1.62418">
        <ele>1751.6594238281</ele>
        <time>2014-06-14T11:24:24Z</time>
      </trkpt>
      <trkpt lat="42.70391" lon="1.6242">
        <ele>1753.1013183594</ele>
        <time>2014-06-14T11:24:28Z</time>
      </trkpt>
      <trkpt lat="42.70389" lon="1.62427">
        <ele>1751.6594238281</ele>
        <time>2014-06-14T11:24:33Z</time>
      </trkpt>
      <trkpt lat="42.70391" lon="1.62432">
        <ele>1750.2175292969</ele>
        <time>2014-06-14T11:24:37Z</time>
      </trkpt>
      <trkpt lat="42.70392" lon="1.6244">
        <ele>1747.3334960938</ele>
        <time>2014-06-14T11:24:44Z</time>
      </trkpt>
      <trkpt lat="42.70397" lon="1.62446">
        <ele>1745.4108886719</ele>
        <time>2014-06-14T11:24:51Z</time>
      </trkpt>
      <trkpt lat="42.70398" lon="1.62452">
        <ele>1743.0075683594</ele>
        <time>2014-06-14T11:24:57Z</time>
      </trkpt>
      <trkpt lat="42.70398" lon="1.62455">
        <ele>1742.5270996094</ele>
        <time>2014-06-14T11:25:02Z</time>
      </trkpt>
      <trkpt lat="42.70399" lon="1.6246">
        <ele>1741.5656738281</ele>
        <time>2014-06-14T11:25:08Z</time>
      </trkpt>
      <trkpt lat="42.70399" lon="1.62466">
        <ele>1741.0849609375</ele>
        <time>2014-06-14T11:25:13Z</time>
      </trkpt>
      <trkpt lat="42.70402" lon="1.62471">
        <ele>1738.2009277344</ele>
        <time>2014-06-14T11:25:19Z</time>
      </trkpt>
      <trkpt lat="42.70403" lon="1.62476">
        <ele>1736.2783203125</ele>
        <time>2014-06-14T11:25:25Z</time>
      </trkpt>
      <trkpt lat="42.70401" lon="1.6248">
        <ele>1735.3168945312</ele>
        <time>2014-06-14T11:25:33Z</time>
      </trkpt>
      <trkpt lat="42.704" lon="1.62487">
        <ele>1735.3168945312</ele>
        <time>2014-06-14T11:25:40Z</time>
      </trkpt>
      <trkpt lat="42.70398" lon="1.6249">
        <ele>1736.7587890625</ele>
        <time>2014-06-14T11:25:45Z</time>
      </trkpt>
      <trkpt lat="42.70394" lon="1.62494">
        <ele>1738.2009277344</ele>
        <time>2014-06-14T11:25:52Z</time>
      </trkpt>
      <trkpt lat="42.7039" lon="1.62503">
        <ele>1738.681640625</ele>
        <time>2014-06-14T11:25:59Z</time>
      </trkpt>
      <trkpt lat="42.70388" lon="1.62509">
        <ele>1739.162109375</ele>
        <time>2014-06-14T11:26:03Z</time>
      </trkpt>
      <trkpt lat="42.70388" lon="1.62521">
        <ele>1739.6428222656</ele>
        <time>2014-06-14T11:26:11Z</time>
      </trkpt>
      <trkpt lat="42.70387" lon="1.62525">
        <ele>1740.1237792969</ele>
        <time>2014-06-14T11:26:14Z</time>
      </trkpt>
      <trkpt lat="42.70387" lon="1.62527">
        <ele>1739.162109375</ele>
        <time>2014-06-14T11:26:16Z</time>
      </trkpt>
      <trkpt lat="42.70391" lon="1.62538">
        <ele>1736.7587890625</ele>
        <time>2014-06-14T11:26:25Z</time>
      </trkpt>
      <trkpt lat="42.70394" lon="1.62544">
        <ele>1734.3557128906</ele>
        <time>2014-06-14T11:26:31Z</time>
      </trkpt>
      <trkpt lat="42.70397" lon="1.62552">
        <ele>1733.3942871094</ele>
        <time>2014-06-14T11:26:37Z</time>
      </trkpt>
      <trkpt lat="42.70398" lon="1.62553">
        <ele>1733.3942871094</ele>
        <time>2014-06-14T11:26:43Z</time>
      </trkpt>
      <trkpt lat="42.70399" lon="1.62559">
        <ele>1732.4331054688</ele>
        <time>2014-06-14T11:26:57Z</time>
      </trkpt>
      <trkpt lat="42.70399" lon="1.62564">
        <ele>1731.9523925781</ele>
        <time>2014-06-14T11:27:00Z</time>
      </trkpt>
      <trkpt lat="42.70402" lon="1.62572">
        <ele>1731.4716796875</ele>
        <time>2014-06-14T11:27:05Z</time>
      </trkpt>
      <trkpt lat="42.70404" lon="1.62586">
        <ele>1730.5104980469</ele>
        <time>2014-06-14T11:27:13Z</time>
      </trkpt>
      <trkpt lat="42.70406" lon="1.62592">
        <ele>1730.0297851562</ele>
        <time>2014-06-14T11:27:18Z</time>
      </trkpt>
      <trkpt lat="42.7041" lon="1.62603">
        <ele>1730.0297851562</ele>
        <time>2014-06-14T11:27:26Z</time>
      </trkpt>
      <trkpt lat="42.70412" lon="1.62607">
        <ele>1729.5490722656</ele>
        <time>2014-06-14T11:27:29Z</time>
      </trkpt>
      <trkpt lat="42.70417" lon="1.62614">
        <ele>1728.1071777344</ele>
        <time>2014-06-14T11:27:36Z</time>
      </trkpt>
      <trkpt lat="42.70419" lon="1.62617">
        <ele>1727.1459960938</ele>
        <time>2014-06-14T11:27:39Z</time>
      </trkpt>
      <trkpt lat="42.70425" lon="1.62622">
        <ele>1724.2619628906</ele>
        <time>2014-06-14T11:27:46Z</time>
      </trkpt>
      <trkpt lat="42.70429" lon="1.62624">
        <ele>1723.3005371094</ele>
        <time>2014-06-14T11:27:53Z</time>
      </trkpt>
      <trkpt lat="42.70435" lon="1.62624">
        <ele>1722.8198242188</ele>
        <time>2014-06-14T11:28:01Z</time>
      </trkpt>
      <trkpt lat="42.70435" lon="1.62627">
        <ele>1722.8198242188</ele>
        <time>2014-06-14T11:28:08Z</time>
      </trkpt>
      <trkpt lat="42.70436" lon="1.62632">
        <ele>1721.8583984375</ele>
        <time>2014-06-14T11:28:13Z</time>
      </trkpt>
      <trkpt lat="42.70431" lon="1.62639">
        <ele>1721.3776855469</ele>
        <time>2014-06-14T11:28:19Z</time>
      </trkpt>
      <trkpt lat="42.70427" lon="1.62642">
        <ele>1720.8972167969</ele>
        <time>2014-06-14T11:28:23Z</time>
      </trkpt>
      <trkpt lat="42.70419" lon="1.62652">
        <ele>1718.974609375</ele>
        <time>2014-06-14T11:28:33Z</time>
      </trkpt>
      <trkpt lat="42.70413" lon="1.62654">
        <ele>1717.5324707031</ele>
        <time>2014-06-14T11:28:40Z</time>
      </trkpt>
      <trkpt lat="42.70406" lon="1.62657">
        <ele>1717.0520019531</ele>
        <time>2014-06-14T11:28:48Z</time>
      </trkpt>
      <trkpt lat="42.70401" lon="1.62661">
        <ele>1717.0520019531</ele>
        <time>2014-06-14T11:28:54Z</time>
      </trkpt>
      <trkpt lat="42.704" lon="1.62666">
        <ele>1716.5712890625</ele>
        <time>2014-06-14T11:28:58Z</time>
      </trkpt>
      <trkpt lat="42.70396" lon="1.62671">
        <ele>1716.5712890625</ele>
        <time>2014-06-14T11:29:03Z</time>
      </trkpt>
      <trkpt lat="42.70394" lon="1.62677">
        <ele>1717.5324707031</ele>
        <time>2014-06-14T11:29:08Z</time>
      </trkpt>
      <trkpt lat="42.7039" lon="1.62682">
        <ele>1718.0131835938</ele>
        <time>2014-06-14T11:29:14Z</time>
      </trkpt>
      <trkpt lat="42.70388" lon="1.62686">
        <ele>1717.5324707031</ele>
        <time>2014-06-14T11:29:18Z</time>
      </trkpt>
      <trkpt lat="42.70383" lon="1.62688">
        <ele>1717.5324707031</ele>
        <time>2014-06-14T11:29:24Z</time>
      </trkpt>
      <trkpt lat="42.70377" lon="1.62689">
        <ele>1717.0520019531</ele>
        <time>2014-06-14T11:29:31Z</time>
      </trkpt>
      <trkpt lat="42.70373" lon="1.62694">
        <ele>1716.0905761719</ele>
        <time>2014-06-14T11:29:37Z</time>
      </trkpt>
      <trkpt lat="42.70371" lon="1.62701">
        <ele>1714.6486816406</ele>
        <time>2014-06-14T11:29:43Z</time>
      </trkpt>
      <trkpt lat="42.70371" lon="1.62709">
        <ele>1713.2067871094</ele>
        <time>2014-06-14T11:29:50Z</time>
      </trkpt>
      <trkpt lat="42.70367" lon="1.62714">
        <ele>1711.2841796875</ele>
        <time>2014-06-14T11:29:56Z</time>
      </trkpt>
      <trkpt lat="42.70368" lon="1.6272">
        <ele>1710.3227539062</ele>
        <time>2014-06-14T11:30:01Z</time>
      </trkpt>
      <trkpt lat="42.70369" lon="1.62728">
        <ele>1709.8420410156</ele>
        <time>2014-06-14T11:30:08Z</time>
      </trkpt>
      <trkpt lat="42.70367" lon="1.62735">
        <ele>1708.4001464844</ele>
        <time>2014-06-14T11:30:15Z</time>
      </trkpt>
      <trkpt lat="42.70367" lon="1.6274">
        <ele>1706.4772949219</ele>
        <time>2014-06-14T11:30:22Z</time>
      </trkpt>
      <trkpt lat="42.70366" lon="1.62746">
        <ele>1705.5161132812</ele>
        <time>2014-06-14T11:30:28Z</time>
      </trkpt>
      <trkpt lat="42.70365" lon="1.62753">
        <ele>1703.5935058594</ele>
        <time>2014-06-14T11:30:35Z</time>
      </trkpt>
      <trkpt lat="42.70364" lon="1.62757">
        <ele>1702.1513671875</ele>
        <time>2014-06-14T11:30:40Z</time>
      </trkpt>
      <trkpt lat="42.70362" lon="1.62761">
        <ele>1700.7094726562</ele>
        <time>2014-06-14T11:30:45Z</time>
      </trkpt>
      <trkpt lat="42.70362" lon="1.62766">
        <ele>1699.7482910156</ele>
        <time>2014-06-14T11:30:50Z</time>
      </trkpt>
      <trkpt lat="42.70362" lon="1.62772">
        <ele>1698.3061523438</ele>
        <time>2014-06-14T11:30:57Z</time>
      </trkpt>
      <trkpt lat="42.70361" lon="1.62778">
        <ele>1697.3449707031</ele>
        <time>2014-06-14T11:31:03Z</time>
      </trkpt>
      <trkpt lat="42.70362" lon="1.62783">
        <ele>1695.9030761719</ele>
        <time>2014-06-14T11:31:10Z</time>
      </trkpt>
      <trkpt lat="42.70363" lon="1.62789">
        <ele>1695.4223632812</ele>
        <time>2014-06-14T11:31:17Z</time>
      </trkpt>
      <trkpt lat="42.70363" lon="1.62792">
        <ele>1693.4997558594</ele>
        <time>2014-06-14T11:31:23Z</time>
      </trkpt>
      <trkpt lat="42.70365" lon="1.62794">
        <ele>1693.0190429688</ele>
        <time>2014-06-14T11:31:29Z</time>
      </trkpt>
      <trkpt lat="42.70364" lon="1.62798">
        <ele>1691.0961914062</ele>
        <time>2014-06-14T11:31:35Z</time>
      </trkpt>
      <trkpt lat="42.70365" lon="1.62803">
        <ele>1690.1350097656</ele>
        <time>2014-06-14T11:31:42Z</time>
      </trkpt>
      <trkpt lat="42.70366" lon="1.62807">
        <ele>1689.1735839844</ele>
        <time>2014-06-14T11:31:47Z</time>
      </trkpt>
      <trkpt lat="42.70367" lon="1.62812">
        <ele>1688.6931152344</ele>
        <time>2014-06-14T11:31:53Z</time>
      </trkpt>
      <trkpt lat="42.70366" lon="1.62816">
        <ele>1687.2509765625</ele>
        <time>2014-06-14T11:31:58Z</time>
      </trkpt>
      <trkpt lat="42.70364" lon="1.62818">
        <ele>1686.2897949219</ele>
        <time>2014-06-14T11:32:02Z</time>
      </trkpt>
      <trkpt lat="42.70363" lon="1.62822">
        <ele>1685.3283691406</ele>
        <time>2014-06-14T11:32:09Z</time>
      </trkpt>
      <trkpt lat="42.70363" lon="1.62825">
        <ele>1684.8479003906</ele>
        <time>2014-06-14T11:32:13Z</time>
      </trkpt>
      <trkpt lat="42.70364" lon="1.62824">
        <ele>1684.8479003906</ele>
        <time>2014-06-14T11:32:20Z</time>
      </trkpt>
      <trkpt lat="42.70365" lon="1.62826">
        <ele>1684.3671875</ele>
        <time>2014-06-14T11:32:26Z</time>
      </trkpt>
      <trkpt lat="42.70365" lon="1.62829">
        <ele>1683.4057617188</ele>
        <time>2014-06-14T11:32:31Z</time>
      </trkpt>
      <trkpt lat="42.70365" lon="1.62832">
        <ele>1682.4445800781</ele>
        <time>2014-06-14T11:32:37Z</time>
      </trkpt>
      <trkpt lat="42.70363" lon="1.62836">
        <ele>1681.9638671875</ele>
        <time>2014-06-14T11:32:42Z</time>
      </trkpt>
      <trkpt lat="42.70359" lon="1.62842">
        <ele>1681.0026855469</ele>
        <time>2014-06-14T11:32:47Z</time>
      </trkpt>
      <trkpt lat="42.70358" lon="1.62846">
        <ele>1681.0026855469</ele>
        <time>2014-06-14T11:32:53Z</time>
      </trkpt>
      <trkpt lat="42.70358" lon="1.6285">
        <ele>1681.0026855469</ele>
        <time>2014-06-14T11:32:58Z</time>
      </trkpt>
      <trkpt lat="42.7036" lon="1.62853">
        <ele>1679.560546875</ele>
        <time>2014-06-14T11:33:04Z</time>
      </trkpt>
      <trkpt lat="42.7036" lon="1.62856">
        <ele>1679.560546875</ele>
        <time>2014-06-14T11:33:09Z</time>
      </trkpt>
      <trkpt lat="42.70361" lon="1.62862">
        <ele>1679.560546875</ele>
        <time>2014-06-14T11:33:16Z</time>
      </trkpt>
      <trkpt lat="42.70361" lon="1.62864">
        <ele>1679.0798339844</ele>
        <time>2014-06-14T11:33:21Z</time>
      </trkpt>
      <trkpt lat="42.70362" lon="1.62867">
        <ele>1678.5993652344</ele>
        <time>2014-06-14T11:33:26Z</time>
      </trkpt>
      <trkpt lat="42.70361" lon="1.62869">
        <ele>1678.1186523438</ele>
        <time>2014-06-14T11:33:32Z</time>
      </trkpt>
      <trkpt lat="42.70361" lon="1.6287">
        <ele>1676.1960449219</ele>
        <time>2014-06-14T11:33:39Z</time>
      </trkpt>
      <trkpt lat="42.70362" lon="1.62872">
        <ele>1676.1960449219</ele>
        <time>2014-06-14T11:33:45Z</time>
      </trkpt>
      <trkpt lat="42.70362" lon="1.62874">
        <ele>1675.234375</ele>
        <time>2014-06-14T11:33:51Z</time>
      </trkpt>
      <trkpt lat="42.70362" lon="1.62877">
        <ele>1673.3120117188</ele>
        <time>2014-06-14T11:33:58Z</time>
      </trkpt>
      <trkpt lat="42.70361" lon="1.6288">
        <ele>1672.8312988281</ele>
        <time>2014-06-14T11:34:05Z</time>
      </trkpt>
      <trkpt lat="42.70362" lon="1.62882">
        <ele>1673.7924804688</ele>
        <time>2014-06-14T11:34:15Z</time>
      </trkpt>
      <trkpt lat="42.70363" lon="1.6289">
        <ele>1671.8698730469</ele>
        <time>2014-06-14T11:34:22Z</time>
      </trkpt>
      <trkpt lat="42.70364" lon="1.62893">
        <ele>1671.3891601562</ele>
        <time>2014-06-14T11:34:27Z</time>
      </trkpt>
      <trkpt lat="42.70363" lon="1.629">
        <ele>1669.466796875</ele>
        <time>2014-06-14T11:34:34Z</time>
      </trkpt>
      <trkpt lat="42.70361" lon="1.62908">
        <ele>1668.9860839844</ele>
        <time>2014-06-14T11:34:41Z</time>
      </trkpt>
      <trkpt lat="42.70359" lon="1.62919">
        <ele>1669.466796875</ele>
        <time>2014-06-14T11:34:48Z</time>
      </trkpt>
      <trkpt lat="42.7036" lon="1.6293">
        <ele>1668.9860839844</ele>
        <time>2014-06-14T11:34:55Z</time>
      </trkpt>
      <trkpt lat="42.70361" lon="1.62944">
        <ele>1667.5439453125</ele>
        <time>2014-06-14T11:35:04Z</time>
      </trkpt>
      <trkpt lat="42.70362" lon="1.62956">
        <ele>1666.5827636719</ele>
        <time>2014-06-14T11:35:12Z</time>
      </trkpt>
      <trkpt lat="42.70363" lon="1.62963">
        <ele>1665.6215820312</ele>
        <time>2014-06-14T11:35:19Z</time>
      </trkpt>
      <trkpt lat="42.70364" lon="1.62968">
        <ele>1665.1408691406</ele>
        <time>2014-06-14T11:35:25Z</time>
      </trkpt>
      <trkpt lat="42.70369" lon="1.62977">
        <ele>1664.1794433594</ele>
        <time>2014-06-14T11:35:33Z</time>
      </trkpt>
      <trkpt lat="42.70374" lon="1.62984">
        <ele>1663.2182617188</ele>
        <time>2014-06-14T11:35:40Z</time>
      </trkpt>
      <trkpt lat="42.70375" lon="1.6299">
        <ele>1662.7375488281</ele>
        <time>2014-06-14T11:35:44Z</time>
      </trkpt>
      <trkpt lat="42.70372" lon="1.62997">
        <ele>1661.7763671875</ele>
        <time>2014-06-14T11:35:51Z</time>
      </trkpt>
      <trkpt lat="42.7037" lon="1.63002">
        <ele>1662.2568359375</ele>
        <time>2014-06-14T11:35:56Z</time>
      </trkpt>
      <trkpt lat="42.70368" lon="1.63011">
        <ele>1661.7763671875</ele>
        <time>2014-06-14T11:36:03Z</time>
      </trkpt>
      <trkpt lat="42.70365" lon="1.63016">
        <ele>1660.8149414062</ele>
        <time>2014-06-14T11:36:09Z</time>
      </trkpt>
      <trkpt lat="42.7036" lon="1.63019">
        <ele>1658.8920898438</ele>
        <time>2014-06-14T11:36:16Z</time>
      </trkpt>
      <trkpt lat="42.70359" lon="1.63025">
        <ele>1657.9309082031</ele>
        <time>2014-06-14T11:36:21Z</time>
      </trkpt>
      <trkpt lat="42.70353" lon="1.63031">
        <ele>1656.4887695312</ele>
        <time>2014-06-14T11:36:28Z</time>
      </trkpt>
      <trkpt lat="42.7035" lon="1.63038">
        <ele>1655.5275878906</ele>
        <time>2014-06-14T11:36:35Z</time>
      </trkpt>
      <trkpt lat="42.70351" lon="1.63039">
        <ele>1655.046875</ele>
        <time>2014-06-14T11:36:36Z</time>
      </trkpt>
      <trkpt lat="42.7035" lon="1.63052">
        <ele>1654.0856933594</ele>
        <time>2014-06-14T11:36:44Z</time>
      </trkpt>
      <trkpt lat="42.70351" lon="1.63056">
        <ele>1653.6049804688</ele>
        <time>2014-06-14T11:36:48Z</time>
      </trkpt>
      <trkpt lat="42.70354" lon="1.63063">
        <ele>1652.1628417969</ele>
        <time>2014-06-14T11:36:55Z</time>
      </trkpt>
      <trkpt lat="42.70358" lon="1.6307">
        <ele>1651.2016601562</ele>
        <time>2014-06-14T11:37:01Z</time>
      </trkpt>
      <trkpt lat="42.70358" lon="1.63074">
        <ele>1650.7209472656</ele>
        <time>2014-06-14T11:37:04Z</time>
      </trkpt>
      <trkpt lat="42.70357" lon="1.6308">
        <ele>1649.759765625</ele>
        <time>2014-06-14T11:37:12Z</time>
      </trkpt>
      <trkpt lat="42.70356" lon="1.63087">
        <ele>1649.2790527344</ele>
        <time>2014-06-14T11:37:18Z</time>
      </trkpt>
      <trkpt lat="42.70356" lon="1.6309">
        <ele>1648.3176269531</ele>
        <time>2014-06-14T11:37:25Z</time>
      </trkpt>
      <trkpt lat="42.70356" lon="1.63098">
        <ele>1646.8757324219</ele>
        <time>2014-06-14T11:37:32Z</time>
      </trkpt>
      <trkpt lat="42.70356" lon="1.63102">
        <ele>1645.9145507812</ele>
        <time>2014-06-14T11:37:38Z</time>
      </trkpt>
      <trkpt lat="42.70356" lon="1.63112">
        <ele>1644.4724121094</ele>
        <time>2014-06-14T11:37:46Z</time>
      </trkpt>
      <trkpt lat="42.70357" lon="1.63114">
        <ele>1644.953125</ele>
        <time>2014-06-14T11:37:53Z</time>
      </trkpt>
      <trkpt lat="42.70361" lon="1.63117">
        <ele>1648.3176269531</ele>
        <time>2014-06-14T11:38:09Z</time>
      </trkpt>
      <trkpt lat="42.70361" lon="1.63121">
        <ele>1647.3564453125</ele>
        <time>2014-06-14T11:38:14Z</time>
      </trkpt>
      <trkpt lat="42.70358" lon="1.63128">
        <ele>1645.9145507812</ele>
        <time>2014-06-14T11:38:21Z</time>
      </trkpt>
      <trkpt lat="42.70355" lon="1.63132">
        <ele>1644.953125</ele>
        <time>2014-06-14T11:38:28Z</time>
      </trkpt>
      <trkpt lat="42.70353" lon="1.63138">
        <ele>1644.4724121094</ele>
        <time>2014-06-14T11:38:33Z</time>
      </trkpt>
      <trkpt lat="42.70352" lon="1.63143">
        <ele>1643.9916992188</ele>
        <time>2014-06-14T11:38:39Z</time>
      </trkpt>
      <trkpt lat="42.70353" lon="1.63148">
        <ele>1643.9916992188</ele>
        <time>2014-06-14T11:38:46Z</time>
      </trkpt>
      <trkpt lat="42.70353" lon="1.6315">
        <ele>1643.5109863281</ele>
        <time>2014-06-14T11:38:51Z</time>
      </trkpt>
      <trkpt lat="42.70352" lon="1.63152">
        <ele>1642.5498046875</ele>
        <time>2014-06-14T11:38:57Z</time>
      </trkpt>
      <trkpt lat="42.70349" lon="1.63154">
        <ele>1640.626953125</ele>
        <time>2014-06-14T11:39:02Z</time>
      </trkpt>
      <trkpt lat="42.70346" lon="1.63159">
        <ele>1640.626953125</ele>
        <time>2014-06-14T11:39:09Z</time>
      </trkpt>
      <trkpt lat="42.70344" lon="1.63164">
        <ele>1640.146484375</ele>
        <time>2014-06-14T11:39:15Z</time>
      </trkpt>
      <trkpt lat="42.70342" lon="1.63169">
        <ele>1639.6657714844</ele>
        <time>2014-06-14T11:39:20Z</time>
      </trkpt>
      <trkpt lat="42.7034" lon="1.63175">
        <ele>1639.6657714844</ele>
        <time>2014-06-14T11:39:26Z</time>
      </trkpt>
      <trkpt lat="42.7034" lon="1.63176">
        <ele>1640.626953125</ele>
        <time>2014-06-14T11:39:32Z</time>
      </trkpt>
      <trkpt lat="42.7034" lon="1.63178">
        <ele>1639.6657714844</ele>
        <time>2014-06-14T11:39:43Z</time>
      </trkpt>
      <trkpt lat="42.7034" lon="1.63181">
        <ele>1637.2624511719</ele>
        <time>2014-06-14T11:39:50Z</time>
      </trkpt>
      <trkpt lat="42.7034" lon="1.63187">
        <ele>1636.7817382812</ele>
        <time>2014-06-14T11:39:58Z</time>
      </trkpt>
      <trkpt lat="42.70338" lon="1.63194">
        <ele>1635.8205566406</ele>
        <time>2014-06-14T11:40:05Z</time>
      </trkpt>
      <trkpt lat="42.7034" lon="1.63198">
        <ele>1637.2624511719</ele>
        <time>2014-06-14T11:40:16Z</time>
      </trkpt>
      <trkpt lat="42.70339" lon="1.632">
        <ele>1635.33984375</ele>
        <time>2014-06-14T11:40:23Z</time>
      </trkpt>
      <trkpt lat="42.70338" lon="1.63204">
        <ele>1632.4560546875</ele>
        <time>2014-06-14T11:40:30Z</time>
      </trkpt>
      <trkpt lat="42.70338" lon="1.63207">
        <ele>1631.4946289062</ele>
        <time>2014-06-14T11:40:35Z</time>
      </trkpt>
      <trkpt lat="42.70338" lon="1.63209">
        <ele>1631.0141601562</ele>
        <time>2014-06-14T11:40:41Z</time>
      </trkpt>
      <trkpt lat="42.70337" lon="1.63213">
        <ele>1630.5334472656</ele>
        <time>2014-06-14T11:40:45Z</time>
      </trkpt>
      <trkpt lat="42.70336" lon="1.63215">
        <ele>1631.0141601562</ele>
        <time>2014-06-14T11:40:51Z</time>
      </trkpt>
      <trkpt lat="42.70336" lon="1.63217">
        <ele>1632.4560546875</ele>
        <time>2014-06-14T11:40:56Z</time>
      </trkpt>
      <trkpt lat="42.70335" lon="1.63219">
        <ele>1633.4172363281</ele>
        <time>2014-06-14T11:41:02Z</time>
      </trkpt>
      <trkpt lat="42.70333" lon="1.63225">
        <ele>1632.9365234375</ele>
        <time>2014-06-14T11:41:10Z</time>
      </trkpt>
      <trkpt lat="42.70333" lon="1.63228">
        <ele>1631.9753417969</ele>
        <time>2014-06-14T11:41:19Z</time>
      </trkpt>
      <trkpt lat="42.70333" lon="1.6323">
        <ele>1631.4946289062</ele>
        <time>2014-06-14T11:41:25Z</time>
      </trkpt>
      <trkpt lat="42.70333" lon="1.63233">
        <ele>1630.5334472656</ele>
        <time>2014-06-14T11:41:30Z</time>
      </trkpt>
      <trkpt lat="42.70333" lon="1.63237">
        <ele>1631.9753417969</ele>
        <time>2014-06-14T11:41:42Z</time>
      </trkpt>
      <trkpt lat="42.70333" lon="1.63241">
        <ele>1631.4946289062</ele>
        <time>2014-06-14T11:41:49Z</time>
      </trkpt>
      <trkpt lat="42.70334" lon="1.63245">
        <ele>1631.0141601562</ele>
        <time>2014-06-14T11:41:56Z</time>
      </trkpt>
      <trkpt lat="42.70334" lon="1.63247">
        <ele>1629.5720214844</ele>
        <time>2014-06-14T11:42:03Z</time>
      </trkpt>
      <trkpt lat="42.70336" lon="1.6325">
        <ele>1630.052734375</ele>
        <time>2014-06-14T11:42:11Z</time>
      </trkpt>
      <trkpt lat="42.70337" lon="1.63252">
        <ele>1629.5720214844</ele>
        <time>2014-06-14T11:42:17Z</time>
      </trkpt>
      <trkpt lat="42.70338" lon="1.63256">
        <ele>1631.0141601562</ele>
        <time>2014-06-14T11:42:23Z</time>
      </trkpt>
      <trkpt lat="42.70337" lon="1.63261">
        <ele>1631.9753417969</ele>
        <time>2014-06-14T11:42:30Z</time>
      </trkpt>
      <trkpt lat="42.70337" lon="1.63268">
        <ele>1632.9365234375</ele>
        <time>2014-06-14T11:42:36Z</time>
      </trkpt>
      <trkpt lat="42.70333" lon="1.63273">
        <ele>1632.9365234375</ele>
        <time>2014-06-14T11:42:44Z</time>
      </trkpt>
      <trkpt lat="42.70328" lon="1.63272">
        <ele>1632.4560546875</ele>
        <time>2014-06-14T11:42:57Z</time>
      </trkpt>
      <trkpt lat="42.70327" lon="1.63272">
        <ele>1631.9753417969</ele>
        <time>2014-06-14T11:43:08Z</time>
      </trkpt>
      <trkpt lat="42.70328" lon="1.63271">
        <ele>1630.5334472656</ele>
        <time>2014-06-14T11:43:18Z</time>
      </trkpt>
      <trkpt lat="42.70328" lon="1.63272">
        <ele>1631.9753417969</ele>
        <time>2014-06-14T11:43:28Z</time>
      </trkpt>
      <trkpt lat="42.70329" lon="1.63272">
        <ele>1631.4946289062</ele>
        <time>2014-06-14T11:43:37Z</time>
      </trkpt>
      <trkpt lat="42.70331" lon="1.63272">
        <ele>1632.4560546875</ele>
        <time>2014-06-14T11:43:43Z</time>
      </trkpt>
      <trkpt lat="42.7033" lon="1.63271">
        <ele>1630.5334472656</ele>
        <time>2014-06-14T11:43:53Z</time>
      </trkpt>
      <trkpt lat="42.70332" lon="1.6327">
        <ele>1629.0913085938</ele>
        <time>2014-06-14T11:44:09Z</time>
      </trkpt>
      <trkpt lat="42.70329" lon="1.63269">
        <ele>1627.6491699219</ele>
        <time>2014-06-14T11:44:28Z</time>
      </trkpt>
      <trkpt lat="42.70332" lon="1.63272">
        <ele>1631.4946289062</ele>
        <time>2014-06-14T11:44:46Z</time>
      </trkpt>
      <trkpt lat="42.70332" lon="1.63271">
        <ele>1631.0141601562</ele>
        <time>2014-06-14T11:44:57Z</time>
      </trkpt>
      <trkpt lat="42.70336" lon="1.63273">
        <ele>1633.8979492188</ele>
        <time>2014-06-14T11:45:10Z</time>
      </trkpt>
      <trkpt lat="42.70335" lon="1.63273">
        <ele>1633.4172363281</ele>
        <time>2014-06-14T11:45:19Z</time>
      </trkpt>
      <trkpt lat="42.70338" lon="1.63275">
        <ele>1635.33984375</ele>
        <time>2014-06-14T11:45:32Z</time>
      </trkpt>
      <trkpt lat="42.70335" lon="1.63273">
        <ele>1632.9365234375</ele>
        <time>2014-06-14T11:45:41Z</time>
      </trkpt>
      <trkpt lat="42.70335" lon="1.63274">
        <ele>1633.4172363281</ele>
        <time>2014-06-14T11:45:50Z</time>
      </trkpt>
      <trkpt lat="42.70329" lon="1.63273">
        <ele>1631.0141601562</ele>
        <time>2014-06-14T11:46:13Z</time>
      </trkpt>
      <trkpt lat="42.7033" lon="1.63272">
        <ele>1629.0913085938</ele>
        <time>2014-06-14T11:46:28Z</time>
      </trkpt>
      <trkpt lat="42.70329" lon="1.63273">
        <ele>1630.052734375</ele>
        <time>2014-06-14T11:46:49Z</time>
      </trkpt>
      <trkpt lat="42.70326" lon="1.63278">
        <ele>1631.0141601562</ele>
        <time>2014-06-14T11:47:00Z</time>
      </trkpt>
      <trkpt lat="42.70328" lon="1.63283">
        <ele>1629.5720214844</ele>
        <time>2014-06-14T11:47:06Z</time>
      </trkpt>
      <trkpt lat="42.70329" lon="1.6329">
        <ele>1629.5720214844</ele>
        <time>2014-06-14T11:47:13Z</time>
      </trkpt>
      <trkpt lat="42.7033" lon="1.63296">
        <ele>1628.6108398438</ele>
        <time>2014-06-14T11:47:19Z</time>
      </trkpt>
      <trkpt lat="42.70332" lon="1.63302">
        <ele>1628.1301269531</ele>
        <time>2014-06-14T11:47:23Z</time>
      </trkpt>
      <trkpt lat="42.70335" lon="1.63308">
        <ele>1627.1687011719</ele>
        <time>2014-06-14T11:47:28Z</time>
      </trkpt>
      <trkpt lat="42.70336" lon="1.6331">
        <ele>1627.1687011719</ele>
        <time>2014-06-14T11:47:30Z</time>
      </trkpt>
      <trkpt lat="42.70338" lon="1.63317">
        <ele>1626.6879882812</ele>
        <time>2014-06-14T11:47:35Z</time>
      </trkpt>
      <trkpt lat="42.70341" lon="1.63323">
        <ele>1625.2458496094</ele>
        <time>2014-06-14T11:47:40Z</time>
      </trkpt>
      <trkpt lat="42.7034" lon="1.63329">
        <ele>1623.3234863281</ele>
        <time>2014-06-14T11:47:45Z</time>
      </trkpt>
      <trkpt lat="42.70343" lon="1.63337">
        <ele>1622.8427734375</ele>
        <time>2014-06-14T11:47:49Z</time>
      </trkpt>
      <trkpt lat="42.70343" lon="1.63339">
        <ele>1622.8427734375</ele>
        <time>2014-06-14T11:47:50Z</time>
      </trkpt>
      <trkpt lat="42.70343" lon="1.63343">
        <ele>1621.4006347656</ele>
        <time>2014-06-14T11:47:53Z</time>
      </trkpt>
      <trkpt lat="42.70343" lon="1.63348">
        <ele>1620.9201660156</ele>
        <time>2014-06-14T11:47:57Z</time>
      </trkpt>
      <trkpt lat="42.70343" lon="1.63358">
        <ele>1618.5168457031</ele>
        <time>2014-06-14T11:48:05Z</time>
      </trkpt>
      <trkpt lat="42.70344" lon="1.63362">
        <ele>1618.0361328125</ele>
        <time>2014-06-14T11:48:08Z</time>
      </trkpt>
      <trkpt lat="42.7034" lon="1.63368">
        <ele>1618.0361328125</ele>
        <time>2014-06-14T11:48:14Z</time>
      </trkpt>
      <trkpt lat="42.7034" lon="1.63371">
        <ele>1617.5554199219</ele>
        <time>2014-06-14T11:48:16Z</time>
      </trkpt>
      <trkpt lat="42.70337" lon="1.63377">
        <ele>1618.0361328125</ele>
        <time>2014-06-14T11:48:20Z</time>
      </trkpt>
      <trkpt lat="42.70335" lon="1.6338">
        <ele>1617.5554199219</ele>
        <time>2014-06-14T11:48:22Z</time>
      </trkpt>
      <trkpt lat="42.70336" lon="1.63386">
        <ele>1618.0361328125</ele>
        <time>2014-06-14T11:48:25Z</time>
      </trkpt>
      <trkpt lat="42.70332" lon="1.63395">
        <ele>1618.5168457031</ele>
        <time>2014-06-14T11:48:31Z</time>
      </trkpt>
      <trkpt lat="42.70331" lon="1.63396">
        <ele>1618.5168457031</ele>
        <time>2014-06-14T11:48:32Z</time>
      </trkpt>
      <trkpt lat="42.70329" lon="1.63404">
        <ele>1618.5168457031</ele>
        <time>2014-06-14T11:48:38Z</time>
      </trkpt>
      <trkpt lat="42.70324" lon="1.63407">
        <ele>1618.0361328125</ele>
        <time>2014-06-14T11:48:41Z</time>
      </trkpt>
      <trkpt lat="42.70319" lon="1.63407">
        <ele>1617.5554199219</ele>
        <time>2014-06-14T11:48:46Z</time>
      </trkpt>
      <trkpt lat="42.70318" lon="1.63407">
        <ele>1617.5554199219</ele>
        <time>2014-06-14T11:48:47Z</time>
      </trkpt>
      <trkpt lat="42.70315" lon="1.63414">
        <ele>1617.0749511719</ele>
        <time>2014-06-14T11:48:51Z</time>
      </trkpt>
      <trkpt lat="42.70314" lon="1.63421">
        <ele>1617.5554199219</ele>
        <time>2014-06-14T11:48:55Z</time>
      </trkpt>
      <trkpt lat="42.70311" lon="1.63424">
        <ele>1617.0749511719</ele>
        <time>2014-06-14T11:48:57Z</time>
      </trkpt>
      <trkpt lat="42.70303" lon="1.6343">
        <ele>1617.0749511719</ele>
        <time>2014-06-14T11:49:02Z</time>
      </trkpt>
      <trkpt lat="42.70299" lon="1.63436">
        <ele>1615.6330566406</ele>
        <time>2014-06-14T11:49:09Z</time>
      </trkpt>
      <trkpt lat="42.70296" lon="1.63441">
        <ele>1615.6330566406</ele>
        <time>2014-06-14T11:49:14Z</time>
      </trkpt>
      <trkpt lat="42.70295" lon="1.63446">
        <ele>1616.5942382812</ele>
        <time>2014-06-14T11:49:17Z</time>
      </trkpt>
      <trkpt lat="42.70297" lon="1.63454">
        <ele>1618.5168457031</ele>
        <time>2014-06-14T11:49:23Z</time>
      </trkpt>
      <trkpt lat="42.70298" lon="1.63465">
        <ele>1617.0749511719</ele>
        <time>2014-06-14T11:49:30Z</time>
      </trkpt>
      <trkpt lat="42.70301" lon="1.63479">
        <ele>1614.6716308594</ele>
        <time>2014-06-14T11:49:36Z</time>
      </trkpt>
      <trkpt lat="42.70301" lon="1.6348">
        <ele>1613.7102050781</ele>
        <time>2014-06-14T11:49:37Z</time>
      </trkpt>
      <trkpt lat="42.70301" lon="1.63484">
        <ele>1612.7490234375</ele>
        <time>2014-06-14T11:49:40Z</time>
      </trkpt>
      <trkpt lat="42.70301" lon="1.63487">
        <ele>1611.7875976562</ele>
        <time>2014-06-14T11:49:42Z</time>
      </trkpt>
      <trkpt lat="42.70298" lon="1.63493">
        <ele>1610.3454589844</ele>
        <time>2014-06-14T11:49:46Z</time>
      </trkpt>
      <trkpt lat="42.70296" lon="1.63497">
        <ele>1609.3842773438</ele>
        <time>2014-06-14T11:49:48Z</time>
      </trkpt>
      <trkpt lat="42.703" lon="1.63506">
        <ele>1607.4616699219</ele>
        <time>2014-06-14T11:49:54Z</time>
      </trkpt>
      <trkpt lat="42.70306" lon="1.63518">
        <ele>1606.5002441406</ele>
        <time>2014-06-14T11:50:02Z</time>
      </trkpt>
      <trkpt lat="42.70309" lon="1.63525">
        <ele>1605.0583496094</ele>
        <time>2014-06-14T11:50:07Z</time>
      </trkpt>
      <trkpt lat="42.70312" lon="1.63535">
        <ele>1603.1357421875</ele>
        <time>2014-06-14T11:50:14Z</time>
      </trkpt>
      <trkpt lat="42.70313" lon="1.63542">
        <ele>1602.1743164062</ele>
        <time>2014-06-14T11:50:19Z</time>
      </trkpt>
      <trkpt lat="42.70314" lon="1.63547">
        <ele>1603.1357421875</ele>
        <time>2014-06-14T11:50:22Z</time>
      </trkpt>
      <trkpt lat="42.70316" lon="1.63557">
        <ele>1604.0971679688</ele>
        <time>2014-06-14T11:50:28Z</time>
      </trkpt>
      <trkpt lat="42.70316" lon="1.63558">
        <ele>1604.0971679688</ele>
        <time>2014-06-14T11:50:29Z</time>
      </trkpt>
      <trkpt lat="42.70321" lon="1.63565">
        <ele>1604.0971679688</ele>
        <time>2014-06-14T11:50:36Z</time>
      </trkpt>
      <trkpt lat="42.70321" lon="1.63566">
        <ele>1603.6164550781</ele>
        <time>2014-06-14T11:50:37Z</time>
      </trkpt>
      <trkpt lat="42.70322" lon="1.63569">
        <ele>1603.6164550781</ele>
        <time>2014-06-14T11:50:39Z</time>
      </trkpt>
      <trkpt lat="42.70323" lon="1.63576">
        <ele>1602.1743164062</ele>
        <time>2014-06-14T11:50:43Z</time>
      </trkpt>
      <trkpt lat="42.70324" lon="1.63582">
        <ele>1601.6938476562</ele>
        <time>2014-06-14T11:50:46Z</time>
      </trkpt>
      <trkpt lat="42.70321" lon="1.63593">
        <ele>1600.732421875</ele>
        <time>2014-06-14T11:50:52Z</time>
      </trkpt>
      <trkpt lat="42.70321" lon="1.63607">
        <ele>1600.732421875</ele>
        <time>2014-06-14T11:51:00Z</time>
      </trkpt>
      <trkpt lat="42.70321" lon="1.63617">
        <ele>1600.251953125</ele>
        <time>2014-06-14T11:51:06Z</time>
      </trkpt>
      <trkpt lat="42.70321" lon="1.63621">
        <ele>1600.251953125</ele>
        <time>2014-06-14T11:51:09Z</time>
      </trkpt>
      <trkpt lat="42.70322" lon="1.63627">
        <ele>1599.2905273438</ele>
        <time>2014-06-14T11:51:14Z</time>
      </trkpt>
      <trkpt lat="42.70326" lon="1.63638">
        <ele>1601.2131347656</ele>
        <time>2014-06-14T11:51:20Z</time>
      </trkpt>
      <trkpt lat="42.70327" lon="1.63647">
        <ele>1600.732421875</ele>
        <time>2014-06-14T11:51:25Z</time>
      </trkpt>
      <trkpt lat="42.70327" lon="1.63649">
        <ele>1600.251953125</ele>
        <time>2014-06-14T11:51:26Z</time>
      </trkpt>
      <trkpt lat="42.70327" lon="1.63657">
        <ele>1599.7712402344</ele>
        <time>2014-06-14T11:51:31Z</time>
      </trkpt>
      <trkpt lat="42.70328" lon="1.63663">
        <ele>1600.732421875</ele>
        <time>2014-06-14T11:51:38Z</time>
      </trkpt>
      <trkpt lat="42.70325" lon="1.63667">
        <ele>1601.2131347656</ele>
        <time>2014-06-14T11:51:42Z</time>
      </trkpt>
      <trkpt lat="42.70327" lon="1.63672">
        <ele>1603.1357421875</ele>
        <time>2014-06-14T11:51:46Z</time>
      </trkpt>
      <trkpt lat="42.70328" lon="1.63677">
        <ele>1603.6164550781</ele>
        <time>2014-06-14T11:51:50Z</time>
      </trkpt>
      <trkpt lat="42.70331" lon="1.63689">
        <ele>1605.0583496094</ele>
        <time>2014-06-14T11:51:57Z</time>
      </trkpt>
      <trkpt lat="42.70332" lon="1.63698">
        <ele>1607.9423828125</ele>
        <time>2014-06-14T11:52:02Z</time>
      </trkpt>
      <trkpt lat="42.70329" lon="1.63702">
        <ele>1607.9423828125</ele>
        <time>2014-06-14T11:52:05Z</time>
      </trkpt>
      <trkpt lat="42.70323" lon="1.63713">
        <ele>1606.9809570312</ele>
        <time>2014-06-14T11:52:13Z</time>
      </trkpt>
      <trkpt lat="42.70323" lon="1.63716">
        <ele>1606.9809570312</ele>
        <time>2014-06-14T11:52:18Z</time>
      </trkpt>
      <trkpt lat="42.70321" lon="1.6372">
        <ele>1606.9809570312</ele>
        <time>2014-06-14T11:52:21Z</time>
      </trkpt>
      <trkpt lat="42.70315" lon="1.63727">
        <ele>1605.5390625</ele>
        <time>2014-06-14T11:52:27Z</time>
      </trkpt>
      <trkpt lat="42.70314" lon="1.63729">
        <ele>1605.5390625</ele>
        <time>2014-06-14T11:52:30Z</time>
      </trkpt>
      <trkpt lat="42.70314" lon="1.63732">
        <ele>1606.5002441406</ele>
        <time>2014-06-14T11:52:33Z</time>
      </trkpt>
      <trkpt lat="42.70311" lon="1.63739">
        <ele>1605.5390625</ele>
        <time>2014-06-14T11:52:37Z</time>
      </trkpt>
      <trkpt lat="42.70309" lon="1.63742">
        <ele>1604.5776367188</ele>
        <time>2014-06-14T11:52:39Z</time>
      </trkpt>
      <trkpt lat="42.70307" lon="1.63751">
        <ele>1604.0971679688</ele>
        <time>2014-06-14T11:52:45Z</time>
      </trkpt>
      <trkpt lat="42.70306" lon="1.63755">
        <ele>1604.0971679688</ele>
        <time>2014-06-14T11:52:47Z</time>
      </trkpt>
      <trkpt lat="42.70305" lon="1.63763">
        <ele>1602.6550292969</ele>
        <time>2014-06-14T11:52:53Z</time>
      </trkpt>
      <trkpt lat="42.70304" lon="1.63774">
        <ele>1601.6938476562</ele>
        <time>2014-06-14T11:52:59Z</time>
      </trkpt>
      <trkpt lat="42.70303" lon="1.63779">
        <ele>1602.1743164062</ele>
        <time>2014-06-14T11:53:02Z</time>
      </trkpt>
      <trkpt lat="42.70304" lon="1.63791">
        <ele>1602.6550292969</ele>
        <time>2014-06-14T11:53:09Z</time>
      </trkpt>
      <trkpt lat="42.70304" lon="1.63798">
        <ele>1602.6550292969</ele>
        <time>2014-06-14T11:53:13Z</time>
      </trkpt>
      <trkpt lat="42.70304" lon="1.63804">
        <ele>1602.1743164062</ele>
        <time>2014-06-14T11:53:17Z</time>
      </trkpt>
      <trkpt lat="42.70304" lon="1.63811">
        <ele>1601.6938476562</ele>
        <time>2014-06-14T11:53:21Z</time>
      </trkpt>
      <trkpt lat="42.70302" lon="1.63816">
        <ele>1601.6938476562</ele>
        <time>2014-06-14T11:53:25Z</time>
      </trkpt>
      <trkpt lat="42.70302" lon="1.63825">
        <ele>1600.732421875</ele>
        <time>2014-06-14T11:53:31Z</time>
      </trkpt>
      <trkpt lat="42.70301" lon="1.6383">
        <ele>1599.2905273438</ele>
        <time>2014-06-14T11:53:35Z</time>
      </trkpt>
      <trkpt lat="42.70296" lon="1.63837">
        <ele>1599.7712402344</ele>
        <time>2014-06-14T11:53:40Z</time>
      </trkpt>
      <trkpt lat="42.70297" lon="1.63841">
        <ele>1599.7712402344</ele>
        <time>2014-06-14T11:53:44Z</time>
      </trkpt>
      <trkpt lat="42.70298" lon="1.63849">
        <ele>1598.8098144531</ele>
        <time>2014-06-14T11:53:49Z</time>
      </trkpt>
      <trkpt lat="42.70298" lon="1.63855">
        <ele>1598.3291015625</ele>
        <time>2014-06-14T11:53:52Z</time>
      </trkpt>
      <trkpt lat="42.70299" lon="1.63856">
        <ele>1598.8098144531</ele>
        <time>2014-06-14T11:53:53Z</time>
      </trkpt>
      <trkpt lat="42.70301" lon="1.63863">
        <ele>1598.3291015625</ele>
        <time>2014-06-14T11:53:57Z</time>
      </trkpt>
      <trkpt lat="42.70301" lon="1.63867">
        <ele>1597.8486328125</ele>
        <time>2014-06-14T11:54:00Z</time>
      </trkpt>
      <trkpt lat="42.70304" lon="1.63877">
        <ele>1597.8486328125</ele>
        <time>2014-06-14T11:54:06Z</time>
      </trkpt>
      <trkpt lat="42.70304" lon="1.63885">
        <ele>1597.8486328125</ele>
        <time>2014-06-14T11:54:12Z</time>
      </trkpt>
      <trkpt lat="42.70304" lon="1.6389">
        <ele>1597.3679199219</ele>
        <time>2014-06-14T11:54:16Z</time>
      </trkpt>
      <trkpt lat="42.70305" lon="1.63896">
        <ele>1596.8872070312</ele>
        <time>2014-06-14T11:54:22Z</time>
      </trkpt>
      <trkpt lat="42.70307" lon="1.639">
        <ele>1595.4450683594</ele>
        <time>2014-06-14T11:54:27Z</time>
      </trkpt>
      <trkpt lat="42.7031" lon="1.63909">
        <ele>1595.4450683594</ele>
        <time>2014-06-14T11:54:34Z</time>
      </trkpt>
      <trkpt lat="42.70314" lon="1.63919">
        <ele>1595.92578125</ele>
        <time>2014-06-14T11:54:41Z</time>
      </trkpt>
      <trkpt lat="42.70317" lon="1.63925">
        <ele>1596.4067382812</ele>
        <time>2014-06-14T11:54:45Z</time>
      </trkpt>
      <trkpt lat="42.70317" lon="1.63929">
        <ele>1595.92578125</ele>
        <time>2014-06-14T11:54:48Z</time>
      </trkpt>
      <trkpt lat="42.70319" lon="1.63939">
        <ele>1596.8872070312</ele>
        <time>2014-06-14T11:54:55Z</time>
      </trkpt>
      <trkpt lat="42.70321" lon="1.63947">
        <ele>1595.92578125</ele>
        <time>2014-06-14T11:55:00Z</time>
      </trkpt>
      <trkpt lat="42.70321" lon="1.63948">
        <ele>1595.4450683594</ele>
        <time>2014-06-14T11:55:01Z</time>
      </trkpt>
      <trkpt lat="42.70326" lon="1.63955">
        <ele>1594.9643554688</ele>
        <time>2014-06-14T11:55:09Z</time>
      </trkpt>
      <trkpt lat="42.70327" lon="1.6396">
        <ele>1595.92578125</ele>
        <time>2014-06-14T11:55:15Z</time>
      </trkpt>
      <trkpt lat="42.7033" lon="1.63968">
        <ele>1597.3679199219</ele>
        <time>2014-06-14T11:55:22Z</time>
      </trkpt>
      <trkpt lat="42.7033" lon="1.63969">
        <ele>1597.3679199219</ele>
        <time>2014-06-14T11:55:23Z</time>
      </trkpt>
      <trkpt lat="42.70331" lon="1.63977">
        <ele>1597.3679199219</ele>
        <time>2014-06-14T11:55:29Z</time>
      </trkpt>
      <trkpt lat="42.70334" lon="1.63984">
        <ele>1599.2905273438</ele>
        <time>2014-06-14T11:55:34Z</time>
      </trkpt>
      <trkpt lat="42.70335" lon="1.63991">
        <ele>1598.3291015625</ele>
        <time>2014-06-14T11:55:39Z</time>
      </trkpt>
      <trkpt lat="42.70335" lon="1.63993">
        <ele>1598.3291015625</ele>
        <time>2014-06-14T11:55:41Z</time>
      </trkpt>
      <trkpt lat="42.70335" lon="1.63995">
        <ele>1598.3291015625</ele>
        <time>2014-06-14T11:55:43Z</time>
      </trkpt>
      <trkpt lat="42.70333" lon="1.63999">
        <ele>1597.8486328125</ele>
        <time>2014-06-14T11:55:48Z</time>
      </trkpt>
      <trkpt lat="42.70337" lon="1.64004">
        <ele>1598.8098144531</ele>
        <time>2014-06-14T11:55:54Z</time>
      </trkpt>
      <trkpt lat="42.70339" lon="1.64011">
        <ele>1598.8098144531</ele>
        <time>2014-06-14T11:56:00Z</time>
      </trkpt>
      <trkpt lat="42.70341" lon="1.64013">
        <ele>1598.8098144531</ele>
        <time>2014-06-14T11:56:03Z</time>
      </trkpt>
      <trkpt lat="42.70345" lon="1.64017">
        <ele>1598.8098144531</ele>
        <time>2014-06-14T11:56:08Z</time>
      </trkpt>
      <trkpt lat="42.70347" lon="1.64025">
        <ele>1599.2905273438</ele>
        <time>2014-06-14T11:56:15Z</time>
      </trkpt>
      <trkpt lat="42.70348" lon="1.64027">
        <ele>1599.2905273438</ele>
        <time>2014-06-14T11:56:16Z</time>
      </trkpt>
      <trkpt lat="42.70349" lon="1.6403">
        <ele>1599.2905273438</ele>
        <time>2014-06-14T11:56:19Z</time>
      </trkpt>
      <trkpt lat="42.70354" lon="1.64034">
        <ele>1599.7712402344</ele>
        <time>2014-06-14T11:56:25Z</time>
      </trkpt>
      <trkpt lat="42.70354" lon="1.64035">
        <ele>1599.7712402344</ele>
        <time>2014-06-14T11:56:26Z</time>
      </trkpt>
      <trkpt lat="42.70357" lon="1.64044">
        <ele>1600.251953125</ele>
        <time>2014-06-14T11:56:31Z</time>
      </trkpt>
      <trkpt lat="42.70358" lon="1.64048">
        <ele>1599.7712402344</ele>
        <time>2014-06-14T11:56:34Z</time>
      </trkpt>
      <trkpt lat="42.70359" lon="1.64052">
        <ele>1599.2905273438</ele>
        <time>2014-06-14T11:56:37Z</time>
      </trkpt>
      <trkpt lat="42.70361" lon="1.64056">
        <ele>1598.8098144531</ele>
        <time>2014-06-14T11:56:41Z</time>
      </trkpt>
      <trkpt lat="42.70361" lon="1.64067">
        <ele>1599.2905273438</ele>
        <time>2014-06-14T11:56:47Z</time>
      </trkpt>
      <trkpt lat="42.70362" lon="1.64077">
        <ele>1599.2905273438</ele>
        <time>2014-06-14T11:56:54Z</time>
      </trkpt>
      <trkpt lat="42.70357" lon="1.64087">
        <ele>1598.3291015625</ele>
        <time>2014-06-14T11:57:01Z</time>
      </trkpt>
      <trkpt lat="42.70355" lon="1.64098">
        <ele>1599.2905273438</ele>
        <time>2014-06-14T11:57:07Z</time>
      </trkpt>
      <trkpt lat="42.70352" lon="1.64111">
        <ele>1598.3291015625</ele>
        <time>2014-06-14T11:57:15Z</time>
      </trkpt>
      <trkpt lat="42.70352" lon="1.64123">
        <ele>1600.251953125</ele>
        <time>2014-06-14T11:57:22Z</time>
      </trkpt>
      <trkpt lat="42.70351" lon="1.64135">
        <ele>1601.6938476562</ele>
        <time>2014-06-14T11:57:29Z</time>
      </trkpt>
      <trkpt lat="42.7035" lon="1.64143">
        <ele>1601.2131347656</ele>
        <time>2014-06-14T11:57:34Z</time>
      </trkpt>
      <trkpt lat="42.70352" lon="1.64154">
        <ele>1600.251953125</ele>
        <time>2014-06-14T11:57:42Z</time>
      </trkpt>
      <trkpt lat="42.70358" lon="1.64171">
        <ele>1602.6550292969</ele>
        <time>2014-06-14T11:57:52Z</time>
      </trkpt>
      <trkpt lat="42.70359" lon="1.64181">
        <ele>1601.6938476562</ele>
        <time>2014-06-14T11:57:59Z</time>
      </trkpt>
      <trkpt lat="42.70358" lon="1.64189">
        <ele>1600.251953125</ele>
        <time>2014-06-14T11:58:05Z</time>
      </trkpt>
      <trkpt lat="42.70359" lon="1.64198">
        <ele>1600.251953125</ele>
        <time>2014-06-14T11:58:10Z</time>
      </trkpt>
      <trkpt lat="42.7036" lon="1.6421">
        <ele>1596.8872070312</ele>
        <time>2014-06-14T11:58:18Z</time>
      </trkpt>
      <trkpt lat="42.70364" lon="1.64219">
        <ele>1596.4067382812</ele>
        <time>2014-06-14T11:58:25Z</time>
      </trkpt>
      <trkpt lat="42.70367" lon="1.64223">
        <ele>1594.9643554688</ele>
        <time>2014-06-14T11:58:29Z</time>
      </trkpt>
      <trkpt lat="42.70369" lon="1.64229">
        <ele>1593.5224609375</ele>
        <time>2014-06-14T11:58:35Z</time>
      </trkpt>
      <trkpt lat="42.70372" lon="1.64234">
        <ele>1592.5612792969</ele>
        <time>2014-06-14T11:58:42Z</time>
      </trkpt>
      <trkpt lat="42.70376" lon="1.64236">
        <ele>1591.5998535156</ele>
        <time>2014-06-14T11:58:48Z</time>
      </trkpt>
      <trkpt lat="42.70378" lon="1.64236">
        <ele>1590.6384277344</ele>
        <time>2014-06-14T11:58:53Z</time>
      </trkpt>
      <trkpt lat="42.70381" lon="1.64237">
        <ele>1590.1579589844</ele>
        <time>2014-06-14T11:58:58Z</time>
      </trkpt>
      <trkpt lat="42.70385" lon="1.64235">
        <ele>1589.1965332031</ele>
        <time>2014-06-14T11:59:07Z</time>
      </trkpt>
      <trkpt lat="42.70388" lon="1.64239">
        <ele>1588.7160644531</ele>
        <time>2014-06-14T11:59:11Z</time>
      </trkpt>
      <trkpt lat="42.7039" lon="1.64242">
        <ele>1588.2353515625</ele>
        <time>2014-06-14T11:59:16Z</time>
      </trkpt>
      <trkpt lat="42.70395" lon="1.64241">
        <ele>1588.7160644531</ele>
        <time>2014-06-14T11:59:21Z</time>
      </trkpt>
      <trkpt lat="42.70398" lon="1.64238">
        <ele>1588.7160644531</ele>
        <time>2014-06-14T11:59:26Z</time>
      </trkpt>
      <trkpt lat="42.70399" lon="1.64235">
        <ele>1588.7160644531</ele>
        <time>2014-06-14T11:59:30Z</time>
      </trkpt>
      <trkpt lat="42.70402" lon="1.64231">
        <ele>1588.7160644531</ele>
        <time>2014-06-14T11:59:35Z</time>
      </trkpt>
      <trkpt lat="42.70407" lon="1.64225">
        <ele>1590.1579589844</ele>
        <time>2014-06-14T11:59:44Z</time>
      </trkpt>
      <trkpt lat="42.7041" lon="1.64223">
        <ele>1589.6772460938</ele>
        <time>2014-06-14T11:59:48Z</time>
      </trkpt>
      <trkpt lat="42.70413" lon="1.64222">
        <ele>1588.7160644531</ele>
        <time>2014-06-14T11:59:53Z</time>
      </trkpt>
      <trkpt lat="42.70417" lon="1.64221">
        <ele>1587.2739257812</ele>
        <time>2014-06-14T12:00:01Z</time>
      </trkpt>
      <trkpt lat="42.70422" lon="1.64219">
        <ele>1589.1965332031</ele>
        <time>2014-06-14T12:00:09Z</time>
      </trkpt>
      <trkpt lat="42.70427" lon="1.64218">
        <ele>1588.7160644531</ele>
        <time>2014-06-14T12:00:15Z</time>
      </trkpt>
      <trkpt lat="42.70429" lon="1.64219">
        <ele>1586.7932128906</ele>
        <time>2014-06-14T12:00:19Z</time>
      </trkpt>
      <trkpt lat="42.70433" lon="1.64216">
        <ele>1585.3513183594</ele>
        <time>2014-06-14T12:00:25Z</time>
      </trkpt>
      <trkpt lat="42.70436" lon="1.64215">
        <ele>1583.4287109375</ele>
        <time>2014-06-14T12:00:31Z</time>
      </trkpt>
      <trkpt lat="42.7044" lon="1.64214">
        <ele>1582.4675292969</ele>
        <time>2014-06-14T12:00:36Z</time>
      </trkpt>
      <trkpt lat="42.70443" lon="1.64215">
        <ele>1581.0256347656</ele>
        <time>2014-06-14T12:00:40Z</time>
      </trkpt>
      <trkpt lat="42.70447" lon="1.64219">
        <ele>1580.0642089844</ele>
        <time>2014-06-14T12:00:45Z</time>
      </trkpt>
      <trkpt lat="42.70451" lon="1.6422">
        <ele>1579.1025390625</ele>
        <time>2014-06-14T12:00:50Z</time>
      </trkpt>
      <trkpt lat="42.70454" lon="1.64221">
        <ele>1579.1025390625</ele>
        <time>2014-06-14T12:00:55Z</time>
      </trkpt>
      <trkpt lat="42.7046" lon="1.6422">
        <ele>1578.6220703125</ele>
        <time>2014-06-14T12:00:59Z</time>
      </trkpt>
      <trkpt lat="42.70462" lon="1.6422">
        <ele>1578.1413574219</ele>
        <time>2014-06-14T12:01:04Z</time>
      </trkpt>
      <trkpt lat="42.70465" lon="1.6422">
        <ele>1577.6606445312</ele>
        <time>2014-06-14T12:01:09Z</time>
      </trkpt>
      <trkpt lat="42.70468" lon="1.64223">
        <ele>1577.1801757812</ele>
        <time>2014-06-14T12:01:14Z</time>
      </trkpt>
      <trkpt lat="42.70473" lon="1.64223">
        <ele>1576.6994628906</ele>
        <time>2014-06-14T12:01:19Z</time>
      </trkpt>
      <trkpt lat="42.7048" lon="1.64221">
        <ele>1577.6606445312</ele>
        <time>2014-06-14T12:01:25Z</time>
      </trkpt>
      <trkpt lat="42.70481" lon="1.64221">
        <ele>1577.1801757812</ele>
        <time>2014-06-14T12:01:27Z</time>
      </trkpt>
      <trkpt lat="42.70486" lon="1.64223">
        <ele>1576.21875</ele>
        <time>2014-06-14T12:01:33Z</time>
      </trkpt>
      <trkpt lat="42.7049" lon="1.64224">
        <ele>1575.2573242188</ele>
        <time>2014-06-14T12:01:37Z</time>
      </trkpt>
      <trkpt lat="42.70495" lon="1.64226">
        <ele>1574.2961425781</ele>
        <time>2014-06-14T12:01:42Z</time>
      </trkpt>
      <trkpt lat="42.70496" lon="1.64227">
        <ele>1574.2961425781</ele>
        <time>2014-06-14T12:01:43Z</time>
      </trkpt>
      <trkpt lat="42.70499" lon="1.6423">
        <ele>1572.8542480469</ele>
        <time>2014-06-14T12:01:47Z</time>
      </trkpt>
      <trkpt lat="42.70504" lon="1.64234">
        <ele>1574.2961425781</ele>
        <time>2014-06-14T12:01:53Z</time>
      </trkpt>
      <trkpt lat="42.70506" lon="1.64237">
        <ele>1574.2961425781</ele>
        <time>2014-06-14T12:01:58Z</time>
      </trkpt>
      <trkpt lat="42.7051" lon="1.6424">
        <ele>1572.8542480469</ele>
        <time>2014-06-14T12:02:02Z</time>
      </trkpt>
      <trkpt lat="42.70514" lon="1.64245">
        <ele>1571.412109375</ele>
        <time>2014-06-14T12:02:08Z</time>
      </trkpt>
      <trkpt lat="42.70517" lon="1.64251">
        <ele>1569.4897460938</ele>
        <time>2014-06-14T12:02:14Z</time>
      </trkpt>
      <trkpt lat="42.70521" lon="1.64259">
        <ele>1569.4897460938</ele>
        <time>2014-06-14T12:02:20Z</time>
      </trkpt>
      <trkpt lat="42.70525" lon="1.64263">
        <ele>1569.0090332031</ele>
        <time>2014-06-14T12:02:25Z</time>
      </trkpt>
      <trkpt lat="42.70526" lon="1.64265">
        <ele>1568.5283203125</ele>
        <time>2014-06-14T12:02:27Z</time>
      </trkpt>
      <trkpt lat="42.7053" lon="1.64268">
        <ele>1568.0476074219</ele>
        <time>2014-06-14T12:02:32Z</time>
      </trkpt>
      <trkpt lat="42.70534" lon="1.64269">
        <ele>1568.0476074219</ele>
        <time>2014-06-14T12:02:36Z</time>
      </trkpt>
      <trkpt lat="42.70538" lon="1.64273">
        <ele>1567.0864257812</ele>
        <time>2014-06-14T12:02:41Z</time>
      </trkpt>
      <trkpt lat="42.70539" lon="1.64276">
        <ele>1566.6057128906</ele>
        <time>2014-06-14T12:02:45Z</time>
      </trkpt>
      <trkpt lat="42.70543" lon="1.64277">
        <ele>1565.64453125</ele>
        <time>2014-06-14T12:02:50Z</time>
      </trkpt>
      <trkpt lat="42.7055" lon="1.64276">
        <ele>1564.6831054688</ele>
        <time>2014-06-14T12:02:57Z</time>
      </trkpt>
      <trkpt lat="42.70554" lon="1.64279">
        <ele>1563.7214355469</ele>
        <time>2014-06-14T12:03:01Z</time>
      </trkpt>
      <trkpt lat="42.70562" lon="1.64282">
        <ele>1563.2409667969</ele>
        <time>2014-06-14T12:03:08Z</time>
      </trkpt>
      <trkpt lat="42.70565" lon="1.64283">
        <ele>1562.2795410156</ele>
        <time>2014-06-14T12:03:12Z</time>
      </trkpt>
      <trkpt lat="42.70571" lon="1.64285">
        <ele>1561.7990722656</ele>
        <time>2014-06-14T12:03:18Z</time>
      </trkpt>
      <trkpt lat="42.70576" lon="1.64286">
        <ele>1561.7990722656</ele>
        <time>2014-06-14T12:03:24Z</time>
      </trkpt>
      <trkpt lat="42.70582" lon="1.6429">
        <ele>1561.318359375</ele>
        <time>2014-06-14T12:03:29Z</time>
      </trkpt>
      <trkpt lat="42.70588" lon="1.64295">
        <ele>1560.8376464844</ele>
        <time>2014-06-14T12:03:35Z</time>
      </trkpt>
      <trkpt lat="42.70594" lon="1.64298">
        <ele>1559.8762207031</ele>
        <time>2014-06-14T12:03:41Z</time>
      </trkpt>
      <trkpt lat="42.70597" lon="1.64301">
        <ele>1558.9150390625</ele>
        <time>2014-06-14T12:03:44Z</time>
      </trkpt>
      <trkpt lat="42.706" lon="1.64306">
        <ele>1557.9538574219</ele>
        <time>2014-06-14T12:03:49Z</time>
      </trkpt>
      <trkpt lat="42.70602" lon="1.6431">
        <ele>1557.4731445312</ele>
        <time>2014-06-14T12:03:53Z</time>
      </trkpt>
      <trkpt lat="42.70605" lon="1.64314">
        <ele>1556.9924316406</ele>
        <time>2014-06-14T12:03:57Z</time>
      </trkpt>
      <trkpt lat="42.70609" lon="1.64321">
        <ele>1557.9538574219</ele>
        <time>2014-06-14T12:04:04Z</time>
      </trkpt>
      <trkpt lat="42.70609" lon="1.64323">
        <ele>1557.9538574219</ele>
        <time>2014-06-14T12:04:09Z</time>
      </trkpt>
      <trkpt lat="42.70612" lon="1.64325">
        <ele>1557.9538574219</ele>
        <time>2014-06-14T12:04:15Z</time>
      </trkpt>
      <trkpt lat="42.70618" lon="1.64331">
        <ele>1557.9538574219</ele>
        <time>2014-06-14T12:04:22Z</time>
      </trkpt>
      <trkpt lat="42.70622" lon="1.64334">
        <ele>1556.9924316406</ele>
        <time>2014-06-14T12:04:28Z</time>
      </trkpt>
      <trkpt lat="42.70626" lon="1.64335">
        <ele>1556.0310058594</ele>
        <time>2014-06-14T12:04:33Z</time>
      </trkpt>
      <trkpt lat="42.70633" lon="1.64339">
        <ele>1555.5505371094</ele>
        <time>2014-06-14T12:04:40Z</time>
      </trkpt>
      <trkpt lat="42.70641" lon="1.64345">
        <ele>1558.9150390625</ele>
        <time>2014-06-14T12:04:47Z</time>
      </trkpt>
      <trkpt lat="42.70648" lon="1.64347">
        <ele>1560.8376464844</ele>
        <time>2014-06-14T12:04:53Z</time>
      </trkpt>
      <trkpt lat="42.7065" lon="1.64354">
        <ele>1559.8762207031</ele>
        <time>2014-06-14T12:04:58Z</time>
      </trkpt>
      <trkpt lat="42.70652" lon="1.64356">
        <ele>1559.3957519531</ele>
        <time>2014-06-14T12:05:00Z</time>
      </trkpt>
      <trkpt lat="42.70656" lon="1.64364">
        <ele>1558.4343261719</ele>
        <time>2014-06-14T12:05:07Z</time>
      </trkpt>
      <trkpt lat="42.70662" lon="1.64371">
        <ele>1558.9150390625</ele>
        <time>2014-06-14T12:05:14Z</time>
      </trkpt>
      <trkpt lat="42.70666" lon="1.64371">
        <ele>1558.9150390625</ele>
        <time>2014-06-14T12:05:20Z</time>
      </trkpt>
      <trkpt lat="42.70667" lon="1.64369">
        <ele>1559.3957519531</ele>
        <time>2014-06-14T12:05:24Z</time>
      </trkpt>
      <trkpt lat="42.70668" lon="1.64369">
        <ele>1557.9538574219</ele>
        <time>2014-06-14T12:05:30Z</time>
      </trkpt>
      <trkpt lat="42.7067" lon="1.64371">
        <ele>1557.9538574219</ele>
        <time>2014-06-14T12:05:32Z</time>
      </trkpt>
      <trkpt lat="42.70676" lon="1.64381">
        <ele>1558.4343261719</ele>
        <time>2014-06-14T12:05:41Z</time>
      </trkpt>
      <trkpt lat="42.70677" lon="1.64383">
        <ele>1556.9924316406</ele>
        <time>2014-06-14T12:05:48Z</time>
      </trkpt>
      <trkpt lat="42.70679" lon="1.64381">
        <ele>1556.51171875</ele>
        <time>2014-06-14T12:05:54Z</time>
      </trkpt>
      <trkpt lat="42.70685" lon="1.64383">
        <ele>1556.0310058594</ele>
        <time>2014-06-14T12:06:01Z</time>
      </trkpt>
      <trkpt lat="42.70688" lon="1.64387">
        <ele>1556.0310058594</ele>
        <time>2014-06-14T12:06:05Z</time>
      </trkpt>
      <trkpt lat="42.70691" lon="1.64391">
        <ele>1556.0310058594</ele>
        <time>2014-06-14T12:06:09Z</time>
      </trkpt>
      <trkpt lat="42.70696" lon="1.64393">
        <ele>1555.0698242188</ele>
        <time>2014-06-14T12:06:17Z</time>
      </trkpt>
      <trkpt lat="42.707" lon="1.64396">
        <ele>1555.0698242188</ele>
        <time>2014-06-14T12:06:23Z</time>
      </trkpt>
      <trkpt lat="42.70703" lon="1.64399">
        <ele>1555.5505371094</ele>
        <time>2014-06-14T12:06:28Z</time>
      </trkpt>
      <trkpt lat="42.70709" lon="1.64405">
        <ele>1556.51171875</ele>
        <time>2014-06-14T12:06:35Z</time>
      </trkpt>
      <trkpt lat="42.70711" lon="1.64405">
        <ele>1556.0310058594</ele>
        <time>2014-06-14T12:06:39Z</time>
      </trkpt>
      <trkpt lat="42.70713" lon="1.64405">
        <ele>1556.51171875</ele>
        <time>2014-06-14T12:06:44Z</time>
      </trkpt>
      <trkpt lat="42.70716" lon="1.64407">
        <ele>1556.0310058594</ele>
        <time>2014-06-14T12:06:55Z</time>
      </trkpt>
      <trkpt lat="42.70716" lon="1.64407">
        <ele>1556.51171875</ele>
        <time>2014-06-14T12:07:03Z</time>
      </trkpt>
      <trkpt lat="42.70718" lon="1.6441">
        <ele>1556.0310058594</ele>
        <time>2014-06-14T12:07:08Z</time>
      </trkpt>
      <trkpt lat="42.70722" lon="1.64415">
        <ele>1555.5505371094</ele>
        <time>2014-06-14T12:07:15Z</time>
      </trkpt>
      <trkpt lat="42.70724" lon="1.64415">
        <ele>1554.5891113281</ele>
        <time>2014-06-14T12:07:23Z</time>
      </trkpt>
      <trkpt lat="42.70724" lon="1.64416">
        <ele>1555.5505371094</ele>
        <time>2014-06-14T12:07:43Z</time>
      </trkpt>
      <trkpt lat="42.70728" lon="1.64422">
        <ele>1555.5505371094</ele>
        <time>2014-06-14T12:07:51Z</time>
      </trkpt>
      <trkpt lat="42.70732" lon="1.64431">
        <ele>1558.4343261719</ele>
        <time>2014-06-14T12:07:59Z</time>
      </trkpt>
      <trkpt lat="42.70734" lon="1.64433">
        <ele>1559.3957519531</ele>
        <time>2014-06-14T12:08:06Z</time>
      </trkpt>
      <trkpt lat="42.70737" lon="1.6444">
        <ele>1556.9924316406</ele>
        <time>2014-06-14T12:08:12Z</time>
      </trkpt>
      <trkpt lat="42.7074" lon="1.64443">
        <ele>1554.5891113281</ele>
        <time>2014-06-14T12:08:18Z</time>
      </trkpt>
      <trkpt lat="42.70743" lon="1.64449">
        <ele>1553.6279296875</ele>
        <time>2014-06-14T12:08:23Z</time>
      </trkpt>
      <trkpt lat="42.70744" lon="1.64452">
        <ele>1553.1472167969</ele>
        <time>2014-06-14T12:08:25Z</time>
      </trkpt>
      <trkpt lat="42.70753" lon="1.64458">
        <ele>1554.1086425781</ele>
        <time>2014-06-14T12:08:32Z</time>
      </trkpt>
      <trkpt lat="42.70757" lon="1.64462">
        <ele>1555.0698242188</ele>
        <time>2014-06-14T12:08:35Z</time>
      </trkpt>
      <trkpt lat="42.70765" lon="1.64468">
        <ele>1556.51171875</ele>
        <time>2014-06-14T12:08:42Z</time>
      </trkpt>
      <trkpt lat="42.70771" lon="1.64476">
        <ele>1557.4731445312</ele>
        <time>2014-06-14T12:08:48Z</time>
      </trkpt>
      <trkpt lat="42.70775" lon="1.64478">
        <ele>1557.4731445312</ele>
        <time>2014-06-14T12:08:52Z</time>
      </trkpt>
      <trkpt lat="42.70779" lon="1.64477">
        <ele>1556.9924316406</ele>
        <time>2014-06-14T12:08:57Z</time>
      </trkpt>
      <trkpt lat="42.70781" lon="1.64477">
        <ele>1557.9538574219</ele>
        <time>2014-06-14T12:08:59Z</time>
      </trkpt>
      <trkpt lat="42.70787" lon="1.64475">
        <ele>1554.5891113281</ele>
        <time>2014-06-14T12:09:08Z</time>
      </trkpt>
      <trkpt lat="42.70789" lon="1.64474">
        <ele>1553.6279296875</ele>
        <time>2014-06-14T12:09:12Z</time>
      </trkpt>
      <trkpt lat="42.7079" lon="1.64475">
        <ele>1553.1472167969</ele>
        <time>2014-06-14T12:09:18Z</time>
      </trkpt>
      <trkpt lat="42.70793" lon="1.6448">
        <ele>1552.6665039062</ele>
        <time>2014-06-14T12:09:22Z</time>
      </trkpt>
      <trkpt lat="42.70798" lon="1.64488">
        <ele>1554.1086425781</ele>
        <time>2014-06-14T12:09:28Z</time>
      </trkpt>
      <trkpt lat="42.70803" lon="1.64494">
        <ele>1553.6279296875</ele>
        <time>2014-06-14T12:09:34Z</time>
      </trkpt>
      <trkpt lat="42.70806" lon="1.64498">
        <ele>1553.6279296875</ele>
        <time>2014-06-14T12:09:37Z</time>
      </trkpt>
      <trkpt lat="42.70812" lon="1.64501">
        <ele>1553.6279296875</ele>
        <time>2014-06-14T12:09:41Z</time>
      </trkpt>
      <trkpt lat="42.70823" lon="1.64507">
        <ele>1556.51171875</ele>
        <time>2014-06-14T12:09:48Z</time>
      </trkpt>
      <trkpt lat="42.7083" lon="1.64512">
        <ele>1556.9924316406</ele>
        <time>2014-06-14T12:09:54Z</time>
      </trkpt>
      <trkpt lat="42.70837" lon="1.64518">
        <ele>1557.4731445312</ele>
        <time>2014-06-14T12:10:01Z</time>
      </trkpt>
      <trkpt lat="42.70842" lon="1.64526">
        <ele>1559.3957519531</ele>
        <time>2014-06-14T12:10:08Z</time>
      </trkpt>
      <trkpt lat="42.70844" lon="1.6453">
        <ele>1558.9150390625</ele>
        <time>2014-06-14T12:10:12Z</time>
      </trkpt>
      <trkpt lat="42.70847" lon="1.64535">
        <ele>1556.0310058594</ele>
        <time>2014-06-14T12:10:18Z</time>
      </trkpt>
      <trkpt lat="42.70851" lon="1.64537">
        <ele>1553.6279296875</ele>
        <time>2014-06-14T12:10:24Z</time>
      </trkpt>
      <trkpt lat="42.70853" lon="1.64542">
        <ele>1550.7438964844</ele>
        <time>2014-06-14T12:10:34Z</time>
      </trkpt>
      <trkpt lat="42.70858" lon="1.64547">
        <ele>1554.1086425781</ele>
        <time>2014-06-14T12:10:42Z</time>
      </trkpt>
      <trkpt lat="42.70861" lon="1.64549">
        <ele>1555.0698242188</ele>
        <time>2014-06-14T12:10:47Z</time>
      </trkpt>
      <trkpt lat="42.70862" lon="1.6455">
        <ele>1551.7053222656</ele>
        <time>2014-06-14T12:10:53Z</time>
      </trkpt>
      <trkpt lat="42.70863" lon="1.64553">
        <ele>1549.7827148438</ele>
        <time>2014-06-14T12:10:57Z</time>
      </trkpt>
      <trkpt lat="42.70864" lon="1.64555">
        <ele>1547.8598632812</ele>
        <time>2014-06-14T12:11:02Z</time>
      </trkpt>
      <trkpt lat="42.70869" lon="1.6456">
        <ele>1544.9758300781</ele>
        <time>2014-06-14T12:11:08Z</time>
      </trkpt>
      <trkpt lat="42.70876" lon="1.64563">
        <ele>1544.0146484375</ele>
        <time>2014-06-14T12:11:14Z</time>
      </trkpt>
      <trkpt lat="42.70881" lon="1.64568">
        <ele>1544.0146484375</ele>
        <time>2014-06-14T12:11:19Z</time>
      </trkpt>
      <trkpt lat="42.70885" lon="1.64572">
        <ele>1541.1306152344</ele>
        <time>2014-06-14T12:11:27Z</time>
      </trkpt>
      <trkpt lat="42.70889" lon="1.64575">
        <ele>1538.2468261719</ele>
        <time>2014-06-14T12:11:33Z</time>
      </trkpt>
      <trkpt lat="42.70893" lon="1.64579">
        <ele>1536.8046875</ele>
        <time>2014-06-14T12:11:41Z</time>
      </trkpt>
      <trkpt lat="42.70895" lon="1.64583">
        <ele>1535.8435058594</ele>
        <time>2014-06-14T12:11:48Z</time>
      </trkpt>
      <trkpt lat="42.70898" lon="1.64589">
        <ele>1535.3627929688</ele>
        <time>2014-06-14T12:11:53Z</time>
      </trkpt>
      <trkpt lat="42.70903" lon="1.64591">
        <ele>1534.8823242188</ele>
        <time>2014-06-14T12:11:57Z</time>
      </trkpt>
      <trkpt lat="42.70903" lon="1.64597">
        <ele>1537.2854003906</ele>
        <time>2014-06-14T12:12:03Z</time>
      </trkpt>
      <trkpt lat="42.70904" lon="1.64599">
        <ele>1538.2468261719</ele>
        <time>2014-06-14T12:12:05Z</time>
      </trkpt>
      <trkpt lat="42.70911" lon="1.64605">
        <ele>1541.1306152344</ele>
        <time>2014-06-14T12:12:12Z</time>
      </trkpt>
      <trkpt lat="42.70914" lon="1.64609">
        <ele>1542.5727539062</ele>
        <time>2014-06-14T12:12:17Z</time>
      </trkpt>
      <trkpt lat="42.70916" lon="1.64609">
        <ele>1539.6887207031</ele>
        <time>2014-06-14T12:12:22Z</time>
      </trkpt>
      <trkpt lat="42.7092" lon="1.64613">
        <ele>1538.7275390625</ele>
        <time>2014-06-14T12:12:27Z</time>
      </trkpt>
      <trkpt lat="42.70922" lon="1.64619">
        <ele>1537.2854003906</ele>
        <time>2014-06-14T12:12:34Z</time>
      </trkpt>
      <trkpt lat="42.70926" lon="1.64623">
        <ele>1534.8823242188</ele>
        <time>2014-06-14T12:12:43Z</time>
      </trkpt>
      <trkpt lat="42.7093" lon="1.64624">
        <ele>1535.3627929688</ele>
        <time>2014-06-14T12:12:49Z</time>
      </trkpt>
      <trkpt lat="42.70933" lon="1.64623">
        <ele>1535.8435058594</ele>
        <time>2014-06-14T12:12:54Z</time>
      </trkpt>
      <trkpt lat="42.70937" lon="1.64622">
        <ele>1534.8823242188</ele>
        <time>2014-06-14T12:13:01Z</time>
      </trkpt>
      <trkpt lat="42.70942" lon="1.64622">
        <ele>1533.4401855469</ele>
        <time>2014-06-14T12:13:08Z</time>
      </trkpt>
      <trkpt lat="42.70948" lon="1.64628">
        <ele>1531.5173339844</ele>
        <time>2014-06-14T12:13:15Z</time>
      </trkpt>
      <trkpt lat="42.70951" lon="1.64627">
        <ele>1528.6335449219</ele>
        <time>2014-06-14T12:13:22Z</time>
      </trkpt>
      <trkpt lat="42.70953" lon="1.6463">
        <ele>1527.1916503906</ele>
        <time>2014-06-14T12:13:28Z</time>
      </trkpt>
      <trkpt lat="42.70965" lon="1.64635">
        <ele>1522.3850097656</ele>
        <time>2014-06-14T12:13:47Z</time>
      </trkpt>
      <trkpt lat="42.70967" lon="1.6464">
        <ele>1522.8657226562</ele>
        <time>2014-06-14T12:13:54Z</time>
      </trkpt>
      <trkpt lat="42.70975" lon="1.6464">
        <ele>1521.904296875</ele>
        <time>2014-06-14T12:14:01Z</time>
      </trkpt>
      <trkpt lat="42.70989" lon="1.64647">
        <ele>1522.8657226562</ele>
        <time>2014-06-14T12:14:21Z</time>
      </trkpt>
      <trkpt lat="42.70994" lon="1.64651">
        <ele>1523.3464355469</ele>
        <time>2014-06-14T12:14:25Z</time>
      </trkpt>
      <trkpt lat="42.70995" lon="1.64653">
        <ele>1522.3850097656</ele>
        <time>2014-06-14T12:14:28Z</time>
      </trkpt>
      <trkpt lat="42.70997" lon="1.64656">
        <ele>1521.904296875</ele>
        <time>2014-06-14T12:14:34Z</time>
      </trkpt>
      <trkpt lat="42.71001" lon="1.64663">
        <ele>1522.3850097656</ele>
        <time>2014-06-14T12:14:40Z</time>
      </trkpt>
      <trkpt lat="42.71" lon="1.64669">
        <ele>1520.4624023438</ele>
        <time>2014-06-14T12:14:45Z</time>
      </trkpt>
      <trkpt lat="42.71005" lon="1.64678">
        <ele>1519.5012207031</ele>
        <time>2014-06-14T12:14:52Z</time>
      </trkpt>
      <trkpt lat="42.71011" lon="1.64682">
        <ele>1514.6943359375</ele>
        <time>2014-06-14T12:15:10Z</time>
      </trkpt>
      <trkpt lat="42.71012" lon="1.6469">
        <ele>1510.3684082031</ele>
        <time>2014-06-14T12:15:20Z</time>
      </trkpt>
      <trkpt lat="42.71016" lon="1.64695">
        <ele>1508.9265136719</ele>
        <time>2014-06-14T12:15:24Z</time>
      </trkpt>
      <trkpt lat="42.71022" lon="1.647">
        <ele>1508.4458007812</ele>
        <time>2014-06-14T12:15:30Z</time>
      </trkpt>
      <trkpt lat="42.71026" lon="1.64701">
        <ele>1509.8876953125</ele>
        <time>2014-06-14T12:15:34Z</time>
      </trkpt>
      <trkpt lat="42.71029" lon="1.64701">
        <ele>1509.4072265625</ele>
        <time>2014-06-14T12:15:39Z</time>
      </trkpt>
      <trkpt lat="42.71031" lon="1.64704">
        <ele>1509.4072265625</ele>
        <time>2014-06-14T12:15:44Z</time>
      </trkpt>
      <trkpt lat="42.71032" lon="1.64708">
        <ele>1509.4072265625</ele>
        <time>2014-06-14T12:15:49Z</time>
      </trkpt>
      <trkpt lat="42.71034" lon="1.64711">
        <ele>1508.4458007812</ele>
        <time>2014-06-14T12:15:55Z</time>
      </trkpt>
      <trkpt lat="42.71035" lon="1.64716">
        <ele>1506.5231933594</ele>
        <time>2014-06-14T12:16:01Z</time>
      </trkpt>
      <trkpt lat="42.71034" lon="1.64719">
        <ele>1504.1201171875</ele>
        <time>2014-06-14T12:16:06Z</time>
      </trkpt>
      <trkpt lat="42.71032" lon="1.64724">
        <ele>1503.1586914062</ele>
        <time>2014-06-14T12:16:11Z</time>
      </trkpt>
      <trkpt lat="42.71032" lon="1.64729">
        <ele>1502.197265625</ele>
        <time>2014-06-14T12:16:17Z</time>
      </trkpt>
      <trkpt lat="42.71036" lon="1.64733">
        <ele>1501.2360839844</ele>
        <time>2014-06-14T12:16:22Z</time>
      </trkpt>
      <trkpt lat="42.71039" lon="1.64734">
        <ele>1501.716796875</ele>
        <time>2014-06-14T12:16:26Z</time>
      </trkpt>
      <trkpt lat="42.71048" lon="1.64733">
        <ele>1502.197265625</ele>
        <time>2014-06-14T12:16:40Z</time>
      </trkpt>
      <trkpt lat="42.71049" lon="1.64735">
        <ele>1502.197265625</ele>
        <time>2014-06-14T12:16:45Z</time>
      </trkpt>
      <trkpt lat="42.7105" lon="1.64742">
        <ele>1503.1586914062</ele>
        <time>2014-06-14T12:16:51Z</time>
      </trkpt>
      <trkpt lat="42.71054" lon="1.64742">
        <ele>1501.716796875</ele>
        <time>2014-06-14T12:17:11Z</time>
      </trkpt>
      <trkpt lat="42.71058" lon="1.64745">
        <ele>1499.3132324219</ele>
        <time>2014-06-14T12:17:17Z</time>
      </trkpt>
      <trkpt lat="42.7106" lon="1.64747">
        <ele>1498.8325195312</ele>
        <time>2014-06-14T12:17:21Z</time>
      </trkpt>
      <trkpt lat="42.71061" lon="1.6475">
        <ele>1498.3518066406</ele>
        <time>2014-06-14T12:17:25Z</time>
      </trkpt>
      <trkpt lat="42.7106" lon="1.64755">
        <ele>1496.9099121094</ele>
        <time>2014-06-14T12:17:31Z</time>
      </trkpt>
      <trkpt lat="42.71063" lon="1.64759">
        <ele>1497.8713378906</ele>
        <time>2014-06-14T12:17:36Z</time>
      </trkpt>
      <trkpt lat="42.71062" lon="1.64763">
        <ele>1498.3518066406</ele>
        <time>2014-06-14T12:17:40Z</time>
      </trkpt>
      <trkpt lat="42.71061" lon="1.64769">
        <ele>1498.3518066406</ele>
        <time>2014-06-14T12:17:44Z</time>
      </trkpt>
      <trkpt lat="42.71061" lon="1.64767">
        <ele>1499.3132324219</ele>
        <time>2014-06-14T12:17:50Z</time>
      </trkpt>
      <trkpt lat="42.71061" lon="1.64765">
        <ele>1492.5842285156</ele>
        <time>2014-06-14T12:18:27Z</time>
      </trkpt>
      <trkpt lat="42.71062" lon="1.64774">
        <ele>1494.5065917969</ele>
        <time>2014-06-14T12:18:35Z</time>
      </trkpt>
      <trkpt lat="42.71065" lon="1.64781">
        <ele>1493.0646972656</ele>
        <time>2014-06-14T12:18:43Z</time>
      </trkpt>
      <trkpt lat="42.71074" lon="1.64781">
        <ele>1493.0646972656</ele>
        <time>2014-06-14T12:18:52Z</time>
      </trkpt>
      <trkpt lat="42.71077" lon="1.64787">
        <ele>1493.5454101562</ele>
        <time>2014-06-14T12:18:57Z</time>
      </trkpt>
      <trkpt lat="42.71081" lon="1.6479">
        <ele>1495.4680175781</ele>
        <time>2014-06-14T12:19:05Z</time>
      </trkpt>
      <trkpt lat="42.71088" lon="1.64792">
        <ele>1495.4680175781</ele>
        <time>2014-06-14T12:19:11Z</time>
      </trkpt>
      <trkpt lat="42.71091" lon="1.64799">
        <ele>1493.5454101562</ele>
        <time>2014-06-14T12:19:16Z</time>
      </trkpt>
      <trkpt lat="42.71094" lon="1.64805">
        <ele>1493.5454101562</ele>
        <time>2014-06-14T12:19:21Z</time>
      </trkpt>
      <trkpt lat="42.711" lon="1.6481">
        <ele>1491.1420898438</ele>
        <time>2014-06-14T12:19:26Z</time>
      </trkpt>
      <trkpt lat="42.71102" lon="1.64816">
        <ele>1491.1420898438</ele>
        <time>2014-06-14T12:19:30Z</time>
      </trkpt>
      <trkpt lat="42.71102" lon="1.64821">
        <ele>1491.6228027344</ele>
        <time>2014-06-14T12:19:33Z</time>
      </trkpt>
      <trkpt lat="42.71104" lon="1.64826">
        <ele>1491.6228027344</ele>
        <time>2014-06-14T12:19:36Z</time>
      </trkpt>
      <trkpt lat="42.71105" lon="1.64833">
        <ele>1492.5842285156</ele>
        <time>2014-06-14T12:19:40Z</time>
      </trkpt>
      <trkpt lat="42.71106" lon="1.64838">
        <ele>1494.5065917969</ele>
        <time>2014-06-14T12:19:45Z</time>
      </trkpt>
      <trkpt lat="42.7111" lon="1.64841">
        <ele>1494.0261230469</ele>
        <time>2014-06-14T12:19:49Z</time>
      </trkpt>
      <trkpt lat="42.71111" lon="1.64843">
        <ele>1493.0646972656</ele>
        <time>2014-06-14T12:19:51Z</time>
      </trkpt>
      <trkpt lat="42.71114" lon="1.64848">
        <ele>1491.1420898438</ele>
        <time>2014-06-14T12:19:55Z</time>
      </trkpt>
      <trkpt lat="42.71125" lon="1.64852">
        <ele>1490.6613769531</ele>
        <time>2014-06-14T12:20:02Z</time>
      </trkpt>
      <trkpt lat="42.71128" lon="1.64855">
        <ele>1489.2194824219</ele>
        <time>2014-06-14T12:20:06Z</time>
      </trkpt>
      <trkpt lat="42.71133" lon="1.6486">
        <ele>1488.2583007812</ele>
        <time>2014-06-14T12:20:11Z</time>
      </trkpt>
      <trkpt lat="42.71133" lon="1.64862">
        <ele>1488.7390136719</ele>
        <time>2014-06-14T12:20:12Z</time>
      </trkpt>
      <trkpt lat="42.71136" lon="1.6487">
        <ele>1488.2583007812</ele>
        <time>2014-06-14T12:20:18Z</time>
      </trkpt>
      <trkpt lat="42.71137" lon="1.64875">
        <ele>1487.296875</ele>
        <time>2014-06-14T12:20:22Z</time>
      </trkpt>
      <trkpt lat="42.7114" lon="1.64881">
        <ele>1487.7775878906</ele>
        <time>2014-06-14T12:20:26Z</time>
      </trkpt>
      <trkpt lat="42.71144" lon="1.64886">
        <ele>1486.8161621094</ele>
        <time>2014-06-14T12:20:32Z</time>
      </trkpt>
      <trkpt lat="42.71147" lon="1.64889">
        <ele>1487.296875</ele>
        <time>2014-06-14T12:20:38Z</time>
      </trkpt>
      <trkpt lat="42.71148" lon="1.64893">
        <ele>1487.7775878906</ele>
        <time>2014-06-14T12:20:43Z</time>
      </trkpt>
      <trkpt lat="42.71151" lon="1.64897">
        <ele>1488.2583007812</ele>
        <time>2014-06-14T12:20:51Z</time>
      </trkpt>
      <trkpt lat="42.71156" lon="1.64901">
        <ele>1484.8937988281</ele>
        <time>2014-06-14T12:20:57Z</time>
      </trkpt>
      <trkpt lat="42.71156" lon="1.64909">
        <ele>1482.970703125</ele>
        <time>2014-06-14T12:21:04Z</time>
      </trkpt>
      <trkpt lat="42.71156" lon="1.64913">
        <ele>1482.490234375</ele>
        <time>2014-06-14T12:21:11Z</time>
      </trkpt>
      <trkpt lat="42.71161" lon="1.64916">
        <ele>1481.5288085938</ele>
        <time>2014-06-14T12:21:16Z</time>
      </trkpt>
      <trkpt lat="42.71164" lon="1.64918">
        <ele>1481.5288085938</ele>
        <time>2014-06-14T12:21:20Z</time>
      </trkpt>
      <trkpt lat="42.71167" lon="1.64926">
        <ele>1480.0869140625</ele>
        <time>2014-06-14T12:21:27Z</time>
      </trkpt>
      <trkpt lat="42.71171" lon="1.64928">
        <ele>1481.5288085938</ele>
        <time>2014-06-14T12:21:33Z</time>
      </trkpt>
      <trkpt lat="42.71183" lon="1.64934">
        <ele>1482.0095214844</ele>
        <time>2014-06-14T12:21:45Z</time>
      </trkpt>
      <trkpt lat="42.71186" lon="1.64938">
        <ele>1481.5288085938</ele>
        <time>2014-06-14T12:21:50Z</time>
      </trkpt>
      <trkpt lat="42.71189" lon="1.64942">
        <ele>1482.0095214844</ele>
        <time>2014-06-14T12:21:55Z</time>
      </trkpt>
      <trkpt lat="42.71193" lon="1.64943">
        <ele>1480.5676269531</ele>
        <time>2014-06-14T12:21:59Z</time>
      </trkpt>
      <trkpt lat="42.71197" lon="1.64949">
        <ele>1479.1254882812</ele>
        <time>2014-06-14T12:22:05Z</time>
      </trkpt>
      <trkpt lat="42.71205" lon="1.64955">
        <ele>1478.6450195312</ele>
        <time>2014-06-14T12:22:11Z</time>
      </trkpt>
      <trkpt lat="42.71208" lon="1.64961">
        <ele>1479.6062011719</ele>
        <time>2014-06-14T12:22:16Z</time>
      </trkpt>
      <trkpt lat="42.71214" lon="1.64969">
        <ele>1481.0483398438</ele>
        <time>2014-06-14T12:22:26Z</time>
      </trkpt>
      <trkpt lat="42.71215" lon="1.64971">
        <ele>1479.6062011719</ele>
        <time>2014-06-14T12:22:29Z</time>
      </trkpt>
      <trkpt lat="42.71217" lon="1.6498">
        <ele>1478.1643066406</ele>
        <time>2014-06-14T12:22:35Z</time>
      </trkpt>
      <trkpt lat="42.71221" lon="1.64987">
        <ele>1473.8383789062</ele>
        <time>2014-06-14T12:22:42Z</time>
      </trkpt>
      <trkpt lat="42.71231" lon="1.65001">
        <ele>1470.9545898438</ele>
        <time>2014-06-14T12:22:54Z</time>
      </trkpt>
      <trkpt lat="42.71235" lon="1.65009">
        <ele>1469.9931640625</ele>
        <time>2014-06-14T12:22:59Z</time>
      </trkpt>
      <trkpt lat="42.71239" lon="1.65016">
        <ele>1467.5895996094</ele>
        <time>2014-06-14T12:23:04Z</time>
      </trkpt>
      <trkpt lat="42.71242" lon="1.65025">
        <ele>1469.9931640625</ele>
        <time>2014-06-14T12:23:08Z</time>
      </trkpt>
      <trkpt lat="42.71245" lon="1.65033">
        <ele>1469.9931640625</ele>
        <time>2014-06-14T12:23:13Z</time>
      </trkpt>
      <trkpt lat="42.71246" lon="1.6504">
        <ele>1469.0319824219</ele>
        <time>2014-06-14T12:23:20Z</time>
      </trkpt>
      <trkpt lat="42.71247" lon="1.65042">
        <ele>1468.0705566406</ele>
        <time>2014-06-14T12:23:25Z</time>
      </trkpt>
      <trkpt lat="42.71247" lon="1.65048">
        <ele>1467.1091308594</ele>
        <time>2014-06-14T12:23:30Z</time>
      </trkpt>
      <trkpt lat="42.71251" lon="1.65055">
        <ele>1466.1477050781</ele>
        <time>2014-06-14T12:23:35Z</time>
      </trkpt>
      <trkpt lat="42.71253" lon="1.65063">
        <ele>1465.6672363281</ele>
        <time>2014-06-14T12:23:40Z</time>
      </trkpt>
      <trkpt lat="42.71257" lon="1.6507">
        <ele>1463.7443847656</ele>
        <time>2014-06-14T12:23:46Z</time>
      </trkpt>
      <trkpt lat="42.71257" lon="1.65074">
        <ele>1463.2639160156</ele>
        <time>2014-06-14T12:23:49Z</time>
      </trkpt>
      <trkpt lat="42.71254" lon="1.6508">
        <ele>1461.8220214844</ele>
        <time>2014-06-14T12:23:55Z</time>
      </trkpt>
      <trkpt lat="42.71254" lon="1.65082">
        <ele>1460.8605957031</ele>
        <time>2014-06-14T12:23:56Z</time>
      </trkpt>
      <trkpt lat="42.71255" lon="1.65091">
        <ele>1463.2639160156</ele>
        <time>2014-06-14T12:24:01Z</time>
      </trkpt>
      <trkpt lat="42.71255" lon="1.65103">
        <ele>1463.2639160156</ele>
        <time>2014-06-14T12:24:07Z</time>
      </trkpt>
      <trkpt lat="42.71255" lon="1.65114">
        <ele>1465.1865234375</ele>
        <time>2014-06-14T12:24:12Z</time>
      </trkpt>
      <trkpt lat="42.71253" lon="1.65125">
        <ele>1469.5126953125</ele>
        <time>2014-06-14T12:24:17Z</time>
      </trkpt>
      <trkpt lat="42.71247" lon="1.65132">
        <ele>1469.9931640625</ele>
        <time>2014-06-14T12:24:25Z</time>
      </trkpt>
      <trkpt lat="42.71247" lon="1.65133">
        <ele>1469.5126953125</ele>
        <time>2014-06-14T12:24:26Z</time>
      </trkpt>
      <trkpt lat="42.71245" lon="1.65134">
        <ele>1468.5512695312</ele>
        <time>2014-06-14T12:24:28Z</time>
      </trkpt>
      <trkpt lat="42.71244" lon="1.65143">
        <ele>1465.1865234375</ele>
        <time>2014-06-14T12:24:34Z</time>
      </trkpt>
      <trkpt lat="42.71232" lon="1.65149">
        <ele>1456.5346679688</ele>
        <time>2014-06-14T12:24:41Z</time>
      </trkpt>
      <trkpt lat="42.7123" lon="1.65158">
        <ele>1455.5734863281</ele>
        <time>2014-06-14T12:24:45Z</time>
      </trkpt>
      <trkpt lat="42.71227" lon="1.65162">
        <ele>1455.5734863281</ele>
        <time>2014-06-14T12:24:49Z</time>
      </trkpt>
      <trkpt lat="42.71225" lon="1.65169">
        <ele>1456.5346679688</ele>
        <time>2014-06-14T12:24:54Z</time>
      </trkpt>
      <trkpt lat="42.71222" lon="1.65172">
        <ele>1456.0539550781</ele>
        <time>2014-06-14T12:24:57Z</time>
      </trkpt>
      <trkpt lat="42.71223" lon="1.65181">
        <ele>1457.0153808594</ele>
        <time>2014-06-14T12:25:02Z</time>
      </trkpt>
      <trkpt lat="42.7122" lon="1.65185">
        <ele>1456.0539550781</ele>
        <time>2014-06-14T12:25:06Z</time>
      </trkpt>
      <trkpt lat="42.71218" lon="1.65187">
        <ele>1455.5734863281</ele>
        <time>2014-06-14T12:25:08Z</time>
      </trkpt>
      <trkpt lat="42.71215" lon="1.65191">
        <ele>1450.7666015625</ele>
        <time>2014-06-14T12:25:17Z</time>
      </trkpt>
      <trkpt lat="42.71213" lon="1.65193">
        <ele>1449.8054199219</ele>
        <time>2014-06-14T12:25:21Z</time>
      </trkpt>
      <trkpt lat="42.71207" lon="1.65197">
        <ele>1451.2473144531</ele>
        <time>2014-06-14T12:25:25Z</time>
      </trkpt>
      <trkpt lat="42.71205" lon="1.65201">
        <ele>1450.7666015625</ele>
        <time>2014-06-14T12:25:29Z</time>
      </trkpt>
      <trkpt lat="42.71199" lon="1.65203">
        <ele>1451.2473144531</ele>
        <time>2014-06-14T12:25:33Z</time>
      </trkpt>
      <trkpt lat="42.71197" lon="1.65206">
        <ele>1449.3247070312</ele>
        <time>2014-06-14T12:25:36Z</time>
      </trkpt>
      <trkpt lat="42.71193" lon="1.65211">
        <ele>1447.8828125</ele>
        <time>2014-06-14T12:25:40Z</time>
      </trkpt>
      <trkpt lat="42.71188" lon="1.65214">
        <ele>1444.9987792969</ele>
        <time>2014-06-14T12:25:45Z</time>
      </trkpt>
      <trkpt lat="42.71183" lon="1.65214">
        <ele>1442.595703125</ele>
        <time>2014-06-14T12:25:49Z</time>
      </trkpt>
      <trkpt lat="42.71174" lon="1.65215">
        <ele>1441.1535644531</ele>
        <time>2014-06-14T12:25:54Z</time>
      </trkpt>
      <trkpt lat="42.71172" lon="1.65217">
        <ele>1442.1149902344</ele>
        <time>2014-06-14T12:25:58Z</time>
      </trkpt>
      <trkpt lat="42.71161" lon="1.6522">
        <ele>1440.1923828125</ele>
        <time>2014-06-14T12:26:08Z</time>
      </trkpt>
      <trkpt lat="42.71155" lon="1.65219">
        <ele>1435.8662109375</ele>
        <time>2014-06-14T12:26:13Z</time>
      </trkpt>
      <trkpt lat="42.71155" lon="1.65221">
        <ele>1436.8276367188</ele>
        <time>2014-06-14T12:26:15Z</time>
      </trkpt>
      <trkpt lat="42.71151" lon="1.65227">
        <ele>1437.3083496094</ele>
        <time>2014-06-14T12:26:21Z</time>
      </trkpt>
      <trkpt lat="42.71151" lon="1.65228">
        <ele>1437.3083496094</ele>
        <time>2014-06-14T12:26:22Z</time>
      </trkpt>
      <trkpt lat="42.71148" lon="1.65233">
        <ele>1435.8662109375</ele>
        <time>2014-06-14T12:26:27Z</time>
      </trkpt>
      <trkpt lat="42.7115" lon="1.65244">
        <ele>1435.8662109375</ele>
        <time>2014-06-14T12:26:33Z</time>
      </trkpt>
      <trkpt lat="42.71149" lon="1.65248">
        <ele>1435.8662109375</ele>
        <time>2014-06-14T12:26:35Z</time>
      </trkpt>
      <trkpt lat="42.71141" lon="1.65251">
        <ele>1433.462890625</ele>
        <time>2014-06-14T12:26:42Z</time>
      </trkpt>
      <trkpt lat="42.71138" lon="1.65257">
        <ele>1434.9050292969</ele>
        <time>2014-06-14T12:26:49Z</time>
      </trkpt>
      <trkpt lat="42.71134" lon="1.65259">
        <ele>1433.9436035156</ele>
        <time>2014-06-14T12:26:55Z</time>
      </trkpt>
      <trkpt lat="42.71131" lon="1.65261">
        <ele>1434.4243164062</ele>
        <time>2014-06-14T12:26:59Z</time>
      </trkpt>
      <trkpt lat="42.7113" lon="1.65269">
        <ele>1433.9436035156</ele>
        <time>2014-06-14T12:27:07Z</time>
      </trkpt>
      <trkpt lat="42.71124" lon="1.65273">
        <ele>1435.3854980469</ele>
        <time>2014-06-14T12:27:12Z</time>
      </trkpt>
      <trkpt lat="42.71123" lon="1.65276">
        <ele>1435.3854980469</ele>
        <time>2014-06-14T12:27:15Z</time>
      </trkpt>
      <trkpt lat="42.71123" lon="1.65281">
        <ele>1434.4243164062</ele>
        <time>2014-06-14T12:27:19Z</time>
      </trkpt>
      <trkpt lat="42.71124" lon="1.65283">
        <ele>1433.462890625</ele>
        <time>2014-06-14T12:27:21Z</time>
      </trkpt>
      <trkpt lat="42.71126" lon="1.65289">
        <ele>1432.9821777344</ele>
        <time>2014-06-14T12:27:26Z</time>
      </trkpt>
      <trkpt lat="42.71126" lon="1.65298">
        <ele>1433.9436035156</ele>
        <time>2014-06-14T12:27:32Z</time>
      </trkpt>
      <trkpt lat="42.71127" lon="1.65306">
        <ele>1434.9050292969</ele>
        <time>2014-06-14T12:27:37Z</time>
      </trkpt>
      <trkpt lat="42.71125" lon="1.65313">
        <ele>1435.3854980469</ele>
        <time>2014-06-14T12:27:43Z</time>
      </trkpt>
      <trkpt lat="42.71124" lon="1.65317">
        <ele>1432.9821777344</ele>
        <time>2014-06-14T12:27:48Z</time>
      </trkpt>
      <trkpt lat="42.71124" lon="1.65322">
        <ele>1430.0983886719</ele>
        <time>2014-06-14T12:27:52Z</time>
      </trkpt>
      <trkpt lat="42.71126" lon="1.6533">
        <ele>1430.0983886719</ele>
        <time>2014-06-14T12:27:57Z</time>
      </trkpt>
      <trkpt lat="42.71126" lon="1.65334">
        <ele>1428.6564941406</ele>
        <time>2014-06-14T12:28:00Z</time>
      </trkpt>
      <trkpt lat="42.71131" lon="1.65342">
        <ele>1429.1369628906</ele>
        <time>2014-06-14T12:28:05Z</time>
      </trkpt>
      <trkpt lat="42.71133" lon="1.65346">
        <ele>1428.17578125</ele>
        <time>2014-06-14T12:28:09Z</time>
      </trkpt>
      <trkpt lat="42.71138" lon="1.65348">
        <ele>1427.2145996094</ele>
        <time>2014-06-14T12:28:13Z</time>
      </trkpt>
      <trkpt lat="42.7114" lon="1.65356">
        <ele>1425.7724609375</ele>
        <time>2014-06-14T12:28:19Z</time>
      </trkpt>
      <trkpt lat="42.71138" lon="1.6536">
        <ele>1425.2917480469</ele>
        <time>2014-06-14T12:28:23Z</time>
      </trkpt>
      <trkpt lat="42.71136" lon="1.65367">
        <ele>1422.888671875</ele>
        <time>2014-06-14T12:28:30Z</time>
      </trkpt>
      <trkpt lat="42.71135" lon="1.65374">
        <ele>1424.3305664062</ele>
        <time>2014-06-14T12:28:35Z</time>
      </trkpt>
      <trkpt lat="42.71134" lon="1.6538">
        <ele>1424.3305664062</ele>
        <time>2014-06-14T12:28:41Z</time>
      </trkpt>
      <trkpt lat="42.71131" lon="1.65389">
        <ele>1424.8112792969</ele>
        <time>2014-06-14T12:28:48Z</time>
      </trkpt>
      <trkpt lat="42.71132" lon="1.65393">
        <ele>1421.9272460938</ele>
        <time>2014-06-14T12:28:52Z</time>
      </trkpt>
      <trkpt lat="42.71129" lon="1.65398">
        <ele>1420.4853515625</ele>
        <time>2014-06-14T12:28:57Z</time>
      </trkpt>
      <trkpt lat="42.71128" lon="1.65403">
        <ele>1420.0046386719</ele>
        <time>2014-06-14T12:29:03Z</time>
      </trkpt>
      <trkpt lat="42.71128" lon="1.65405">
        <ele>1419.5239257812</ele>
        <time>2014-06-14T12:29:04Z</time>
      </trkpt>
      <trkpt lat="42.71128" lon="1.65413">
        <ele>1419.5239257812</ele>
        <time>2014-06-14T12:29:11Z</time>
      </trkpt>
      <trkpt lat="42.7113" lon="1.65422">
        <ele>1419.0432128906</ele>
        <time>2014-06-14T12:29:17Z</time>
      </trkpt>
      <trkpt lat="42.71129" lon="1.65429">
        <ele>1418.0817871094</ele>
        <time>2014-06-14T12:29:23Z</time>
      </trkpt>
      <trkpt lat="42.71129" lon="1.65428">
        <ele>1417.6010742188</ele>
        <time>2014-06-14T12:29:29Z</time>
      </trkpt>
      <trkpt lat="42.71135" lon="1.65424">
        <ele>1421.4465332031</ele>
        <time>2014-06-14T12:30:20Z</time>
      </trkpt>
      <trkpt lat="42.71138" lon="1.65425">
        <ele>1421.4465332031</ele>
        <time>2014-06-14T12:30:40Z</time>
      </trkpt>
      <trkpt lat="42.71139" lon="1.6543">
        <ele>1421.4465332031</ele>
        <time>2014-06-14T12:30:44Z</time>
      </trkpt>
      <trkpt lat="42.71138" lon="1.65434">
        <ele>1418.0817871094</ele>
        <time>2014-06-14T12:30:50Z</time>
      </trkpt>
      <trkpt lat="42.71135" lon="1.65439">
        <ele>1415.1979980469</ele>
        <time>2014-06-14T12:30:58Z</time>
      </trkpt>
      <trkpt lat="42.71134" lon="1.65443">
        <ele>1415.1979980469</ele>
        <time>2014-06-14T12:31:03Z</time>
      </trkpt>
      <trkpt lat="42.71133" lon="1.6545">
        <ele>1415.6787109375</ele>
        <time>2014-06-14T12:31:10Z</time>
      </trkpt>
      <trkpt lat="42.71131" lon="1.65455">
        <ele>1415.6787109375</ele>
        <time>2014-06-14T12:31:15Z</time>
      </trkpt>
      <trkpt lat="42.7113" lon="1.6546">
        <ele>1414.2365722656</ele>
        <time>2014-06-14T12:31:20Z</time>
      </trkpt>
      <trkpt lat="42.71127" lon="1.65468">
        <ele>1412.3139648438</ele>
        <time>2014-06-14T12:31:26Z</time>
      </trkpt>
      <trkpt lat="42.71125" lon="1.65474">
        <ele>1411.3527832031</ele>
        <time>2014-06-14T12:31:31Z</time>
      </trkpt>
      <trkpt lat="42.71123" lon="1.65477">
        <ele>1410.8720703125</ele>
        <time>2014-06-14T12:31:33Z</time>
      </trkpt>
      <trkpt lat="42.71118" lon="1.65482">
        <ele>1409.9106445312</ele>
        <time>2014-06-14T12:31:38Z</time>
      </trkpt>
      <trkpt lat="42.71117" lon="1.65493">
        <ele>1407.0268554688</ele>
        <time>2014-06-14T12:31:48Z</time>
      </trkpt>
      <trkpt lat="42.71118" lon="1.65498">
        <ele>1406.5461425781</ele>
        <time>2014-06-14T12:31:51Z</time>
      </trkpt>
      <trkpt lat="42.71115" lon="1.65507">
        <ele>1408.46875</ele>
        <time>2014-06-14T12:31:56Z</time>
      </trkpt>
      <trkpt lat="42.71112" lon="1.6551">
        <ele>1407.0268554688</ele>
        <time>2014-06-14T12:32:00Z</time>
      </trkpt>
      <trkpt lat="42.71111" lon="1.65512">
        <ele>1406.5461425781</ele>
        <time>2014-06-14T12:32:02Z</time>
      </trkpt>
      <trkpt lat="42.71107" lon="1.65518">
        <ele>1404.6235351562</ele>
        <time>2014-06-14T12:32:07Z</time>
      </trkpt>
      <trkpt lat="42.71103" lon="1.65523">
        <ele>1403.662109375</ele>
        <time>2014-06-14T12:32:13Z</time>
      </trkpt>
      <trkpt lat="42.711" lon="1.65526">
        <ele>1403.1813964844</ele>
        <time>2014-06-14T12:32:17Z</time>
      </trkpt>
      <trkpt lat="42.71097" lon="1.65532">
        <ele>1403.1813964844</ele>
        <time>2014-06-14T12:32:22Z</time>
      </trkpt>
      <trkpt lat="42.71096" lon="1.65539">
        <ele>1399.8168945312</ele>
        <time>2014-06-14T12:32:28Z</time>
      </trkpt>
      <trkpt lat="42.71094" lon="1.65545">
        <ele>1394.5295410156</ele>
        <time>2014-06-14T12:32:36Z</time>
      </trkpt>
      <trkpt lat="42.71089" lon="1.65551">
        <ele>1391.6457519531</ele>
        <time>2014-06-14T12:32:42Z</time>
      </trkpt>
      <trkpt lat="42.7109" lon="1.65556">
        <ele>1390.6843261719</ele>
        <time>2014-06-14T12:32:48Z</time>
      </trkpt>
      <trkpt lat="42.7109" lon="1.65565">
        <ele>1394.5295410156</ele>
        <time>2014-06-14T12:32:56Z</time>
      </trkpt>
      <trkpt lat="42.7109" lon="1.65569">
        <ele>1394.0490722656</ele>
        <time>2014-06-14T12:33:00Z</time>
      </trkpt>
      <trkpt lat="42.71091" lon="1.65571">
        <ele>1394.0490722656</ele>
        <time>2014-06-14T12:33:05Z</time>
      </trkpt>
      <trkpt lat="42.71093" lon="1.65574">
        <ele>1392.1264648438</ele>
        <time>2014-06-14T12:33:14Z</time>
      </trkpt>
      <trkpt lat="42.71095" lon="1.65577">
        <ele>1392.1264648438</ele>
        <time>2014-06-14T12:33:20Z</time>
      </trkpt>
      <trkpt lat="42.71093" lon="1.6558">
        <ele>1388.7619628906</ele>
        <time>2014-06-14T12:33:23Z</time>
      </trkpt>
      <trkpt lat="42.71093" lon="1.65584">
        <ele>1385.8776855469</ele>
        <time>2014-06-14T12:33:29Z</time>
      </trkpt>
      <trkpt lat="42.71091" lon="1.65589">
        <ele>1382.5131835938</ele>
        <time>2014-06-14T12:33:35Z</time>
      </trkpt>
      <trkpt lat="42.7109" lon="1.65591">
        <ele>1381.0712890625</ele>
        <time>2014-06-14T12:33:40Z</time>
      </trkpt>
      <trkpt lat="42.71087" lon="1.65594">
        <ele>1380.1098632812</ele>
        <time>2014-06-14T12:33:47Z</time>
      </trkpt>
      <trkpt lat="42.71087" lon="1.65596">
        <ele>1380.5905761719</ele>
        <time>2014-06-14T12:33:53Z</time>
      </trkpt>
      <trkpt lat="42.7109" lon="1.65599">
        <ele>1380.1098632812</ele>
        <time>2014-06-14T12:33:58Z</time>
      </trkpt>
      <trkpt lat="42.71091" lon="1.656">
        <ele>1379.6291503906</ele>
        <time>2014-06-14T12:34:04Z</time>
      </trkpt>
      <trkpt lat="42.71093" lon="1.65602">
        <ele>1378.66796875</ele>
        <time>2014-06-14T12:34:09Z</time>
      </trkpt>
      <trkpt lat="42.71092" lon="1.65608">
        <ele>1379.6291503906</ele>
        <time>2014-06-14T12:34:14Z</time>
      </trkpt>
      <trkpt lat="42.7109" lon="1.65609">
        <ele>1378.66796875</ele>
        <time>2014-06-14T12:34:18Z</time>
      </trkpt>
      <trkpt lat="42.71088" lon="1.65609">
        <ele>1378.1872558594</ele>
        <time>2014-06-14T12:34:25Z</time>
      </trkpt>
      <trkpt lat="42.7109" lon="1.65613">
        <ele>1378.1872558594</ele>
        <time>2014-06-14T12:34:33Z</time>
      </trkpt>
      <trkpt lat="42.7109" lon="1.65615">
        <ele>1374.8227539062</ele>
        <time>2014-06-14T12:34:41Z</time>
      </trkpt>
      <trkpt lat="42.71087" lon="1.65617">
        <ele>1371.9384765625</ele>
        <time>2014-06-14T12:34:46Z</time>
      </trkpt>
      <trkpt lat="42.71086" lon="1.65619">
        <ele>1372.9001464844</ele>
        <time>2014-06-14T12:34:51Z</time>
      </trkpt>
      <trkpt lat="42.71087" lon="1.65623">
        <ele>1377.2260742188</ele>
        <time>2014-06-14T12:35:05Z</time>
      </trkpt>
      <trkpt lat="42.71088" lon="1.65624">
        <ele>1371.9384765625</ele>
        <time>2014-06-14T12:35:14Z</time>
      </trkpt>
      <trkpt lat="42.71092" lon="1.65626">
        <ele>1370.0158691406</ele>
        <time>2014-06-14T12:35:20Z</time>
      </trkpt>
      <trkpt lat="42.71091" lon="1.65629">
        <ele>1368.5739746094</ele>
        <time>2014-06-14T12:35:24Z</time>
      </trkpt>
      <trkpt lat="42.7109" lon="1.65631">
        <ele>1367.1320800781</ele>
        <time>2014-06-14T12:35:29Z</time>
      </trkpt>
      <trkpt lat="42.71088" lon="1.65636">
        <ele>1366.6513671875</ele>
        <time>2014-06-14T12:35:36Z</time>
      </trkpt>
      <trkpt lat="42.71089" lon="1.6564">
        <ele>1366.1706542969</ele>
        <time>2014-06-14T12:35:42Z</time>
      </trkpt>
      <trkpt lat="42.71088" lon="1.65643">
        <ele>1366.1706542969</ele>
        <time>2014-06-14T12:35:46Z</time>
      </trkpt>
      <trkpt lat="42.71085" lon="1.65646">
        <ele>1365.2094726562</ele>
        <time>2014-06-14T12:35:52Z</time>
      </trkpt>
      <trkpt lat="42.71082" lon="1.65654">
        <ele>1364.7287597656</ele>
        <time>2014-06-14T12:35:59Z</time>
      </trkpt>
      <trkpt lat="42.71077" lon="1.65661">
        <ele>1368.0932617188</ele>
        <time>2014-06-14T12:36:05Z</time>
      </trkpt>
      <trkpt lat="42.71076" lon="1.65664">
        <ele>1366.1706542969</ele>
        <time>2014-06-14T12:36:11Z</time>
      </trkpt>
      <trkpt lat="42.71077" lon="1.65667">
        <ele>1365.2094726562</ele>
        <time>2014-06-14T12:36:15Z</time>
      </trkpt>
      <trkpt lat="42.71078" lon="1.65671">
        <ele>1363.2868652344</ele>
        <time>2014-06-14T12:36:20Z</time>
      </trkpt>
      <trkpt lat="42.71081" lon="1.65685">
        <ele>1360.4028320312</ele>
        <time>2014-06-14T12:36:33Z</time>
      </trkpt>
      <trkpt lat="42.7108" lon="1.65695">
        <ele>1361.3642578125</ele>
        <time>2014-06-14T12:36:41Z</time>
      </trkpt>
      <trkpt lat="42.7108" lon="1.65699">
        <ele>1359.4416503906</ele>
        <time>2014-06-14T12:36:45Z</time>
      </trkpt>
      <trkpt lat="42.71083" lon="1.65703">
        <ele>1358.9609375</ele>
        <time>2014-06-14T12:36:49Z</time>
      </trkpt>
      <trkpt lat="42.71087" lon="1.6571">
        <ele>1358.4802246094</ele>
        <time>2014-06-14T12:36:57Z</time>
      </trkpt>
      <trkpt lat="42.71088" lon="1.65714">
        <ele>1354.154296875</ele>
        <time>2014-06-14T12:37:05Z</time>
      </trkpt>
      <trkpt lat="42.71088" lon="1.65718">
        <ele>1352.7121582031</ele>
        <time>2014-06-14T12:37:09Z</time>
      </trkpt>
      <trkpt lat="42.7109" lon="1.65723">
        <ele>1353.1928710938</ele>
        <time>2014-06-14T12:37:13Z</time>
      </trkpt>
      <trkpt lat="42.71089" lon="1.65727">
        <ele>1351.7509765625</ele>
        <time>2014-06-14T12:37:17Z</time>
      </trkpt>
      <trkpt lat="42.7109" lon="1.65732">
        <ele>1351.2702636719</ele>
        <time>2014-06-14T12:37:23Z</time>
      </trkpt>
      <trkpt lat="42.71091" lon="1.65736">
        <ele>1350.7895507812</ele>
        <time>2014-06-14T12:37:27Z</time>
      </trkpt>
      <trkpt lat="42.71095" lon="1.65751">
        <ele>1349.8283691406</ele>
        <time>2014-06-14T12:37:41Z</time>
      </trkpt>
      <trkpt lat="42.71096" lon="1.65753">
        <ele>1349.34765625</ele>
        <time>2014-06-14T12:37:42Z</time>
      </trkpt>
      <trkpt lat="42.71094" lon="1.65758">
        <ele>1346.4638671875</ele>
        <time>2014-06-14T12:37:49Z</time>
      </trkpt>
      <trkpt lat="42.71091" lon="1.65761">
        <ele>1343.0991210938</ele>
        <time>2014-06-14T12:37:57Z</time>
      </trkpt>
      <trkpt lat="42.71093" lon="1.65767">
        <ele>1342.1379394531</ele>
        <time>2014-06-14T12:38:02Z</time>
      </trkpt>
      <trkpt lat="42.71092" lon="1.65771">
        <ele>1341.1765136719</ele>
        <time>2014-06-14T12:38:08Z</time>
      </trkpt>
      <trkpt lat="42.71092" lon="1.65778">
        <ele>1340.6958007812</ele>
        <time>2014-06-14T12:38:13Z</time>
      </trkpt>
      <trkpt lat="42.71092" lon="1.65787">
        <ele>1340.6958007812</ele>
        <time>2014-06-14T12:38:17Z</time>
      </trkpt>
      <trkpt lat="42.71091" lon="1.65791">
        <ele>1341.6572265625</ele>
        <time>2014-06-14T12:38:19Z</time>
      </trkpt>
      <trkpt lat="42.71091" lon="1.65794">
        <ele>1340.2153320312</ele>
        <time>2014-06-14T12:38:22Z</time>
      </trkpt>
      <trkpt lat="42.71088" lon="1.65802">
        <ele>1337.3310546875</ele>
        <time>2014-06-14T12:38:28Z</time>
      </trkpt>
      <trkpt lat="42.7109" lon="1.65807">
        <ele>1336.8503417969</ele>
        <time>2014-06-14T12:38:32Z</time>
      </trkpt>
      <trkpt lat="42.71091" lon="1.65812">
        <ele>1333.4858398438</ele>
        <time>2014-06-14T12:38:36Z</time>
      </trkpt>
      <trkpt lat="42.71091" lon="1.65813">
        <ele>1333.4858398438</ele>
        <time>2014-06-14T12:38:37Z</time>
      </trkpt>
      <trkpt lat="42.7109" lon="1.65826">
        <ele>1332.0439453125</ele>
        <time>2014-06-14T12:38:46Z</time>
      </trkpt>
      <trkpt lat="42.71089" lon="1.65829">
        <ele>1330.6020507812</ele>
        <time>2014-06-14T12:38:51Z</time>
      </trkpt>
      <trkpt lat="42.71087" lon="1.65832">
        <ele>1332.0439453125</ele>
        <time>2014-06-14T12:38:56Z</time>
      </trkpt>
      <trkpt lat="42.71086" lon="1.65836">
        <ele>1330.6020507812</ele>
        <time>2014-06-14T12:39:02Z</time>
      </trkpt>
      <trkpt lat="42.71082" lon="1.65838">
        <ele>1328.1987304688</ele>
        <time>2014-06-14T12:39:07Z</time>
      </trkpt>
      <trkpt lat="42.71079" lon="1.6584">
        <ele>1326.2761230469</ele>
        <time>2014-06-14T12:39:11Z</time>
      </trkpt>
      <trkpt lat="42.71077" lon="1.65847">
        <ele>1324.353515625</ele>
        <time>2014-06-14T12:39:17Z</time>
      </trkpt>
      <trkpt lat="42.71075" lon="1.65851">
        <ele>1321.4692382812</ele>
        <time>2014-06-14T12:39:24Z</time>
      </trkpt>
      <trkpt lat="42.71078" lon="1.65853">
        <ele>1321.4692382812</ele>
        <time>2014-06-14T12:39:29Z</time>
      </trkpt>
      <trkpt lat="42.7108" lon="1.65855">
        <ele>1323.3920898438</ele>
        <time>2014-06-14T12:39:33Z</time>
      </trkpt>
      <trkpt lat="42.71081" lon="1.65856">
        <ele>1324.353515625</ele>
        <time>2014-06-14T12:39:35Z</time>
      </trkpt>
      <trkpt lat="42.71085" lon="1.65859">
        <ele>1324.8342285156</ele>
        <time>2014-06-14T12:39:41Z</time>
      </trkpt>
      <trkpt lat="42.71087" lon="1.65862">
        <ele>1327.7180175781</ele>
        <time>2014-06-14T12:39:47Z</time>
      </trkpt>
      <trkpt lat="42.71093" lon="1.65868">
        <ele>1325.7954101562</ele>
        <time>2014-06-14T12:39:55Z</time>
      </trkpt>
      <trkpt lat="42.71098" lon="1.6587">
        <ele>1323.3920898438</ele>
        <time>2014-06-14T12:40:00Z</time>
      </trkpt>
      <trkpt lat="42.71101" lon="1.65874">
        <ele>1319.546875</ele>
        <time>2014-06-14T12:40:05Z</time>
      </trkpt>
      <trkpt lat="42.71106" lon="1.65878">
        <ele>1318.1047363281</ele>
        <time>2014-06-14T12:40:11Z</time>
      </trkpt>
      <trkpt lat="42.71109" lon="1.65881">
        <ele>1316.1821289062</ele>
        <time>2014-06-14T12:40:15Z</time>
      </trkpt>
      <trkpt lat="42.71112" lon="1.65885">
        <ele>1315.2209472656</ele>
        <time>2014-06-14T12:40:18Z</time>
      </trkpt>
      <trkpt lat="42.71111" lon="1.65888">
        <ele>1311.3757324219</ele>
        <time>2014-06-14T12:40:24Z</time>
      </trkpt>
      <trkpt lat="42.71107" lon="1.65889">
        <ele>1308.0112304688</ele>
        <time>2014-06-14T12:40:32Z</time>
      </trkpt>
      <trkpt lat="42.71104" lon="1.65888">
        <ele>1306.5688476562</ele>
        <time>2014-06-14T12:40:38Z</time>
      </trkpt>
      <trkpt lat="42.71101" lon="1.65892">
        <ele>1305.126953125</ele>
        <time>2014-06-14T12:40:45Z</time>
      </trkpt>
      <trkpt lat="42.71099" lon="1.65895">
        <ele>1304.6462402344</ele>
        <time>2014-06-14T12:40:51Z</time>
      </trkpt>
      <trkpt lat="42.71096" lon="1.65899">
        <ele>1299.3591308594</ele>
        <time>2014-06-14T12:41:03Z</time>
      </trkpt>
      <trkpt lat="42.71094" lon="1.65903">
        <ele>1297.9172363281</ele>
        <time>2014-06-14T12:41:10Z</time>
      </trkpt>
      <trkpt lat="42.71094" lon="1.65907">
        <ele>1296.4753417969</ele>
        <time>2014-06-14T12:41:16Z</time>
      </trkpt>
      <trkpt lat="42.71093" lon="1.6591">
        <ele>1297.4365234375</ele>
        <time>2014-06-14T12:41:22Z</time>
      </trkpt>
      <trkpt lat="42.71097" lon="1.65913">
        <ele>1295.9946289062</ele>
        <time>2014-06-14T12:41:29Z</time>
      </trkpt>
      <trkpt lat="42.71101" lon="1.65919">
        <ele>1289.7458496094</ele>
        <time>2014-06-14T12:41:40Z</time>
      </trkpt>
      <trkpt lat="42.71102" lon="1.65922">
        <ele>1289.2651367188</ele>
        <time>2014-06-14T12:41:45Z</time>
      </trkpt>
      <trkpt lat="42.71105" lon="1.65925">
        <ele>1290.2265625</ele>
        <time>2014-06-14T12:41:51Z</time>
      </trkpt>
      <trkpt lat="42.71112" lon="1.65926">
        <ele>1287.8232421875</ele>
        <time>2014-06-14T12:41:57Z</time>
      </trkpt>
      <trkpt lat="42.71114" lon="1.65928">
        <ele>1286.3813476562</ele>
        <time>2014-06-14T12:42:02Z</time>
      </trkpt>
      <trkpt lat="42.71115" lon="1.65931">
        <ele>1284.4587402344</ele>
        <time>2014-06-14T12:42:08Z</time>
      </trkpt>
      <trkpt lat="42.71118" lon="1.65933">
        <ele>1281.0942382812</ele>
        <time>2014-06-14T12:42:15Z</time>
      </trkpt>
      <trkpt lat="42.71121" lon="1.65934">
        <ele>1282.0554199219</ele>
        <time>2014-06-14T12:42:22Z</time>
      </trkpt>
      <trkpt lat="42.71122" lon="1.65938">
        <ele>1283.0166015625</ele>
        <time>2014-06-14T12:42:29Z</time>
      </trkpt>
      <trkpt lat="42.71122" lon="1.65941">
        <ele>1283.4973144531</ele>
        <time>2014-06-14T12:42:34Z</time>
      </trkpt>
      <trkpt lat="42.71121" lon="1.65941">
        <ele>1283.4973144531</ele>
        <time>2014-06-14T12:42:35Z</time>
      </trkpt>
      <trkpt lat="42.71122" lon="1.65941">
        <ele>1280.1328125</ele>
        <time>2014-06-14T12:42:42Z</time>
      </trkpt>
      <trkpt lat="42.71126" lon="1.65942">
        <ele>1277.2490234375</ele>
        <time>2014-06-14T12:42:48Z</time>
      </trkpt>
      <trkpt lat="42.71127" lon="1.65946">
        <ele>1274.3647460938</ele>
        <time>2014-06-14T12:42:55Z</time>
      </trkpt>
      <trkpt lat="42.71128" lon="1.65949">
        <ele>1272.9228515625</ele>
        <time>2014-06-14T12:43:00Z</time>
      </trkpt>
      <trkpt lat="42.71132" lon="1.65952">
        <ele>1271.4807128906</ele>
        <time>2014-06-14T12:43:08Z</time>
      </trkpt>
      <trkpt lat="42.71134" lon="1.65954">
        <ele>1271.0002441406</ele>
        <time>2014-06-14T12:43:12Z</time>
      </trkpt>
      <trkpt lat="42.71134" lon="1.65958">
        <ele>1268.1162109375</ele>
        <time>2014-06-14T12:43:18Z</time>
      </trkpt>
      <trkpt lat="42.71134" lon="1.65958">
        <ele>1266.6743164062</ele>
        <time>2014-06-14T12:43:20Z</time>
      </trkpt>
      <trkpt lat="42.71138" lon="1.65962">
        <ele>1269.0776367188</ele>
        <time>2014-06-14T12:43:26Z</time>
      </trkpt>
      <trkpt lat="42.71141" lon="1.65964">
        <ele>1269.0776367188</ele>
        <time>2014-06-14T12:43:30Z</time>
      </trkpt>
      <trkpt lat="42.71145" lon="1.65966">
        <ele>1266.1936035156</ele>
        <time>2014-06-14T12:43:34Z</time>
      </trkpt>
      <trkpt lat="42.71146" lon="1.65974">
        <ele>1264.2709960938</ele>
        <time>2014-06-14T12:43:40Z</time>
      </trkpt>
      <trkpt lat="42.71149" lon="1.65977">
        <ele>1262.8291015625</ele>
        <time>2014-06-14T12:43:43Z</time>
      </trkpt>
      <trkpt lat="42.71157" lon="1.65975">
        <ele>1258.0224609375</ele>
        <time>2014-06-14T12:43:50Z</time>
      </trkpt>
      <trkpt lat="42.7116" lon="1.65974">
        <ele>1257.5417480469</ele>
        <time>2014-06-14T12:43:53Z</time>
      </trkpt>
      <trkpt lat="42.71172" lon="1.65976">
        <ele>1254.6577148438</ele>
        <time>2014-06-14T12:44:00Z</time>
      </trkpt>
      <trkpt lat="42.71178" lon="1.65976">
        <ele>1252.7351074219</ele>
        <time>2014-06-14T12:44:06Z</time>
      </trkpt>
      <trkpt lat="42.71183" lon="1.65977">
        <ele>1247.9287109375</ele>
        <time>2014-06-14T12:44:12Z</time>
      </trkpt>
      <trkpt lat="42.71186" lon="1.65979">
        <ele>1245.0446777344</ele>
        <time>2014-06-14T12:44:15Z</time>
      </trkpt>
      <trkpt lat="42.71191" lon="1.65981">
        <ele>1244.5639648438</ele>
        <time>2014-06-14T12:44:20Z</time>
      </trkpt>
      <trkpt lat="42.71196" lon="1.65982">
        <ele>1246.0061035156</ele>
        <time>2014-06-14T12:44:25Z</time>
      </trkpt>
      <trkpt lat="42.71198" lon="1.65984">
        <ele>1245.525390625</ele>
        <time>2014-06-14T12:44:29Z</time>
      </trkpt>
      <trkpt lat="42.71198" lon="1.65988">
        <ele>1243.6025390625</ele>
        <time>2014-06-14T12:44:35Z</time>
      </trkpt>
      <trkpt lat="42.71198" lon="1.65992">
        <ele>1240.7185058594</ele>
        <time>2014-06-14T12:44:44Z</time>
      </trkpt>
      <trkpt lat="42.71202" lon="1.65994">
        <ele>1239.7573242188</ele>
        <time>2014-06-14T12:44:56Z</time>
      </trkpt>
      <trkpt lat="42.71204" lon="1.65997">
        <ele>1240.2380371094</ele>
        <time>2014-06-14T12:44:59Z</time>
      </trkpt>
      <trkpt lat="42.71207" lon="1.65999">
        <ele>1237.8347167969</ele>
        <time>2014-06-14T12:45:04Z</time>
      </trkpt>
      <trkpt lat="42.71206" lon="1.66003">
        <ele>1235.4313964844</ele>
        <time>2014-06-14T12:45:07Z</time>
      </trkpt>
      <trkpt lat="42.71202" lon="1.66007">
        <ele>1233.5087890625</ele>
        <time>2014-06-14T12:45:10Z</time>
      </trkpt>
      <trkpt lat="42.71199" lon="1.6601">
        <ele>1231.1057128906</ele>
        <time>2014-06-14T12:45:14Z</time>
      </trkpt>
      <trkpt lat="42.71198" lon="1.66014">
        <ele>1225.8181152344</ele>
        <time>2014-06-14T12:45:20Z</time>
      </trkpt>
      <trkpt lat="42.71196" lon="1.66025">
        <ele>1220.0502929688</ele>
        <time>2014-06-14T12:45:31Z</time>
      </trkpt>
      <trkpt lat="42.71192" lon="1.66029">
        <ele>1218.6083984375</ele>
        <time>2014-06-14T12:45:35Z</time>
      </trkpt>
      <trkpt lat="42.71196" lon="1.66037">
        <ele>1218.1276855469</ele>
        <time>2014-06-14T12:45:46Z</time>
      </trkpt>
      <trkpt lat="42.71198" lon="1.66044">
        <ele>1212.3598632812</ele>
        <time>2014-06-14T12:45:53Z</time>
      </trkpt>
      <trkpt lat="42.712" lon="1.66046">
        <ele>1208.9951171875</ele>
        <time>2014-06-14T12:45:56Z</time>
      </trkpt>
      <trkpt lat="42.71202" lon="1.6605">
        <ele>1205.6306152344</ele>
        <time>2014-06-14T12:46:00Z</time>
      </trkpt>
      <trkpt lat="42.71202" lon="1.66057">
        <ele>1204.1887207031</ele>
        <time>2014-06-14T12:46:08Z</time>
      </trkpt>
      <trkpt lat="42.71204" lon="1.66062">
        <ele>1203.7080078125</ele>
        <time>2014-06-14T12:46:13Z</time>
      </trkpt>
      <trkpt lat="42.71204" lon="1.66067">
        <ele>1203.2272949219</ele>
        <time>2014-06-14T12:46:18Z</time>
      </trkpt>
      <trkpt lat="42.71203" lon="1.66069">
        <ele>1201.3046875</ele>
        <time>2014-06-14T12:46:22Z</time>
      </trkpt>
      <trkpt lat="42.71201" lon="1.66073">
        <ele>1199.8627929688</ele>
        <time>2014-06-14T12:46:27Z</time>
      </trkpt>
      <trkpt lat="42.71198" lon="1.66079">
        <ele>1198.9013671875</ele>
        <time>2014-06-14T12:46:33Z</time>
      </trkpt>
      <trkpt lat="42.71196" lon="1.66082">
        <ele>1198.4206542969</ele>
        <time>2014-06-14T12:46:37Z</time>
      </trkpt>
      <trkpt lat="42.71193" lon="1.66083">
        <ele>1197.4594726562</ele>
        <time>2014-06-14T12:46:42Z</time>
      </trkpt>
      <trkpt lat="42.71194" lon="1.66087">
        <ele>1195.0559082031</ele>
        <time>2014-06-14T12:46:47Z</time>
      </trkpt>
      <trkpt lat="42.71199" lon="1.6609">
        <ele>1193.1333007812</ele>
        <time>2014-06-14T12:46:52Z</time>
      </trkpt>
      <trkpt lat="42.71203" lon="1.6609">
        <ele>1191.69140625</ele>
        <time>2014-06-14T12:46:56Z</time>
      </trkpt>
      <trkpt lat="42.71211" lon="1.66093">
        <ele>1190.7299804688</ele>
        <time>2014-06-14T12:47:09Z</time>
      </trkpt>
      <trkpt lat="42.71214" lon="1.66097">
        <ele>1189.7687988281</ele>
        <time>2014-06-14T12:47:16Z</time>
      </trkpt>
      <trkpt lat="42.71214" lon="1.66102">
        <ele>1187.3654785156</ele>
        <time>2014-06-14T12:47:21Z</time>
      </trkpt>
      <trkpt lat="42.71213" lon="1.66107">
        <ele>1185.9235839844</ele>
        <time>2014-06-14T12:47:26Z</time>
      </trkpt>
      <trkpt lat="42.71214" lon="1.66113">
        <ele>1182.5590820312</ele>
        <time>2014-06-14T12:47:35Z</time>
      </trkpt>
      <trkpt lat="42.71214" lon="1.66117">
        <ele>1181.1171875</ele>
        <time>2014-06-14T12:47:41Z</time>
      </trkpt>
      <trkpt lat="42.71215" lon="1.66122">
        <ele>1179.6748046875</ele>
        <time>2014-06-14T12:47:47Z</time>
      </trkpt>
      <trkpt lat="42.71216" lon="1.66127">
        <ele>1176.3103027344</ele>
        <time>2014-06-14T12:47:52Z</time>
      </trkpt>
      <trkpt lat="42.71214" lon="1.66134">
        <ele>1173.4265136719</ele>
        <time>2014-06-14T12:47:57Z</time>
      </trkpt>
      <trkpt lat="42.71216" lon="1.66137">
        <ele>1172.4650878906</ele>
        <time>2014-06-14T12:48:03Z</time>
      </trkpt>
      <trkpt lat="42.71218" lon="1.66141">
        <ele>1172.9458007812</ele>
        <time>2014-06-14T12:48:09Z</time>
      </trkpt>
      <trkpt lat="42.71223" lon="1.66143">
        <ele>1172.9458007812</ele>
        <time>2014-06-14T12:48:14Z</time>
      </trkpt>
      <trkpt lat="42.71224" lon="1.66146">
        <ele>1172.9458007812</ele>
        <time>2014-06-14T12:48:17Z</time>
      </trkpt>
      <trkpt lat="42.71223" lon="1.66156">
        <ele>1173.4265136719</ele>
        <time>2014-06-14T12:48:24Z</time>
      </trkpt>
      <trkpt lat="42.71222" lon="1.66158">
        <ele>1172.9458007812</ele>
        <time>2014-06-14T12:48:25Z</time>
      </trkpt>
      <trkpt lat="42.71221" lon="1.66164">
        <ele>1172.4650878906</ele>
        <time>2014-06-14T12:48:31Z</time>
      </trkpt>
      <trkpt lat="42.71221" lon="1.66168">
        <ele>1172.4650878906</ele>
        <time>2014-06-14T12:48:36Z</time>
      </trkpt>
      <trkpt lat="42.71225" lon="1.66169">
        <ele>1171.5036621094</ele>
        <time>2014-06-14T12:48:41Z</time>
      </trkpt>
      <trkpt lat="42.71228" lon="1.66168">
        <ele>1171.984375</ele>
        <time>2014-06-14T12:48:45Z</time>
      </trkpt>
      <trkpt lat="42.71232" lon="1.66172">
        <ele>1166.2165527344</ele>
        <time>2014-06-14T12:48:50Z</time>
      </trkpt>
      <trkpt lat="42.71233" lon="1.66175">
        <ele>1166.697265625</ele>
        <time>2014-06-14T12:48:56Z</time>
      </trkpt>
      <trkpt lat="42.71236" lon="1.66179">
        <ele>1164.7746582031</ele>
        <time>2014-06-14T12:49:01Z</time>
      </trkpt>
      <trkpt lat="42.71236" lon="1.66182">
        <ele>1161.4099121094</ele>
        <time>2014-06-14T12:49:06Z</time>
      </trkpt>
      <trkpt lat="42.71237" lon="1.66185">
        <ele>1160.9291992188</ele>
        <time>2014-06-14T12:49:08Z</time>
      </trkpt>
      <trkpt lat="42.71237" lon="1.66191">
        <ele>1159.0065917969</ele>
        <time>2014-06-14T12:49:14Z</time>
      </trkpt>
      <trkpt lat="42.71236" lon="1.66195">
        <ele>1155.6420898438</ele>
        <time>2014-06-14T12:49:18Z</time>
      </trkpt>
      <trkpt lat="42.71237" lon="1.662">
        <ele>1154.6806640625</ele>
        <time>2014-06-14T12:49:22Z</time>
      </trkpt>
      <trkpt lat="42.71237" lon="1.66205">
        <ele>1153.2387695312</ele>
        <time>2014-06-14T12:49:27Z</time>
      </trkpt>
      <trkpt lat="42.71239" lon="1.6621">
        <ele>1149.3935546875</ele>
        <time>2014-06-14T12:49:35Z</time>
      </trkpt>
      <trkpt lat="42.71245" lon="1.66214">
        <ele>1146.5095214844</ele>
        <time>2014-06-14T12:49:42Z</time>
      </trkpt>
      <trkpt lat="42.71247" lon="1.66219">
        <ele>1146.5095214844</ele>
        <time>2014-06-14T12:49:46Z</time>
      </trkpt>
      <trkpt lat="42.71249" lon="1.66223">
        <ele>1146.9899902344</ele>
        <time>2014-06-14T12:49:50Z</time>
      </trkpt>
      <trkpt lat="42.71251" lon="1.66229">
        <ele>1146.5095214844</ele>
        <time>2014-06-14T12:49:55Z</time>
      </trkpt>
      <trkpt lat="42.71251" lon="1.66235">
        <ele>1148.4321289062</ele>
        <time>2014-06-14T12:49:59Z</time>
      </trkpt>
      <trkpt lat="42.71249" lon="1.66239">
        <ele>1147.470703125</ele>
        <time>2014-06-14T12:50:03Z</time>
      </trkpt>
      <trkpt lat="42.71248" lon="1.66246">
        <ele>1145.5480957031</ele>
        <time>2014-06-14T12:50:08Z</time>
      </trkpt>
      <trkpt lat="42.71259" lon="1.66251">
        <ele>1136.8962402344</ele>
        <time>2014-06-14T12:50:22Z</time>
      </trkpt>
      <trkpt lat="42.71268" lon="1.66254">
        <ele>1133.0510253906</ele>
        <time>2014-06-14T12:50:28Z</time>
      </trkpt>
      <trkpt lat="42.71268" lon="1.66255">
        <ele>1133.5317382812</ele>
        <time>2014-06-14T12:50:29Z</time>
      </trkpt>
      <trkpt lat="42.71267" lon="1.66261">
        <ele>1133.5317382812</ele>
        <time>2014-06-14T12:50:34Z</time>
      </trkpt>
      <trkpt lat="42.71272" lon="1.66263">
        <ele>1132.08984375</ele>
        <time>2014-06-14T12:50:38Z</time>
      </trkpt>
      <trkpt lat="42.71276" lon="1.66268">
        <ele>1130.1669921875</ele>
        <time>2014-06-14T12:50:43Z</time>
      </trkpt>
      <trkpt lat="42.71274" lon="1.66273">
        <ele>1129.6862792969</ele>
        <time>2014-06-14T12:50:47Z</time>
      </trkpt>
      <trkpt lat="42.71273" lon="1.66281">
        <ele>1129.2055664062</ele>
        <time>2014-06-14T12:50:52Z</time>
      </trkpt>
      <trkpt lat="42.71272" lon="1.66292">
        <ele>1128.2443847656</ele>
        <time>2014-06-14T12:50:58Z</time>
      </trkpt>
      <trkpt lat="42.71274" lon="1.66301">
        <ele>1126.8024902344</ele>
        <time>2014-06-14T12:51:05Z</time>
      </trkpt>
      <trkpt lat="42.71272" lon="1.66306">
        <ele>1126.3217773438</ele>
        <time>2014-06-14T12:51:10Z</time>
      </trkpt>
      <trkpt lat="42.71271" lon="1.66308">
        <ele>1125.3603515625</ele>
        <time>2014-06-14T12:51:14Z</time>
      </trkpt>
      <trkpt lat="42.71269" lon="1.66313">
        <ele>1122.9572753906</ele>
        <time>2014-06-14T12:51:20Z</time>
      </trkpt>
      <trkpt lat="42.7127" lon="1.66317">
        <ele>1121.0346679688</ele>
        <time>2014-06-14T12:51:24Z</time>
      </trkpt>
      <trkpt lat="42.71271" lon="1.66321">
        <ele>1119.5927734375</ele>
        <time>2014-06-14T12:51:31Z</time>
      </trkpt>
      <trkpt lat="42.71272" lon="1.66324">
        <ele>1118.6313476562</ele>
        <time>2014-06-14T12:51:36Z</time>
      </trkpt>
      <trkpt lat="42.71269" lon="1.66329">
        <ele>1116.2280273438</ele>
        <time>2014-06-14T12:51:44Z</time>
      </trkpt>
      <trkpt lat="42.71267" lon="1.66335">
        <ele>1114.7858886719</ele>
        <time>2014-06-14T12:51:52Z</time>
      </trkpt>
      <trkpt lat="42.71266" lon="1.66341">
        <ele>1114.3051757812</ele>
        <time>2014-06-14T12:51:57Z</time>
      </trkpt>
      <trkpt lat="42.71267" lon="1.66346">
        <ele>1111.4213867188</ele>
        <time>2014-06-14T12:52:01Z</time>
      </trkpt>
      <trkpt lat="42.7127" lon="1.6635">
        <ele>1109.9792480469</ele>
        <time>2014-06-14T12:52:06Z</time>
      </trkpt>
      <trkpt lat="42.71273" lon="1.66351">
        <ele>1110.4599609375</ele>
        <time>2014-06-14T12:52:11Z</time>
      </trkpt>
      <trkpt lat="42.71272" lon="1.66346">
        <ele>1107.576171875</ele>
        <time>2014-06-14T12:52:16Z</time>
      </trkpt>
      <trkpt lat="42.71274" lon="1.66344">
        <ele>1103.7309570312</ele>
        <time>2014-06-14T12:52:22Z</time>
      </trkpt>
      <trkpt lat="42.71281" lon="1.6634">
        <ele>1102.76953125</ele>
        <time>2014-06-14T12:52:37Z</time>
      </trkpt>
      <trkpt lat="42.71284" lon="1.6634">
        <ele>1102.2888183594</ele>
        <time>2014-06-14T12:52:42Z</time>
      </trkpt>
      <trkpt lat="42.71287" lon="1.66342">
        <ele>1103.7309570312</ele>
        <time>2014-06-14T12:52:47Z</time>
      </trkpt>
      <trkpt lat="42.71291" lon="1.66349">
        <ele>1101.8083496094</ele>
        <time>2014-06-14T12:52:59Z</time>
      </trkpt>
      <trkpt lat="42.71294" lon="1.66354">
        <ele>1101.8083496094</ele>
        <time>2014-06-14T12:53:06Z</time>
      </trkpt>
      <trkpt lat="42.71292" lon="1.66355">
        <ele>1106.6147460938</ele>
        <time>2014-06-14T12:53:12Z</time>
      </trkpt>
      <trkpt lat="42.71292" lon="1.66359">
        <ele>1109.4987792969</ele>
        <time>2014-06-14T12:53:17Z</time>
      </trkpt>
      <trkpt lat="42.7129" lon="1.66365">
        <ele>1111.4213867188</ele>
        <time>2014-06-14T12:53:25Z</time>
      </trkpt>
      <trkpt lat="42.71288" lon="1.66369">
        <ele>1110.4599609375</ele>
        <time>2014-06-14T12:53:32Z</time>
      </trkpt>
      <trkpt lat="42.71287" lon="1.66374">
        <ele>1105.1728515625</ele>
        <time>2014-06-14T12:53:42Z</time>
      </trkpt>
      <trkpt lat="42.71285" lon="1.66378">
        <ele>1101.8083496094</ele>
        <time>2014-06-14T12:53:47Z</time>
      </trkpt>
      <trkpt lat="42.71286" lon="1.66385">
        <ele>1098.443359375</ele>
        <time>2014-06-14T12:53:52Z</time>
      </trkpt>
      <trkpt lat="42.71284" lon="1.66386">
        <ele>1099.4047851562</ele>
        <time>2014-06-14T12:53:58Z</time>
      </trkpt>
      <trkpt lat="42.71284" lon="1.66386">
        <ele>1106.1340332031</ele>
        <time>2014-06-14T12:54:01Z</time>
      </trkpt>
      <trkpt lat="42.71288" lon="1.66383">
        <ele>1107.0954589844</ele>
        <time>2014-06-14T12:54:08Z</time>
      </trkpt>
      <trkpt lat="42.71289" lon="1.66381">
        <ele>1110.4599609375</ele>
        <time>2014-06-14T12:54:12Z</time>
      </trkpt>
      <trkpt lat="42.71292" lon="1.6638">
        <ele>1112.86328125</ele>
        <time>2014-06-14T12:54:16Z</time>
      </trkpt>
      <trkpt lat="42.71294" lon="1.66382">
        <ele>1120.5539550781</ele>
        <time>2014-06-14T12:54:21Z</time>
      </trkpt>
      <trkpt lat="42.71292" lon="1.66384">
        <ele>1125.3603515625</ele>
        <time>2014-06-14T12:54:23Z</time>
      </trkpt>
      <trkpt lat="42.71288" lon="1.66388">
        <ele>1130.6477050781</ele>
        <time>2014-06-14T12:54:26Z</time>
      </trkpt>
      <trkpt lat="42.7128" lon="1.66398">
        <ele>1142.6643066406</ele>
        <time>2014-06-14T12:54:33Z</time>
      </trkpt>
      <trkpt lat="42.71279" lon="1.66407">
        <ele>1153.7194824219</ele>
        <time>2014-06-14T12:54:40Z</time>
      </trkpt>
      <trkpt lat="42.71274" lon="1.66413">
        <ele>1158.0454101562</ele>
        <time>2014-06-14T12:54:45Z</time>
      </trkpt>
      <trkpt lat="42.71268" lon="1.66419">
        <ele>1159.9677734375</ele>
        <time>2014-06-14T12:54:52Z</time>
      </trkpt>
      <trkpt lat="42.71268" lon="1.66427">
        <ele>1153.7194824219</ele>
        <time>2014-06-14T12:54:58Z</time>
      </trkpt>
      <trkpt lat="42.71272" lon="1.6643">
        <ele>1153.2387695312</ele>
        <time>2014-06-14T12:55:02Z</time>
      </trkpt>
      <trkpt lat="42.71284" lon="1.6643">
        <ele>1152.7580566406</ele>
        <time>2014-06-14T12:55:17Z</time>
      </trkpt>
      <trkpt lat="42.71292" lon="1.66427">
        <ele>1146.9899902344</ele>
        <time>2014-06-14T12:55:23Z</time>
      </trkpt>
      <trkpt lat="42.71295" lon="1.66429">
        <ele>1141.2221679688</ele>
        <time>2014-06-14T12:55:31Z</time>
      </trkpt>
      <trkpt lat="42.71296" lon="1.66428">
        <ele>1140.7414550781</ele>
        <time>2014-06-14T12:55:32Z</time>
      </trkpt>
      <trkpt lat="42.71299" lon="1.66436">
        <ele>1128.2443847656</ele>
        <time>2014-06-14T12:55:40Z</time>
      </trkpt>
      <trkpt lat="42.713" lon="1.66434">
        <ele>1119.5927734375</ele>
        <time>2014-06-14T12:55:46Z</time>
      </trkpt>
      <trkpt lat="42.713" lon="1.66429">
        <ele>1118.1506347656</ele>
        <time>2014-06-14T12:55:50Z</time>
      </trkpt>
      <trkpt lat="42.71303" lon="1.66424">
        <ele>1114.3051757812</ele>
        <time>2014-06-14T12:55:55Z</time>
      </trkpt>
      <trkpt lat="42.71309" lon="1.66424">
        <ele>1110.9406738281</ele>
        <time>2014-06-14T12:56:02Z</time>
      </trkpt>
      <trkpt lat="42.71316" lon="1.66425">
        <ele>1094.5981445312</ele>
        <time>2014-06-14T12:56:17Z</time>
      </trkpt>
      <trkpt lat="42.71322" lon="1.66427">
        <ele>1090.7529296875</ele>
        <time>2014-06-14T12:56:22Z</time>
      </trkpt>
      <trkpt lat="42.71327" lon="1.66431">
        <ele>1085.9465332031</ele>
        <time>2014-06-14T12:56:27Z</time>
      </trkpt>
      <trkpt lat="42.71328" lon="1.66428">
        <ele>1083.54296875</ele>
        <time>2014-06-14T12:56:32Z</time>
      </trkpt>
      <trkpt lat="42.71333" lon="1.66424">
        <ele>1080.6591796875</ele>
        <time>2014-06-14T12:56:39Z</time>
      </trkpt>
      <trkpt lat="42.71336" lon="1.66419">
        <ele>1077.7751464844</ele>
        <time>2014-06-14T12:56:45Z</time>
      </trkpt>
      <trkpt lat="42.71339" lon="1.66414">
        <ele>1075.8525390625</ele>
        <time>2014-06-14T12:56:50Z</time>
      </trkpt>
      <trkpt lat="42.71342" lon="1.6641">
        <ele>1072.96875</ele>
        <time>2014-06-14T12:56:54Z</time>
      </trkpt>
      <trkpt lat="42.71344" lon="1.66406">
        <ele>1072.0073242188</ele>
        <time>2014-06-14T12:56:58Z</time>
      </trkpt>
      <trkpt lat="42.71345" lon="1.66405">
        <ele>1072.0073242188</ele>
        <time>2014-06-14T12:56:59Z</time>
      </trkpt>
      <trkpt lat="42.71349" lon="1.66398">
        <ele>1073.4494628906</ele>
        <time>2014-06-14T12:57:05Z</time>
      </trkpt>
      <trkpt lat="42.7135" lon="1.66394">
        <ele>1075.3718261719</ele>
        <time>2014-06-14T12:57:09Z</time>
      </trkpt>
      <trkpt lat="42.71355" lon="1.6639">
        <ele>1075.8525390625</ele>
        <time>2014-06-14T12:57:13Z</time>
      </trkpt>
      <trkpt lat="42.71352" lon="1.66386">
        <ele>1092.1950683594</ele>
        <time>2014-06-14T12:57:17Z</time>
      </trkpt>
      <trkpt lat="42.71352" lon="1.66384">
        <ele>1102.2888183594</ele>
        <time>2014-06-14T12:57:23Z</time>
      </trkpt>
      <trkpt lat="42.7136" lon="1.66387">
        <ele>1097.0014648438</ele>
        <time>2014-06-14T12:57:37Z</time>
      </trkpt>
      <trkpt lat="42.71369" lon="1.6639">
        <ele>1090.2724609375</ele>
        <time>2014-06-14T12:57:42Z</time>
      </trkpt>
      <trkpt lat="42.71376" lon="1.66393">
        <ele>1078.7365722656</ele>
        <time>2014-06-14T12:57:48Z</time>
      </trkpt>
      <trkpt lat="42.71385" lon="1.664">
        <ele>1073.4494628906</ele>
        <time>2014-06-14T12:57:54Z</time>
      </trkpt>
      <trkpt lat="42.7139" lon="1.66402">
        <ele>1072.0073242188</ele>
        <time>2014-06-14T12:57:59Z</time>
      </trkpt>
      <trkpt lat="42.71396" lon="1.66405">
        <ele>1068.6428222656</ele>
        <time>2014-06-14T12:58:05Z</time>
      </trkpt>
      <trkpt lat="42.71405" lon="1.66405">
        <ele>1068.6428222656</ele>
        <time>2014-06-14T12:58:13Z</time>
      </trkpt>
      <trkpt lat="42.71411" lon="1.66409">
        <ele>1068.6428222656</ele>
        <time>2014-06-14T12:58:18Z</time>
      </trkpt>
      <trkpt lat="42.7142" lon="1.66415">
        <ele>1065.7587890625</ele>
        <time>2014-06-14T12:58:28Z</time>
      </trkpt>
      <trkpt lat="42.71428" lon="1.66415">
        <ele>1058.068359375</ele>
        <time>2014-06-14T12:58:35Z</time>
      </trkpt>
      <trkpt lat="42.71425" lon="1.66424">
        <ele>1061.9135742188</ele>
        <time>2014-06-14T12:58:40Z</time>
      </trkpt>
      <trkpt lat="42.71424" lon="1.66427">
        <ele>1062.3940429688</ele>
        <time>2014-06-14T12:58:42Z</time>
      </trkpt>
      <trkpt lat="42.71423" lon="1.66433">
        <ele>1063.35546875</ele>
        <time>2014-06-14T12:58:45Z</time>
      </trkpt>
      <trkpt lat="42.7142" lon="1.66444">
        <ele>1064.7973632812</ele>
        <time>2014-06-14T12:58:52Z</time>
      </trkpt>
      <trkpt lat="42.71418" lon="1.6645">
        <ele>1064.3166503906</ele>
        <time>2014-06-14T12:58:57Z</time>
      </trkpt>
      <trkpt lat="42.71416" lon="1.66454">
        <ele>1070.0847167969</ele>
        <time>2014-06-14T12:59:01Z</time>
      </trkpt>
      <trkpt lat="42.71416" lon="1.66458">
        <ele>1071.0461425781</ele>
        <time>2014-06-14T12:59:03Z</time>
      </trkpt>
      <trkpt lat="42.71415" lon="1.66467">
        <ele>1072.0073242188</ele>
        <time>2014-06-14T12:59:10Z</time>
      </trkpt>
      <trkpt lat="42.71413" lon="1.66473">
        <ele>1076.3332519531</ele>
        <time>2014-06-14T12:59:15Z</time>
      </trkpt>
      <trkpt lat="42.71413" lon="1.66477">
        <ele>1085.9465332031</ele>
        <time>2014-06-14T12:59:19Z</time>
      </trkpt>
      <trkpt lat="42.71409" lon="1.66483">
        <ele>1094.1176757812</ele>
        <time>2014-06-14T12:59:23Z</time>
      </trkpt>
      <trkpt lat="42.7141" lon="1.66491">
        <ele>1094.1176757812</ele>
        <time>2014-06-14T12:59:28Z</time>
      </trkpt>
      <trkpt lat="42.71415" lon="1.66502">
        <ele>1089.3110351562</ele>
        <time>2014-06-14T12:59:36Z</time>
      </trkpt>
      <trkpt lat="42.71424" lon="1.6651">
        <ele>1080.1784667969</ele>
        <time>2014-06-14T12:59:44Z</time>
      </trkpt>
      <trkpt lat="42.71428" lon="1.66514">
        <ele>1077.7751464844</ele>
        <time>2014-06-14T12:59:47Z</time>
      </trkpt>
      <trkpt lat="42.71432" lon="1.66519">
        <ele>1074.8913574219</ele>
        <time>2014-06-14T12:59:51Z</time>
      </trkpt>
      <trkpt lat="42.71439" lon="1.6653">
        <ele>1070.5654296875</ele>
        <time>2014-06-14T12:59:59Z</time>
      </trkpt>
      <trkpt lat="42.71445" lon="1.66537">
        <ele>1066.7199707031</ele>
        <time>2014-06-14T13:00:06Z</time>
      </trkpt>
      <trkpt lat="42.71448" lon="1.66545">
        <ele>1064.7973632812</ele>
        <time>2014-06-14T13:00:12Z</time>
      </trkpt>
      <trkpt lat="42.71453" lon="1.66547">
        <ele>1062.3940429688</ele>
        <time>2014-06-14T13:00:16Z</time>
      </trkpt>
      <trkpt lat="42.71457" lon="1.66548">
        <ele>1061.4328613281</ele>
        <time>2014-06-14T13:00:19Z</time>
      </trkpt>
      <trkpt lat="42.71466" lon="1.66548">
        <ele>1058.068359375</ele>
        <time>2014-06-14T13:00:25Z</time>
      </trkpt>
      <trkpt lat="42.71473" lon="1.66546">
        <ele>1055.6650390625</ele>
        <time>2014-06-14T13:00:31Z</time>
      </trkpt>
      <trkpt lat="42.71482" lon="1.66548">
        <ele>1052.7810058594</ele>
        <time>2014-06-14T13:00:41Z</time>
      </trkpt>
      <trkpt lat="42.71489" lon="1.6655">
        <ele>1050.8581542969</ele>
        <time>2014-06-14T13:00:45Z</time>
      </trkpt>
      <trkpt lat="42.71492" lon="1.66554">
        <ele>1049.8969726562</ele>
        <time>2014-06-14T13:00:48Z</time>
      </trkpt>
      <trkpt lat="42.71494" lon="1.66555">
        <ele>1047.9743652344</ele>
        <time>2014-06-14T13:00:56Z</time>
      </trkpt>
      <trkpt lat="42.71488" lon="1.66557">
        <ele>1054.2231445312</ele>
        <time>2014-06-14T13:01:16Z</time>
      </trkpt>
      <trkpt lat="42.71488" lon="1.66556">
        <ele>1056.6262207031</ele>
        <time>2014-06-14T13:01:19Z</time>
      </trkpt>
    </trkseg>
  </trk>
</gpx>